# Wetter Temperatur Luftdruck Luftfeuchtigkeit Sichtweite Windgeschwindigkeit Windrichtung Zeit
1 Clouds 15 1029 77 10000 3.1 60 22:25 24.01.2020
2 Clouds 16 1029 72 10000 3.1 70 21:56 24.01.2020
3 Clouds 16 1029 72 10000 3.1 70 21:37 24.01.2020
4 Clouds 16 1029 72 10000 3.1 70 21:18 24.01.2020
5 Clouds 16 1029 72 10000 3.1 70 20:42 24.01.2020
6 Clouds 17 1028 67 10000 5.1 70 20:21 24.01.2020
7 Clouds 17 1028 67 10000 5.1 70 19:57 24.01.2020
8 Clouds 17 1028 67 10000 5.1 70 19:39 24.01.2020
9 Clouds 17 1028 67 10000 5.1 70 19:21 24.01.2020
10 Clouds 18 1027 63 10000 5.1 70 18:43 24.01.2020
11 Clouds 18 1027 63 10000 5.1 70 18:43 24.01.2020
12 Clouds 18 1027 63 10000 5.1 70 18:24 24.01.2020
13 Rain 13 1018 84 0 2.99 65 17:56 24.01.2020
14 Clouds 21 1026 43 10000 5.1 150 17:38 24.01.2020
15 Clouds 21 1026 43 10000 5.1 150 17:18 24.01.2020
16 Clouds 21 1026 43 10000 5.1 150 16:39 24.01.2020
17 Clouds 21 1026 43 10000 5.1 150 16:21 24.01.2020
18 Clouds 17 1014 61 0 5.9 96 15:43 24.01.2020
19 Clouds 23 1025 35 10000 4.1 220 15:23 24.01.2020
20 Clouds 23 1025 35 10000 4.1 220 14:59 24.01.2020
21 Clouds 23 1025 35 10000 4.1 220 14:40 24.01.2020
22 Clouds 23 1025 35 10000 4.1 220 14:22 24.01.2020
23 Rain 20 1012 47 0 3.83 130 13:43 24.01.2020
24 Rain 20 1013 44 0 3.21 134 13:23 24.01.2020
25 Rain 20 1013 44 0 3.21 134 12:45 24.01.2020
26 Rain 20 1013 44 0 3.21 134 12:45 24.01.2020
27 Rain 20 1013 44 0 3.21 134 12:23 24.01.2020
28 Rain 20 1013 44 0 3.21 134 11:57 24.01.2020
29 Rain 20 1013 44 0 3.21 134 11:39 24.01.2020
30 Clouds 20 1028 49 10000 2.6 180 11:18 24.01.2020
31 Clouds 20 1028 49 10000 2.6 180 10:42 24.01.2020
32 Clouds 20 1028 49 10000 2.6 180 10:42 24.01.2020
33 Clouds 20 1028 49 10000 2.6 180 10:42 24.01.2020
34 Rain 18 1016 57 0 3.16 155 10:21 24.01.2020
35 Rain 18 1016 57 0 3.16 155 09:55 24.01.2020
36 Rain 18 1016 57 0 3.16 155 09:37 24.01.2020
37 Clouds 17 1029 63 10000 3.6 100 09:18 24.01.2020
38 Clouds 17 1029 63 10000 3.6 100 08:39 24.01.2020
39 Clouds 15 1029 72 10000 4.1 80 08:19 24.01.2020
40 Clouds 15 1029 72 10000 4.1 80 07:48 24.01.2020
41 Clouds 14 1029 76 10000 3.1 60 07:22 24.01.2020
42 Clouds 14 1029 76 10000 3.1 60 06:45 24.01.2020
43 Clouds 14 1029 76 10000 3.1 60 06:24 24.01.2020
44 Clouds 14 1019 78 0 3.57 90 05:37 24.01.2020
45 Rain 11 1017 95 0 2.45 67 03:47 24.01.2020
46 Rain 11 1017 95 0 2.45 67 02:41 24.01.2020
47 Rain 11 1016 93 0 2.96 67 02:22 24.01.2020
48 Rain 11 1016 93 0 2.96 67 01:39 24.01.2020
49 Rain 12 1016 89 0 2.45 65 00:52 24.01.2020
50 Clouds 15 1027 72 10000 5.1 70 00:19 24.01.2020
51 Clouds 15 1027 72 10000 5.1 70 23:42 23.01.2020
52 Clouds 15 1027 72 10000 5.1 70 23:23 23.01.2020
53 Rain 13 1017 81 0 3.89 80 22:59 23.01.2020
54 Rain 13 1017 81 0 3.89 80 22:37 23.01.2020
55 Rain 13 1017 81 0 3.89 80 22:18 23.01.2020
56 Rain 13 1017 81 0 3.89 80 21:55 23.01.2020
57 Rain 13 1017 81 0 3.89 80 21:37 23.01.2020
58 Rain 13 1017 81 0 3.89 80 21:19 23.01.2020
59 Rain 13 1017 81 0 3.89 80 20:55 23.01.2020
60 Rain 13 1017 81 0 3.89 80 20:37 23.01.2020
61 Rain 14 1017 74 0 2.11 82 20:18 23.01.2020
62 Rain 14 1017 74 0 2.11 82 19:44 23.01.2020
63 Rain 14 1017 74 0 2.11 82 19:23 23.01.2020
64 Rain 14 1017 74 0 2.11 82 18:58 23.01.2020
65 Rain 14 1017 74 0 2.11 82 18:39 23.01.2020
66 Rain 14 1017 74 0 2.11 82 18:20 23.01.2020
67 Rain 14 1017 74 0 2.11 82 17:56 23.01.2020
68 Rain 14 1017 74 0 2.11 82 17:37 23.01.2020
69 Clouds 21 1024 40 10000 4.6 150 17:18 23.01.2020
70 Clouds 21 1024 40 10000 4.6 150 16:39 23.01.2020
71 Clouds 21 1024 40 10000 4.6 150 16:39 23.01.2020
72 Clouds 23 1024 35 10000 3.6 170 16:20 23.01.2020
73 Clouds 23 1024 35 10000 3.6 170 16:20 23.01.2020
74 Rain 17 1013 54 0 4.08 119 15:58 23.01.2020
75 Rain 17 1013 54 0 4.08 119 15:39 23.01.2020
76 Clouds 23 1024 35 10000 4.1 190 15:19 23.01.2020
77 Clouds 23 1024 35 10000 4.1 190 14:58 23.01.2020
78 Clouds 23 1024 35 10000 4.1 190 14:40 23.01.2020
79 Clouds 23 1024 35 10000 4.1 190 14:22 23.01.2020
80 Clouds 21 1024 40 10000 3.1 180 13:55 23.01.2020
81 Clouds 21 1024 40 10000 3.1 180 13:37 23.01.2020
82 Clouds 22 1025 37 10000 3.1 150 13:18 23.01.2020
83 Clouds 22 1025 37 10000 3.1 150 12:42 23.01.2020
84 Clouds 22 1025 37 10000 3.1 150 12:24 23.01.2020
85 Clouds 21 1025 43 10000 3.1 130 11:56 23.01.2020
86 Clouds 21 1025 43 10000 3.1 130 11:37 23.01.2020
87 Clouds 21 1025 43 10000 3.1 130 11:37 23.01.2020
88 Clouds 20 1026 49 10000 4.1 150 11:18 23.01.2020
89 Clouds 20 1026 49 10000 4.1 150 10:42 23.01.2020
90 Clouds 20 1026 49 10000 4.1 150 10:19 23.01.2020
91 Clouds 17 1027 59 10000 4.1 120 09:42 23.01.2020
92 Clouds 17 1027 59 10000 4.1 120 09:24 23.01.2020
93 Clouds 16 1028 63 10000 5.1 70 08:58 23.01.2020
94 Clouds 16 1028 63 10000 5.1 70 08:40 23.01.2020
95 Clouds 16 1028 63 10000 5.1 70 08:21 23.01.2020
96 Clouds 14 1028 71 10000 5.7 80 07:44 23.01.2020
97 Clouds 14 1028 71 10000 5.7 80 07:24 23.01.2020
98 Clouds 13 1027 71 10000 2.1 310 06:51 23.01.2020
99 Clouds 13 1027 71 10000 2.1 310 06:51 23.01.2020
100 Clouds 13 1027 71 10000 2.1 310 06:20 23.01.2020
101 Clouds 14 1017 70 0 2.26 97 05:37 23.01.2020
102 Clouds 12 1026 76 10000 2.1 110 04:24 23.01.2020
103 Rain 11 1016 88 0 1.28 56 02:33 23.01.2020
104 Clouds 12 1015 77 0 1.64 95 00:58 23.01.2020
105 Clouds 12 1015 77 0 1.64 95 00:27 23.01.2020
106 Clouds 12 1015 77 0 1.64 95 23:47 22.01.2020
107 Clouds 12 1015 77 0 1.64 95 23:29 22.01.2020
108 Clear 11 1015 89 0 2.45 56 22:58 22.01.2020
109 Clear 11 1015 89 0 2.45 56 22:39 22.01.2020
110 Clear 11 1015 89 0 2.45 56 22:21 22.01.2020
111 Clear 11 1015 89 0 2.45 56 21:40 22.01.2020
112 Clear 11 1015 89 0 2.45 56 21:22 22.01.2020
113 Clear 11 1015 89 0 2.45 56 20:57 22.01.2020
114 Clear 11 1015 89 0 2.45 56 20:37 22.01.2020
115 Clouds 13 1014 78 0 2.87 62 20:19 22.01.2020
116 Clouds 13 1014 76 0 2.69 61 19:56 22.01.2020
117 Clouds 13 1014 76 0 2.69 61 19:37 22.01.2020
118 Clouds 18 1025 48 0 3.1 110 19:18 22.01.2020
119 Clouds 18 1025 48 0 3.1 110 18:56 22.01.2020
120 Clouds 18 1025 48 0 3.1 110 18:37 22.01.2020
121 Clouds 18 1025 48 0 3.1 110 18:19 22.01.2020
122 Clouds 13 1014 76 0 2.69 61 17:40 22.01.2020
123 Clouds 22 1023 37 10000 3.1 130 17:21 22.01.2020
124 Clouds 22 1023 37 10000 3.1 130 16:58 22.01.2020
125 Clouds 22 1023 37 10000 3.1 130 16:58 22.01.2020
126 Clouds 22 1023 37 10000 3.1 130 16:39 22.01.2020
127 Clouds 22 1023 37 10000 3.1 130 16:21 22.01.2020
128 Clouds 23 1023 31 10000 3.1 180 15:56 22.01.2020
129 Clouds 23 1023 31 10000 3.1 180 15:38 22.01.2020
130 Clouds 23 1023 31 10000 3.1 180 15:19 22.01.2020
131 Clouds 23 1023 31 10000 4.1 200 14:39 22.01.2020
132 Clouds 23 1023 31 10000 4.1 200 14:20 22.01.2020
133 Clouds 22 1023 35 10000 6.2 200 13:58 22.01.2020
134 Clouds 22 1023 35 10000 6.2 200 13:38 22.01.2020
135 Clouds 22 1023 35 10000 6.2 200 13:19 22.01.2020
136 Clouds 22 1024 37 10000 4.1 120 12:57 22.01.2020
137 Clouds 22 1024 37 10000 4.1 120 12:39 22.01.2020
138 Clouds 22 1024 37 10000 4.1 120 12:19 22.01.2020
139 Clouds 21 1025 43 10000 4.1 150 11:58 22.01.2020
140 Clouds 21 1025 43 10000 4.1 150 11:39 22.01.2020
141 Clouds 21 1025 43 10000 4.1 150 11:19 22.01.2020
142 Clouds 19 1027 48 10000 3.1 130 10:46 22.01.2020
143 Clouds 19 1027 48 10000 3.1 130 10:21 22.01.2020
144 Clouds 18 1027 48 0 3.1 180 09:59 22.01.2020
145 Clouds 18 1027 48 0 3.1 180 09:40 22.01.2020
146 Clouds 18 1027 48 0 3.1 180 09:22 22.01.2020
147 Clouds 17 1027 55 10000 4.1 120 08:56 22.01.2020
148 Clouds 17 1027 55 10000 4.1 120 08:37 22.01.2020
149 Clouds 17 1027 55 10000 4.1 120 08:19 22.01.2020
150 Clouds 15 1027 62 10000 4.1 100 07:44 22.01.2020
151 Clouds 15 1027 62 10000 4.1 100 07:26 22.01.2020
152 Clouds 12 1027 66 10000 1 70 06:36 22.01.2020
153 Clouds 9 1026 76 10000 2.1 350 05:57 22.01.2020
154 Clear 9 1017 80 0 1.51 30 04:27 22.01.2020
155 Clear 12 1025 71 0 4.1 50 03:27 22.01.2020
156 Clear 12 1025 71 0 4.1 50 02:48 22.01.2020
157 Clouds 13 1025 66 0 5.7 60 00:47 22.01.2020
158 Clouds 13 1025 66 0 5.7 60 00:28 22.01.2020
159 Clouds 13 1026 71 0 6.2 60 23:59 21.01.2020
160 Clouds 13 1026 71 0 6.2 60 23:37 21.01.2020
161 Clouds 13 1026 71 0 6.2 60 23:19 21.01.2020
162 Clouds 13 1026 71 0 6.2 60 22:41 21.01.2020
163 Clouds 13 1026 71 0 6.2 60 22:23 21.01.2020
164 Clouds 13 1027 66 0 5.7 70 21:58 21.01.2020
165 Clouds 13 1027 66 0 5.7 70 21:39 21.01.2020
166 Clouds 13 1027 66 0 5.7 70 21:20 21.01.2020
167 Clouds 15 1027 58 0 1.11 42 20:57 21.01.2020
168 Clouds 15 1027 58 0 1.11 42 20:39 21.01.2020
169 Clouds 15 1027 58 0 2.79 59 20:20 21.01.2020
170 Clouds 15 1026 58 0 5.1 70 19:58 21.01.2020
171 Clouds 15 1026 58 0 5.1 70 19:39 21.01.2020
172 Clouds 15 1026 58 0 5.1 70 19:20 21.01.2020
173 Clouds 16 1026 55 0 5.7 60 18:56 21.01.2020
174 Clouds 16 1026 55 0 5.7 60 18:38 21.01.2020
175 Clouds 16 1026 55 0 5.7 60 18:20 21.01.2020
176 Clouds 19 1025 37 10000 5.1 120 17:45 21.01.2020
177 Clouds 19 1025 37 10000 5.1 120 17:21 21.01.2020
178 Clouds 22 1024 24 10000 5.1 150 16:59 21.01.2020
179 Clouds 22 1024 24 10000 5.1 150 16:59 21.01.2020
180 Clouds 22 1024 24 10000 5.1 150 16:37 21.01.2020
181 Clouds 22 1024 24 10000 5.1 150 16:19 21.01.2020
182 Clouds 18 1011 47 0 5.2 107 15:56 21.01.2020
183 Clouds 18 1011 47 0 5.2 107 15:37 21.01.2020
184 Clouds 23 1023 28 10000 3.1 130 15:18 21.01.2020
185 Clouds 23 1023 28 10000 3.1 130 14:38 21.01.2020
186 Clouds 23 1023 28 10000 3.1 130 14:20 21.01.2020
187 Clouds 23 1024 31 10000 5.1 140 13:41 21.01.2020
188 Clouds 23 1024 31 10000 5.1 140 13:19 21.01.2020
189 Clouds 23 1025 35 10000 4.6 130 12:56 21.01.2020
190 Clouds 23 1025 35 10000 4.6 130 12:38 21.01.2020
191 Clouds 23 1025 35 10000 4.6 130 12:19 21.01.2020
192 Clouds 21 1026 40 10000 4.1 150 11:40 21.01.2020
193 Clouds 21 1026 40 10000 4.1 150 11:21 21.01.2020
194 Clouds 20 1027 42 10000 4.6 200 10:57 21.01.2020
195 Clouds 20 1027 42 10000 4.6 200 10:57 21.01.2020
196 Clouds 20 1027 42 10000 4.6 200 10:57 21.01.2020
197 Clouds 20 1027 42 10000 4.6 200 10:57 21.01.2020
198 Clouds 20 1027 42 10000 4.6 200 10:39 21.01.2020
199 Clouds 20 1027 42 10000 4.6 200 10:20 21.01.2020
200 Clouds 18 1028 52 10000 4.1 160 09:42 21.01.2020
201 Clouds 18 1028 52 10000 4.1 160 09:23 21.01.2020
202 Clouds 16 1028 59 10000 1 130 08:50 21.01.2020
203 Clouds 16 1028 59 10000 1 130 08:32 21.01.2020
204 Clouds 14 1028 67 10000 1 100 08:00 21.01.2020
205 Clouds 14 1028 67 10000 1 100 07:40 21.01.2020
206 Clouds 14 1028 67 10000 1 100 07:22 21.01.2020
207 Clouds 11 1027 81 10000 1 350 06:49 21.01.2020
208 Clouds 11 1027 81 10000 1 350 06:29 21.01.2020
209 Clouds 11 1027 81 10000 1 350 06:29 21.01.2020
210 Clouds 11 1027 81 10000 1 350 06:29 21.01.2020
211 Clouds 9 1027 87 10000 2.6 40 05:42 21.01.2020
212 Clouds 10 1026 81 10000 1 30 04:40 21.01.2020
213 Clouds 10 1026 81 10000 1 350 02:57 21.01.2020
214 Clouds 10 1026 87 10000 0.95 346 01:55 21.01.2020
215 Clouds 10 1026 87 10000 0.83 314 01:18 21.01.2020
216 Clouds 11 1027 76 10000 1.5 80 00:37 21.01.2020
217 Clear 9 1017 80 0 0.83 314 23:59 20.01.2020
218 Clear 9 1017 80 0 0.83 314 23:39 20.01.2020
219 Clear 9 1017 80 0 0.83 314 23:39 20.01.2020
220 Clouds 13 1029 71 10000 4.1 70 23:19 20.01.2020
221 Clouds 13 1029 71 10000 4.1 70 22:56 20.01.2020
222 Clouds 13 1029 71 10000 4.1 70 22:37 20.01.2020
223 Clouds 13 1029 71 10000 4.1 70 22:19 20.01.2020
224 Clouds 14 1029 67 10000 3.6 60 21:57 20.01.2020
225 Clouds 14 1029 67 10000 3.6 60 21:37 20.01.2020
226 Clouds 14 1029 67 10000 3.6 60 21:19 20.01.2020
227 Clear 11 1018 75 0 1.16 53 20:55 20.01.2020
228 Clear 11 1018 75 0 1.16 53 20:36 20.01.2020
229 Clouds 12 1017 67 0 2.69 53 20:18 20.01.2020
230 Clouds 12 1017 67 0 2.69 53 19:56 20.01.2020
231 Clouds 12 1017 67 0 2.69 53 19:37 20.01.2020
232 Clouds 12 1017 67 0 2.69 53 19:18 20.01.2020
233 Clouds 12 1017 67 0 2.69 53 18:43 20.01.2020
234 Clouds 12 1017 67 0 2.69 53 18:22 20.01.2020
235 Clouds 12 1017 67 0 2.69 53 17:41 20.01.2020
236 Clouds 16 1013 56 0 5.15 103 17:19 20.01.2020
237 Clouds 16 1013 56 0 5.15 103 16:58 20.01.2020
238 Clouds 16 1013 56 0 5.15 103 16:37 20.01.2020
239 Clouds 21 1025 40 0 5.7 160 16:18 20.01.2020
240 Clouds 21 1025 40 0 5.7 160 16:18 20.01.2020
241 Clouds 21 1025 40 0 5.7 160 15:54 20.01.2020
242 Clouds 21 1025 40 0 5.7 160 15:36 20.01.2020
243 Clouds 21 1025 40 0 5.7 160 15:18 20.01.2020
244 Clouds 22 1025 35 0 3.6 160 14:41 20.01.2020
245 Clouds 22 1025 35 0 3.6 160 14:22 20.01.2020
246 Clouds 22 1026 35 0 4.1 140 13:57 20.01.2020
247 Clouds 22 1026 35 0 4.1 140 13:39 20.01.2020
248 Clouds 22 1026 35 0 4.1 140 13:20 20.01.2020
249 Clouds 22 1027 35 0 3.1 130 12:45 20.01.2020
250 Clouds 22 1027 35 0 3.1 130 12:26 20.01.2020
251 Clouds 20 1027 40 0 4.6 180 11:57 20.01.2020
252 Clouds 20 1027 40 0 4.6 180 11:38 20.01.2020
253 Clouds 20 1027 40 0 4.6 180 11:19 20.01.2020
254 Clouds 19 1028 39 0 4.1 190 10:47 20.01.2020
255 Clouds 19 1028 39 0 4.1 190 10:21 20.01.2020
256 Clouds 19 1028 39 0 4.1 190 10:21 20.01.2020
257 Clouds 19 1029 39 0 2.6 140 09:42 20.01.2020
258 Clouds 19 1029 39 0 2.6 140 09:24 20.01.2020
259 Clouds 16 1030 51 0 2.6 90 08:59 20.01.2020
260 Clouds 16 1030 51 0 2.6 90 08:39 20.01.2020
261 Clouds 16 1030 51 0 2.6 90 08:20 20.01.2020
262 Clouds 14 1029 54 0 4.1 80 07:42 20.01.2020
263 Clouds 14 1029 54 0 4.1 80 07:22 20.01.2020
264 Clouds 12 1029 62 0 3.1 70 06:44 20.01.2020
265 Clouds 12 1029 62 0 3.1 70 06:24 20.01.2020
266 Clouds 14 1019 49 0 2.04 78 05:41 20.01.2020
267 Clouds 9 1027 76 10000 1 340 05:20 20.01.2020
268 Clouds 9 1027 76 10000 1 340 04:24 20.01.2020
269 Clouds 9 1018 67 0 1.7 47 02:33 20.01.2020
270 Clouds 11 1026 66 0 2.1 40 01:40 20.01.2020
271 Clouds 11 1026 66 0 2.1 40 01:20 20.01.2020
272 Clouds 11 1027 66 0 2.1 50 00:43 20.01.2020
273 Clouds 12 1027 66 0 1.36 37 00:21 20.01.2020
274 Clouds 12 1027 66 0 1.36 37 23:38 19.01.2020
275 Clear 11 1018 55 0 1.05 20 23:19 19.01.2020
276 Clear 11 1018 55 0 1.05 20 22:56 19.01.2020
277 Clear 11 1018 55 0 1.05 20 22:37 19.01.2020
278 Clear 13 1028 62 0 5.1 70 22:19 19.01.2020
279 Clear 13 1028 62 0 5.1 70 21:56 19.01.2020
280 Clear 13 1028 62 0 5.1 70 21:38 19.01.2020
281 Clear 13 1028 62 0 5.1 70 21:38 19.01.2020
282 Clear 14 1028 58 0 5.1 70 21:19 19.01.2020
283 Clear 14 1028 58 0 5.1 70 20:57 19.01.2020
284 Clear 14 1028 58 0 5.1 70 20:38 19.01.2020
285 Clear 15 1028 54 10000 5.1 70 20:20 19.01.2020
286 Clear 13 1017 50 0 2.81 51 19:55 19.01.2020
287 Clear 13 1017 50 0 2.81 51 19:37 19.01.2020
288 Clear 13 1017 50 0 2.81 51 19:37 19.01.2020
289 Clear 13 1017 50 0 2.81 51 19:19 19.01.2020
290 Clear 13 1017 50 0 2.81 51 19:19 19.01.2020
291 Clear 13 1017 50 0 2.81 51 18:55 19.01.2020
292 Clear 13 1017 50 0 2.81 51 18:37 19.01.2020
293 Clear 13 1017 50 0 2.81 51 18:37 19.01.2020
294 Clear 13 1017 50 0 2.81 51 18:19 19.01.2020
295 Clear 13 1017 50 0 2.81 51 17:57 19.01.2020
296 Clear 13 1017 50 0 2.81 51 17:57 19.01.2020
297 Clear 13 1017 50 0 2.81 51 17:38 19.01.2020
298 Clear 21 1025 32 0 5.1 150 17:20 19.01.2020
299 Clear 21 1025 32 0 5.1 150 16:57 19.01.2020
300 Clear 21 1025 32 0 5.1 150 16:37 19.01.2020
301 Clear 17 1013 40 0 5.35 101 16:19 19.01.2020
302 Clear 17 1013 40 0 5.35 101 15:57 19.01.2020
303 Clear 17 1013 40 0 5.35 101 15:37 19.01.2020
304 Clear 17 1013 40 0 5.35 101 15:19 19.01.2020
305 Clear 17 1013 40 0 5.35 101 14:57 19.01.2020
306 Clear 17 1013 40 0 5.35 101 14:37 19.01.2020
307 Clear 24 1012 21 0 5.07 135 14:18 19.01.2020
308 Clear 24 1012 21 0 5.07 135 13:54 19.01.2020
309 Clear 24 1012 21 0 5.07 135 13:36 19.01.2020
310 Clear 22 1026 24 0 4.1 160 13:18 19.01.2020
311 Clear 22 1026 24 0 4.1 160 12:42 19.01.2020
312 Clear 22 1026 24 0 4.1 160 12:23 19.01.2020
313 Clear 22 1026 26 0 3.6 180 11:57 19.01.2020
314 Clear 22 1026 26 0 3.6 180 11:39 19.01.2020
315 Clear 22 1026 26 0 3.6 180 11:19 19.01.2020
316 Clear 21 1027 28 0 2.1 180 10:55 19.01.2020
317 Clear 21 1027 28 0 2.1 180 10:37 19.01.2020
318 Clear 21 1027 28 0 2.1 180 10:18 19.01.2020
319 Clear 19 1028 32 0 2.1 150 09:41 19.01.2020
320 Clear 19 1028 32 0 2.1 150 09:23 19.01.2020
321 Clear 16 1028 48 0 2.1 160 08:57 19.01.2020
322 Clear 16 1028 48 0 2.1 160 08:38 19.01.2020
323 Clear 16 1028 48 0 2.1 160 08:20 19.01.2020
324 Clouds 15 1028 58 7000 2.1 110 07:40 19.01.2020
325 Clouds 15 1028 58 7000 2.1 110 07:21 19.01.2020
326 Clouds 16 1019 40 0 0.87 151 06:44 19.01.2020
327 Clouds 10 1027 76 10000 2.1 10 04:41 19.01.2020
328 Clouds 10 1025 76 10000 1.01 16 02:37 19.01.2020
329 Clouds 10 1025 76 10000 1.25 358 02:19 19.01.2020
330 Clouds 11 1026 71 10000 1.23 357 01:24 19.01.2020
331 Clouds 11 1026 71 10000 1.23 357 00:45 19.01.2020
332 Clouds 11 1026 71 10000 1.23 357 00:27 19.01.2020
333 Clouds 13 1026 66 10000 5.1 50 23:55 18.01.2020
334 Clouds 13 1026 66 10000 5.1 50 23:37 18.01.2020
335 Clouds 13 1026 66 10000 5.1 50 23:18 18.01.2020
336 Clouds 13 1027 66 10000 5.1 60 22:54 18.01.2020
337 Clouds 13 1027 66 10000 5.1 60 22:36 18.01.2020
338 Clouds 13 1027 66 10000 5.1 60 22:36 18.01.2020
339 Clouds 13 1027 66 10000 5.1 60 22:18 18.01.2020
340 Clouds 13 1028 66 10000 5.1 70 21:56 18.01.2020
341 Clouds 13 1028 66 10000 5.1 70 21:36 18.01.2020
342 Clouds 13 1028 66 10000 5.1 70 21:18 18.01.2020
343 Clouds 14 1028 62 10000 6.2 70 20:42 18.01.2020
344 Clouds 14 1028 62 10000 6.2 70 20:20 18.01.2020
345 Clear 15 1027 58 0 6.2 70 19:55 18.01.2020
346 Clear 15 1027 58 0 6.2 70 19:36 18.01.2020
347 Clear 15 1027 58 0 6.2 70 19:18 18.01.2020
348 Clouds 16 1027 51 10000 5.1 70 18:40 18.01.2020
349 Clouds 16 1027 51 10000 5.1 70 18:21 18.01.2020
350 Clouds 18 1026 42 10000 5.1 80 17:41 18.01.2020
351 Clouds 18 1026 42 10000 5.1 80 17:21 18.01.2020
352 Clouds 20 1025 37 10000 5.1 90 16:59 18.01.2020
353 Clouds 20 1025 37 10000 5.1 90 16:41 18.01.2020
354 Clouds 20 1025 37 10000 5.1 90 16:22 18.01.2020
355 Clouds 20 1025 37 10000 5.1 90 16:22 18.01.2020
356 Clouds 23 1024 28 10000 5.7 140 15:58 18.01.2020
357 Clouds 23 1024 28 10000 5.7 140 15:40 18.01.2020
358 Clouds 23 1024 28 10000 5.7 140 15:21 18.01.2020
359 Clouds 23 1024 28 10000 5.7 140 14:44 18.01.2020
360 Clouds 24 1024 27 10000 5.7 150 14:21 18.01.2020
361 Clouds 24 1025 27 10000 4.6 130 13:59 18.01.2020
362 Clouds 24 1025 27 10000 4.6 130 13:41 18.01.2020
363 Clouds 24 1025 27 10000 4.6 130 13:20 18.01.2020
364 Clouds 24 1025 27 10000 6.2 140 12:55 18.01.2020
365 Clouds 24 1025 27 10000 6.2 140 12:36 18.01.2020
366 Clouds 24 1025 27 10000 6.2 140 12:18 18.01.2020
367 Clouds 23 1025 27 10000 7.2 180 11:43 18.01.2020
368 Clouds 22 1027 30 10000 4.1 200 11:21 18.01.2020
369 Clouds 22 1027 30 10000 4.1 200 10:45 18.01.2020
370 Clouds 22 1027 30 10000 4.1 200 10:22 18.01.2020
371 Clouds 21 1027 30 10000 4.1 200 09:59 18.01.2020
372 Clouds 21 1027 30 10000 4.1 200 09:41 18.01.2020
373 Clouds 21 1027 30 10000 4.1 200 09:19 18.01.2020
374 Clouds 19 1028 34 10000 2.1 170 08:42 18.01.2020
375 Clouds 19 1028 34 10000 2.1 170 08:20 18.01.2020
376 Clouds 17 1028 39 10000 1 110 07:59 18.01.2020
377 Clouds 17 1028 39 10000 1 110 07:40 18.01.2020
378 Clouds 17 1028 39 10000 1 110 07:18 18.01.2020
379 Clouds 13 1027 58 10000 1 290 06:44 18.01.2020
380 Clear 16 1018 42 0 1.16 174 05:52 18.01.2020
381 Clouds 10 1025 71 10000 2.1 330 04:25 18.01.2020
382 Clouds 10 1025 71 10000 2.6 320 02:49 18.01.2020
383 Clouds 10 1025 71 10000 1 350 01:40 18.01.2020
384 Clouds 11 1025 66 10000 2.1 330 00:39 18.01.2020
385 Clouds 11 1025 66 10000 2.1 330 00:20 18.01.2020
386 Clouds 12 1026 66 10000 1 320 23:58 17.01.2020
387 Clouds 12 1026 66 10000 1 320 23:39 17.01.2020
388 Clouds 12 1026 66 10000 1 320 23:18 17.01.2020
389 Clouds 13 1027 58 10000 1.5 350 22:42 17.01.2020
390 Clouds 13 1027 58 10000 1.5 350 22:20 17.01.2020
391 Clouds 13 1027 58 10000 1.5 350 22:20 17.01.2020
392 Clouds 14 1027 58 10000 2.1 360 21:56 17.01.2020
393 Clouds 14 1027 58 10000 2.1 360 21:38 17.01.2020
394 Clouds 14 1027 58 10000 2.1 360 21:19 17.01.2020
395 Clouds 12 1017 64 0 1.13 48 20:43 17.01.2020
396 Clouds 16 1026 51 0 3.6 70 20:21 17.01.2020
397 Clouds 16 1026 51 0 3.6 70 19:58 17.01.2020
398 Clouds 16 1026 51 0 3.6 70 19:39 17.01.2020
399 Clouds 16 1026 51 0 3.6 70 19:20 17.01.2020
400 Clouds 17 1026 45 0 3.1 50 18:58 17.01.2020
401 Clouds 17 1026 45 0 3.1 50 18:40 17.01.2020
402 Clouds 17 1026 45 0 3.1 50 18:21 17.01.2020
403 Clouds 19 1026 37 0 5.1 80 17:40 17.01.2020
404 Clouds 19 1026 37 0 5.1 80 17:22 17.01.2020
405 Clouds 21 1025 37 0 5.1 100 16:57 17.01.2020
406 Clouds 21 1025 37 0 5.1 100 16:39 17.01.2020
407 Clouds 21 1025 37 0 5.1 100 16:19 17.01.2020
408 Clouds 24 1024 29 0 5.7 150 15:45 17.01.2020
409 Clouds 24 1024 29 0 5.7 150 15:26 17.01.2020
410 Clouds 24 1024 27 0 5.1 170 14:46 17.01.2020
411 Clouds 24 1024 27 0 5.1 170 14:27 17.01.2020
412 Clouds 24 1024 22 0 4.1 180 13:58 17.01.2020
413 Clouds 24 1024 22 0 4.1 180 13:58 17.01.2020
414 Clouds 24 1024 22 0 4.1 180 13:38 17.01.2020
415 Clouds 24 1024 22 0 4.1 180 13:19 17.01.2020
416 Clouds 26 1025 31 0 3.1 130 12:44 17.01.2020
417 Clouds 26 1025 31 0 3.1 130 12:22 17.01.2020
418 Clouds 25 1011 22 0 4.86 141 11:40 17.01.2020
419 Clouds 21 1027 40 0 3.1 210 11:19 17.01.2020
420 Clouds 21 1027 40 0 3.1 210 10:44 17.01.2020
421 -273 0 0 0 0 0 10:23 17.01.2020
422 Clouds 20 1029 37 0 4.1 190 09:58 17.01.2020
423 Clouds 20 1029 37 0 4.1 190 09:40 17.01.2020
424 Clouds 20 1029 37 0 4.1 190 09:20 17.01.2020
425 Clouds 18 1029 45 0 2.1 160 08:46 17.01.2020
426 Clouds 18 1029 45 0 2.1 160 08:25 17.01.2020
427 Clear 18 1029 45 0 2.1 160 08:25 17.01.2020
428 Haze 15 1029 51 9000 1 220 07:56 17.01.2020
429 Haze 15 1029 51 9000 1 220 07:56 17.01.2020
430 Haze 15 1029 51 9000 1 220 07:34 17.01.2020
431 Haze 11 1028 62 9000 1 20 06:59 17.01.2020
432 Haze 11 1028 62 9000 1 20 06:41 17.01.2020
433 Clear 10 1028 76 0 3.1 330 05:57 17.01.2020
434 Clear 9 1018 81 0 1.17 359 03:39 17.01.2020
435 Clear 9 1018 81 0 1.17 359 02:55 17.01.2020
436 Clouds 12 1027 66 0 3.1 340 01:48 17.01.2020
437 Clouds 10 1017 80 0 1.2 15 01:29 17.01.2020
438 Clouds 10 1017 80 0 1.2 15 00:55 17.01.2020
439 Clouds 13 1028 76 0 4.1 60 00:28 17.01.2020
440 Clouds 13 1028 76 0 4.1 60 23:46 16.01.2020
441 Clouds 13 1028 76 0 4.1 60 23:26 16.01.2020
442 Clouds 13 1028 71 0 4.1 80 22:58 16.01.2020
443 Clouds 13 1028 71 0 4.1 80 22:40 16.01.2020
444 Clouds 13 1028 71 0 4.1 80 22:21 16.01.2020
445 Clouds 13 1028 76 0 5.1 70 21:55 16.01.2020
446 Clouds 13 1028 76 0 5.1 70 21:37 16.01.2020
447 Clouds 13 1028 76 0 5.1 70 21:18 16.01.2020
448 Clouds 13 1028 76 0 5.1 70 21:18 16.01.2020
449 Clouds 14 1028 76 10000 6.2 70 20:56 16.01.2020
450 Clouds 14 1028 76 10000 6.2 70 20:36 16.01.2020
451 Clouds 14 1028 76 10000 6.2 70 20:18 16.01.2020
452 Clouds 14 1028 76 10000 6.2 70 20:18 16.01.2020
453 Clouds 15 1028 72 10000 6.2 70 19:41 16.01.2020
454 Clouds 15 1028 72 10000 6.2 70 19:23 16.01.2020
455 Clouds 18 1027 52 0 5.1 70 18:58 16.01.2020
456 Clouds 18 1027 52 0 5.1 70 18:39 16.01.2020
457 Clouds 18 1027 52 0 5.1 70 18:21 16.01.2020
458 Clouds 18 1027 52 0 5.1 70 17:59 16.01.2020
459 Clouds 18 1027 52 0 5.1 70 17:41 16.01.2020
460 Clouds 18 1027 52 0 5.1 70 17:41 16.01.2020
461 Clouds 21 1026 43 10000 4.1 140 17:21 16.01.2020
462 Clouds 21 1026 43 10000 4.1 140 16:56 16.01.2020
463 Clouds 21 1026 43 10000 4.1 140 16:36 16.01.2020
464 Clouds 17 1013 59 0 4.75 100 16:18 16.01.2020
465 Clouds 17 1013 59 0 4.75 100 15:42 16.01.2020
466 Clouds 23 1025 31 10000 4.1 150 15:21 16.01.2020
467 Clouds 23 1025 31 10000 4.1 150 14:45 16.01.2020
468 Clouds 23 1025 31 10000 4.1 150 14:24 16.01.2020
469 Clouds 23 1025 31 10000 4.1 150 13:57 16.01.2020
470 Clouds 23 1025 31 10000 4.1 150 13:39 16.01.2020
471 Clouds 23 1025 31 10000 4.1 150 13:21 16.01.2020
472 Clouds 23 1026 31 10000 4.1 120 12:45 16.01.2020
473 Clouds 23 1026 31 10000 4.1 120 12:27 16.01.2020
474 Clouds 23 1027 31 10000 2.6 140 11:55 16.01.2020
475 Clouds 23 1027 31 10000 2.6 140 11:37 16.01.2020
476 Clouds 23 1027 31 10000 2.6 140 11:19 16.01.2020
477 Clouds 21 1027 32 10000 3.6 130 10:39 16.01.2020
478 Clouds 21 1027 32 10000 3.6 130 10:20 16.01.2020
479 Clouds 20 1028 34 10000 3.6 120 09:57 16.01.2020
480 Clouds 20 1028 34 10000 3.6 120 09:38 16.01.2020
481 Clouds 20 1028 34 10000 3.6 120 09:19 16.01.2020
482 Clouds 17 1029 39 10000 3.6 110 08:51 16.01.2020
483 Clouds 17 1029 39 10000 3.6 110 08:30 16.01.2020
484 Clouds 15 1029 41 10000 3.6 110 07:58 16.01.2020
485 Clouds 15 1029 41 10000 3.6 110 07:38 16.01.2020
486 Clouds 15 1029 41 10000 3.6 110 07:19 16.01.2020
487 Clouds 13 1028 58 10000 2.1 80 06:42 16.01.2020
488 Clouds 12 1027 62 10000 2.1 310 05:59 16.01.2020
489 Clouds 12 1027 62 10000 2.1 310 05:40 16.01.2020
490 Clouds 11 1027 71 10000 2.6 310 04:37 16.01.2020
491 Clouds 11 1027 71 10000 2.6 310 04:37 16.01.2020
492 Clouds 12 1026 71 10000 1 250 03:28 16.01.2020
493 Clouds 12 1025 71 10000 1 210 02:42 16.01.2020
494 Clouds 13 1026 71 10000 5.1 50 00:53 16.01.2020
495 Clouds 13 1026 71 10000 5.1 50 00:24 16.01.2020
496 Clouds 13 1026 71 10000 5.1 50 23:50 15.01.2020
497 Clouds 13 1026 71 10000 5.1 50 23:50 15.01.2020
498 Clouds 14 1028 67 10000 6.7 60 23:23 15.01.2020
499 Clouds 14 1028 67 10000 6.7 60 22:58 15.01.2020
500 Clouds 14 1028 67 10000 6.7 60 22:40 15.01.2020
501 Clouds 14 1028 67 10000 6.7 60 22:19 15.01.2020
502 Clouds 14 1028 67 10000 6.7 60 22:19 15.01.2020
503 Clear 9 1019 88 0 1.24 359 21:58 15.01.2020
504 Clear 9 1019 88 0 1.24 359 21:38 15.01.2020
505 Clouds 15 1029 62 10000 5.7 40 21:20 15.01.2020
506 Clouds 15 1029 62 10000 5.7 40 20:58 15.01.2020
507 Clouds 15 1029 62 10000 5.7 40 20:40 15.01.2020
508 Clouds 15 1029 62 10000 5.7 40 20:20 15.01.2020
509 Clouds 15 1029 62 10000 5.7 40 19:55 15.01.2020
510 Clouds 15 1029 62 10000 5.7 40 19:37 15.01.2020
511 Clear 15 1029 62 0 5.1 60 19:19 15.01.2020
512 Clear 16 1028 51 0 5.1 80 18:57 15.01.2020
513 Clear 16 1028 51 0 5.1 80 18:57 15.01.2020
514 Clear 16 1028 51 0 5.1 80 18:38 15.01.2020
515 Clear 16 1028 51 0 5.1 80 18:20 15.01.2020
516 Clear 17 1027 48 0 5.1 90 17:58 15.01.2020
517 Clear 17 1027 48 0 5.1 90 17:39 15.01.2020
518 Clear 17 1027 48 0 5.1 90 17:20 15.01.2020
519 Clouds 19 1026 37 10000 6.7 90 16:42 15.01.2020
520 Clouds 19 1026 37 10000 6.7 90 16:23 15.01.2020
521 Clouds 22 1026 33 10000 6.7 90 15:59 15.01.2020
522 Clouds 22 1026 33 10000 6.7 90 15:41 15.01.2020
523 Clouds 22 1026 33 10000 6.7 90 15:20 15.01.2020
524 Clear 15 1014 53 0 6.01 92 14:44 15.01.2020
525 Clouds 23 1025 31 10000 7.7 110 14:21 15.01.2020
526 Clouds 23 1025 31 10000 7.7 110 13:56 15.01.2020
527 Clouds 23 1025 31 10000 7.7 110 13:38 15.01.2020
528 Clouds 23 1025 31 10000 7.7 110 13:19 15.01.2020
529 Clear 20 1012 33 0 6.82 101 12:41 15.01.2020
530 Clouds 20 1026 32 10000 7.2 110 12:20 15.01.2020
531 Clouds 20 1026 32 10000 7.2 110 11:59 15.01.2020
532 Clouds 20 1026 32 10000 7.2 110 11:38 15.01.2020
533 Clouds 20 1026 32 10000 7.2 110 11:38 15.01.2020
534 Clouds 20 1026 32 10000 7.2 110 11:19 15.01.2020
535 Clouds 20 1026 32 10000 7.2 110 11:19 15.01.2020
536 Clouds 20 1027 56 10000 4.1 100 10:47 15.01.2020
537 Clouds 20 1027 56 10000 4.1 100 10:28 15.01.2020
538 Clouds 16 1028 59 10000 2.1 120 09:57 15.01.2020
539 Clouds 16 1028 59 10000 2.1 120 09:38 15.01.2020
540 Clouds 16 1028 59 10000 2.1 120 09:19 15.01.2020
541 Clouds 14 1029 62 10000 3.1 90 08:44 15.01.2020
542 Clouds 14 1029 62 10000 3.1 90 08:24 15.01.2020
543 Clouds 12 1029 76 10000 3.1 70 07:54 15.01.2020
544 Clouds 12 1029 76 10000 3.1 70 07:33 15.01.2020
545 Clouds 12 1028 71 10000 2.1 80 06:49 15.01.2020
546 Clouds 12 1028 71 10000 2.1 80 06:26 15.01.2020
547 Clouds 10 1027 81 10000 1.17 5 04:46 15.01.2020
548 Clouds 10 1026 87 10000 3.1 30 02:40 15.01.2020
549 Clouds 10 1026 87 10000 4.1 40 01:43 15.01.2020
550 Clouds 10 1026 87 10000 4.1 40 01:20 15.01.2020
551 Clouds 12 1026 62 10000 3.1 50 00:37 15.01.2020
552 Clouds 12 1026 62 10000 3.1 50 00:19 15.01.2020
553 Clouds 13 1027 71 10000 2.1 40 23:46 14.01.2020
554 Clouds 13 1027 71 10000 2.1 40 23:24 14.01.2020
555 Clear 10 1018 94 0 1.5 35 22:55 14.01.2020
556 Clear 10 1018 94 0 1.5 35 22:36 14.01.2020
557 Clouds 13 1028 71 10000 2.1 140 22:18 14.01.2020
558 Clear 10 1018 94 0 1.5 35 21:55 14.01.2020
559 Clear 10 1018 94 0 1.5 35 21:37 14.01.2020
560 Clouds 14 1028 71 10000 4.1 90 21:19 14.01.2020
561 Clouds 14 1028 71 10000 4.1 90 20:42 14.01.2020
562 Clouds 15 1028 82 10000 5.1 60 20:22 14.01.2020
563 Clouds 15 1028 82 10000 5.1 60 19:57 14.01.2020
564 Clouds 15 1028 82 10000 5.1 60 19:38 14.01.2020
565 Clouds 16 1027 67 10000 4.1 80 19:20 14.01.2020
566 Clouds 16 1027 67 10000 4.1 80 18:58 14.01.2020
567 Clouds 16 1027 67 10000 4.1 80 18:39 14.01.2020
568 Clouds 17 1027 63 10000 5.1 80 18:19 14.01.2020
569 Clouds 17 1027 63 10000 5.1 80 17:39 14.01.2020
570 Clouds 17 1027 63 10000 5.1 80 17:19 14.01.2020
571 Clouds 17 1026 67 10000 5.1 80 16:57 14.01.2020
572 Clouds 17 1026 67 10000 5.1 80 16:38 14.01.2020
573 Clouds 17 1026 67 10000 5.1 80 16:20 14.01.2020
574 Clouds 17 1026 72 10000 4.1 100 15:54 14.01.2020
575 Clouds 17 1026 72 10000 4.1 100 15:36 14.01.2020
576 Clouds 17 1026 72 10000 4.1 100 15:18 14.01.2020
577 Clouds 15 1014 74 0 4.22 92 14:41 14.01.2020
578 Clouds 21 1025 46 10000 3.1 140 14:20 14.01.2020
579 Clouds 21 1025 46 10000 3.1 140 13:42 14.01.2020
580 Clouds 21 1025 46 10000 3.1 140 13:20 14.01.2020
581 Clouds 20 1025 52 10000 5.1 170 12:57 14.01.2020
582 Clouds 20 1025 52 10000 5.1 170 12:39 14.01.2020
583 Clouds 20 1025 52 10000 5.1 170 12:20 14.01.2020
584 Clouds 20 1025 52 10000 5.1 170 12:20 14.01.2020
585 Clouds 19 1026 55 10000 5.1 160 11:42 14.01.2020
586 Clouds 19 1026 55 10000 5.1 160 11:23 14.01.2020
587 Clouds 19 1027 55 10000 4.6 160 10:58 14.01.2020
588 Clouds 19 1027 55 10000 4.6 160 10:39 14.01.2020
589 Clouds 19 1027 55 10000 4.6 160 10:19 14.01.2020
590 Clouds 17 1028 59 10000 4.6 160 09:56 14.01.2020
591 Clouds 17 1028 59 10000 4.6 160 09:38 14.01.2020
592 Clouds 17 1028 59 10000 4.6 160 09:20 14.01.2020
593 Clouds 16 1028 63 10000 2.6 150 08:42 14.01.2020
594 Clouds 16 1028 63 10000 2.6 150 08:23 14.01.2020
595 Clouds 14 1028 76 10000 3.1 120 07:53 14.01.2020
596 Clouds 14 1028 76 10000 3.1 120 07:31 14.01.2020
597 Clouds 13 1028 76 10000 3.1 50 06:50 14.01.2020
598 Clouds 13 1028 76 10000 3.1 50 06:23 14.01.2020
599 Clouds 13 1017 80 0 1.51 97 04:58 14.01.2020
600 Clouds 13 1027 66 10000 2.6 80 03:48 14.01.2020
601 Clouds 14 1027 62 10000 2.6 80 02:42 14.01.2020
602 Clouds 14 1026 62 10000 3.6 60 01:35 14.01.2020
603 Clouds 14 1027 62 10000 4.1 80 00:49 14.01.2020
604 Clouds 14 1027 62 10000 4.1 80 00:28 14.01.2020
605 Clouds 13 1016 83 0 1.95 101 23:48 13.01.2020
606 Clouds 13 1017 87 0 3.69 87 23:20 13.01.2020
607 Clouds 13 1017 87 0 3.69 87 22:59 13.01.2020
608 Clouds 13 1017 87 0 3.69 87 22:40 13.01.2020
609 Clouds 13 1017 87 0 3.69 87 22:20 13.01.2020
610 Clouds 13 1017 87 0 3.69 87 21:56 13.01.2020
611 Clouds 13 1017 87 0 3.69 87 21:37 13.01.2020
612 Clouds 13 1017 87 0 3.69 87 21:18 13.01.2020
613 Clouds 13 1017 87 0 3.69 87 20:57 13.01.2020
614 Clouds 13 1017 87 0 3.69 87 20:57 13.01.2020
615 Clouds 13 1017 87 0 3.69 87 20:38 13.01.2020
616 Clouds 16 1027 55 10000 3.1 180 20:20 13.01.2020
617 Clouds 16 1027 55 10000 3.1 180 19:56 13.01.2020
618 Clouds 16 1027 55 10000 3.1 180 19:38 13.01.2020
619 Clouds 16 1027 55 10000 3.1 180 19:18 13.01.2020
620 Rain 12 1016 94 0 3.38 75 18:56 13.01.2020
621 Rain 12 1016 94 0 3.38 75 18:37 13.01.2020
622 Rain 12 1016 94 0 3.38 75 18:18 13.01.2020
623 Rain 12 1016 94 0 3.38 75 17:40 13.01.2020
624 Clouds 16 1013 72 0 4.11 95 17:21 13.01.2020
625 Clouds 16 1013 72 0 4.11 95 16:56 13.01.2020
626 Clouds 16 1013 72 0 4.11 95 16:37 13.01.2020
627 Clouds 16 1013 72 0 4.11 95 16:18 13.01.2020
628 Clouds 16 1013 72 0 4.11 95 15:43 13.01.2020
629 Clouds 16 1013 72 0 4.11 95 15:22 13.01.2020
630 Clouds 16 1013 72 0 4.11 95 15:22 13.01.2020
631 Clouds 16 1013 72 0 4.11 95 14:57 13.01.2020
632 Clouds 16 1013 72 0 4.11 95 14:37 13.01.2020
633 Clouds 16 1013 72 0 4.11 95 14:37 13.01.2020
634 Clouds 21 1012 44 0 3.92 123 14:18 13.01.2020
635 Clouds 21 1012 44 0 3.92 123 13:41 13.01.2020
636 Clouds 20 1012 47 0 4.35 126 13:23 13.01.2020
637 Clouds 20 1012 47 0 4.35 126 12:58 13.01.2020
638 Clouds 20 1012 47 0 4.35 126 12:40 13.01.2020
639 Clouds 20 1026 56 10000 3.1 180 12:22 13.01.2020
640 Clouds 20 1026 56 10000 3.1 180 11:56 13.01.2020
641 Clouds 20 1026 56 10000 3.1 180 11:37 13.01.2020
642 Clouds 20 1026 56 10000 3.1 180 11:18 13.01.2020
643 Clouds 18 1028 63 10000 3.1 180 10:55 13.01.2020
644 Clouds 18 1028 63 10000 3.1 180 10:36 13.01.2020
645 Clouds 18 1028 63 10000 3.1 180 10:18 13.01.2020
646 Clouds 18 1028 63 10000 3.1 180 10:18 13.01.2020
647 Clouds 18 1016 52 0 2.98 122 09:42 13.01.2020
648 Mist 15 1029 77 8000 2.1 170 09:23 13.01.2020
649 Mist 15 1029 77 8000 2.1 170 08:44 13.01.2020
650 Mist 15 1029 77 8000 2.1 170 08:22 13.01.2020
651 Mist 14 1030 82 8000 2.1 160 07:59 13.01.2020
652 Mist 14 1030 82 8000 2.1 160 07:59 13.01.2020
653 Mist 14 1030 82 8000 2.1 160 07:40 13.01.2020
654 Mist 14 1030 82 8000 2.1 160 07:18 13.01.2020
655 Clouds 14 1029 76 8000 2.1 150 06:37 13.01.2020
656 Clouds 12 1028 81 8000 2.1 160 05:36 13.01.2020
657 Clouds 12 1027 76 10000 2.1 170 04:25 13.01.2020
658 Clouds 12 1027 76 10000 2.35 87 03:34 13.01.2020
659 Haze 12 1026 76 9000 6.2 90 02:49 13.01.2020
660 Haze 12 1026 76 9000 6.2 90 02:29 13.01.2020
661 Haze 12 1026 76 9000 6.2 90 02:29 13.01.2020
662 Clouds 12 1026 76 10000 2.1 160 01:32 13.01.2020
663 Clouds 12 1016 87 0 2.46 88 00:43 13.01.2020
664 Clouds 15 1027 62 10000 1.5 160 00:24 13.01.2020
665 Clouds 15 1027 62 10000 1.5 160 23:56 12.01.2020
666 Clouds 15 1027 62 10000 1.5 160 23:37 12.01.2020
667 Clouds 15 1027 62 10000 1.5 160 23:19 12.01.2020
668 Clouds 15 1027 67 10000 1.5 220 22:42 12.01.2020
669 Clouds 15 1027 67 10000 1.5 220 22:24 12.01.2020
670 Clouds 14 1027 71 10000 1.5 230 21:57 12.01.2020
671 Clouds 14 1027 71 10000 1.5 230 21:39 12.01.2020
672 Clouds 14 1027 71 10000 1.5 230 21:39 12.01.2020
673 Clouds 14 1027 71 10000 1.5 230 21:20 12.01.2020
674 Clouds 14 1028 71 10000 2.1 80 20:57 12.01.2020
675 Clouds 14 1028 71 10000 2.1 80 20:39 12.01.2020
676 Clouds 14 1028 71 10000 2.1 80 20:20 12.01.2020
677 Clouds 16 1027 63 10000 3.1 90 19:56 12.01.2020
678 Clouds 16 1027 63 10000 3.1 90 19:38 12.01.2020
679 Clouds 16 1027 63 10000 3.1 90 19:19 12.01.2020
680 Clouds 17 1027 59 10000 4.1 160 18:57 12.01.2020
681 Clouds 17 1027 59 10000 4.1 160 18:39 12.01.2020
682 Clouds 17 1027 59 10000 4.1 160 18:21 12.01.2020
683 Clouds 18 1025 55 10000 3.1 140 17:55 12.01.2020
684 Clouds 18 1025 55 10000 3.1 140 17:37 12.01.2020
685 Clouds 18 1025 55 10000 3.1 140 17:18 12.01.2020
686 Clouds 19 1025 55 10000 5.1 140 16:54 12.01.2020
687 Clouds 19 1025 55 10000 5.1 140 16:36 12.01.2020
688 Clouds 19 1025 55 10000 5.1 140 16:18 12.01.2020
689 Clouds 21 1024 46 10000 6.2 150 15:42 12.01.2020
690 Clouds 21 1024 46 10000 6.2 150 15:23 12.01.2020
691 Clouds 23 1024 38 10000 6.2 180 14:55 12.01.2020
692 Clouds 23 1024 38 10000 6.2 180 14:36 12.01.2020
693 Clouds 23 1024 38 10000 6.2 180 14:18 12.01.2020
694 Clouds 23 1024 38 10000 4.1 160 13:42 12.01.2020
695 Clouds 23 1024 38 10000 4.1 160 13:23 12.01.2020
696 Clouds 22 1025 43 10000 4.1 130 12:58 12.01.2020
697 Clouds 22 1025 43 10000 4.1 130 12:38 12.01.2020
698 Clouds 22 1025 43 10000 4.1 130 12:19 12.01.2020
699 Clouds 21 1012 41 0 4.61 135 11:55 12.01.2020
700 Clouds 21 1012 41 0 4.61 135 11:36 12.01.2020
701 Clouds 19 1027 48 10000 4.1 190 11:18 12.01.2020
702 Clouds 19 1027 48 10000 4.1 190 10:41 12.01.2020
703 Clouds 19 1027 48 10000 4.1 190 10:21 12.01.2020
704 Clouds 19 1028 48 10000 5.1 180 09:55 12.01.2020
705 Clouds 19 1028 48 10000 5.1 180 09:37 12.01.2020
706 Clouds 19 1028 48 10000 5.1 180 09:18 12.01.2020
707 Clouds 18 1029 59 10000 3.1 110 08:42 12.01.2020
708 Clouds 18 1029 59 10000 3.1 110 08:19 12.01.2020
709 Clouds 16 1029 67 10000 4.1 110 07:39 12.01.2020
710 Clouds 16 1029 67 10000 4.1 110 07:21 12.01.2020
711 Clouds 15 1029 67 10000 3.1 100 06:42 12.01.2020
712 Clouds 15 1029 67 10000 3.1 100 06:18 12.01.2020
713 Clouds 12 1027 87 10000 3.1 80 05:21 12.01.2020
714 Clouds 12 1027 87 10000 3.1 80 03:45 12.01.2020
715 Clouds 12 1017 93 0 1.97 114 02:59 12.01.2020
716 Clouds 13 1026 87 10000 5.1 70 02:30 12.01.2020
717 Clouds 13 1026 87 10000 5.1 70 01:42 12.01.2020
718 Clouds 13 1026 87 10000 5.1 70 01:21 12.01.2020
719 Rain 13 1016 87 0 3.64 86 00:40 12.01.2020
720 Clouds 15 1027 54 10000 5.1 70 00:19 12.01.2020
721 Rain 13 1016 87 0 3.64 86 23:42 11.01.2020
722 Rain 12 1016 94 0 3.13 71 23:19 11.01.2020
723 Rain 12 1016 94 0 3.13 71 22:57 11.01.2020
724 Rain 12 1016 94 0 3.13 71 22:39 11.01.2020
725 Rain 12 1016 94 0 3.13 71 22:20 11.01.2020
726 Rain 12 1016 94 0 3.13 71 21:55 11.01.2020
727 Rain 12 1016 94 0 3.13 71 21:37 11.01.2020
728 Clouds 17 1028 51 10000 5.1 70 21:18 11.01.2020
729 Clouds 17 1028 51 10000 5.1 70 20:40 11.01.2020
730 Clouds 17 1028 51 10000 5.1 70 20:22 11.01.2020
731 Rain 14 1015 90 0 2.63 70 19:58 11.01.2020
732 Rain 14 1015 90 0 2.63 70 19:38 11.01.2020
733 Rain 14 1015 90 0 2.63 70 19:38 11.01.2020
734 Clouds 18 1026 45 10000 5.1 80 19:20 11.01.2020
735 Clouds 18 1026 45 10000 5.1 80 18:57 11.01.2020
736 Clouds 18 1026 45 10000 5.1 80 18:37 11.01.2020
737 Clouds 18 1026 45 10000 5.1 80 18:19 11.01.2020
738 Clouds 18 1026 45 10000 5.1 80 18:19 11.01.2020
739 Rain 14 1015 90 0 2.63 70 17:57 11.01.2020
740 Rain 14 1015 90 0 2.63 70 17:39 11.01.2020
741 Clouds 22 1024 35 10000 5.1 150 17:19 11.01.2020
742 Clouds 22 1024 35 10000 5.1 150 16:44 11.01.2020
743 Clouds 22 1024 35 10000 5.1 150 16:25 11.01.2020
744 Clouds 24 1024 33 10000 5.1 180 15:57 11.01.2020
745 Clouds 24 1024 33 10000 5.1 180 15:39 11.01.2020
746 Clouds 24 1024 33 10000 5.1 180 15:20 11.01.2020
747 Clouds 24 1024 33 10000 5.1 180 15:20 11.01.2020
748 Clouds 25 1023 31 10000 4.1 140 14:49 11.01.2020
749 Clouds 25 1023 31 10000 4.1 140 14:26 11.01.2020
750 Clouds 24 1023 33 10000 4.1 180 13:59 11.01.2020
751 Clouds 24 1023 33 10000 4.1 180 13:38 11.01.2020
752 Clouds 24 1023 33 10000 4.1 180 13:20 11.01.2020
753 Clouds 20 1024 49 10000 3.6 190 12:56 11.01.2020
754 Clouds 20 1024 49 10000 3.6 190 12:38 11.01.2020
755 Clouds 20 1024 49 10000 3.6 190 12:20 11.01.2020
756 Clouds 21 1025 46 10000 3.1 130 11:45 11.01.2020
757 Clouds 21 1025 46 10000 3.1 130 11:24 11.01.2020
758 Clouds 21 1026 46 10000 3.6 180 10:50 11.01.2020
759 Clouds 21 1026 46 10000 3.6 180 10:30 11.01.2020
760 Clouds 20 1027 49 10000 3.6 150 09:44 11.01.2020
761 Clouds 20 1027 49 10000 3.6 150 09:21 11.01.2020
762 Clouds 20 1027 49 10000 3.6 150 09:21 11.01.2020
763 Clouds 20 1027 49 10000 3.6 150 09:21 11.01.2020
764 Clouds 20 1027 49 10000 3.6 150 09:21 11.01.2020
765 Clouds 18 1028 52 10000 2.1 110 08:59 11.01.2020
766 Clouds 18 1028 52 10000 2.1 110 08:41 11.01.2020
767 Clouds 18 1028 52 10000 2.1 110 08:20 11.01.2020
768 Clouds 16 1028 59 10000 2.6 60 07:43 11.01.2020
769 Clouds 16 1028 59 10000 2.6 60 07:24 11.01.2020
770 Clouds 14 1028 67 10000 3.6 60 06:45 11.01.2020
771 Clouds 13 1027 76 10000 5.1 70 05:31 11.01.2020
772 Clouds 13 1026 71 10000 2.1 90 04:43 11.01.2020
773 Clouds 13 1026 71 10000 2.1 90 04:25 11.01.2020
774 Clouds 14 1026 67 10000 3.6 80 02:48 11.01.2020
775 Clouds 14 1026 67 10000 3.6 80 01:48 11.01.2020
776 Clouds 16 1026 59 10000 4.6 70 01:30 11.01.2020
777 Rain 12 1014 85 0 1.03 111 00:58 11.01.2020
778 Clouds 18 1026 52 10000 4.1 70 00:29 11.01.2020
779 Clouds 18 1026 52 10000 4.1 70 23:59 10.01.2020
780 Clouds 18 1026 52 10000 4.1 70 23:39 10.01.2020
781 Clouds 18 1026 52 10000 4.1 70 23:20 10.01.2020
782 Clouds 18 1026 52 10000 4.1 70 22:54 10.01.2020
783 Clouds 18 1026 52 10000 4.1 70 22:36 10.01.2020
784 Clouds 13 1016 80 0 1.72 74 22:18 10.01.2020
785 Clouds 13 1016 80 0 1.72 74 21:41 10.01.2020
786 Clouds 19 1027 45 10000 4.1 80 21:21 10.01.2020
787 Clouds 19 1027 45 10000 4.1 80 21:00 10.01.2020
788 Clouds 19 1027 45 10000 4.1 80 20:41 10.01.2020
789 Clouds 19 1027 45 10000 4.1 80 20:23 10.01.2020
790 Clouds 15 1014 69 0 2.77 64 19:42 10.01.2020
791 Clouds 20 1026 45 10000 5.1 70 19:21 10.01.2020
792 Clouds 20 1026 45 10000 5.1 70 18:58 10.01.2020
793 Clouds 20 1026 45 10000 5.1 70 18:40 10.01.2020
794 Clouds 20 1026 45 10000 5.1 70 18:18 10.01.2020
795 Clouds 15 1014 69 0 2.77 64 17:57 10.01.2020
796 Clouds 15 1014 69 0 2.77 64 17:38 10.01.2020
797 Clouds 20 1012 45 0 5.37 109 17:20 10.01.2020
798 Clouds 20 1012 45 0 5.37 109 16:55 10.01.2020
799 Clouds 20 1012 45 0 5.37 109 16:36 10.01.2020
800 Clouds 23 1024 33 10000 2.6 180 16:18 10.01.2020
801 Clouds 23 1024 33 10000 2.6 180 15:55 10.01.2020
802 Clouds 23 1024 33 10000 2.6 180 15:36 10.01.2020
803 Clouds 23 1024 33 10000 2.6 180 15:18 10.01.2020
804 Clouds 23 1024 33 10000 2.6 180 14:42 10.01.2020
805 Clouds 24 1024 31 10000 3.1 150 14:20 10.01.2020
806 Clouds 25 1024 31 10000 3.1 220 13:58 10.01.2020
807 Clouds 25 1024 31 10000 3.1 220 13:58 10.01.2020
808 Clouds 25 1024 31 10000 3.1 220 13:40 10.01.2020
809 Clouds 25 1024 31 10000 3.1 220 13:22 10.01.2020
810 Clouds 25 1025 31 10000 3.1 210 12:57 10.01.2020
811 Clouds 25 1025 31 10000 3.1 210 12:38 10.01.2020
812 Clouds 25 1025 31 10000 3.1 210 12:18 10.01.2020
813 Clear 24 1026 33 0 3.1 150 11:54 10.01.2020
814 Clear 24 1026 33 0 3.1 150 11:36 10.01.2020
815 Clear 24 1026 33 0 3.1 150 11:18 10.01.2020
816 Clear 23 1027 38 0 1.5 170 10:39 10.01.2020
817 Clear 23 1027 38 0 1.5 170 10:21 10.01.2020
818 Clear 21 1027 40 0 3.1 110 09:56 10.01.2020
819 Clear 21 1027 40 0 3.1 110 09:37 10.01.2020
820 Clear 21 1027 40 0 3.1 110 09:19 10.01.2020
821 Clear 19 1028 48 0 2.1 120 08:41 10.01.2020
822 Clear 19 1028 48 0 2.1 120 08:22 10.01.2020
823 Clear 16 1028 51 0 2.1 120 07:44 10.01.2020
824 Clouds 12 1028 71 10000 1 40 07:24 10.01.2020
825 Clouds 12 1028 71 10000 1 40 06:45 10.01.2020
826 Clouds 12 1028 71 10000 1 40 06:25 10.01.2020
827 Clouds 11 1027 76 10000 3.1 310 05:48 10.01.2020
828 Clear 10 1017 79 0 1.4 3 03:37 10.01.2020
829 Clouds 12 1025 66 10000 3.1 80 03:18 10.01.2020
830 Clouds 12 1025 66 10000 3.1 80 02:47 10.01.2020
831 Clouds 12 1025 66 10000 3.1 80 01:38 10.01.2020
832 Clouds 12 1025 66 10000 3.1 80 01:19 10.01.2020
833 Clear 11 1015 76 0 1.49 12 00:39 10.01.2020
834 Clear 11 1015 76 0 1.49 12 23:58 09.01.2020
835 Clear 11 1015 76 0 1.49 12 23:38 09.01.2020
836 Clouds 14 1026 62 10000 3.1 90 23:20 09.01.2020
837 Clouds 14 1026 62 10000 3.1 90 22:57 09.01.2020
838 Clouds 14 1026 62 10000 3.1 90 22:39 09.01.2020
839 Clouds 14 1026 62 10000 3.1 90 22:19 09.01.2020
840 Clouds 15 1026 58 10000 2.1 130 21:57 09.01.2020
841 Clouds 15 1026 58 10000 2.1 130 21:37 09.01.2020
842 Clouds 15 1026 58 10000 2.1 130 21:37 09.01.2020
843 Clouds 15 1026 58 10000 2.1 130 21:19 09.01.2020
844 Clouds 16 1027 48 10000 2.1 100 20:57 09.01.2020
845 Clouds 16 1027 48 10000 2.1 100 20:39 09.01.2020
846 Clouds 16 1027 48 10000 2.1 100 20:19 09.01.2020
847 Clouds 16 1027 48 10000 2.1 100 20:19 09.01.2020
848 Clouds 16 1027 48 10000 3.1 100 19:56 09.01.2020
849 Clear 14 1014 68 0 2.72 62 19:37 09.01.2020
850 Clouds 17 1026 42 10000 5.1 60 19:19 09.01.2020
851 Clouds 17 1026 42 10000 5.1 60 18:55 09.01.2020
852 Clouds 17 1026 42 10000 5.1 60 18:36 09.01.2020
853 Clouds 17 1026 42 10000 5.1 60 18:18 09.01.2020
854 Clouds 19 1025 39 10000 5.1 90 17:41 09.01.2020
855 Clouds 19 1025 39 10000 5.1 90 17:18 09.01.2020
856 Clouds 19 1025 39 10000 5.1 90 16:48 09.01.2020
857 Clouds 21 1024 32 10000 6.2 90 16:23 09.01.2020
858 Clouds 21 1024 32 10000 6.2 90 15:57 09.01.2020
859 Clouds 21 1024 32 10000 6.2 90 15:57 09.01.2020
860 Clouds 24 1024 27 10000 4.1 120 15:39 09.01.2020
861 Clouds 24 1024 27 10000 4.1 120 15:18 09.01.2020
862 Clouds 24 1024 31 10000 3.1 120 14:42 09.01.2020
863 Clouds 24 1024 31 10000 3.1 120 14:22 09.01.2020
864 Clouds 25 1024 29 10000 3.1 120 13:57 09.01.2020
865 Clouds 25 1024 29 10000 3.1 120 13:39 09.01.2020
866 Clouds 25 1024 29 10000 3.1 120 13:20 09.01.2020
867 Clouds 23 1025 40 10000 4.1 100 12:58 09.01.2020
868 Clouds 23 1025 40 10000 4.1 100 12:58 09.01.2020
869 Clouds 23 1025 40 10000 4.1 100 12:39 09.01.2020
870 Clouds 23 1025 40 10000 4.1 100 12:19 09.01.2020
871 Clouds 23 1025 40 10000 4.1 100 11:56 09.01.2020
872 Clouds 22 1026 43 10000 3.6 110 11:37 09.01.2020
873 Clouds 22 1026 43 10000 3.6 110 11:19 09.01.2020
874 Clouds 21 1027 46 10000 3.6 110 10:43 09.01.2020
875 Clouds 21 1027 46 10000 3.6 110 10:22 09.01.2020
876 Clouds 21 1027 46 10000 3.6 110 09:55 09.01.2020
877 Clouds 19 1028 52 10000 4.6 110 09:37 09.01.2020
878 Clouds 19 1028 52 10000 4.6 110 09:18 09.01.2020
879 Clouds 19 1028 52 10000 4.6 110 08:54 09.01.2020
880 Clouds 18 1029 59 0 4.1 90 08:36 09.01.2020
881 Clouds 18 1029 59 0 4.1 90 08:18 09.01.2020
882 Clouds 16 1029 59 0 4.1 100 07:41 09.01.2020
883 Clouds 16 1029 59 0 4.1 100 07:23 09.01.2020
884 Clouds 15 1029 58 0 1.5 110 06:38 09.01.2020
885 Clouds 15 1029 58 0 1.5 110 06:18 09.01.2020
886 Clouds 12 1028 71 0 2.6 300 05:43 09.01.2020
887 Clouds 10 1018 72 0 2.36 25 04:42 09.01.2020
888 Clouds 13 1027 66 0 3.1 60 03:28 09.01.2020
889 Clouds 14 1027 67 10000 6.7 60 02:48 09.01.2020
890 Clouds 14 1027 67 10000 6.7 60 01:56 09.01.2020
891 Clouds 14 1027 67 10000 6.7 60 01:34 09.01.2020
892 Clouds 14 1028 67 0 5.1 70 00:40 09.01.2020
893 Clouds 14 1028 67 0 5.1 70 00:20 09.01.2020
894 Clouds 15 1028 62 10000 6.2 60 23:41 08.01.2020
895 Clouds 15 1028 62 10000 6.2 60 23:23 08.01.2020
896 Clouds 12 1018 59 0 2.01 28 22:58 08.01.2020
897 Clouds 12 1018 59 0 2.01 28 22:38 08.01.2020
898 Clouds 12 1018 59 0 2.01 28 22:20 08.01.2020
899 Clouds 12 1018 59 0 2.01 28 21:56 08.01.2020
900 Clouds 12 1018 59 0 2.01 28 21:56 08.01.2020
901 Clouds 12 1018 59 0 2.01 28 21:37 08.01.2020
902 Clouds 12 1018 59 0 2.01 28 21:18 08.01.2020
903 Clouds 12 1018 59 0 2.01 28 20:56 08.01.2020
904 Clouds 12 1018 59 0 2.01 28 20:37 08.01.2020
905 Clouds 16 1028 55 10000 5.1 40 20:19 08.01.2020
906 Clouds 16 1028 55 10000 5.1 40 19:39 08.01.2020
907 Clouds 16 1028 55 10000 5.1 40 19:21 08.01.2020
908 Clouds 13 1017 52 0 3.79 65 18:59 08.01.2020
909 Clouds 13 1017 52 0 3.79 65 18:40 08.01.2020
910 Clouds 13 1017 52 0 3.79 65 18:19 08.01.2020
911 Clouds 13 1017 52 0 3.79 65 18:19 08.01.2020
912 Clouds 13 1017 52 0 3.79 65 17:59 08.01.2020
913 Clouds 13 1017 52 0 3.79 65 17:40 08.01.2020
914 Clouds 19 1026 52 10000 5.7 90 17:22 08.01.2020
915 Clouds 19 1026 52 10000 5.7 90 16:57 08.01.2020
916 Clouds 19 1026 52 10000 5.7 90 16:38 08.01.2020
917 Clouds 19 1026 52 10000 5.7 90 16:19 08.01.2020
918 Clouds 19 1026 55 10000 8.2 100 15:55 08.01.2020
919 Clouds 19 1026 55 10000 8.2 100 15:37 08.01.2020
920 Clouds 19 1026 55 10000 8.2 100 15:18 08.01.2020
921 Clouds 21 1025 46 10000 6.2 100 14:40 08.01.2020
922 Clouds 21 1025 46 10000 6.2 100 14:21 08.01.2020
923 Clouds 23 1025 38 10000 5.1 140 13:42 08.01.2020
924 Clouds 23 1025 38 10000 5.1 140 13:24 08.01.2020
925 Clouds 20 1012 38 0 6.83 96 12:59 08.01.2020
926 Clouds 20 1012 38 0 6.83 96 12:40 08.01.2020
927 Clouds 21 1026 40 10000 4.1 130 12:18 08.01.2020
928 Clouds 21 1026 40 10000 4.1 130 11:48 08.01.2020
929 Clouds 21 1026 40 10000 4.1 130 11:20 08.01.2020
930 Clouds 20 1027 42 10000 4.1 80 10:59 08.01.2020
931 Clouds 20 1027 42 10000 4.1 80 10:41 08.01.2020
932 Clouds 20 1027 42 10000 4.1 80 10:21 08.01.2020
933 Clouds 19 1028 45 10000 9.3 70 09:57 08.01.2020
934 Clouds 19 1028 45 10000 9.3 70 09:36 08.01.2020
935 Clouds 19 1028 45 10000 9.3 70 09:18 08.01.2020
936 Clouds 18 1029 48 10000 7.2 90 08:41 08.01.2020
937 Clouds 18 1029 48 10000 7.2 90 08:22 08.01.2020
938 Clouds 17 1029 55 10000 6.2 90 07:59 08.01.2020
939 Clouds 17 1029 55 10000 6.2 90 07:40 08.01.2020
940 Clouds 17 1029 55 10000 6.2 90 07:19 08.01.2020
941 Clouds 14 1029 67 10000 6.2 70 06:42 08.01.2020
942 Clouds 15 1019 65 0 3.07 98 05:56 08.01.2020
943 Clouds 15 1019 65 0 3.07 98 05:26 08.01.2020
944 Clouds 10 1018 88 0 1.79 1 04:37 08.01.2020
945 Clouds 12 1027 58 10000 6.2 70 02:46 08.01.2020
946 Clouds 12 1027 58 10000 6.2 70 02:28 08.01.2020
947 Clouds 12 1027 58 10000 4.1 70 01:57 08.01.2020
948 Clouds 12 1027 58 10000 4.1 70 01:32 08.01.2020
949 Clouds 10 1017 88 0 1.95 12 00:51 08.01.2020
950 Clouds 10 1017 88 0 1.95 12 00:23 08.01.2020
951 Clouds 10 1017 88 0 1.95 12 23:46 07.01.2020
952 Clouds 11 1018 94 0 2.05 41 23:21 07.01.2020
953 Clouds 11 1018 94 0 2.05 41 22:56 07.01.2020
954 Clouds 11 1018 94 0 2.05 41 22:37 07.01.2020
955 Clouds 11 1018 94 0 2.05 41 22:18 07.01.2020
956 Clouds 11 1018 94 0 2.05 41 21:42 07.01.2020
957 Clouds 11 1018 94 0 2.05 41 21:22 07.01.2020
958 Clouds 11 1018 94 0 2.05 41 20:58 07.01.2020
959 Clouds 11 1018 94 0 2.05 41 20:40 07.01.2020
960 Clouds 13 1017 92 0 3.14 70 20:21 07.01.2020
961 Clouds 13 1017 90 0 3.28 70 19:57 07.01.2020
962 Clouds 13 1017 90 0 3.28 70 19:37 07.01.2020
963 Clouds 13 1017 90 0 3.28 70 19:19 07.01.2020
964 Clouds 13 1017 90 0 3.28 70 18:56 07.01.2020
965 Clouds 13 1017 90 0 3.28 70 18:38 07.01.2020
966 Clouds 13 1017 90 0 3.28 70 18:18 07.01.2020
967 Clouds 13 1017 90 0 3.28 70 17:42 07.01.2020
968 Clouds 16 1014 65 0 6.6 91 17:23 07.01.2020
969 Clouds 13 1017 90 0 3.28 70 17:23 07.01.2020
970 Clouds 16 1014 65 0 6.6 91 16:58 07.01.2020
971 Clouds 16 1014 65 0 6.6 91 16:39 07.01.2020
972 Clouds 16 1014 65 0 6.6 91 16:20 07.01.2020
973 Clouds 16 1014 65 0 6.6 91 15:59 07.01.2020
974 Clouds 16 1014 65 0 6.6 91 15:41 07.01.2020
975 Clouds 16 1014 65 0 6.6 91 15:23 07.01.2020
976 Clouds 16 1014 65 0 6.6 91 14:57 07.01.2020
977 Clouds 16 1014 65 0 6.6 91 14:37 07.01.2020
978 Clouds 21 1012 47 0 6.7 98 14:19 07.01.2020
979 Clouds 21 1012 47 0 6.7 98 14:19 07.01.2020
980 Clouds 21 1012 47 0 6.7 98 13:40 07.01.2020
981 Clouds 21 1012 51 0 7.14 97 13:20 07.01.2020
982 Clouds 21 1012 51 0 7.14 97 12:54 07.01.2020
983 Clouds 21 1012 51 0 7.14 97 12:36 07.01.2020
984 Clouds 21 1012 51 0 7.14 97 12:18 07.01.2020
985 Clouds 21 1012 51 0 7.14 97 11:41 07.01.2020
986 Clear 21 1016 41 0 4.59 95 11:21 07.01.2020
987 Clear 21 1016 41 0 4.59 95 10:43 07.01.2020
988 Clear 21 1016 41 0 4.59 95 10:43 07.01.2020
989 Clear 21 1016 41 0 4.59 95 10:24 07.01.2020
990 Clear 21 1016 41 0 4.59 95 09:59 07.01.2020
991 Clear 21 1016 41 0 4.59 95 09:38 07.01.2020
992 Clear 21 1016 41 0 4.59 95 09:20 07.01.2020
993 Clear 21 1016 41 0 4.59 95 08:47 07.01.2020
994 Clear 21 1016 41 0 4.59 95 08:27 07.01.2020
995 Clouds 15 1018 72 0 2.73 83 07:55 07.01.2020
996 Clouds 15 1018 72 0 2.73 83 07:34 07.01.2020
997 Clouds 15 1018 72 0 2.73 83 06:54 07.01.2020
998 Clouds 15 1018 72 0 2.73 83 06:35 07.01.2020
999 Clouds 15 1018 72 0 2.73 83 05:58 07.01.2020
1000 Clouds 15 1018 72 0 2.73 83 05:39 07.01.2020
1001 Clouds 11 1027 87 10000 4.1 130 03:44 07.01.2020
1002 Clouds 11 1027 87 10000 1.5 100 02:38 07.01.2020
1003 Clouds 12 1027 87 10000 1 120 01:59 07.01.2020
1004 Clouds 12 1027 87 10000 1 120 01:35 07.01.2020
1005 Clouds 12 1027 87 10000 2.1 100 00:51 07.01.2020
1006 Clouds 12 1027 87 10000 2.1 100 00:20 07.01.2020
1007 Clouds 12 1027 87 10000 2.1 100 23:56 06.01.2020
1008 Clouds 12 1028 87 10000 3.1 80 23:37 06.01.2020
1009 Clouds 12 1028 87 10000 3.1 80 23:18 06.01.2020
1010 Clouds 12 1028 87 10000 3.1 80 22:43 06.01.2020
1011 Clouds 13 1028 82 10000 5.1 90 22:24 06.01.2020
1012 Clouds 13 1028 82 10000 5.1 90 21:58 06.01.2020
1013 Clouds 14 1028 76 10000 3.1 80 21:39 06.01.2020
1014 Clouds 14 1028 76 10000 3.1 80 21:20 06.01.2020
1015 Clouds 14 1028 76 10000 3.1 80 21:20 06.01.2020
1016 Clouds 14 1028 76 10000 3.1 80 21:20 06.01.2020
1017 Clouds 14 1028 76 10000 3.1 80 20:57 06.01.2020
1018 Clouds 14 1028 76 10000 4.1 80 20:38 06.01.2020
1019 Clouds 14 1028 76 10000 4.1 80 20:20 06.01.2020
1020 Clouds 14 1028 76 10000 4.1 80 19:56 06.01.2020
1021 Clouds 15 1028 77 10000 5.1 60 19:38 06.01.2020
1022 Clouds 15 1028 77 10000 5.1 60 19:20 06.01.2020
1023 Clouds 15 1028 77 10000 5.1 60 18:48 06.01.2020
1024 Clouds 15 1027 67 10000 5.1 70 18:22 06.01.2020
1025 Clouds 15 1027 67 10000 5.1 70 17:59 06.01.2020
1026 Clouds 17 1026 59 10000 6.2 80 17:38 06.01.2020
1027 Clouds 17 1026 59 10000 6.2 80 17:18 06.01.2020
1028 Clouds 17 1026 59 10000 6.2 80 16:44 06.01.2020
1029 Clouds 19 1025 52 10000 5.1 90 16:25 06.01.2020
1030 Clouds 19 1025 52 10000 5.1 90 16:25 06.01.2020
1031 Clouds 19 1025 52 10000 5.1 90 15:59 06.01.2020
1032 Clear 21 1025 43 10000 5.1 100 15:39 06.01.2020
1033 Clear 21 1025 43 10000 5.1 100 15:19 06.01.2020
1034 Clouds 24 1024 33 10000 7.2 140 14:58 06.01.2020
1035 Clouds 24 1024 33 10000 7.2 140 14:39 06.01.2020
1036 Clouds 24 1024 33 10000 7.2 140 14:19 06.01.2020
1037 Clouds 24 1024 33 10000 7.2 140 13:54 06.01.2020
1038 Clouds 24 1024 33 10000 4.71 117 13:36 06.01.2020
1039 Clouds 24 1024 33 10000 4.71 117 13:18 06.01.2020
1040 Clouds 23 1025 40 10000 3.1 120 12:41 06.01.2020
1041 Clouds 23 1025 40 10000 3.1 120 12:20 06.01.2020
1042 Clouds 23 1025 40 10000 3.1 120 11:57 06.01.2020
1043 Clouds 22 1026 43 10000 4.6 100 11:38 06.01.2020
1044 Clouds 22 1026 43 10000 4.6 100 11:38 06.01.2020
1045 Clouds 22 1026 43 10000 4.6 100 11:20 06.01.2020
1046 Clouds 22 1026 43 10000 4.6 100 10:43 06.01.2020
1047 Clouds 21 1027 46 10000 3.6 120 10:25 06.01.2020
1048 Clouds 20 1015 46 0 4.56 107 09:57 06.01.2020
1049 Clouds 20 1015 46 0 4.56 107 09:37 06.01.2020
1050 Clouds 16 1029 67 10000 4.6 90 09:19 06.01.2020
1051 Clouds 16 1029 67 10000 4.6 90 08:42 06.01.2020
1052 Clouds 16 1029 67 10000 4.6 90 08:23 06.01.2020
1053 Clouds 15 1029 72 10000 4.6 60 07:48 06.01.2020
1054 Clouds 15 1029 72 10000 4.6 60 07:21 06.01.2020
1055 Clouds 15 1018 68 0 2.78 99 06:44 06.01.2020
1056 Clouds 15 1018 68 0 2.78 99 05:52 06.01.2020
1057 Clouds 15 1018 68 0 2.78 99 05:33 06.01.2020
1058 Clouds 12 1027 76 10000 3.6 70 04:26 06.01.2020
1059 Clouds 12 1026 76 10000 3.6 70 03:57 06.01.2020
1060 Clouds 11 1017 83 0 0.67 44 02:40 06.01.2020
1061 Clouds 12 1026 76 10000 2.6 90 02:20 06.01.2020
1062 Clouds 12 1026 76 10000 2.6 90 01:41 06.01.2020
1063 Clouds 12 1026 76 10000 2.6 90 01:20 06.01.2020
1064 Clouds 11 1016 81 0 1.4 25 00:40 06.01.2020
1065 Clouds 11 1016 81 0 1.4 25 00:19 06.01.2020
1066 Clouds 11 1016 81 0 1.4 25 23:41 05.01.2020
1067 Clouds 14 1027 71 10000 3.1 90 23:21 05.01.2020
1068 Clouds 14 1027 71 10000 3.1 90 22:55 05.01.2020
1069 Clouds 14 1027 71 10000 3.1 90 22:37 05.01.2020
1070 Clouds 14 1027 71 10000 3.1 90 22:18 05.01.2020
1071 Clouds 15 1027 72 10000 2.6 100 21:41 05.01.2020
1072 Clouds 15 1027 72 10000 2.6 100 21:21 05.01.2020
1073 Clear 12 1016 75 0 1.98 45 20:58 05.01.2020
1074 Clear 12 1016 75 0 1.98 45 20:39 05.01.2020
1075 Clouds 16 1027 67 10000 4.1 50 20:20 05.01.2020
1076 Clouds 16 1027 67 10000 4.1 50 20:20 05.01.2020
1077 Clouds 16 1027 67 10000 4.1 50 19:59 05.01.2020
1078 Clouds 16 1027 67 10000 4.1 50 19:40 05.01.2020
1079 Clouds 16 1027 67 10000 4.1 50 19:21 05.01.2020
1080 Clear 14 1015 68 0 3.05 73 18:56 05.01.2020
1081 Clear 14 1015 68 0 3.05 73 18:38 05.01.2020
1082 Clear 14 1015 68 0 3.05 73 18:19 05.01.2020
1083 Clear 14 1015 68 0 3.05 73 17:59 05.01.2020
1084 Clear 14 1015 68 0 3.05 73 17:39 05.01.2020
1085 Clear 14 1015 68 0 3.05 73 17:39 05.01.2020
1086 Clear 17 1011 54 0 4.97 103 17:20 05.01.2020
1087 Clear 17 1011 54 0 4.97 103 16:57 05.01.2020
1088 Clear 17 1011 54 0 4.97 103 16:39 05.01.2020
1089 Clouds 24 1023 38 10000 4.6 140 16:20 05.01.2020
1090 Clouds 24 1023 38 10000 4.6 140 15:40 05.01.2020
1091 Clouds 24 1023 38 10000 4.6 140 15:21 05.01.2020
1092 Clouds 24 1023 38 10000 4.6 140 14:57 05.01.2020
1093 Clouds 25 1023 33 10000 3.6 170 14:38 05.01.2020
1094 Clouds 25 1023 33 10000 3.6 170 14:20 05.01.2020
1095 Clouds 25 1023 33 10000 3.6 170 13:57 05.01.2020
1096 Clouds 25 1023 33 10000 4.1 160 13:38 05.01.2020
1097 Clouds 25 1023 33 10000 4.1 160 13:38 05.01.2020
1098 Clouds 25 1023 33 10000 4.1 160 13:19 05.01.2020
1099 Clear 25 1024 31 0 3.1 180 12:56 05.01.2020
1100 Clear 25 1024 31 0 3.1 180 12:56 05.01.2020
1101 Clear 25 1024 31 0 3.1 180 12:37 05.01.2020
1102 Clear 25 1024 31 0 3.1 180 12:19 05.01.2020
1103 Clear 25 1024 31 0 3.1 180 11:44 05.01.2020
1104 Clear 23 1026 38 0 3.1 150 11:20 05.01.2020
1105 Clear 21 1014 38 0 3.86 107 11:00 05.01.2020
1106 Clear 21 1014 38 0 3.86 107 10:40 05.01.2020
1107 Clear 21 1014 38 0 3.86 107 10:20 05.01.2020
1108 Clear 21 1014 38 0 3.86 107 09:42 05.01.2020
1109 Clear 19 1028 52 0 2.6 150 09:22 05.01.2020
1110 Clear 19 1028 52 0 2.6 150 08:54 05.01.2020
1111 Clear 19 1028 52 0 2.6 150 08:35 05.01.2020
1112 Clouds 16 1028 63 10000 2.1 190 07:59 05.01.2020
1113 Clouds 16 1028 63 10000 2.1 190 07:39 05.01.2020
1114 Clouds 16 1028 63 10000 2.1 190 07:21 05.01.2020
1115 Clouds 16 1028 63 10000 2.1 190 06:47 05.01.2020
1116 Clouds 11 1027 76 10000 1 20 05:39 05.01.2020
1117 Clouds 11 1026 76 10000 2.1 330 04:56 05.01.2020
1118 Clouds 11 1026 76 10000 2.1 330 04:18 05.01.2020
1119 Clouds 10 1016 82 0 1.45 351 03:26 05.01.2020
1120 Clouds 13 1026 66 10000 2.1 340 02:32 05.01.2020
1121 Clouds 13 1026 66 10000 2.1 340 01:49 05.01.2020
1122 Clouds 13 1026 66 10000 2.1 340 01:20 05.01.2020
1123 Clouds 14 1026 67 10000 3.1 80 00:57 05.01.2020
1124 Clouds 14 1026 67 10000 3.1 80 00:57 05.01.2020
1125 Clouds 14 1026 67 10000 3.1 80 00:39 05.01.2020
1126 Clouds 14 1026 67 10000 3.1 80 00:19 05.01.2020
1127 Clouds 11 1015 84 0 1.22 19 23:41 04.01.2020
1128 Clouds 15 1027 58 10000 2.1 130 23:20 04.01.2020
1129 Clouds 15 1027 58 10000 2.1 130 22:56 04.01.2020
1130 Clouds 15 1027 58 10000 2.1 130 22:38 04.01.2020
1131 Clouds 15 1027 58 10000 2.1 130 22:20 04.01.2020
1132 Clouds 16 1027 55 10000 4.1 70 21:55 04.01.2020
1133 Clouds 16 1027 55 10000 4.1 70 21:36 04.01.2020
1134 Clouds 16 1027 55 10000 4.1 70 21:18 04.01.2020
1135 Clouds 16 1028 55 10000 3.1 50 20:41 04.01.2020
1136 -273 0 0 0 0 0 20:22 04.01.2020
1137 Clouds 16 1028 67 10000 4.1 60 19:57 04.01.2020
1138 Clouds 13 1016 69 0 3.06 72 19:39 04.01.2020
1139 Clouds 13 1016 69 0 3.06 72 19:21 04.01.2020
1140 Clouds 13 1016 69 0 3.06 72 18:57 04.01.2020
1141 Clouds 13 1016 69 0 3.06 72 18:38 04.01.2020
1142 Clouds 13 1016 69 0 3.06 72 18:19 04.01.2020
1143 Clouds 13 1016 69 0 3.06 72 17:42 04.01.2020
1144 Clouds 13 1016 69 0 3.06 72 17:42 04.01.2020
1145 Clouds 21 1026 40 10000 5.1 90 17:24 04.01.2020
1146 Clouds 21 1026 40 10000 5.1 90 16:59 04.01.2020
1147 Clouds 17 1013 56 0 5.4 98 16:40 04.01.2020
1148 Clouds 21 1025 40 10000 4.6 100 16:22 04.01.2020
1149 Clouds 21 1025 40 10000 4.6 100 15:56 04.01.2020
1150 Clouds 21 1025 40 10000 4.6 100 15:38 04.01.2020
1151 Clouds 21 1025 40 10000 4.6 100 15:19 04.01.2020
1152 Clouds 21 1025 40 10000 4.6 100 14:54 04.01.2020
1153 Clouds 22 1024 40 10000 5.1 160 14:36 04.01.2020
1154 Clouds 22 1024 40 10000 5.1 160 14:18 04.01.2020
1155 Clouds 21 1012 44 0 4.76 89 13:39 04.01.2020
1156 Clouds 21 1012 44 0 4.76 89 13:39 04.01.2020
1157 Clouds 21 1012 42 0 5 93 13:20 04.01.2020
1158 Clouds 21 1012 42 0 5 93 12:59 04.01.2020
1159 Clouds 21 1012 42 0 5 93 12:40 04.01.2020
1160 Clouds 21 1012 42 0 5 93 12:40 04.01.2020
1161 Clouds 21 1012 42 0 5 93 12:19 04.01.2020
1162 Clouds 21 1012 42 0 5 93 11:57 04.01.2020
1163 Clouds 21 1012 42 0 5 93 11:38 04.01.2020
1164 Clouds 21 1028 43 10000 5.1 120 11:18 04.01.2020
1165 Clouds 21 1028 43 10000 5.1 120 10:41 04.01.2020
1166 Clouds 21 1028 43 10000 5.1 120 10:22 04.01.2020
1167 Clouds 21 1028 43 10000 5.1 120 09:50 04.01.2020
1168 Clouds 19 1029 42 10000 5.1 90 09:26 04.01.2020
1169 Clouds 19 1029 42 10000 5.1 90 09:26 04.01.2020
1170 Clouds 19 1029 42 10000 5.1 80 08:57 04.01.2020
1171 Clouds 19 1029 42 10000 5.1 80 08:37 04.01.2020
1172 Clouds 19 1029 42 10000 5.1 80 08:19 04.01.2020
1173 Clouds 17 1029 51 10000 5.1 80 07:42 04.01.2020
1174 Clouds 14 1029 62 10000 3.1 70 06:49 04.01.2020
1175 Clouds 14 1029 62 10000 3.1 70 05:59 04.01.2020
1176 Clouds 12 1028 71 10000 3.1 100 05:18 04.01.2020
1177 Clouds 12 1028 71 10000 3.1 40 04:32 04.01.2020
1178 Clear 10 1018 84 0 2.04 26 03:39 04.01.2020
1179 Clear 10 1018 84 0 2.04 26 03:18 04.01.2020
1180 Clouds 14 1027 67 10000 2.6 80 02:20 04.01.2020
1181 Clouds 14 1027 67 10000 2.6 80 01:53 04.01.2020
1182 Clouds 14 1027 67 10000 2.6 80 01:30 04.01.2020
1183 Clouds 14 1028 67 10000 2.1 110 00:30 04.01.2020
1184 Clouds 14 1028 67 10000 2.1 110 23:59 03.01.2020
1185 Clear 10 1017 82 0 1.49 22 23:38 03.01.2020
1186 Clouds 15 1029 62 10000 2.1 80 23:20 03.01.2020
1187 Clouds 15 1029 62 10000 2.1 80 22:41 03.01.2020
1188 Clouds 15 1029 62 10000 2.1 80 22:20 03.01.2020
1189 Clouds 15 1029 62 10000 2.1 80 21:58 03.01.2020
1190 Clouds 15 1029 62 10000 3.1 80 21:38 03.01.2020
1191 Clouds 15 1029 62 10000 3.1 80 21:19 03.01.2020
1192 Clouds 15 1029 62 10000 3.1 80 20:57 03.01.2020
1193 Clouds 15 1029 62 10000 2.1 110 20:39 03.01.2020
1194 Clouds 15 1029 62 10000 2.1 110 20:18 03.01.2020
1195 Clouds 15 1029 62 10000 2.1 110 19:55 03.01.2020
1196 Clouds 15 1029 62 10000 4.1 70 19:37 03.01.2020
1197 Clouds 15 1029 62 10000 4.1 70 19:18 03.01.2020
1198 Clouds 17 1028 63 10000 5.1 70 18:41 03.01.2020
1199 Clouds 17 1028 63 10000 5.1 70 18:23 03.01.2020
1200 Clouds 17 1028 63 10000 5.1 70 17:55 03.01.2020
1201 Clouds 18 1027 55 10000 5.1 80 17:36 03.01.2020
1202 Clouds 18 1027 55 10000 5.1 80 17:36 03.01.2020
1203 Clouds 18 1027 55 10000 5.1 80 17:18 03.01.2020
1204 Clouds 19 1027 52 10000 7.2 100 16:42 03.01.2020
1205 Clouds 19 1027 52 10000 7.2 100 16:22 03.01.2020
1206 Clouds 20 1026 45 10000 6.2 90 15:43 03.01.2020
1207 Clouds 20 1026 45 10000 6.2 90 15:19 03.01.2020
1208 Clouds 21 1026 43 10000 4.6 100 14:57 03.01.2020
1209 Clouds 21 1026 43 10000 4.6 100 14:37 03.01.2020
1210 Clouds 21 1026 43 10000 4.6 100 14:19 03.01.2020
1211 Clouds 22 1026 43 10000 5.1 100 13:43 03.01.2020
1212 Clouds 22 1026 43 10000 5.1 100 13:23 03.01.2020
1213 Clouds 22 1026 43 10000 5.1 100 12:57 03.01.2020
1214 Clear 22 1013 39 0 5.42 94 12:38 03.01.2020
1215 Clouds 21 1028 46 10000 5.1 110 12:20 03.01.2020
1216 Clouds 21 1028 46 10000 5.1 110 11:44 03.01.2020
1217 Clouds 21 1028 46 10000 5.1 110 11:19 03.01.2020
1218 Clouds 19 1030 48 10000 5.1 110 10:44 03.01.2020
1219 Clouds 19 1030 48 10000 5.1 110 10:25 03.01.2020
1220 Clouds 19 1030 48 10000 5.1 110 09:57 03.01.2020
1221 Clouds 19 1030 48 10000 5.1 110 09:39 03.01.2020
1222 Clouds 19 1030 48 10000 5.1 110 09:21 03.01.2020
1223 Clouds 18 1031 63 10000 4.1 100 08:56 03.01.2020
1224 Clouds 18 1031 63 10000 4.1 100 08:36 03.01.2020
1225 Clouds 18 1031 63 10000 4.1 100 08:18 03.01.2020
1226 Clouds 16 1031 72 10000 4.1 120 07:39 03.01.2020
1227 Clouds 16 1031 72 10000 4.1 120 07:18 03.01.2020
1228 Rain 16 1020 64 0 4.36 83 06:43 03.01.2020
1229 Clouds 13 1029 76 10000 1 150 06:24 03.01.2020
1230 Clouds 13 1029 76 10000 1 150 05:28 03.01.2020
1231 Clear 11 1019 90 0 1.03 57 03:55 03.01.2020
1232 Clear 11 1019 90 0 1.03 57 02:55 03.01.2020
1233 Clouds 11 1016 90 0 1.34 37 01:57 03.01.2020
1234 Clouds 11 1016 90 0 1.34 37 01:38 03.01.2020
1235 Clouds 13 1017 83 0 1.41 64 00:46 03.01.2020
1236 Clouds 13 1017 83 0 1.41 64 00:26 03.01.2020
1237 Clouds 13 1017 83 0 1.41 64 23:55 02.01.2020
1238 Clouds 13 1017 83 0 1.41 64 23:37 02.01.2020
1239 Clear 12 1018 86 0 3 58 23:18 02.01.2020
1240 Clear 12 1018 86 0 3 58 22:44 02.01.2020
1241 Clouds 15 1029 72 10000 4.1 70 22:20 02.01.2020
1242 Clear 12 1018 86 0 3 58 21:57 02.01.2020
1243 Clear 12 1018 86 0 3 58 21:38 02.01.2020
1244 Clear 12 1018 86 0 3 58 21:38 02.01.2020
1245 Clear 12 1018 86 0 3 58 21:20 02.01.2020
1246 Clear 12 1018 86 0 3 58 20:57 02.01.2020
1247 Clear 12 1018 86 0 3 58 20:38 02.01.2020
1248 Clouds 17 1029 63 10000 5.1 70 20:20 02.01.2020
1249 Clouds 17 1029 63 10000 5.1 70 20:20 02.01.2020
1250 Clouds 17 1029 63 10000 5.1 70 19:55 02.01.2020
1251 Clouds 17 1029 63 10000 5.1 70 19:36 02.01.2020
1252 Clouds 17 1029 63 10000 5.1 70 19:18 02.01.2020
1253 Clouds 18 1028 59 10000 6.2 70 18:54 02.01.2020
1254 Clouds 18 1028 59 10000 6.2 70 18:36 02.01.2020
1255 Clouds 18 1028 59 10000 6.2 70 18:18 02.01.2020
1256 Clouds 19 1027 55 10000 6.2 80 17:55 02.01.2020
1257 Clouds 19 1027 55 10000 6.2 80 17:36 02.01.2020
1258 Clouds 19 1027 55 10000 6.2 80 17:18 02.01.2020
1259 Clouds 20 1027 52 10000 4.1 80 16:42 02.01.2020
1260 Clouds 20 1027 52 10000 4.1 80 16:21 02.01.2020
1261 Clouds 22 1026 40 10000 7.2 110 15:58 02.01.2020
1262 Clouds 22 1026 40 10000 7.2 110 15:40 02.01.2020
1263 Clouds 22 1026 40 10000 7.2 110 15:40 02.01.2020
1264 Clouds 22 1026 40 10000 7.2 110 15:22 02.01.2020
1265 Clouds 23 1026 53 10000 5.1 100 14:57 02.01.2020
1266 Clear 17 1014 62 0 7.06 95 14:37 02.01.2020
1267 Clouds 23 1026 49 10000 6.2 70 14:18 02.01.2020
1268 Clouds 23 1026 49 10000 6.2 70 13:51 02.01.2020
1269 Clouds 23 1026 49 10000 6.2 70 13:32 02.01.2020
1270 Clear 22 1013 41 0 6.23 100 12:47 02.01.2020
1271 Clouds 21 1028 46 10000 6.2 90 12:28 02.01.2020
1272 Clouds 21 1028 46 10000 6.2 90 11:59 02.01.2020
1273 Clouds 21 1028 46 10000 6.2 90 11:41 02.01.2020
1274 Clouds 21 1028 46 10000 6.2 90 11:20 02.01.2020
1275 Clouds 21 1028 46 10000 6.2 90 10:45 02.01.2020
1276 Clouds 21 1028 46 10000 6.2 110 10:26 02.01.2020
1277 Clouds 21 1028 46 10000 6.2 110 09:55 02.01.2020
1278 Clouds 19 1029 45 10000 6.2 80 09:34 02.01.2020
1279 Clouds 19 1029 45 10000 6.2 80 08:50 02.01.2020
1280 Clouds 19 1029 45 10000 6.2 80 08:28 02.01.2020
1281 Clouds 17 1030 45 10000 5.1 70 07:57 02.01.2020
1282 Clouds 17 1030 45 10000 5.1 70 07:31 02.01.2020
1283 Clouds 16 1018 66 0 3.6 96 06:57 02.01.2020
1284 Clouds 16 1018 66 0 3.6 96 06:57 02.01.2020
1285 Clouds 16 1018 66 0 3.6 96 06:57 02.01.2020
1286 Clouds 16 1018 66 0 3.6 96 06:39 02.01.2020
1287 Clouds 14 1028 62 10000 3.1 70 05:37 02.01.2020
1288 Clouds 10 1027 87 10000 1 10 04:34 02.01.2020
1289 Clouds 10 1026 87 10000 1 60 03:19 02.01.2020
1290 Clouds 11 1026 87 10000 2.6 30 02:20 02.01.2020
1291 Clouds 11 1026 87 10000 1 360 01:47 02.01.2020
1292 Clouds 11 1026 87 10000 1 360 01:19 02.01.2020
1293 Clouds 13 1027 66 10000 3.1 350 00:36 02.01.2020
1294 Clouds 13 1027 66 10000 3.1 350 00:18 02.01.2020
1295 Clouds 11 1016 88 0 1.93 27 23:40 01.01.2020
1296 Clear 12 1017 87 0 2.34 47 23:20 01.01.2020
1297 Clear 12 1017 87 0 2.34 47 22:38 01.01.2020
1298 Clear 12 1017 87 0 2.34 47 22:20 01.01.2020
1299 Clear 12 1017 87 0 2.34 47 22:20 01.01.2020
1300 Clear 12 1017 87 0 2.34 47 21:56 01.01.2020
1301 Clear 12 1017 87 0 2.34 47 21:38 01.01.2020
1302 Clear 12 1017 87 0 2.34 47 21:38 01.01.2020
1303 Clear 12 1017 87 0 2.34 47 21:19 01.01.2020
1304 Clear 12 1017 87 0 2.34 47 20:56 01.01.2020
1305 Clear 12 1017 87 0 2.34 47 20:56 01.01.2020
1306 Clear 12 1017 87 0 2.34 47 20:38 01.01.2020
1307 Clear 12 1017 87 0 2.34 47 20:38 01.01.2020
1308 Clouds 13 1017 83 0 3.11 61 20:19 01.01.2020
1309 Clouds 13 1017 82 0 3.07 60 19:55 01.01.2020
1310 Clouds 13 1017 82 0 3.07 60 19:55 01.01.2020
1311 Clouds 13 1017 82 0 3.07 60 19:55 01.01.2020
1312 Clouds 13 1017 82 0 3.07 60 19:37 01.01.2020
1313 Clouds 13 1017 82 0 3.07 60 19:37 01.01.2020
1314 Clouds 13 1017 82 0 3.07 60 19:19 01.01.2020
1315 Clouds 13 1017 82 0 3.07 60 18:55 01.01.2020
1316 Clouds 13 1017 82 0 3.07 60 18:36 01.01.2020
1317 Clouds 13 1017 82 0 3.07 60 18:18 01.01.2020
1318 Clouds 13 1017 82 0 3.07 60 17:56 01.01.2020
1319 Clouds 13 1017 82 0 3.07 60 17:38 01.01.2020
1320 Clouds 17 1014 58 0 5.09 94 17:18 01.01.2020
1321 Clouds 17 1014 58 0 5.09 94 16:41 01.01.2020
1322 Clouds 17 1014 58 0 5.09 94 16:22 01.01.2020
1323 Clouds 17 1014 58 0 5.09 94 15:58 01.01.2020
1324 Clouds 17 1014 58 0 5.09 94 15:40 01.01.2020
1325 Clouds 22 1025 37 10000 4.1 110 15:21 01.01.2020
1326 Clouds 22 1025 37 10000 4.1 110 14:59 01.01.2020
1327 Clouds 22 1025 37 10000 4.1 110 14:40 01.01.2020
1328 Clouds 22 1025 37 10000 4.1 110 14:21 01.01.2020
1329 Clear 21 1012 38 0 5.78 105 13:56 01.01.2020
1330 Clear 21 1012 38 0 5.78 105 13:37 01.01.2020
1331 Clear 21 1012 38 0 5.78 105 13:37 01.01.2020
1332 Clear 21 1012 37 0 5.72 103 13:37 01.01.2020
1333 Clear 21 1012 37 0 5.72 103 13:37 01.01.2020
1334 Clear 21 1012 37 0 5.72 103 13:18 01.01.2020
1335 Clear 21 1012 37 0 5.72 103 12:56 01.01.2020
1336 Clear 21 1012 37 0 5.72 103 12:56 01.01.2020
1337 Clear 21 1012 37 0 5.72 103 12:38 01.01.2020
1338 Clear 21 1012 37 0 5.72 103 12:18 01.01.2020
1339 Clear 21 1012 37 0 5.72 103 11:43 01.01.2020
1340 Clouds 21 1027 40 10000 4.1 110 11:23 01.01.2020
1341 Clouds 21 1027 40 10000 4.1 110 10:59 01.01.2020
1342 Clouds 21 1027 40 10000 4.1 110 10:41 01.01.2020
1343 Clouds 21 1027 40 10000 4.1 110 10:20 01.01.2020
1344 Clouds 21 1027 40 10000 4.1 110 09:57 01.01.2020
1345 Clouds 19 1028 42 10000 4.1 90 09:37 01.01.2020
1346 Clouds 19 1028 42 10000 4.1 90 09:18 01.01.2020
1347 Clouds 18 1029 45 10000 4.1 80 08:55 01.01.2020
1348 Clouds 18 1029 45 10000 4.1 80 08:36 01.01.2020
1349 Clouds 18 1029 45 10000 4.1 80 08:36 01.01.2020
1350 Clouds 18 1029 45 10000 4.1 80 08:18 01.01.2020
1351 Clouds 15 1029 51 10000 4.1 100 07:51 01.01.2020
1352 Clouds 15 1029 51 10000 4.1 100 07:32 01.01.2020
1353 Clear 14 1028 62 0 3.1 70 06:44 01.01.2020
1354 Clear 14 1028 62 0 3.1 70 06:20 01.01.2020
1355 Clear 11 1027 76 0 3.6 60 05:21 01.01.2020
1356 Clear 10 1017 79 0 1.72 16 03:43 01.01.2020
1357 Clear 12 1025 71 0 1 350 03:22 01.01.2020
1358 Clear 12 1025 71 0 1 350 02:57 01.01.2020
1359 Clear 12 1025 71 0 1 350 02:34 01.01.2020
1360 Clear 10 1016 78 0 2.09 15 01:55 01.01.2020
1361 Clear 10 1016 78 0 2.09 15 01:36 01.01.2020
1362 Clear 13 1026 66 0 5.1 60 01:18 01.01.2020
1363 Clear 13 1026 66 0 5.1 60 00:44 01.01.2020
1364 Clear 13 1026 66 0 5.1 60 00:24 01.01.2020
1365 Clouds 13 1027 66 10000 4.1 80 23:41 31.12.2019
1366 Clouds 13 1027 66 10000 4.1 80 23:21 31.12.2019
1367 Clouds 14 1027 67 10000 7.2 60 22:57 31.12.2019
1368 Clouds 14 1027 67 10000 7.2 60 22:38 31.12.2019
1369 Clouds 14 1027 67 10000 7.2 60 22:19 31.12.2019
1370 Clouds 14 1027 67 10000 7.2 60 21:57 31.12.2019
1371 Clouds 14 1028 67 10000 3.1 60 21:37 31.12.2019
1372 Clouds 14 1028 67 10000 3.1 60 21:19 31.12.2019
1373 Clouds 14 1028 67 10000 3.1 60 20:54 31.12.2019
1374 Clouds 14 1028 67 10000 5.1 50 20:36 31.12.2019
1375 Clouds 14 1028 67 10000 5.1 50 20:18 31.12.2019
1376 Clouds 15 1028 58 10000 5.1 50 19:41 31.12.2019
1377 Clouds 15 1028 58 10000 5.1 50 19:22 31.12.2019
1378 Clouds 16 1028 55 10000 4.1 40 18:59 31.12.2019
1379 Clouds 16 1028 55 10000 4.1 40 18:40 31.12.2019
1380 Clouds 16 1028 55 10000 4.1 40 18:20 31.12.2019
1381 Clouds 18 1027 45 10000 6.2 60 17:56 31.12.2019
1382 Clouds 18 1027 45 10000 6.2 60 17:38 31.12.2019
1383 Clouds 18 1027 45 10000 6.2 60 17:19 31.12.2019
1384 Clouds 18 1027 45 10000 6.2 60 16:57 31.12.2019
1385 Clouds 21 1027 37 10000 7.2 90 16:38 31.12.2019
1386 Clouds 21 1027 37 10000 7.2 90 16:19 31.12.2019
1387 Clouds 21 1027 37 10000 7.2 90 15:56 31.12.2019
1388 Clear 16 1014 52 0 5.18 90 15:38 31.12.2019
1389 Clouds 23 1026 31 10000 5.7 70 15:20 31.12.2019
1390 Clouds 23 1026 31 10000 5.7 70 14:58 31.12.2019
1391 Clouds 23 1026 31 10000 5.7 70 14:38 31.12.2019
1392 Clouds 23 1026 31 10000 5.7 70 14:19 31.12.2019
1393 Clouds 23 1026 31 10000 5.7 70 13:57 31.12.2019
1394 Clouds 21 1012 35 0 6.13 98 13:39 31.12.2019
1395 Clouds 21 1013 38 0 6.15 98 13:21 31.12.2019
1396 Clouds 21 1013 38 0 6.15 98 13:21 31.12.2019
1397 Clouds 21 1013 38 0 6.15 98 12:58 31.12.2019
1398 Clouds 21 1013 38 0 6.15 98 12:39 31.12.2019
1399 Clouds 21 1013 38 0 6.15 98 12:20 31.12.2019
1400 Clouds 21 1013 38 0 6.15 98 11:56 31.12.2019
1401 Clouds 21 1013 38 0 6.15 98 11:38 31.12.2019
1402 Clouds 22 1028 37 0 6.2 100 11:20 31.12.2019
1403 Clouds 22 1028 37 0 6.2 100 10:57 31.12.2019
1404 Clouds 22 1028 37 0 6.2 100 10:57 31.12.2019
1405 Clouds 22 1028 37 0 6.2 100 10:38 31.12.2019
1406 Clouds 22 1028 37 0 6.2 100 10:20 31.12.2019
1407 Clouds 21 1029 40 0 5.7 100 09:58 31.12.2019
1408 Clouds 21 1029 40 0 5.7 100 09:39 31.12.2019
1409 Clouds 21 1029 40 0 5.7 100 09:20 31.12.2019
1410 Clouds 20 1017 41 0 5.49 97 08:57 31.12.2019
1411 Clouds 20 1017 41 0 5.49 97 08:37 31.12.2019
1412 Clouds 15 1019 56 0 4.08 87 08:19 31.12.2019
1413 Clouds 15 1019 56 0 4.08 87 07:42 31.12.2019
1414 Clouds 15 1019 56 0 4.08 87 07:20 31.12.2019
1415 Clouds 15 1019 56 0 4.08 87 06:49 31.12.2019
1416 Clouds 11 1028 87 10000 2.1 70 05:57 31.12.2019
1417 Clouds 9 1018 80 0 1.87 30 04:28 31.12.2019
1418 Clouds 9 1018 80 0 1.87 30 03:27 31.12.2019
1419 Clouds 9 1018 80 0 1.87 30 02:54 31.12.2019
1420 Clear 10 1016 79 0 2 16 01:55 31.12.2019
1421 Clear 10 1016 79 0 2 16 01:35 31.12.2019
1422 Clear 10 1016 80 0 1.91 16 00:59 31.12.2019
1423 Clear 10 1016 80 0 1.91 16 00:41 31.12.2019
1424 Clear 10 1016 80 0 1.91 16 00:21 31.12.2019
1425 Clear 10 1016 80 0 1.91 16 23:56 30.12.2019
1426 Clear 10 1016 80 0 1.91 16 23:37 30.12.2019
1427 Clear 11 1018 78 0 2.61 43 23:19 30.12.2019
1428 Clear 11 1018 78 0 2.61 43 22:56 30.12.2019
1429 Clear 11 1018 78 0 2.61 43 22:37 30.12.2019
1430 Clear 11 1018 78 0 2.61 43 22:37 30.12.2019
1431 Clear 11 1018 78 0 2.61 43 22:37 30.12.2019
1432 Clear 11 1018 78 0 2.61 43 22:18 30.12.2019
1433 Clear 11 1018 78 0 2.61 43 21:56 30.12.2019
1434 Clear 11 1018 78 0 2.61 43 21:38 30.12.2019
1435 Clear 11 1018 78 0 2.61 43 21:18 30.12.2019
1436 Clear 11 1018 78 0 2.61 43 20:56 30.12.2019
1437 Clear 11 1018 78 0 2.61 43 20:38 30.12.2019
1438 Clouds 12 1017 69 0 3.85 62 20:19 30.12.2019
1439 Clouds 12 1017 69 0 3.85 62 19:56 30.12.2019
1440 Clouds 12 1017 69 0 3.85 62 19:37 30.12.2019
1441 Clouds 12 1017 69 0 3.85 62 19:37 30.12.2019
1442 Clouds 12 1017 69 0 3.85 62 19:18 30.12.2019
1443 Clouds 12 1017 69 0 3.85 62 18:56 30.12.2019
1444 Clouds 12 1017 69 0 3.85 62 18:36 30.12.2019
1445 Clouds 18 1027 52 10000 5.1 70 18:18 30.12.2019
1446 Clouds 18 1027 52 10000 5.1 70 17:54 30.12.2019
1447 Clouds 18 1027 52 10000 5.1 70 17:36 30.12.2019
1448 Clouds 18 1027 52 10000 5.1 70 17:36 30.12.2019
1449 Clouds 18 1027 52 10000 5.1 70 17:18 30.12.2019
1450 Clouds 20 1026 42 10000 5.1 100 16:41 30.12.2019
1451 Clouds 20 1026 42 10000 5.1 100 16:41 30.12.2019
1452 Clouds 20 1026 42 10000 5.1 100 16:20 30.12.2019
1453 Clouds 20 1026 42 10000 5.1 100 15:57 30.12.2019
1454 Clouds 20 1025 45 10000 4.1 100 15:39 30.12.2019
1455 Clouds 20 1025 45 10000 4.1 100 15:19 30.12.2019
1456 Clouds 20 1025 45 10000 4.1 100 15:19 30.12.2019
1457 Clouds 20 1025 45 10000 4.1 100 14:55 30.12.2019
1458 Clouds 22 1025 40 10000 4.1 80 14:37 30.12.2019
1459 Clouds 22 1025 40 10000 4.1 80 14:37 30.12.2019
1460 Clouds 22 1025 40 10000 4.1 80 14:18 30.12.2019
1461 Clouds 22 1025 40 10000 4.1 80 13:42 30.12.2019
1462 Clouds 22 1025 40 10000 4.1 80 13:24 30.12.2019
1463 Clouds 22 1025 40 10000 4.1 80 13:24 30.12.2019
1464 Clouds 22 1025 40 10000 4.1 80 12:59 30.12.2019
1465 Clear 20 1012 43 0 6.47 101 12:41 30.12.2019
1466 Clouds 22 1026 40 10000 3.1 110 12:19 30.12.2019
1467 Clear 20 1012 43 0 6.47 101 11:56 30.12.2019
1468 Clear 20 1012 43 0 6.47 101 11:38 30.12.2019
1469 Clouds 21 1028 43 10000 4.1 80 11:18 30.12.2019
1470 Clouds 21 1028 43 10000 4.1 80 10:43 30.12.2019
1471 Clouds 21 1028 43 10000 4.1 80 10:20 30.12.2019
1472 Clouds 19 1028 52 10000 5.1 100 09:55 30.12.2019
1473 Clouds 19 1028 52 10000 5.1 100 09:55 30.12.2019
1474 Clouds 19 1028 52 10000 5.1 100 09:37 30.12.2019
1475 Clouds 19 1028 52 10000 5.1 100 09:18 30.12.2019
1476 Clouds 17 1028 63 10000 5.1 60 08:46 30.12.2019
1477 Clouds 15 1028 72 10000 6.2 80 08:23 30.12.2019
1478 Clouds 15 1028 72 10000 6.2 80 07:53 30.12.2019
1479 Clouds 15 1028 72 10000 6.2 80 07:32 30.12.2019
1480 Clouds 14 1028 76 10000 4.1 70 06:39 30.12.2019
1481 Clouds 12 1026 62 10000 1 290 04:45 30.12.2019
1482 Clouds 12 1026 62 10000 1 290 03:52 30.12.2019
1483 Clouds 10 1017 95 0 1.21 40 02:47 30.12.2019
1484 Clouds 13 1025 58 10000 5.1 80 02:29 30.12.2019
1485 Clouds 13 1025 58 10000 5.1 80 01:43 30.12.2019
1486 Clouds 13 1025 58 10000 5.1 80 01:19 30.12.2019
1487 Clouds 13 1025 58 10000 5.1 70 00:42 30.12.2019
1488 Clouds 14 1026 62 10000 6.2 70 23:58 29.12.2019
1489 Clouds 14 1026 62 10000 6.2 70 23:38 29.12.2019
1490 Clouds 14 1026 62 10000 6.2 70 23:38 29.12.2019
1491 Clouds 14 1026 62 10000 6.2 70 23:19 29.12.2019
1492 Clouds 14 1026 62 10000 6.2 60 22:41 29.12.2019
1493 Clouds 14 1026 62 10000 6.2 60 22:41 29.12.2019
1494 Clouds 14 1026 62 10000 6.2 60 22:22 29.12.2019
1495 Clouds 14 1026 62 10000 6.2 60 21:56 29.12.2019
1496 Clouds 11 1015 93 0 2.42 67 21:38 29.12.2019
1497 Clouds 15 1027 54 10000 5.1 60 21:20 29.12.2019
1498 Clouds 15 1027 54 10000 5.1 60 20:56 29.12.2019
1499 Clouds 15 1027 54 10000 5.1 60 20:38 29.12.2019
1500 Clouds 15 1027 54 10000 5.1 60 20:20 29.12.2019
1501 Clouds 16 1027 48 10000 5.1 70 19:58 29.12.2019
1502 Clouds 16 1027 48 10000 5.1 70 19:39 29.12.2019
1503 Clouds 16 1027 48 10000 5.1 70 19:20 29.12.2019
1504 Clouds 16 1027 48 10000 5.1 70 18:55 29.12.2019
1505 Clouds 16 1026 48 10000 5.1 70 18:37 29.12.2019
1506 Clouds 16 1026 48 10000 5.1 70 18:19 29.12.2019
1507 Clouds 16 1026 48 10000 5.1 70 18:19 29.12.2019
1508 Clouds 16 1026 48 10000 5.1 70 17:56 29.12.2019
1509 Clouds 16 1025 48 10000 5.1 70 17:38 29.12.2019
1510 Clouds 16 1025 48 10000 5.1 70 17:38 29.12.2019
1511 Clouds 16 1025 48 10000 5.1 70 17:19 29.12.2019
1512 Clouds 19 1024 48 10000 4.1 80 16:56 29.12.2019
1513 Clouds 19 1024 48 10000 4.1 80 16:36 29.12.2019
1514 Clouds 19 1024 48 10000 4.1 80 16:18 29.12.2019
1515 Clouds 19 1024 48 10000 4.1 80 15:56 29.12.2019
1516 Clouds 21 1023 43 10000 5.1 90 15:38 29.12.2019
1517 Clouds 21 1023 43 10000 5.1 90 15:19 29.12.2019
1518 Clouds 21 1023 43 10000 5.1 90 14:55 29.12.2019
1519 Clouds 22 1023 40 10000 5.1 160 14:37 29.12.2019
1520 Clouds 22 1023 40 10000 5.1 160 14:18 29.12.2019
1521 Clouds 22 1023 40 10000 5.1 160 13:55 29.12.2019
1522 Clouds 22 1023 40 10000 5.1 150 13:37 29.12.2019
1523 Clouds 22 1023 40 10000 5.1 150 13:18 29.12.2019
1524 Clouds 23 1025 38 10000 2.1 90 12:42 29.12.2019
1525 Clouds 23 1025 38 10000 2.1 90 12:24 29.12.2019
1526 Clouds 22 1026 40 10000 4.1 90 11:56 29.12.2019
1527 Clouds 22 1026 40 10000 4.1 90 11:37 29.12.2019
1528 Clouds 22 1026 40 10000 4.1 90 11:19 29.12.2019
1529 Clouds 21 1026 43 10000 4.1 90 10:42 29.12.2019
1530 Clouds 21 1026 43 10000 4.1 90 10:22 29.12.2019
1531 Clouds 19 1027 55 10000 4.1 70 09:56 29.12.2019
1532 Clouds 19 1027 55 10000 4.1 70 09:38 29.12.2019
1533 Clouds 19 1027 55 10000 4.1 70 09:19 29.12.2019
1534 Clouds 15 1028 77 10000 5.1 80 08:46 29.12.2019
1535 Clouds 15 1028 77 10000 5.1 80 08:24 29.12.2019
1536 Clouds 14 1017 79 0 2.63 91 07:54 29.12.2019
1537 Clouds 14 1017 79 0 2.63 91 07:28 29.12.2019
1538 Clouds 14 1017 79 0 2.63 91 06:53 29.12.2019
1539 Clouds 14 1017 79 0 2.63 91 06:24 29.12.2019
1540 Clouds 14 1017 79 0 2.63 91 05:51 29.12.2019
1541 Clouds 11 1016 92 0 1.42 36 04:36 29.12.2019
1542 Clouds 11 1016 92 0 1.42 36 03:43 29.12.2019
1543 Clouds 11 1016 92 0 1.42 36 03:19 29.12.2019
1544 Clouds 10 1014 95 0 1.84 30 02:20 29.12.2019
1545 Clouds 10 1014 95 0 1.84 30 02:20 29.12.2019
1546 Clouds 10 1014 95 0 1.84 30 01:31 29.12.2019
1547 Clouds 10 1014 95 0 1.84 30 01:31 29.12.2019
1548 Clouds 11 1014 93 0 1.97 46 00:55 29.12.2019
1549 Clouds 11 1014 93 0 1.97 46 00:36 29.12.2019
1550 Clouds 11 1014 93 0 1.97 46 00:18 29.12.2019
1551 Clouds 11 1014 93 0 1.97 46 23:41 28.12.2019
1552 Clouds 12 1015 96 0 2.43 60 23:18 28.12.2019
1553 Clouds 12 1015 96 0 2.43 60 22:39 28.12.2019
1554 Clouds 12 1015 96 0 2.43 60 22:20 28.12.2019
1555 Clouds 12 1015 96 0 2.43 60 21:58 28.12.2019
1556 Clouds 12 1015 96 0 2.43 60 21:39 28.12.2019
1557 Clouds 12 1015 96 0 2.43 60 21:20 28.12.2019
1558 Clouds 12 1015 96 0 2.43 60 20:56 28.12.2019
1559 Clouds 12 1015 96 0 2.43 60 20:37 28.12.2019
1560 Rain 13 1014 89 0 4.04 67 20:18 28.12.2019
1561 Rain 13 1014 89 0 4.04 67 19:55 28.12.2019
1562 Rain 13 1014 89 0 4.04 67 19:36 28.12.2019
1563 Clouds 19 1025 52 10000 5.1 70 19:18 28.12.2019
1564 Clouds 19 1025 52 10000 5.1 70 18:55 28.12.2019
1565 Clouds 19 1025 52 10000 5.1 70 18:37 28.12.2019
1566 Clouds 19 1024 52 10000 6.2 70 18:18 28.12.2019
1567 Clouds 19 1024 52 10000 6.2 70 17:42 28.12.2019
1568 Clouds 19 1024 52 10000 6.2 70 17:21 28.12.2019
1569 Clouds 16 1011 72 0 4.99 100 16:55 28.12.2019
1570 Clouds 16 1011 72 0 4.99 100 16:37 28.12.2019
1571 Clouds 16 1011 72 0 4.99 100 16:19 28.12.2019
1572 Clouds 16 1011 72 0 4.99 100 15:43 28.12.2019
1573 Clouds 16 1011 72 0 4.99 100 15:21 28.12.2019
1574 Clouds 16 1011 72 0 4.99 100 14:48 28.12.2019
1575 Clouds 23 1022 38 10000 5.1 190 14:26 28.12.2019
1576 Clouds 23 1022 38 10000 5.1 190 13:58 28.12.2019
1577 Clouds 23 1022 38 10000 5.1 190 13:40 28.12.2019
1578 Clouds 23 1022 38 10000 5.1 190 13:21 28.12.2019
1579 Clouds 23 1009 31 0 3.4 199 12:58 28.12.2019
1580 Clouds 23 1009 31 0 3.4 199 12:40 28.12.2019
1581 Clouds 21 1024 40 10000 3.1 210 12:21 28.12.2019
1582 Clouds 21 1024 40 10000 3.1 210 11:40 28.12.2019
1583 Clouds 21 1024 40 10000 3.1 210 11:21 28.12.2019
1584 Clouds 21 1024 40 10000 3.1 210 11:21 28.12.2019
1585 Clouds 21 1024 40 10000 3.1 210 10:56 28.12.2019
1586 Clouds 20 1026 45 10000 2.1 130 10:37 28.12.2019
1587 Clouds 20 1026 45 10000 2.1 130 10:18 28.12.2019
1588 Clouds 20 1026 45 10000 2.1 130 09:46 28.12.2019
1589 Clouds 18 1027 48 10000 2.1 100 09:24 28.12.2019
1590 Clouds 18 1027 48 10000 2.1 100 08:58 28.12.2019
1591 Clouds 18 1027 45 10000 3.1 100 08:40 28.12.2019
1592 Clouds 18 1027 45 10000 3.1 100 08:22 28.12.2019
1593 Clouds 18 1027 45 10000 3.1 100 07:43 28.12.2019
1594 Clouds 16 1027 59 10000 4.1 50 07:21 28.12.2019
1595 Clouds 14 1016 69 0 1.99 99 05:45 28.12.2019
1596 Clouds 11 1025 87 10000 4.1 50 03:48 28.12.2019
1597 Clouds 11 1024 87 10000 4.1 50 02:50 28.12.2019
1598 Clouds 11 1024 87 10000 4.1 50 02:20 28.12.2019
1599 Clouds 11 1024 87 10000 4.1 50 01:54 28.12.2019
1600 Clouds 12 1024 87 10000 4.1 80 01:22 28.12.2019
1601 Clouds 12 1025 87 10000 4.1 70 00:45 28.12.2019
1602 Clouds 12 1025 87 10000 4.1 70 00:27 28.12.2019
1603 Clouds 12 1025 87 10000 5.7 60 23:57 27.12.2019
1604 Clouds 12 1025 87 10000 5.7 60 23:37 27.12.2019
1605 Clouds 12 1025 87 10000 5.7 60 23:18 27.12.2019
1606 Clouds 12 1025 87 10000 4.1 70 22:55 27.12.2019
1607 Clouds 12 1025 87 10000 4.1 70 22:37 27.12.2019
1608 Clouds 12 1025 87 10000 4.1 70 22:19 27.12.2019
1609 Clouds 13 1026 87 10000 4.1 50 21:41 27.12.2019
1610 Clouds 13 1026 87 10000 4.1 50 21:23 27.12.2019
1611 Clouds 14 1026 67 10000 5.7 60 20:44 27.12.2019
1612 Clouds 14 1026 67 10000 5.7 60 20:26 27.12.2019
1613 Clouds 15 1026 62 10000 3.1 70 19:58 27.12.2019
1614 Clouds 15 1026 62 10000 3.1 70 19:58 27.12.2019
1615 Clouds 15 1026 62 10000 3.1 70 19:40 27.12.2019
1616 Clouds 15 1026 62 10000 3.1 70 19:19 27.12.2019
1617 Clouds 16 1025 59 10000 4.1 70 18:55 27.12.2019
1618 Clouds 16 1025 59 10000 4.1 70 18:36 27.12.2019
1619 Clouds 16 1025 59 10000 4.1 70 18:18 27.12.2019
1620 Clouds 18 1024 52 10000 4.1 120 17:55 27.12.2019
1621 Clouds 18 1024 52 10000 4.1 120 17:36 27.12.2019
1622 Clouds 18 1024 52 10000 4.1 120 17:18 27.12.2019
1623 Clouds 20 1023 45 10000 3.1 150 16:41 27.12.2019
1624 Clouds 20 1023 45 10000 3.1 150 16:22 27.12.2019
1625 Clouds 20 1023 45 10000 3.1 150 15:57 27.12.2019
1626 Clouds 22 1022 37 10000 4.1 190 15:37 27.12.2019
1627 Clouds 22 1022 37 10000 4.1 190 15:37 27.12.2019
1628 Clouds 22 1022 37 10000 4.1 190 15:18 27.12.2019
1629 Clouds 22 1022 37 10000 4.1 190 14:55 27.12.2019
1630 Clouds 16 1011 70 0 3.97 99 14:37 27.12.2019
1631 Clouds 22 1022 37 10000 5.1 190 14:19 27.12.2019
1632 Clouds 22 1022 37 10000 5.1 190 13:44 27.12.2019
1633 Clouds 22 1022 37 10000 5.1 190 13:22 27.12.2019
1634 Clouds 22 1023 40 10000 3.1 210 12:49 27.12.2019
1635 Clouds 22 1023 40 10000 3.1 210 12:29 27.12.2019
1636 Clouds 22 1023 40 10000 3.1 210 11:59 27.12.2019
1637 Clouds 20 1024 45 10000 2.6 210 11:41 27.12.2019
1638 Clouds 20 1024 45 10000 2.6 210 11:20 27.12.2019
1639 Clouds 20 1024 45 10000 2.6 210 11:20 27.12.2019
1640 Clouds 20 1024 45 10000 2.6 210 11:20 27.12.2019
1641 Clouds 20 1024 45 10000 2.6 210 10:47 27.12.2019
1642 Clouds 20 1025 45 10000 3.1 160 10:24 27.12.2019
1643 Clouds 20 1025 45 10000 3.1 160 09:57 27.12.2019
1644 Clouds 17 1026 59 10000 1.5 90 09:38 27.12.2019
1645 Clouds 17 1026 59 10000 1.5 90 09:20 27.12.2019
1646 Clouds 15 1027 67 10000 1.5 150 08:46 27.12.2019
1647 Clouds 15 1027 67 10000 1.5 150 08:27 27.12.2019
1648 Clouds 14 1027 67 7000 1.64 130 07:41 27.12.2019
1649 Clouds 14 1027 67 7000 1.64 130 07:22 27.12.2019
1650 Clouds 13 1027 71 6000 1.64 130 06:27 27.12.2019
1651 Clouds 11 1026 76 0 1.5 350 04:40 27.12.2019
1652 Clouds 11 1025 76 0 3.6 70 02:29 27.12.2019
1653 Clear 11 1025 76 0 3.6 70 01:48 27.12.2019
1654 Clear 10 1015 93 0 0.9 43 01:23 27.12.2019
1655 Clear 10 1015 92 0 0.81 39 00:47 27.12.2019
1656 Clear 10 1015 92 0 0.81 39 00:27 27.12.2019
1657 Clear 10 1015 92 0 0.81 39 23:56 26.12.2019
1658 Clear 10 1015 92 0 0.81 39 23:38 26.12.2019
1659 Clear 11 1016 92 0 1.25 31 23:19 26.12.2019
1660 Clear 11 1016 92 0 1.25 31 22:40 26.12.2019
1661 Clear 11 1016 92 0 1.25 31 22:18 26.12.2019
1662 Clear 11 1016 92 0 1.25 31 21:40 26.12.2019
1663 Clear 11 1016 92 0 1.25 31 21:21 26.12.2019
1664 Clear 11 1016 92 0 1.25 31 20:58 26.12.2019
1665 Clear 11 1016 92 0 1.25 31 20:39 26.12.2019
1666 Clear 11 1016 92 0 1.25 31 20:39 26.12.2019
1667 Clouds 16 1026 63 10000 5.1 70 20:21 26.12.2019
1668 Clouds 16 1026 63 10000 5.1 70 19:56 26.12.2019
1669 Clouds 16 1026 63 10000 5.1 70 19:38 26.12.2019
1670 Clouds 16 1026 63 10000 5.1 70 19:19 26.12.2019
1671 Clouds 12 1015 84 0 2.77 57 18:57 26.12.2019
1672 Clouds 12 1015 84 0 2.77 57 18:36 26.12.2019
1673 Clouds 12 1015 84 0 2.77 57 18:18 26.12.2019
1674 Clouds 12 1015 84 0 2.77 57 17:42 26.12.2019
1675 Clouds 20 1024 45 10000 4.1 120 17:22 26.12.2019
1676 Clouds 20 1024 45 10000 4.1 120 16:50 26.12.2019
1677 Clouds 20 1024 45 10000 4.1 120 16:28 26.12.2019
1678 Clouds 21 1024 46 10000 5.1 140 15:58 26.12.2019
1679 Clouds 21 1024 46 10000 5.1 140 15:40 26.12.2019
1680 Clouds 21 1024 46 10000 5.1 140 15:19 26.12.2019
1681 Clouds 16 1012 69 0 4.17 103 14:42 26.12.2019
1682 Clouds 22 1024 43 10000 4.6 117 14:23 26.12.2019
1683 Clouds 22 1024 43 10000 4.6 117 13:57 26.12.2019
1684 Clouds 22 1024 43 10000 4.6 117 13:39 26.12.2019
1685 Clouds 22 1024 43 10000 4.6 117 13:39 26.12.2019
1686 Clouds 22 1024 43 10000 4.6 117 13:18 26.12.2019
1687 Clouds 21 1025 43 10000 4.1 140 12:45 26.12.2019
1688 Clouds 21 1025 43 10000 4.1 140 12:26 26.12.2019
1689 Clouds 21 1025 43 10000 4.1 140 11:59 26.12.2019
1690 Clouds 21 1026 43 10000 4.1 160 11:40 26.12.2019
1691 Clouds 21 1026 43 10000 4.1 160 11:22 26.12.2019
1692 Clouds 21 1026 43 10000 4.1 160 10:51 26.12.2019
1693 Clouds 18 1027 55 10000 4.1 160 10:27 26.12.2019
1694 Clouds 18 1027 55 10000 4.1 160 09:59 26.12.2019
1695 Clouds 18 1027 55 10000 4.1 160 09:41 26.12.2019
1696 Clouds 18 1027 55 10000 4.1 160 09:22 26.12.2019
1697 Clouds 17 1028 55 10000 4.1 120 08:39 26.12.2019
1698 Clouds 17 1028 55 10000 4.1 120 08:21 26.12.2019
1699 Clouds 16 1028 59 10000 4.1 90 07:44 26.12.2019
1700 Clouds 16 1028 59 10000 4.1 90 07:24 26.12.2019
1701 Clear 14 1018 68 0 2.71 90 06:38 26.12.2019
1702 Clear 14 1018 68 0 2.71 90 06:20 26.12.2019
1703 Clear 14 1018 68 0 2.71 90 05:42 26.12.2019
1704 Clear 10 1017 91 0 1.34 28 04:33 26.12.2019
1705 Clear 10 1017 91 0 1.34 28 03:32 26.12.2019
1706 Clear 10 1017 91 0 1.34 28 02:46 26.12.2019
1707 Clear 10 1017 91 0 1.34 28 02:27 26.12.2019
1708 Clear 10 1015 92 0 1 29 01:44 26.12.2019
1709 Clear 10 1015 91 0 1 35 01:25 26.12.2019
1710 Clear 10 1015 91 0 1 35 00:44 26.12.2019
1711 Clear 10 1015 91 0 1 35 00:23 26.12.2019
1712 Clear 10 1015 91 0 1 35 23:57 25.12.2019
1713 Clear 10 1015 91 0 1 35 23:37 25.12.2019
1714 Clear 11 1016 89 0 1.76 46 23:19 25.12.2019
1715 Clear 11 1016 89 0 1.76 46 22:56 25.12.2019
1716 Clear 11 1016 89 0 1.76 46 22:37 25.12.2019
1717 Clear 11 1016 89 0 1.76 46 22:18 25.12.2019
1718 Clear 11 1016 89 0 1.76 46 22:18 25.12.2019
1719 Clear 11 1016 89 0 1.76 46 21:55 25.12.2019
1720 Clear 11 1016 89 0 1.76 46 21:55 25.12.2019
1721 Clear 11 1016 89 0 1.76 46 21:37 25.12.2019
1722 Clear 11 1016 89 0 1.76 46 21:18 25.12.2019
1723 Clear 11 1016 89 0 1.76 46 20:40 25.12.2019
1724 Clouds 13 1016 80 0 2.7 59 20:21 25.12.2019
1725 Clouds 13 1016 80 0 2.7 59 19:59 25.12.2019
1726 Clouds 13 1016 80 0 2.7 59 19:41 25.12.2019
1727 Clouds 13 1016 80 0 2.7 59 19:21 25.12.2019
1728 Clouds 13 1016 80 0 2.7 59 18:40 25.12.2019
1729 Clouds 13 1016 80 0 2.7 59 18:21 25.12.2019
1730 Clouds 13 1016 80 0 2.7 59 18:21 25.12.2019
1731 Clouds 13 1016 80 0 2.7 59 17:57 25.12.2019
1732 Clouds 13 1016 80 0 2.7 59 17:39 25.12.2019
1733 Clouds 17 1013 62 0 4.49 103 17:18 25.12.2019
1734 Clouds 17 1013 62 0 4.49 103 16:54 25.12.2019
1735 Clouds 17 1013 62 0 4.49 103 16:36 25.12.2019
1736 Clouds 17 1013 62 0 4.49 103 16:18 25.12.2019
1737 Clouds 17 1013 62 0 4.49 103 15:40 25.12.2019
1738 Clouds 17 1013 62 0 4.49 103 15:22 25.12.2019
1739 Clouds 17 1013 62 0 4.49 103 14:59 25.12.2019
1740 Clouds 17 1013 62 0 4.49 103 14:41 25.12.2019
1741 Clouds 22 1012 39 0 1.38 196 14:23 25.12.2019
1742 Clouds 23 1024 35 10000 3.1 170 13:58 25.12.2019
1743 Clouds 23 1024 35 10000 3.1 170 13:39 25.12.2019
1744 Clouds 23 1024 35 10000 3.1 170 13:19 25.12.2019
1745 Clouds 22 1024 40 10000 2.6 180 12:43 25.12.2019
1746 Clouds 22 1024 40 10000 2.6 180 12:21 25.12.2019
1747 Clouds 22 1024 40 10000 2.6 180 12:21 25.12.2019
1748 Clouds 21 1026 43 10000 3.6 210 11:57 25.12.2019
1749 Clouds 21 1026 43 10000 3.6 210 11:39 25.12.2019
1750 Clouds 21 1026 43 10000 3.6 210 11:20 25.12.2019
1751 Clouds 20 1027 45 10000 3.1 180 10:39 25.12.2019
1752 Clouds 20 1027 45 10000 3.1 180 10:21 25.12.2019
1753 Clouds 20 1027 45 10000 3.1 180 09:51 25.12.2019
1754 Clouds 19 1028 48 10000 3.1 180 09:33 25.12.2019
1755 Clouds 19 1028 48 10000 3.1 180 08:51 25.12.2019
1756 Clouds 17 1029 55 10000 1.5 100 08:32 25.12.2019
1757 Clouds 15 1029 72 10000 1.5 130 07:59 25.12.2019
1758 Clouds 15 1029 72 10000 1.5 130 07:59 25.12.2019
1759 Clouds 15 1029 72 10000 1.5 130 07:37 25.12.2019
1760 Clouds 15 1029 72 10000 1.5 130 07:19 25.12.2019
1761 Clouds 11 1028 81 10000 2.1 220 06:23 25.12.2019
1762 Clouds 15 1018 55 0 2.22 97 05:43 25.12.2019
1763 Clouds 11 1026 81 10000 2.1 90 04:39 25.12.2019
1764 Clouds 11 1026 81 10000 2.1 90 04:20 25.12.2019
1765 Clouds 11 1026 81 10000 3.1 90 03:43 25.12.2019
1766 Clouds 11 1025 81 10000 4.1 80 02:57 25.12.2019
1767 Clouds 11 1025 81 10000 4.1 80 02:28 25.12.2019
1768 Clouds 12 1025 76 10000 5.1 60 01:26 25.12.2019
1769 Clouds 12 1025 76 10000 5.1 60 01:26 25.12.2019
1770 Clouds 13 1015 67 0 0.87 58 00:56 25.12.2019
1771 Clouds 13 1015 67 0 0.87 58 00:33 25.12.2019
1772 Clouds 17 1026 63 10000 5.1 60 23:59 24.12.2019
1773 Clouds 17 1026 63 10000 5.1 60 23:39 24.12.2019
1774 Clouds 17 1026 63 10000 5.1 60 23:39 24.12.2019
1775 Clouds 17 1026 63 10000 5.1 60 23:20 24.12.2019
1776 Clouds 17 1026 63 10000 5.1 60 23:20 24.12.2019
1777 Clear 12 1016 77 0 1.12 60 22:42 24.12.2019
1778 Clouds 17 1027 63 10000 3.1 100 22:23 24.12.2019
1779 Clouds 17 1027 63 10000 3.1 100 21:55 24.12.2019
1780 Clouds 17 1027 63 10000 3.1 100 21:37 24.12.2019
1781 Clouds 17 1027 63 10000 3.1 100 21:18 24.12.2019
1782 Clouds 18 1027 59 10000 5.1 60 20:41 24.12.2019
1783 Clouds 18 1027 59 10000 5.1 60 20:19 24.12.2019
1784 Clouds 13 1016 70 0 2.5 52 19:46 24.12.2019
1785 Clouds 19 1026 48 10000 5.1 60 19:22 24.12.2019
1786 Clouds 19 1026 48 10000 5.1 60 18:58 24.12.2019
1787 Clouds 19 1026 48 10000 5.1 60 18:40 24.12.2019
1788 Clouds 19 1026 48 10000 5.1 60 18:18 24.12.2019
1789 Clouds 13 1016 70 0 2.5 52 17:42 24.12.2019
1790 Clouds 19 1024 48 10000 4.1 130 17:21 24.12.2019
1791 Clouds 19 1024 48 10000 4.1 130 16:58 24.12.2019
1792 Clouds 19 1024 48 10000 4.1 130 16:58 24.12.2019
1793 Clouds 19 1024 48 10000 4.1 130 16:39 24.12.2019
1794 Clouds 19 1024 48 10000 4.1 130 16:39 24.12.2019
1795 Clouds 19 1024 48 10000 4.1 130 16:20 24.12.2019
1796 Clouds 20 1024 45 10000 4.6 150 15:57 24.12.2019
1797 Clouds 20 1024 45 10000 4.6 150 15:37 24.12.2019
1798 Clouds 20 1024 45 10000 4.6 150 15:19 24.12.2019
1799 Clouds 20 1024 45 10000 4.6 150 14:57 24.12.2019
1800 Clouds 21 1024 43 10000 2.1 220 14:39 24.12.2019
1801 Clouds 21 1024 43 10000 2.1 220 14:21 24.12.2019
1802 Clouds 21 1024 43 10000 2.1 220 14:21 24.12.2019
1803 Clouds 21 1024 43 10000 2.1 220 13:56 24.12.2019
1804 Clouds 22 1024 40 10000 2.1 60 13:37 24.12.2019
1805 Clouds 22 1024 40 10000 2.1 60 13:37 24.12.2019
1806 Clouds 22 1024 40 10000 2.1 60 13:19 24.12.2019
1807 Clouds 22 1024 40 10000 2.1 60 13:19 24.12.2019
1808 Clouds 21 1025 46 10000 6.2 180 12:56 24.12.2019
1809 Clouds 21 1025 46 10000 6.2 180 12:37 24.12.2019
1810 Clouds 21 1025 46 10000 6.2 180 12:19 24.12.2019
1811 Clouds 21 1026 46 10000 5.1 170 12:19 24.12.2019
1812 Clouds 21 1026 46 10000 5.1 170 11:56 24.12.2019
1813 Clouds 21 1026 46 10000 5.1 170 11:37 24.12.2019
1814 Clouds 21 1026 46 10000 5.1 170 11:37 24.12.2019
1815 Clouds 21 1026 46 10000 5.1 170 11:19 24.12.2019
1816 Clouds 21 1027 46 10000 3.1 150 10:56 24.12.2019
1817 Clouds 21 1027 46 10000 3.1 150 10:56 24.12.2019
1818 Clouds 21 1027 46 10000 3.1 150 10:37 24.12.2019
1819 Clouds 21 1027 46 10000 3.1 150 10:19 24.12.2019
1820 Clouds 18 1028 52 10000 3.1 100 09:55 24.12.2019
1821 Clouds 18 1028 52 10000 3.1 100 09:37 24.12.2019
1822 Clouds 18 1028 52 10000 3.1 100 09:37 24.12.2019
1823 Clouds 18 1028 52 10000 3.1 100 09:19 24.12.2019
1824 Clouds 17 1029 55 10000 4.1 150 08:45 24.12.2019
1825 Clouds 17 1029 55 10000 4.1 150 08:24 24.12.2019
1826 Clouds 17 1029 51 10000 5.1 80 07:46 24.12.2019
1827 Clouds 17 1029 51 10000 5.1 80 07:26 24.12.2019
1828 Clouds 15 1028 58 10000 3.1 50 06:58 24.12.2019
1829 Clouds 15 1028 58 10000 3.1 50 06:38 24.12.2019
1830 Clouds 15 1028 58 10000 3.1 50 06:19 24.12.2019
1831 Clouds 12 1027 71 10000 2.6 40 05:21 24.12.2019
1832 Clouds 12 1027 71 10000 2.6 40 04:59 24.12.2019
1833 Clouds 12 1027 71 10000 2.6 40 03:50 24.12.2019
1834 Clouds 12 1026 66 10000 1 40 03:22 24.12.2019
1835 Clouds 12 1026 71 10000 3.6 60 02:23 24.12.2019
1836 Clouds 12 1026 81 10000 4.6 80 01:51 24.12.2019
1837 Clouds 12 1026 81 10000 4.6 80 01:22 24.12.2019
1838 Clouds 13 1015 68 0 0.84 72 00:45 24.12.2019
1839 Clouds 13 1026 76 10000 4.6 60 00:24 24.12.2019
1840 Clouds 13 1015 68 0 0.84 72 23:59 23.12.2019
1841 Clouds 13 1015 68 0 0.84 72 23:40 23.12.2019
1842 Clouds 15 1026 62 10000 3.1 90 23:22 23.12.2019
1843 Clouds 15 1026 62 10000 3.1 90 22:56 23.12.2019
1844 Clouds 15 1026 62 10000 3.1 90 22:37 23.12.2019
1845 Clouds 15 1026 62 10000 3.1 90 22:18 23.12.2019
1846 Clouds 15 1026 62 10000 3.1 90 21:55 23.12.2019
1847 Clouds 14 1016 67 0 1.31 87 21:36 23.12.2019
1848 Clouds 14 1016 67 0 1.31 87 21:18 23.12.2019
1849 Clouds 14 1016 67 0 1.31 87 20:57 23.12.2019
1850 Clouds 14 1016 67 0 1.31 87 20:39 23.12.2019
1851 Clouds 13 1016 69 0 2.66 44 20:18 23.12.2019
1852 Clouds 13 1016 69 0 2.66 44 19:55 23.12.2019
1853 Clouds 13 1016 69 0 2.66 44 19:37 23.12.2019
1854 Clouds 17 1026 55 10000 4.1 60 19:19 23.12.2019
1855 Clouds 17 1026 55 10000 4.1 60 18:57 23.12.2019
1856 Clouds 17 1026 55 10000 4.1 60 18:38 23.12.2019
1857 Clouds 17 1026 55 10000 4.1 60 18:20 23.12.2019
1858 Clouds 13 1016 69 0 2.66 44 17:55 23.12.2019
1859 Clouds 13 1016 69 0 2.66 44 17:55 23.12.2019
1860 Clouds 19 1025 48 10000 4.1 120 17:37 23.12.2019
1861 Clouds 19 1025 48 10000 4.1 120 17:19 23.12.2019
1862 Clouds 19 1025 48 10000 4.1 120 16:42 23.12.2019
1863 Clouds 19 1025 48 10000 4.1 120 16:19 23.12.2019
1864 Clouds 21 1024 43 10000 4.1 180 15:59 23.12.2019
1865 Clouds 21 1024 43 10000 4.1 180 15:39 23.12.2019
1866 Clouds 21 1024 43 10000 4.1 180 15:20 23.12.2019
1867 Clouds 18 1013 49 0 2.21 140 14:59 23.12.2019
1868 Clouds 18 1013 49 0 2.21 140 14:41 23.12.2019
1869 Clouds 22 1024 40 10000 4.1 190 14:23 23.12.2019
1870 Clouds 22 1024 40 10000 4.1 190 13:58 23.12.2019
1871 Clouds 22 1024 40 10000 4.1 190 13:40 23.12.2019
1872 Clouds 22 1024 40 10000 4.1 190 13:22 23.12.2019
1873 Clouds 19 1013 46 0 3.24 211 12:57 23.12.2019
1874 Clouds 19 1013 46 0 3.24 211 12:39 23.12.2019
1875 Clouds 21 1024 43 10000 3.1 160 12:19 23.12.2019
1876 Clouds 19 1013 46 0 3.24 211 11:44 23.12.2019
1877 Clouds 19 1013 46 0 3.24 211 11:26 23.12.2019
1878 Clouds 18 1017 48 0 2.24 154 10:59 23.12.2019
1879 Clouds 18 1017 48 0 2.24 154 10:40 23.12.2019
1880 Clouds 19 1028 45 10000 3.1 80 10:21 23.12.2019
1881 Clouds 19 1028 45 10000 3.1 80 09:59 23.12.2019
1882 Clouds 19 1028 45 10000 3.1 80 09:40 23.12.2019
1883 Clouds 19 1028 45 10000 3.1 80 09:21 23.12.2019
1884 Clouds 19 1028 45 10000 3.1 80 08:56 23.12.2019
1885 Clouds 17 1028 51 10000 4.1 130 08:38 23.12.2019
1886 Clouds 17 1028 51 10000 4.1 130 08:20 23.12.2019
1887 Clouds 17 1028 51 10000 5.1 100 07:43 23.12.2019
1888 Clouds 17 1028 51 10000 5.1 100 07:20 23.12.2019
1889 Clouds 15 1028 58 10000 2.1 110 06:53 23.12.2019
1890 Clouds 15 1028 58 10000 2.1 110 06:26 23.12.2019
1891 Clouds 15 1028 58 10000 2.1 110 05:53 23.12.2019
1892 Clouds 12 1027 66 10000 2.29 72 05:28 23.12.2019
1893 Clouds 12 1027 66 10000 1.41 41 04:31 23.12.2019
1894 Clouds 14 1026 58 10000 4.1 60 03:18 23.12.2019
1895 Clouds 14 1026 58 10000 4.1 60 02:40 23.12.2019
1896 Clouds 14 1026 58 10000 4.1 60 02:18 23.12.2019
1897 Clouds 14 1026 58 10000 5.1 70 01:41 23.12.2019
1898 Clouds 14 1026 58 10000 5.1 70 01:20 23.12.2019
1899 Clouds 14 1026 62 10000 5.1 70 00:43 23.12.2019
1900 Clouds 14 1026 62 10000 5.1 70 00:21 23.12.2019
1901 Clouds 14 1027 67 10000 4.1 80 23:39 22.12.2019
1902 Clouds 14 1027 67 10000 4.1 80 23:21 22.12.2019
1903 Clouds 15 1027 62 10000 5.7 70 22:58 22.12.2019
1904 Clouds 15 1027 62 10000 5.7 70 22:39 22.12.2019
1905 Clouds 15 1027 62 10000 5.7 70 22:19 22.12.2019
1906 Clouds 14 1027 71 10000 6.7 70 21:57 22.12.2019
1907 Clouds 14 1027 71 10000 6.7 70 21:39 22.12.2019
1908 Clouds 14 1027 71 10000 6.7 70 21:21 22.12.2019
1909 Clouds 14 1028 71 10000 4.1 80 20:57 22.12.2019
1910 Clouds 14 1028 71 10000 4.1 80 20:38 22.12.2019
1911 Clouds 14 1028 71 10000 4.1 80 20:18 22.12.2019
1912 Clouds 15 1027 67 10000 4.1 70 19:55 22.12.2019
1913 Clouds 15 1027 67 10000 4.1 70 19:37 22.12.2019
1914 Clouds 15 1027 67 10000 4.1 70 19:18 22.12.2019
1915 Clouds 15 1027 67 10000 5.1 70 18:40 22.12.2019
1916 Clouds 15 1027 67 10000 5.1 70 18:22 22.12.2019
1917 Clouds 15 1027 67 10000 5.1 70 17:55 22.12.2019
1918 Clouds 17 1026 59 10000 5.1 70 17:37 22.12.2019
1919 Clouds 17 1026 59 10000 5.1 70 17:18 22.12.2019
1920 Clouds 17 1026 59 10000 5.1 70 16:56 22.12.2019
1921 Clouds 19 1025 52 10000 5.1 90 16:37 22.12.2019
1922 Clouds 19 1025 52 10000 5.1 90 16:19 22.12.2019
1923 Clouds 19 1025 52 10000 5.1 90 15:56 22.12.2019
1924 Clouds 21 1024 46 10000 5.1 160 15:36 22.12.2019
1925 Clouds 21 1024 46 10000 5.1 160 15:36 22.12.2019
1926 Clouds 21 1024 46 10000 5.1 160 15:18 22.12.2019
1927 Clouds 21 1024 46 10000 5.1 160 14:54 22.12.2019
1928 Clouds 21 1024 46 10000 5.1 160 14:54 22.12.2019
1929 Clouds 15 1014 57 0 4.51 104 14:36 22.12.2019
1930 Clouds 21 1024 46 10000 5.1 140 14:18 22.12.2019
1931 Clouds 21 1024 46 10000 5.1 140 14:18 22.12.2019
1932 Clouds 21 1024 46 10000 5.1 140 13:54 22.12.2019
1933 Clouds 21 1024 46 10000 5.1 140 13:36 22.12.2019
1934 Clouds 21 1024 46 10000 5.1 140 13:18 22.12.2019
1935 Clouds 21 1024 46 10000 5.1 140 12:54 22.12.2019
1936 Clouds 20 1026 45 10000 5.1 160 12:36 22.12.2019
1937 Clouds 20 1026 45 10000 5.1 160 12:18 22.12.2019
1938 Clouds 19 1012 43 0 3.38 107 11:39 22.12.2019
1939 Clouds 20 1026 45 10000 4.6 100 11:20 22.12.2019
1940 Clouds 20 1026 45 10000 4.6 100 10:58 22.12.2019
1941 Clouds 20 1026 45 10000 4.6 100 10:40 22.12.2019
1942 Clouds 20 1026 45 10000 4.6 100 10:21 22.12.2019
1943 Clouds 20 1027 45 10000 4.6 120 09:58 22.12.2019
1944 Clouds 20 1027 45 10000 4.6 120 09:40 22.12.2019
1945 Clouds 20 1027 45 10000 4.6 120 09:21 22.12.2019
1946 Clouds 17 1029 42 10000 3.1 110 08:55 22.12.2019
1947 Clouds 17 1029 42 10000 3.1 110 08:37 22.12.2019
1948 Clouds 17 1029 55 10000 3.1 110 08:18 22.12.2019
1949 Clouds 16 1029 55 10000 2.1 150 07:36 22.12.2019
1950 Clouds 16 1029 55 10000 2.1 150 07:18 22.12.2019
1951 Clouds 13 1029 55 10000 1.5 260 06:40 22.12.2019
1952 Clouds 11 1028 81 10000 2.1 360 05:49 22.12.2019
1953 Clouds 11 1028 81 10000 2.1 360 05:21 22.12.2019
1954 Clouds 10 1017 86 0 1.75 47 04:27 22.12.2019
1955 Clouds 10 1017 86 0 1.75 47 03:45 22.12.2019
1956 Clouds 10 1017 86 0 1.75 47 02:38 22.12.2019
1957 Clear 10 1017 89 0 1.27 352 01:37 22.12.2019
1958 Clear 10 1017 89 0 1.51 3 01:18 22.12.2019
1959 Clear 10 1017 89 0 1.51 3 00:45 22.12.2019
1960 Clear 10 1017 89 0 1.51 3 00:21 22.12.2019
1961 Clear 10 1017 89 0 1.51 3 23:42 21.12.2019
1962 Clear 10 1017 90 0 0.85 9 23:24 21.12.2019
1963 Clear 10 1017 90 0 0.85 9 22:59 21.12.2019
1964 Clear 10 1017 90 0 0.85 9 22:40 21.12.2019
1965 Clear 10 1017 90 0 0.85 9 22:19 21.12.2019
1966 Clouds 23 1025 90 0 4.1 160 21:56 21.12.2019
1967 Clouds 23 1025 90 0 4.1 160 21:37 21.12.2019
1968 Clouds 23 1025 90 0 4.1 160 21:19 21.12.2019
1969 Clouds 23 1025 90 0 4.1 160 20:58 21.12.2019
1970 Clouds 23 1025 90 0 4.1 160 20:39 21.12.2019
1971 Clouds 23 1025 88 0 4.1 160 20:21 21.12.2019
1972 Clear 12 1017 88 0 3.06 57 19:57 21.12.2019
1973 Clear 12 1017 88 0 3.06 57 19:39 21.12.2019
1974 Clear 12 1017 88 0 3.06 57 19:19 21.12.2019
1975 Clear 12 1017 88 0 3.06 57 18:44 21.12.2019
1976 Clear 12 1017 88 0 3.06 57 18:24 21.12.2019
1977 Clear 12 1017 88 0 3.06 57 17:57 21.12.2019
1978 Clear 12 1017 88 0 3.06 57 17:39 21.12.2019
1979 Rain 15 1013 75 0 4.02 100 17:21 21.12.2019
1980 Rain 15 1013 75 0 4.02 100 16:58 21.12.2019
1981 Rain 15 1013 75 0 4.02 100 16:39 21.12.2019
1982 Rain 15 1013 75 0 4.02 100 16:18 21.12.2019
1983 Rain 15 1013 75 0 4.02 100 15:56 21.12.2019
1984 Rain 15 1013 75 0 4.02 100 15:38 21.12.2019
1985 Rain 15 1013 75 0 4.02 100 15:19 21.12.2019
1986 Rain 15 1013 75 0 4.02 100 14:45 21.12.2019
1987 Rain 15 1013 75 0 4.02 100 14:26 21.12.2019
1988 Clouds 19 1012 54 0 4.18 122 13:59 21.12.2019
1989 Clouds 19 1012 54 0 4.18 122 13:40 21.12.2019
1990 Clouds 18 1012 55 0 4.6 115 13:20 21.12.2019
1991 Clouds 18 1012 55 0 4.6 115 12:58 21.12.2019
1992 Clouds 18 1012 55 0 4.6 115 12:39 21.12.2019
1993 Clouds 18 1012 55 0 4.6 115 12:21 21.12.2019
1994 Clouds 18 1012 55 0 4.6 115 11:57 21.12.2019
1995 Clouds 18 1012 55 0 4.6 115 11:39 21.12.2019
1996 Clouds 20 1015 39 0 1.77 138 11:21 21.12.2019
1997 Clouds 20 1015 39 0 1.77 138 10:42 21.12.2019
1998 Clouds 20 1015 39 0 1.77 138 10:23 21.12.2019
1999 Clouds 20 1015 39 0 1.77 138 09:59 21.12.2019
2000 Clouds 20 1015 39 0 1.77 138 09:41 21.12.2019
2001 Clouds 20 1015 39 0 1.77 138 09:20 21.12.2019
2002 Clouds 20 1015 39 0 1.77 138 08:55 21.12.2019
2003 Clouds 20 1015 39 0 1.77 138 08:36 21.12.2019
2004 Clouds 14 1019 58 0 2.35 73 08:18 21.12.2019
2005 Clouds 14 1019 60 0 2.53 76 07:41 21.12.2019
2006 Clouds 14 1019 60 0 2.53 76 07:21 21.12.2019
2007 Clouds 14 1019 60 0 2.53 76 06:42 21.12.2019
2008 Clouds 14 1019 60 0 2.53 76 06:24 21.12.2019
2009 Clouds 14 1019 60 0 2.53 76 05:45 21.12.2019
2010 Clouds 10 1027 87 10000 2.1 310 04:57 21.12.2019
2011 Clouds 10 1027 87 10000 2.1 310 03:56 21.12.2019
2012 Clouds 9 1018 83 0 1.12 28 02:39 21.12.2019
2013 Clear 9 1016 85 0 1.7 8 01:53 21.12.2019
2014 Clouds 12 1026 81 10000 4.1 50 01:27 21.12.2019
2015 Clouds 12 1026 81 10000 4.1 50 00:50 21.12.2019
2016 Clouds 12 1026 81 10000 4.1 50 00:28 21.12.2019
2017 Clouds 9 1016 85 0 1.69 10 23:55 20.12.2019
2018 Clouds 9 1016 85 0 1.69 10 23:36 20.12.2019
2019 Clouds 12 1028 81 10000 5.1 60 23:18 20.12.2019
2020 Clouds 12 1028 81 10000 5.1 60 22:40 20.12.2019
2021 Clouds 12 1028 81 10000 5.1 60 22:21 20.12.2019
2022 Clouds 12 1028 81 10000 5.1 60 21:57 20.12.2019
2023 Clouds 13 1028 82 10000 4.1 80 21:39 20.12.2019
2024 Clouds 13 1028 82 10000 4.1 80 21:39 20.12.2019
2025 Clouds 13 1028 82 10000 4.1 80 21:18 20.12.2019
2026 Clouds 13 1028 82 10000 6.2 70 20:39 20.12.2019
2027 Clouds 13 1028 82 10000 6.2 70 20:19 20.12.2019
2028 Clouds 13 1028 82 10000 6.2 70 19:57 20.12.2019
2029 Clouds 14 1028 76 10000 5.1 80 19:39 20.12.2019
2030 Clouds 14 1028 76 10000 5.1 80 19:19 20.12.2019
2031 Clear 12 1017 80 0 2.61 60 18:42 20.12.2019
2032 Clear 12 1017 80 0 2.61 60 18:42 20.12.2019
2033 Clouds 17 1026 63 10000 5.1 90 18:23 20.12.2019
2034 Clouds 17 1026 63 10000 5.1 90 17:58 20.12.2019
2035 Clouds 17 1026 63 10000 5.1 90 17:40 20.12.2019
2036 Clouds 17 1026 63 10000 5.1 90 17:20 20.12.2019
2037 Clouds 19 1026 55 10000 4.1 130 16:59 20.12.2019
2038 Clouds 19 1026 55 10000 4.1 130 16:59 20.12.2019
2039 Clouds 19 1026 55 10000 4.1 130 16:38 20.12.2019
2040 Clouds 19 1026 55 10000 4.1 130 16:20 20.12.2019
2041 Clouds 19 1026 55 10000 4.1 130 16:20 20.12.2019
2042 Clear 20 1025 45 0 4.1 150 15:56 20.12.2019
2043 Clear 20 1025 45 0 4.1 150 15:38 20.12.2019
2044 Clear 20 1025 45 0 4.1 150 15:38 20.12.2019
2045 Clear 15 1013 65 0 3.43 99 15:19 20.12.2019
2046 Clear 15 1013 65 0 3.43 99 14:43 20.12.2019
2047 Clear 20 1012 44 0 4.73 115 14:24 20.12.2019
2048 Clear 20 1012 44 0 4.73 115 13:59 20.12.2019
2049 Clear 20 1012 44 0 4.73 115 13:59 20.12.2019
2050 Clear 20 1012 44 0 4.73 115 13:40 20.12.2019
2051 Clouds 21 1025 49 10000 4.6 150 13:19 20.12.2019
2052 Clouds 21 1025 49 10000 4.6 150 12:57 20.12.2019
2053 Clouds 21 1025 49 10000 4.6 150 12:37 20.12.2019
2054 Clouds 21 1025 49 10000 4.6 150 12:18 20.12.2019
2055 Clouds 19 1027 48 10000 3.6 100 11:57 20.12.2019
2056 Clouds 19 1027 48 10000 3.6 100 11:39 20.12.2019
2057 Clouds 19 1027 48 10000 3.6 100 11:18 20.12.2019
2058 Clouds 19 1027 48 10000 3.6 100 10:56 20.12.2019
2059 Clouds 19 1027 48 10000 3.6 100 10:38 20.12.2019
2060 Clouds 19 1027 48 10000 3.6 100 10:20 20.12.2019
2061 Clouds 18 1027 52 10000 3.6 110 09:43 20.12.2019
2062 Clouds 18 1027 52 10000 3.6 110 09:21 20.12.2019
2063 Clear 19 1016 42 0 3.32 114 08:58 20.12.2019
2064 Clear 19 1016 42 0 3.32 114 08:38 20.12.2019
2065 Clouds 13 1019 61 0 2.37 84 08:20 20.12.2019
2066 Clouds 13 1020 60 0 2.18 86 08:20 20.12.2019
2067 Clouds 13 1019 61 0 2.37 84 07:57 20.12.2019
2068 Clouds 13 1019 61 0 2.37 84 07:57 20.12.2019
2069 Clouds 13 1019 61 0 2.37 84 07:38 20.12.2019
2070 Clouds 13 1019 61 0 2.37 84 07:18 20.12.2019
2071 Clouds 12 1028 66 10000 4.6 80 06:46 20.12.2019
2072 Clouds 12 1028 66 10000 4.6 80 06:28 20.12.2019
2073 Clouds 13 1019 61 0 2.37 84 05:48 20.12.2019
2074 Clouds 9 1027 76 10000 4.1 50 05:18 20.12.2019
2075 Clouds 9 1027 76 10000 3.1 70 03:49 20.12.2019
2076 Clouds 9 1027 76 10000 3.1 70 03:20 20.12.2019
2077 Clouds 9 1026 81 10000 1.32 37 02:20 20.12.2019
2078 Clouds 10 1026 76 0 1.32 37 01:36 20.12.2019
2079 Clouds 11 1026 71 10000 3.1 40 00:57 20.12.2019
2080 Clouds 11 1026 71 10000 3.1 40 00:35 20.12.2019
2081 Clouds 12 1027 66 10000 4.1 50 23:58 19.12.2019
2082 Clouds 12 1027 66 10000 4.1 50 23:58 19.12.2019
2083 Clouds 12 1027 66 10000 4.1 50 23:40 19.12.2019
2084 Clouds 12 1027 66 10000 4.1 50 23:19 19.12.2019
2085 Clouds 12 1028 66 10000 5.1 60 22:40 19.12.2019
2086 Clouds 12 1028 66 10000 5.1 60 22:22 19.12.2019
2087 Clouds 12 1028 66 10000 5.1 70 21:57 19.12.2019
2088 Clouds 12 1028 66 10000 5.1 70 21:39 19.12.2019
2089 Clouds 12 1028 66 10000 5.1 70 21:19 19.12.2019
2090 Clouds 13 1028 62 10000 7.2 70 20:56 19.12.2019
2091 Clouds 13 1028 62 10000 7.2 70 20:37 19.12.2019
2092 Clouds 13 1028 62 10000 7.2 70 20:19 19.12.2019
2093 Clouds 13 1028 62 10000 6.2 70 19:58 19.12.2019
2094 Clouds 13 1028 62 10000 6.2 70 19:58 19.12.2019
2095 Clouds 13 1028 62 10000 6.2 70 19:39 19.12.2019
2096 Clouds 13 1028 62 10000 6.2 70 19:19 19.12.2019
2097 Clouds 13 1028 62 10000 6.2 70 19:19 19.12.2019
2098 Clouds 13 1028 62 10000 6.2 70 19:19 19.12.2019
2099 Clouds 14 1028 58 10000 6.2 50 18:57 19.12.2019
2100 Clouds 14 1028 58 10000 6.2 50 18:39 19.12.2019
2101 Clouds 14 1028 58 10000 6.2 50 18:19 19.12.2019
2102 Clouds 16 1027 48 10000 4.1 90 17:55 19.12.2019
2103 Clouds 16 1027 48 10000 4.1 90 17:37 19.12.2019
2104 Clouds 16 1027 48 10000 4.1 90 17:18 19.12.2019
2105 Clouds 18 1026 39 10000 4.1 100 16:55 19.12.2019
2106 Clouds 18 1026 39 10000 4.1 100 16:36 19.12.2019
2107 Clouds 18 1026 39 10000 4.1 100 16:18 19.12.2019
2108 Clouds 20 1025 32 10000 5.7 100 15:55 19.12.2019
2109 Clouds 20 1025 32 10000 5.7 100 15:36 19.12.2019
2110 Clouds 20 1025 32 10000 5.7 100 15:18 19.12.2019
2111 Clouds 20 1025 32 10000 6.7 100 14:42 19.12.2019
2112 Clouds 20 1025 32 10000 6.7 100 14:20 19.12.2019
2113 Clouds 21 1025 30 10000 6.7 100 13:58 19.12.2019
2114 Clouds 21 1025 30 10000 6.7 100 13:38 19.12.2019
2115 Clouds 21 1025 30 10000 6.7 100 13:19 19.12.2019
2116 Clouds 21 1025 30 10000 6.7 100 13:19 19.12.2019
2117 Clouds 20 1026 34 10000 8.2 110 12:57 19.12.2019
2118 Clouds 20 1026 34 10000 8.2 110 12:38 19.12.2019
2119 Clouds 20 1026 34 10000 8.2 110 12:19 19.12.2019
2120 Clouds 20 1026 34 10000 8.2 110 12:19 19.12.2019
2121 Clouds 20 1026 37 10000 6.2 100 11:58 19.12.2019
2122 Clouds 20 1026 37 10000 6.2 100 11:40 19.12.2019
2123 Clouds 20 1026 37 10000 6.2 100 11:18 19.12.2019
2124 Clouds 20 1026 37 10000 6.2 100 11:18 19.12.2019
2125 Clouds 20 1026 37 10000 6.2 100 11:18 19.12.2019
2126 Clouds 19 1028 34 10000 7.2 90 10:56 19.12.2019
2127 Clouds 19 1028 34 10000 7.2 90 10:37 19.12.2019
2128 Clouds 19 1028 34 10000 7.2 90 10:19 19.12.2019
2129 Clouds 18 1028 45 10000 6.2 100 09:40 19.12.2019
2130 Clouds 18 1028 45 10000 6.2 100 09:40 19.12.2019
2131 Clouds 18 1028 45 10000 6.2 100 09:21 19.12.2019
2132 Clouds 19 1016 29 0 5.95 96 08:58 19.12.2019
2133 Clouds 19 1016 29 0 5.95 96 08:40 19.12.2019
2134 Clouds 15 1029 47 10000 5.1 70 08:19 19.12.2019
2135 Clouds 15 1029 47 10000 5.1 70 07:57 19.12.2019
2136 Clouds 15 1029 47 10000 5.1 70 07:38 19.12.2019
2137 Clouds 15 1029 47 10000 5.1 70 07:19 19.12.2019
2138 Clouds 11 1029 76 10000 2.1 170 06:49 19.12.2019
2139 Clouds 11 1029 76 10000 2.1 170 06:29 19.12.2019
2140 Clear 14 1019 37 0 3.86 91 05:55 19.12.2019
2141 Clear 14 1019 37 0 3.86 91 05:33 19.12.2019
2142 Clear 7 1019 77 0 1.67 2 04:51 19.12.2019
2143 Clear 7 1019 77 0 1.67 2 02:54 19.12.2019
2144 Clouds 11 1027 81 10000 3.1 110 01:51 19.12.2019
2145 Clouds 11 1027 81 10000 3.1 110 01:22 19.12.2019
2146 Clouds 11 1027 76 10000 4.6 70 00:41 19.12.2019
2147 Clouds 11 1027 76 10000 4.6 70 00:22 19.12.2019
2148 Clouds 10 1028 87 10000 3.6 80 23:56 18.12.2019
2149 Clouds 10 1028 87 10000 3.6 80 23:38 18.12.2019
2150 Clouds 10 1028 87 10000 3.6 80 23:18 18.12.2019
2151 Clear 9 1018 81 0 1.44 14 22:55 18.12.2019
2152 Clear 9 1018 81 0 1.44 14 22:36 18.12.2019
2153 Clear 9 1018 81 0 1.44 14 22:18 18.12.2019
2154 Clear 9 1018 81 0 1.44 14 21:55 18.12.2019
2155 Clear 9 1018 81 0 1.44 14 21:37 18.12.2019
2156 Clouds 12 1028 81 10000 3.6 100 21:18 18.12.2019
2157 Clouds 12 1028 81 10000 3.6 100 20:54 18.12.2019
2158 Clouds 12 1028 81 10000 3.6 100 20:36 18.12.2019
2159 Clouds 12 1028 81 10000 3.6 100 20:18 18.12.2019
2160 Clouds 14 1028 71 10000 3.1 120 19:54 18.12.2019
2161 Clouds 14 1028 71 10000 3.1 120 19:36 18.12.2019
2162 Clouds 14 1028 71 10000 3.1 120 19:18 18.12.2019
2163 Clouds 14 1028 71 10000 3.1 120 19:18 18.12.2019
2164 Clouds 11 1018 73 0 2.92 67 18:43 18.12.2019
2165 Clouds 11 1018 73 0 2.92 67 18:25 18.12.2019
2166 Clouds 11 1018 73 0 2.92 67 18:25 18.12.2019
2167 Clouds 11 1018 73 0 2.92 67 17:57 18.12.2019
2168 Clouds 11 1018 73 0 2.92 67 17:38 18.12.2019
2169 Clouds 14 1014 62 0 5.53 91 17:19 18.12.2019
2170 Clouds 14 1014 62 0 5.53 91 16:54 18.12.2019
2171 Clouds 14 1014 62 0 5.53 91 16:36 18.12.2019
2172 Clouds 20 1024 37 0 6.7 100 16:18 18.12.2019
2173 Clouds 20 1024 37 0 6.7 100 15:54 18.12.2019
2174 Clouds 20 1024 37 0 6.7 100 15:36 18.12.2019
2175 Clouds 20 1024 37 0 6.7 100 15:18 18.12.2019
2176 Clouds 21 1024 35 0 6.2 100 14:40 18.12.2019
2177 Clouds 21 1024 35 0 6.2 100 14:20 18.12.2019
2178 Clouds 22 1024 37 0 7.2 100 13:56 18.12.2019
2179 Clouds 22 1024 37 0 7.2 100 13:37 18.12.2019
2180 Clouds 22 1024 37 0 7.2 100 13:19 18.12.2019
2181 Clouds 21 1025 43 10000 7.2 100 12:57 18.12.2019
2182 Clouds 21 1025 43 10000 7.2 100 12:37 18.12.2019
2183 Clouds 21 1025 43 10000 7.2 100 12:19 18.12.2019
2184 Clouds 20 1026 45 10000 6.2 90 11:55 18.12.2019
2185 Clouds 20 1026 45 10000 6.2 90 11:37 18.12.2019
2186 Clouds 20 1026 45 10000 6.2 90 11:18 18.12.2019
2187 Clouds 19 1027 48 10000 5.1 100 10:55 18.12.2019
2188 Clouds 19 1027 48 10000 5.1 100 10:37 18.12.2019
2189 Clouds 19 1027 48 10000 5.1 100 10:18 18.12.2019
2190 Clouds 18 1028 55 10000 3.1 70 09:43 18.12.2019
2191 Clouds 18 1028 55 10000 3.1 70 09:18 18.12.2019
2192 Clouds 17 1029 59 10000 5.1 90 08:40 18.12.2019
2193 Clouds 17 1029 59 10000 5.1 90 08:21 18.12.2019
2194 Clouds 15 1029 67 10000 4.1 100 07:43 18.12.2019
2195 Clouds 15 1029 67 10000 4.1 100 07:22 18.12.2019
2196 Clouds 15 1029 67 10000 4.1 100 06:55 18.12.2019
2197 Clouds 13 1029 76 10000 3.1 70 06:27 18.12.2019
2198 Clear 14 1018 57 0 3.08 84 05:44 18.12.2019
2199 Clouds 12 1027 76 10000 3.1 60 04:46 18.12.2019
2200 Clear 8 1019 86 0 1.61 17 02:51 18.12.2019
2201 Clear 8 1019 86 0 1.61 17 02:31 18.12.2019
2202 Clouds 9 1017 86 0 2.08 20 01:57 18.12.2019
2203 Clouds 9 1017 86 0 2.08 20 01:37 18.12.2019
2204 Clouds 11 1027 87 0 2.6 100 01:19 18.12.2019
2205 Clouds 11 1027 87 0 2.6 100 00:40 18.12.2019
2206 Clouds 11 1027 87 0 2.6 100 00:21 18.12.2019
2207 Clouds 11 1027 87 0 2.6 100 23:54 17.12.2019
2208 Clouds 13 1027 76 0 1 150 23:36 17.12.2019
2209 Clear 13 1027 76 0 1 150 23:18 17.12.2019
2210 Clear 13 1027 76 0 1 150 23:18 17.12.2019
2211 Clear 13 1027 82 0 5.1 70 22:55 17.12.2019
2212 Clear 13 1027 82 0 5.1 70 22:37 17.12.2019
2213 Clear 13 1027 82 0 5.1 70 22:18 17.12.2019
2214 Clear 14 1028 71 0 6.2 70 21:55 17.12.2019
2215 Clear 14 1028 71 0 6.2 70 21:55 17.12.2019
2216 Clear 14 1028 71 0 6.2 70 21:36 17.12.2019
2217 Clear 14 1028 71 0 6.2 70 21:18 17.12.2019
2218 Clear 9 1018 89 0 1.83 39 20:55 17.12.2019
2219 Clouds 9 1017 88 0 1.94 38 20:37 17.12.2019
2220 Clouds 15 1027 72 0 4.1 70 20:18 17.12.2019
2221 Clouds 15 1027 72 0 4.1 70 19:41 17.12.2019
2222 Clouds 15 1027 72 0 4.1 70 19:20 17.12.2019
2223 Clouds 15 1027 72 0 4.1 70 18:58 17.12.2019
2224 Clouds 15 1027 72 10000 5.1 60 18:40 17.12.2019
2225 Clouds 15 1027 72 10000 5.1 60 18:21 17.12.2019
2226 Clouds 15 1027 72 10000 5.1 60 17:58 17.12.2019
2227 Clouds 11 1017 85 0 2.82 58 17:40 17.12.2019
2228 Clouds 19 1025 52 10000 5.1 90 17:19 17.12.2019
2229 Clouds 14 1013 67 0 4.08 90 16:56 17.12.2019
2230 Clouds 14 1013 67 0 4.08 90 16:37 17.12.2019
2231 Clouds 14 1013 67 0 4.08 90 16:19 17.12.2019
2232 Clouds 14 1013 67 0 4.08 90 15:55 17.12.2019
2233 Clouds 22 1024 40 10000 4.1 110 15:37 17.12.2019
2234 Clouds 22 1024 40 10000 4.1 110 15:18 17.12.2019
2235 Clouds 22 1024 40 10000 4.1 110 14:55 17.12.2019
2236 Clouds 22 1024 40 10000 4.1 110 14:36 17.12.2019
2237 Clouds 22 1024 40 10000 4.1 110 14:18 17.12.2019
2238 Clouds 22 1024 40 10000 4.1 110 13:55 17.12.2019
2239 Clouds 22 1024 37 10000 4.1 120 13:37 17.12.2019
2240 Clouds 22 1024 37 10000 4.1 120 13:18 17.12.2019
2241 Clouds 22 1024 37 10000 3.6 80 12:40 17.12.2019
2242 Clouds 22 1024 37 10000 3.6 80 12:19 17.12.2019
2243 Clouds 22 1024 37 10000 3.6 80 12:19 17.12.2019
2244 Clear 19 1011 47 0 6.07 106 11:59 17.12.2019
2245 Clear 19 1011 47 0 6.07 106 11:37 17.12.2019
2246 Clouds 20 1026 42 10000 4.1 90 11:19 17.12.2019
2247 Clouds 20 1026 42 10000 4.1 90 10:59 17.12.2019
2248 Clouds 20 1026 42 10000 4.1 90 10:40 17.12.2019
2249 Clouds 20 1026 42 10000 4.1 90 10:21 17.12.2019
2250 Clouds 19 1027 48 10000 4.1 90 09:59 17.12.2019
2251 Clouds 19 1027 48 10000 4.1 90 09:41 17.12.2019
2252 Clouds 19 1027 48 10000 4.1 90 09:20 17.12.2019
2253 Clouds 18 1027 52 10000 4.1 90 08:56 17.12.2019
2254 Clouds 18 1027 52 10000 4.1 90 08:38 17.12.2019
2255 Clouds 18 1027 52 10000 4.1 90 08:19 17.12.2019
2256 Clear 16 1027 55 0 4.1 110 07:45 17.12.2019
2257 Clear 16 1027 55 0 4.1 110 07:26 17.12.2019
2258 Clear 14 1027 62 0 2.6 120 06:56 17.12.2019
2259 Clear 14 1017 60 0 3.25 93 06:35 17.12.2019
2260 Clear 9 1026 81 0 2.1 20 05:53 17.12.2019
2261 Clear 9 1026 81 0 2.1 20 05:34 17.12.2019
2262 Clouds 10 1026 76 10000 2.6 80 04:30 17.12.2019
2263 Clouds 11 1025 76 10000 1.5 20 02:34 17.12.2019
2264 Clouds 13 1025 66 10000 1.5 70 01:54 17.12.2019
2265 Clouds 13 1025 66 10000 4.1 70 00:58 17.12.2019
2266 Clouds 13 1025 66 10000 4.1 70 00:37 17.12.2019
2267 Clouds 13 1025 66 10000 4.1 70 00:18 17.12.2019
2268 Clouds 13 1026 66 10000 3.1 80 23:41 16.12.2019
2269 Clouds 13 1026 66 10000 3.1 80 23:19 16.12.2019
2270 Clouds 13 1026 66 10000 3.1 80 23:19 16.12.2019
2271 Clouds 13 1026 66 10000 3.1 80 22:56 16.12.2019
2272 Clouds 14 1026 67 10000 4.1 60 22:37 16.12.2019
2273 Clouds 14 1026 67 10000 4.1 60 22:19 16.12.2019
2274 Clouds 14 1026 67 10000 4.1 60 21:55 16.12.2019
2275 Clouds 15 1026 62 10000 6.2 50 21:37 16.12.2019
2276 Clouds 15 1026 62 10000 6.2 50 21:37 16.12.2019
2277 Clouds 15 1026 62 10000 6.2 50 21:37 16.12.2019
2278 Clouds 15 1026 62 10000 6.2 50 21:18 16.12.2019
2279 Clouds 15 1026 62 10000 6.2 50 20:56 16.12.2019
2280 Clouds 15 1026 62 10000 6.2 50 20:56 16.12.2019
2281 Clouds 15 1026 58 10000 6.2 60 20:37 16.12.2019
2282 Clouds 15 1026 58 10000 6.2 60 20:19 16.12.2019
2283 Clouds 15 1026 58 10000 6.2 60 19:55 16.12.2019
2284 Clouds 15 1026 58 10000 5.1 60 19:36 16.12.2019
2285 Clouds 15 1026 58 10000 5.1 60 19:18 16.12.2019
2286 Clouds 15 1026 58 10000 5.1 60 18:55 16.12.2019
2287 Clouds 15 1026 58 10000 5.1 70 18:37 16.12.2019
2288 Clouds 15 1026 58 10000 5.1 70 18:37 16.12.2019
2289 Clouds 15 1026 58 10000 5.1 70 18:19 16.12.2019
2290 Clouds 15 1026 58 10000 5.1 70 17:57 16.12.2019
2291 Clouds 17 1025 51 10000 5.1 70 17:37 16.12.2019
2292 Clouds 17 1025 51 10000 5.1 70 17:19 16.12.2019
2293 Clouds 17 1025 51 10000 5.1 70 16:55 16.12.2019
2294 Clouds 19 1024 45 10000 6.2 90 16:37 16.12.2019
2295 Clouds 19 1024 45 10000 6.2 90 16:18 16.12.2019
2296 Clouds 19 1024 45 10000 6.2 90 15:55 16.12.2019
2297 Clouds 21 1023 40 10000 6.2 90 15:37 16.12.2019
2298 Clouds 21 1023 40 10000 6.2 90 15:19 16.12.2019
2299 Clouds 21 1023 40 10000 6.2 90 14:54 16.12.2019
2300 Clouds 22 1023 35 0 4.6 110 14:36 16.12.2019
2301 Clouds 22 1023 35 0 4.6 110 14:18 16.12.2019
2302 Clouds 22 1023 35 0 4.6 110 14:18 16.12.2019
2303 Clouds 23 1023 33 0 5.1 150 13:55 16.12.2019
2304 Clouds 23 1023 33 0 5.1 150 13:36 16.12.2019
2305 Clouds 23 1023 33 0 5.1 150 13:18 16.12.2019
2306 Clouds 23 1023 33 0 5.1 150 13:18 16.12.2019
2307 Clouds 23 1023 33 0 5.1 150 12:54 16.12.2019
2308 Clouds 20 1010 37 0 4.88 106 12:36 16.12.2019
2309 Clouds 21 1024 32 0 2.6 90 12:18 16.12.2019
2310 Clouds 21 1024 32 0 2.6 90 11:55 16.12.2019
2311 Clouds 21 1024 32 0 2.6 90 11:37 16.12.2019
2312 Clouds 21 1024 32 0 2.6 90 11:19 16.12.2019
2313 Clouds 21 1025 32 0 4.1 170 10:40 16.12.2019
2314 Clouds 21 1025 32 0 4.1 170 10:21 16.12.2019
2315 Clouds 19 1027 39 0 3.1 110 09:56 16.12.2019
2316 Clouds 19 1027 39 0 3.1 110 09:38 16.12.2019
2317 Clouds 19 1027 39 0 3.1 110 09:20 16.12.2019
2318 Clouds 17 1027 48 0 2.1 90 08:39 16.12.2019
2319 Clouds 17 1027 48 0 2.1 90 08:19 16.12.2019
2320 Clouds 16 1028 55 0 3.1 110 07:52 16.12.2019
2321 Clouds 16 1028 55 0 3.1 110 07:31 16.12.2019
2322 Clouds 15 1028 58 0 2.1 90 06:52 16.12.2019
2323 Clouds 15 1017 46 0 2.58 81 06:27 16.12.2019
2324 Clouds 15 1017 46 0 2.58 81 05:59 16.12.2019
2325 Clouds 15 1017 46 0 2.58 81 05:40 16.12.2019
2326 Clouds 9 1026 76 0 2.1 340 05:22 16.12.2019
2327 Clouds 9 1017 70 0 1.56 355 02:59 16.12.2019
2328 Clouds 10 1025 76 0 2.1 350 01:46 16.12.2019
2329 Clouds 9 1016 67 0 1.51 349 00:57 16.12.2019
2330 Clouds 9 1016 67 0 1.51 349 00:38 16.12.2019
2331 Clouds 9 1016 67 0 1.51 349 00:19 16.12.2019
2332 Clouds 9 1016 67 0 1.51 349 23:43 15.12.2019
2333 Clouds 12 1027 66 0 1 300 23:25 15.12.2019
2334 Clouds 12 1027 66 0 1 300 22:57 15.12.2019
2335 Clouds 12 1027 66 0 1 300 22:38 15.12.2019
2336 Clouds 12 1027 66 0 1 300 22:38 15.12.2019
2337 Clouds 12 1027 66 0 1 300 22:19 15.12.2019
2338 Clouds 14 1027 58 0 1.5 40 21:58 15.12.2019
2339 Clouds 14 1027 58 0 1.5 40 21:38 15.12.2019
2340 Clouds 14 1027 58 0 1.5 40 21:20 15.12.2019
2341 Clouds 14 1028 58 0 5.1 50 20:58 15.12.2019
2342 Clouds 14 1028 58 0 5.1 50 20:40 15.12.2019
2343 Clouds 14 1028 58 0 5.1 50 20:21 15.12.2019
2344 Clouds 14 1028 58 0 5.1 50 20:21 15.12.2019
2345 Clouds 14 1028 58 0 5.1 50 20:21 15.12.2019
2346 Clouds 14 1027 58 0 4.6 60 19:58 15.12.2019
2347 Clouds 14 1027 58 0 4.6 60 19:40 15.12.2019
2348 Clouds 14 1027 58 0 4.6 60 19:20 15.12.2019
2349 Clouds 14 1027 58 0 4.6 60 19:20 15.12.2019
2350 Clouds 14 1026 50 0 3.1 80 18:58 15.12.2019
2351 Clouds 14 1026 50 0 3.1 80 18:39 15.12.2019
2352 Clouds 14 1026 50 0 3.1 80 18:19 15.12.2019
2353 Clouds 14 1026 50 0 3.1 80 17:57 15.12.2019
2354 Clouds 11 1017 62 0 2.2 51 17:38 15.12.2019
2355 Clouds 11 1017 62 0 2.2 51 17:38 15.12.2019
2356 Clouds 18 1025 39 0 5.1 80 17:19 15.12.2019
2357 Clouds 18 1025 39 0 5.1 80 16:59 15.12.2019
2358 Clouds 18 1025 39 0 5.1 80 16:41 15.12.2019
2359 Clouds 18 1025 39 0 5.1 80 16:21 15.12.2019
2360 Clouds 20 1025 34 0 6.2 100 15:56 15.12.2019
2361 Clouds 20 1025 34 0 6.2 100 15:38 15.12.2019
2362 Clouds 20 1025 34 0 6.2 100 15:19 15.12.2019
2363 Clouds 20 1025 34 0 6.2 100 15:19 15.12.2019
2364 Clouds 20 1025 34 0 6.2 100 14:56 15.12.2019
2365 Clouds 21 1024 30 0 6.2 100 14:37 15.12.2019
2366 Clouds 21 1024 30 0 6.2 100 14:18 15.12.2019
2367 Clouds 22 1024 24 10000 6.2 100 13:58 15.12.2019
2368 Clouds 22 1024 24 10000 6.2 100 13:37 15.12.2019
2369 Clouds 22 1024 24 10000 6.2 100 13:19 15.12.2019
2370 Clouds 22 1025 37 10000 6.7 110 12:56 15.12.2019
2371 Clouds 22 1025 37 10000 6.7 110 12:38 15.12.2019
2372 Clouds 22 1025 37 10000 6.7 110 12:20 15.12.2019
2373 Clouds 21 1027 28 10000 6.7 110 11:55 15.12.2019
2374 Clouds 21 1027 28 10000 6.7 110 11:36 15.12.2019
2375 Clouds 21 1027 28 10000 6.7 110 11:18 15.12.2019
2376 Clouds 21 1027 28 10000 6.7 110 10:55 15.12.2019
2377 Clouds 21 1027 28 10000 6.2 90 10:36 15.12.2019
2378 Clouds 21 1027 28 10000 6.2 90 10:18 15.12.2019
2379 Clouds 19 1028 39 10000 6.2 100 09:39 15.12.2019
2380 Clouds 19 1028 39 10000 6.2 100 09:20 15.12.2019
2381 Clouds 19 1028 39 10000 6.2 100 08:57 15.12.2019
2382 Clouds 17 1028 45 10000 3.1 70 08:39 15.12.2019
2383 Clouds 17 1028 45 10000 3.1 70 08:20 15.12.2019
2384 Clouds 17 1028 45 10000 3.1 70 07:55 15.12.2019
2385 Clouds 15 1029 58 10000 3.1 80 07:34 15.12.2019
2386 Clouds 13 1028 71 10000 2.1 210 06:39 15.12.2019
2387 Clouds 13 1028 71 10000 2.1 210 06:19 15.12.2019
2388 Clear 14 1019 54 0 3.08 88 05:25 15.12.2019
2389 Clear 9 1018 74 0 1.41 4 04:24 15.12.2019
2390 Clear 9 1018 74 0 1.41 4 03:22 15.12.2019
2391 Clear 9 1018 74 0 1.41 4 02:33 15.12.2019
2392 Clear 10 1018 71 0 1.14 4 01:44 15.12.2019
2393 Clouds 12 1028 76 10000 2.1 320 01:25 15.12.2019
2394 Clouds 12 1028 76 10000 2.1 320 00:54 15.12.2019
2395 Clouds 12 1028 76 10000 2.1 320 00:35 15.12.2019
2396 Clear 10 1018 70 0 1.17 15 23:58 14.12.2019
2397 Clear 10 1018 70 0 1.17 15 23:39 14.12.2019
2398 Clouds 13 1028 71 10000 3.1 80 23:19 14.12.2019
2399 Clouds 13 1028 71 10000 3.1 80 22:57 14.12.2019
2400 Clouds 13 1028 71 10000 3.1 80 22:39 14.12.2019
2401 Clouds 13 1028 71 10000 3.1 80 22:39 14.12.2019
2402 Clouds 13 1028 71 10000 3.1 80 22:20 14.12.2019
2403 Clouds 13 1028 71 10000 3.1 80 21:55 14.12.2019
2404 Clouds 13 1028 71 10000 3.1 80 21:55 14.12.2019
2405 Clouds 14 1029 67 10000 3.1 70 21:37 14.12.2019
2406 Clouds 14 1029 67 10000 3.1 70 21:18 14.12.2019
2407 Clouds 14 1029 67 10000 5.1 70 20:43 14.12.2019
2408 Clouds 14 1029 67 10000 5.1 70 20:21 14.12.2019
2409 Clouds 14 1029 67 10000 5.1 70 19:59 14.12.2019
2410 Clouds 14 1028 67 10000 6.2 80 19:40 14.12.2019
2411 Clouds 14 1028 67 10000 6.2 80 19:21 14.12.2019
2412 Clouds 14 1028 67 10000 6.2 80 18:57 14.12.2019
2413 Clouds 15 1028 62 10000 6.2 80 18:39 14.12.2019
2414 Clouds 15 1028 62 10000 6.2 80 18:21 14.12.2019
2415 Clouds 12 1018 63 0 3.16 58 17:58 14.12.2019
2416 Clouds 12 1018 63 0 3.16 58 17:40 14.12.2019
2417 Clouds 17 1027 59 10000 7.2 70 17:21 14.12.2019
2418 Clouds 17 1027 59 10000 7.2 70 16:41 14.12.2019
2419 Clouds 17 1027 59 10000 7.2 70 16:19 14.12.2019
2420 Clouds 15 1014 58 0 5.28 94 15:55 14.12.2019
2421 Clouds 15 1014 58 0 5.28 94 15:37 14.12.2019
2422 Clouds 20 1026 49 10000 5.7 100 15:19 14.12.2019
2423 Clouds 20 1026 49 10000 5.7 100 14:54 14.12.2019
2424 Clouds 20 1026 49 10000 5.7 100 14:36 14.12.2019
2425 Clouds 20 1026 49 10000 5.7 100 14:18 14.12.2019
2426 Clouds 20 1026 45 10000 5.1 80 13:42 14.12.2019
2427 Clouds 20 1026 45 10000 5.1 80 13:19 14.12.2019
2428 Clouds 20 1026 45 10000 5.1 80 12:57 14.12.2019
2429 Clouds 20 1026 45 10000 5.1 120 12:38 14.12.2019
2430 Clouds 20 1026 45 10000 5.1 120 12:38 14.12.2019
2431 Clouds 20 1026 45 10000 5.1 120 12:20 14.12.2019
2432 Clouds 19 1013 49 0 6.26 99 11:56 14.12.2019
2433 Clouds 19 1013 49 0 6.26 99 11:38 14.12.2019
2434 Clouds 21 1028 43 10000 5.1 120 11:19 14.12.2019
2435 Clouds 21 1028 43 10000 5.1 120 10:56 14.12.2019
2436 Clouds 21 1028 43 10000 5.1 120 10:38 14.12.2019
2437 Clouds 21 1028 43 10000 5.1 120 10:19 14.12.2019
2438 Clouds 19 1029 52 10000 5.1 90 09:43 14.12.2019
2439 Clouds 19 1029 52 10000 5.1 90 09:23 14.12.2019
2440 Clouds 19 1029 52 10000 5.1 90 08:57 14.12.2019
2441 Clouds 19 1029 52 10000 5.1 90 08:57 14.12.2019
2442 Clouds 17 1029 63 10000 5.1 110 08:38 14.12.2019
2443 Clouds 17 1029 63 10000 5.1 110 08:19 14.12.2019
2444 Clouds 16 1029 67 10000 2.1 60 07:40 14.12.2019
2445 Clouds 16 1029 67 10000 2.1 60 07:21 14.12.2019
2446 Clouds 13 1029 66 10000 1 350 06:55 14.12.2019
2447 Clouds 13 1029 66 10000 1 350 06:36 14.12.2019
2448 Clouds 10 1028 81 10000 2.1 130 05:50 14.12.2019
2449 Clouds 10 1027 76 10000 2.1 360 03:44 14.12.2019
2450 Clouds 11 1026 71 10000 3.1 340 02:24 14.12.2019
2451 Clouds 10 1026 81 10000 1 350 01:44 14.12.2019
2452 Clouds 10 1026 81 10000 1 350 01:20 14.12.2019
2453 Clouds 10 1027 87 10000 2.1 90 00:43 14.12.2019
2454 Clouds 10 1027 87 10000 2.1 90 00:22 14.12.2019
2455 Clouds 12 1027 76 10000 2.1 330 23:41 13.12.2019
2456 Clouds 12 1027 76 10000 2.1 330 23:20 13.12.2019
2457 Clouds 12 1027 76 10000 2.1 330 22:57 13.12.2019
2458 Clouds 12 1028 76 10000 2.1 320 22:38 13.12.2019
2459 Clouds 12 1028 76 10000 2.1 320 22:18 13.12.2019
2460 Clouds 12 1028 76 10000 2.1 350 21:44 13.12.2019
2461 Clouds 12 1028 76 10000 2.1 350 21:22 13.12.2019
2462 Clouds 12 1028 76 10000 2.1 350 20:59 13.12.2019
2463 Clouds 13 1028 71 10000 2.1 150 20:40 13.12.2019
2464 Clouds 13 1028 71 10000 2.1 150 20:21 13.12.2019
2465 Clouds 14 1027 67 10000 5.1 70 19:57 13.12.2019
2466 Clouds 14 1027 67 10000 5.1 70 19:39 13.12.2019
2467 Clouds 14 1027 67 10000 5.1 70 19:20 13.12.2019
2468 Clouds 15 1027 62 10000 6.2 60 18:55 13.12.2019
2469 Clouds 15 1027 62 10000 6.2 60 18:36 13.12.2019
2470 Clouds 15 1027 62 10000 6.2 60 18:18 13.12.2019
2471 Clouds 16 1026 59 10000 6.2 70 17:40 13.12.2019
2472 Clouds 16 1026 59 10000 6.2 70 17:40 13.12.2019
2473 Clouds 16 1026 59 10000 6.2 70 17:19 13.12.2019
2474 Clouds 16 1026 59 10000 6.2 70 16:57 13.12.2019
2475 Clouds 16 1026 59 10000 6.2 70 16:39 13.12.2019
2476 Clouds 21 1024 35 10000 6.2 90 16:20 13.12.2019
2477 Clouds 21 1024 35 10000 6.2 90 15:43 13.12.2019
2478 Clouds 21 1024 35 10000 6.2 90 15:22 13.12.2019
2479 Clouds 22 1024 37 10000 5.1 100 14:57 13.12.2019
2480 Clouds 22 1024 37 10000 5.1 100 14:39 13.12.2019
2481 Clouds 22 1024 37 10000 5.1 100 14:19 13.12.2019
2482 Clouds 22 1024 37 10000 6.2 100 13:44 13.12.2019
2483 Clouds 22 1024 37 10000 6.2 100 13:26 13.12.2019
2484 Clouds 23 1024 35 10000 5.1 100 12:59 13.12.2019
2485 Clouds 23 1024 35 10000 5.1 100 12:41 13.12.2019
2486 Clouds 23 1024 35 10000 5.1 100 12:19 13.12.2019
2487 Clouds 22 1025 33 10000 5.1 120 11:45 13.12.2019
2488 Clouds 22 1025 33 10000 5.1 120 11:45 13.12.2019
2489 Clouds 22 1025 33 10000 5.1 120 11:26 13.12.2019
2490 Clouds 22 1025 33 10000 5.1 120 10:58 13.12.2019
2491 Clouds 22 1025 33 10000 5.1 120 10:40 13.12.2019
2492 Clouds 21 1026 37 10000 5.1 130 10:21 13.12.2019
2493 Clear 19 1015 42 0 3.99 103 09:43 13.12.2019
2494 Clear 19 1015 42 0 3.99 103 09:22 13.12.2019
2495 Clear 19 1015 42 0 3.99 103 08:55 13.12.2019
2496 Clear 19 1015 42 0 3.99 103 08:36 13.12.2019
2497 Clouds 16 1028 67 10000 2.1 120 08:18 13.12.2019
2498 Clouds 16 1028 67 10000 2.1 120 07:42 13.12.2019
2499 Clouds 16 1028 67 10000 2.1 120 07:19 13.12.2019
2500 Clouds 14 1027 76 10000 3.1 330 06:45 13.12.2019
2501 Clouds 14 1027 76 10000 3.1 330 06:25 13.12.2019
2502 Clouds 13 1026 66 10000 2.1 340 05:38 13.12.2019
2503 Clouds 13 1026 66 10000 2.1 340 05:20 13.12.2019
2504 Clouds 11 1026 81 10000 2.1 300 04:28 13.12.2019
2505 Clouds 10 1017 80 0 1.28 9 02:56 13.12.2019
2506 Clouds 11 1025 81 10000 3.1 60 02:30 13.12.2019
2507 Clouds 11 1025 81 10000 3.1 60 01:34 13.12.2019
2508 Clouds 12 1026 76 10000 1.5 70 00:50 13.12.2019
2509 Clouds 12 1026 76 10000 1.5 70 00:28 13.12.2019
2510 Clear 10 1016 82 0 1.29 352 23:43 12.12.2019
2511 Clear 10 1016 82 0 1.29 352 23:25 12.12.2019
2512 Clear 11 1017 83 0 1.76 2 22:57 12.12.2019
2513 Clear 11 1017 83 0 1.76 2 22:39 12.12.2019
2514 Clear 11 1017 83 0 1.76 2 22:39 12.12.2019
2515 Clear 11 1017 83 0 1.76 2 22:21 12.12.2019
2516 Clear 11 1017 83 0 1.76 2 22:21 12.12.2019
2517 Clouds 14 1027 71 10000 3.6 70 21:56 12.12.2019
2518 Clouds 14 1027 71 10000 3.6 70 21:37 12.12.2019
2519 Clouds 14 1027 71 10000 3.6 70 21:19 12.12.2019
2520 Clouds 14 1027 82 10000 2.1 90 20:59 12.12.2019
2521 Clouds 14 1027 82 10000 2.1 90 20:40 12.12.2019
2522 Clouds 14 1027 82 10000 2.1 90 20:21 12.12.2019
2523 Clouds 15 1026 77 10000 2.6 70 19:56 12.12.2019
2524 Clouds 15 1026 77 10000 2.6 70 19:37 12.12.2019
2525 Clouds 15 1026 77 10000 2.6 70 19:18 12.12.2019
2526 Clouds 15 1026 82 10000 5.1 60 18:56 12.12.2019
2527 Clouds 15 1026 82 10000 5.1 60 18:37 12.12.2019
2528 Clouds 15 1026 82 10000 5.1 60 18:37 12.12.2019
2529 Clouds 15 1026 82 10000 5.1 60 18:19 12.12.2019
2530 Clouds 16 1025 72 10000 5.1 70 17:56 12.12.2019
2531 Clouds 16 1025 72 10000 5.1 70 17:38 12.12.2019
2532 Clouds 16 1025 72 10000 5.1 70 17:19 12.12.2019
2533 Clouds 18 1024 59 10000 3.1 90 16:54 12.12.2019
2534 Clouds 18 1024 59 10000 3.1 90 16:36 12.12.2019
2535 Clouds 18 1024 59 10000 3.1 90 16:18 12.12.2019
2536 Rain 15 1013 71 0 6.5 90 15:42 12.12.2019
2537 Clouds 21 1023 49 10000 8.2 100 15:20 12.12.2019
2538 Clouds 21 1023 49 10000 8.2 100 14:59 12.12.2019
2539 Clouds 21 1023 49 10000 8.2 100 14:38 12.12.2019
2540 Clouds 21 1023 49 10000 8.2 100 14:19 12.12.2019
2541 Clouds 19 1011 54 0 7.33 96 13:56 12.12.2019
2542 Clouds 19 1011 54 0 7.33 96 13:38 12.12.2019
2543 Clouds 22 1024 46 10000 4.6 90 13:20 12.12.2019
2544 Clouds 22 1024 46 10000 4.6 90 12:56 12.12.2019
2545 Clouds 22 1024 46 10000 4.6 90 12:38 12.12.2019
2546 Clouds 22 1024 46 10000 4.6 90 12:18 12.12.2019
2547 Clouds 21 1025 46 10000 4.1 100 11:43 12.12.2019
2548 Clouds 21 1025 46 10000 4.1 100 11:22 12.12.2019
2549 Clouds 21 1026 46 10000 5.7 110 10:59 12.12.2019
2550 Clouds 21 1026 46 10000 5.7 110 10:41 12.12.2019
2551 Clouds 21 1026 46 10000 5.7 110 10:23 12.12.2019
2552 Clouds 19 1027 52 10000 6.7 90 09:58 12.12.2019
2553 Clouds 19 1027 52 10000 6.7 90 09:40 12.12.2019
2554 Clouds 19 1027 52 10000 6.7 90 09:21 12.12.2019
2555 Clouds 18 1028 63 10000 3.6 100 08:54 12.12.2019
2556 Clouds 18 1028 63 10000 3.6 100 08:36 12.12.2019
2557 Clouds 18 1028 63 10000 3.6 100 08:18 12.12.2019
2558 Clouds 17 1027 59 10000 3.1 130 07:41 12.12.2019
2559 Clouds 17 1027 59 10000 3.1 130 07:21 12.12.2019
2560 Clear 16 1018 66 0 2.11 55 06:43 12.12.2019
2561 Clear 16 1018 66 0 2.11 55 06:23 12.12.2019
2562 Clear 16 1018 66 0 2.11 55 05:35 12.12.2019
2563 Clouds 11 1026 87 10000 1 40 04:51 12.12.2019
2564 Clear 10 1017 89 0 2.28 9 02:57 12.12.2019
2565 Clear 10 1017 89 0 2.28 9 02:37 12.12.2019
2566 Clouds 11 1026 87 10000 1.5 340 02:18 12.12.2019
2567 Clouds 11 1026 87 10000 1.5 340 01:37 12.12.2019
2568 Clouds 11 1026 87 10000 1.5 340 01:18 12.12.2019
2569 Clouds 11 1016 90 0 1.77 15 00:40 12.12.2019
2570 Clouds 11 1016 90 0 1.77 15 00:18 12.12.2019
2571 Clouds 11 1016 90 0 1.77 15 23:42 11.12.2019
2572 Clouds 12 1017 93 0 2.23 30 23:20 11.12.2019
2573 Clouds 12 1017 93 0 2.23 30 22:57 11.12.2019
2574 Clouds 12 1017 93 0 2.23 30 22:57 11.12.2019
2575 Clouds 12 1017 93 0 2.23 30 22:38 11.12.2019
2576 Clouds 12 1017 93 0 2.23 30 22:19 11.12.2019
2577 Clouds 12 1017 93 0 2.23 30 21:56 11.12.2019
2578 Clouds 12 1017 93 0 2.23 30 21:37 11.12.2019
2579 Clouds 12 1017 93 0 2.23 30 21:19 11.12.2019
2580 Clouds 12 1017 93 0 2.23 30 21:19 11.12.2019
2581 Clouds 12 1017 93 0 2.23 30 20:55 11.12.2019
2582 Clouds 12 1017 93 0 2.23 30 20:37 11.12.2019
2583 Clouds 12 1016 97 0 2.51 77 20:18 11.12.2019
2584 Clouds 12 1016 97 0 2.52 67 19:55 11.12.2019
2585 Clouds 12 1016 97 0 2.52 67 19:36 11.12.2019
2586 Clouds 12 1016 97 0 2.52 67 19:18 11.12.2019
2587 Clouds 12 1016 97 0 2.52 67 18:40 11.12.2019
2588 Clouds 12 1016 97 0 2.52 67 18:21 11.12.2019
2589 Clouds 12 1016 97 0 2.52 67 18:21 11.12.2019
2590 Clouds 12 1016 97 0 2.52 67 17:57 11.12.2019
2591 Clouds 12 1016 97 0 2.52 67 17:38 11.12.2019
2592 Clouds 14 1013 82 0 4.75 92 17:18 11.12.2019
2593 Clouds 14 1013 82 0 4.75 92 16:56 11.12.2019
2594 Clouds 14 1013 82 0 4.75 92 16:37 11.12.2019
2595 Clouds 18 1024 63 10000 5.7 100 16:19 11.12.2019
2596 Clouds 18 1024 63 10000 5.7 100 15:57 11.12.2019
2597 Clouds 18 1024 63 10000 5.7 100 15:57 11.12.2019
2598 Clouds 18 1024 63 10000 5.7 100 15:37 11.12.2019
2599 Clouds 18 1024 63 10000 5.7 100 15:19 11.12.2019
2600 Clouds 19 1024 59 10000 6.7 100 14:55 11.12.2019
2601 Clouds 19 1024 59 10000 6.7 100 14:37 11.12.2019
2602 Clouds 19 1024 59 10000 6.7 100 14:18 11.12.2019
2603 Clouds 20 1024 56 10000 5.1 100 13:44 11.12.2019
2604 Rain 18 1011 63 0 7.36 90 13:24 11.12.2019
2605 Rain 18 1011 63 0 7.36 90 12:59 11.12.2019
2606 Rain 18 1011 63 0 7.36 90 12:59 11.12.2019
2607 Rain 18 1011 63 0 7.36 90 12:40 11.12.2019
2608 Rain 18 1011 63 0 7.36 90 12:22 11.12.2019
2609 Rain 18 1011 63 0 7.36 90 11:58 11.12.2019
2610 Rain 18 1011 63 0 7.36 90 11:39 11.12.2019
2611 Rain 19 1015 62 0 4.69 92 11:19 11.12.2019
2612 Rain 19 1015 62 0 4.69 92 10:59 11.12.2019
2613 Rain 19 1015 62 0 4.69 92 10:40 11.12.2019
2614 Rain 13 1028 93 9000 2.1 30 10:21 11.12.2019
2615 Rain 13 1028 93 9000 2.1 30 10:21 11.12.2019
2616 Rain 13 1028 93 9000 2.1 30 09:57 11.12.2019
2617 Rain 13 1028 93 9000 2.1 30 09:38 11.12.2019
2618 Rain 13 1028 93 9000 2.1 30 09:19 11.12.2019
2619 Rain 13 1030 93 9000 5.1 50 08:55 11.12.2019
2620 Rain 13 1030 93 9000 5.1 50 08:36 11.12.2019
2621 Rain 13 1030 93 9000 5.1 50 08:18 11.12.2019
2622 Rain 13 1030 93 9000 5.1 60 07:43 11.12.2019
2623 Rain 13 1030 93 9000 5.1 60 07:24 11.12.2019
2624 Rain 13 1030 93 9000 5.1 60 07:24 11.12.2019
2625 Rain 13 1028 93 9000 4.1 100 06:46 11.12.2019
2626 Rain 13 1028 93 9000 4.1 100 06:25 11.12.2019
2627 Rain 13 1027 87 8000 1 90 05:56 11.12.2019
2628 Rain 13 1027 87 8000 1 90 05:35 11.12.2019
2629 Clouds 13 1026 87 10000 2.1 280 04:51 11.12.2019
2630 Drizzle 13 1025 82 10000 1.02 10 03:29 11.12.2019
2631 Clouds 13 1025 82 10000 1.02 10 02:35 11.12.2019
2632 Clouds 12 1025 87 10000 2.1 330 01:22 11.12.2019
2633 Clouds 12 1026 87 10000 3.1 320 00:43 11.12.2019
2634 Clouds 12 1026 87 10000 3.1 320 00:19 11.12.2019
2635 Clouds 12 1026 87 10000 2.1 340 23:45 10.12.2019
2636 Clouds 12 1026 87 10000 2.1 340 23:26 10.12.2019
2637 Clouds 14 1027 82 10000 1 190 22:57 10.12.2019
2638 Clouds 14 1027 82 10000 1 190 22:38 10.12.2019
2639 Clouds 14 1027 82 10000 1 190 22:20 10.12.2019
2640 Clouds 14 1026 82 10000 3.1 70 21:54 10.12.2019
2641 Clouds 14 1026 82 10000 3.1 70 21:36 10.12.2019
2642 Clouds 15 1027 77 10000 4.1 70 21:18 10.12.2019
2643 Clouds 15 1027 77 10000 4.1 70 20:55 10.12.2019
2644 Clouds 15 1027 77 10000 4.1 70 20:36 10.12.2019
2645 Clouds 15 1027 77 10000 4.1 70 20:18 10.12.2019
2646 Clouds 15 1027 72 10000 4.1 80 19:44 10.12.2019
2647 Clouds 15 1027 72 10000 4.1 80 19:25 10.12.2019
2648 Clouds 16 1025 67 10000 4.1 70 18:57 10.12.2019
2649 Clouds 16 1025 67 10000 4.1 70 18:39 10.12.2019
2650 Clouds 16 1025 67 10000 4.1 70 18:19 10.12.2019
2651 Clouds 17 1025 63 10000 5.1 70 17:55 10.12.2019
2652 Clouds 17 1025 63 10000 5.1 70 17:36 10.12.2019
2653 Clouds 17 1025 63 10000 5.1 70 17:18 10.12.2019
2654 Clouds 18 1024 59 10000 5.1 80 16:42 10.12.2019
2655 Clouds 18 1024 59 10000 5.1 80 16:20 10.12.2019
2656 Clouds 18 1024 59 10000 5.1 80 16:20 10.12.2019
2657 Clouds 20 1024 52 10000 6.2 90 15:54 10.12.2019
2658 Clouds 20 1024 52 10000 6.2 90 15:36 10.12.2019
2659 Clouds 20 1024 52 10000 6.2 90 15:18 10.12.2019
2660 Clouds 20 1024 52 10000 6.2 90 15:18 10.12.2019
2661 Clouds 20 1024 52 10000 6.2 80 14:42 10.12.2019
2662 Clouds 20 1024 52 10000 6.2 80 14:24 10.12.2019
2663 Clouds 20 1024 52 10000 6.2 80 13:59 10.12.2019
2664 Clouds 20 1024 52 10000 6.2 80 13:40 10.12.2019
2665 Clouds 20 1024 60 10000 7.2 80 13:20 10.12.2019
2666 Clouds 20 1024 60 10000 7.2 80 12:57 10.12.2019
2667 Clouds 20 1024 60 10000 7.2 80 12:38 10.12.2019
2668 Clouds 20 1024 60 10000 7.2 80 12:20 10.12.2019
2669 Clouds 19 1025 63 10000 5.7 90 11:41 10.12.2019
2670 Clouds 19 1025 63 10000 5.7 90 11:41 10.12.2019
2671 Clouds 19 1025 63 10000 5.7 90 11:23 10.12.2019
2672 Clouds 19 1025 63 10000 5.7 90 10:55 10.12.2019
2673 Clouds 19 1025 63 10000 5.7 90 10:37 10.12.2019
2674 Clouds 18 1027 68 10000 5.7 90 10:19 10.12.2019
2675 Clouds 18 1027 68 10000 5.7 100 09:54 10.12.2019
2676 Clouds 18 1027 68 10000 5.7 100 09:36 10.12.2019
2677 Clouds 18 1027 68 10000 5.7 100 09:18 10.12.2019
2678 Clouds 17 1027 82 10000 5.7 80 08:41 10.12.2019
2679 Clouds 17 1027 82 10000 5.7 80 08:22 10.12.2019
2680 Drizzle 14 1028 93 4000 2.6 110 07:57 10.12.2019
2681 Drizzle 14 1028 93 4000 2.6 110 07:39 10.12.2019
2682 Drizzle 14 1028 93 4000 2.6 110 07:21 10.12.2019
2683 Clouds 15 1027 82 10000 3.6 70 06:46 10.12.2019
2684 Clouds 15 1027 82 10000 3.6 70 06:19 10.12.2019
2685 Clouds 14 1026 87 10000 2.1 90 05:52 10.12.2019
2686 Clouds 14 1026 87 10000 2.6 80 04:51 10.12.2019
2687 Clouds 10 1017 94 0 2.03 38 03:36 10.12.2019
2688 Clouds 14 1025 87 10000 1.5 100 02:44 10.12.2019
2689 Clouds 14 1025 87 7000 1.5 40 01:44 10.12.2019
2690 Clouds 14 1025 87 7000 1.5 40 01:20 10.12.2019
2691 Clouds 14 1025 87 10000 3.1 90 00:41 10.12.2019
2692 Clouds 14 1025 87 10000 3.1 90 00:20 10.12.2019
2693 Clouds 14 1026 82 10000 2.1 100 23:41 09.12.2019
2694 Clouds 14 1026 82 10000 2.1 100 23:22 09.12.2019
2695 Clouds 14 1026 82 10000 3.1 80 22:58 09.12.2019
2696 Clouds 14 1026 82 10000 3.1 80 22:39 09.12.2019
2697 Clouds 14 1026 82 10000 3.1 80 22:19 09.12.2019
2698 Clouds 14 1026 82 10000 3.6 70 21:56 09.12.2019
2699 Clouds 14 1026 82 10000 3.6 70 21:38 09.12.2019
2700 Clouds 11 1016 94 0 2.13 38 21:19 09.12.2019
2701 Clouds 11 1016 94 0 2.13 38 20:56 09.12.2019
2702 Clouds 11 1016 94 0 2.13 38 20:38 09.12.2019
2703 Clouds 14 1027 82 10000 3.1 60 20:20 09.12.2019
2704 Clouds 14 1027 82 10000 3.1 60 19:55 09.12.2019
2705 Clouds 14 1027 82 10000 3.1 60 19:37 09.12.2019
2706 Clouds 14 1027 82 10000 3.1 60 19:19 09.12.2019
2707 Clouds 15 1026 77 10000 5.1 50 18:56 09.12.2019
2708 Clouds 15 1026 77 10000 5.1 50 18:37 09.12.2019
2709 Clouds 15 1026 77 10000 5.1 50 18:19 09.12.2019
2710 Clouds 16 1025 72 10000 6.2 70 17:57 09.12.2019
2711 Clouds 16 1025 72 10000 6.2 70 17:38 09.12.2019
2712 Clouds 16 1025 72 10000 6.2 70 17:20 09.12.2019
2713 Clouds 18 1024 63 10000 6.2 90 16:56 09.12.2019
2714 Clouds 18 1024 63 10000 6.2 90 16:37 09.12.2019
2715 Clouds 18 1024 63 10000 6.2 90 16:18 09.12.2019
2716 Clouds 19 1023 55 10000 7.2 90 15:55 09.12.2019
2717 Clouds 19 1023 55 10000 7.2 90 15:37 09.12.2019
2718 Clouds 19 1023 55 10000 7.2 90 15:19 09.12.2019
2719 Clouds 20 1023 52 10000 6.7 90 14:42 09.12.2019
2720 Clouds 20 1023 52 10000 6.7 90 14:19 09.12.2019
2721 Clouds 21 1024 49 10000 7.7 90 13:58 09.12.2019
2722 Clouds 21 1024 49 10000 7.7 90 13:38 09.12.2019
2723 Clouds 21 1024 49 10000 7.7 90 13:19 09.12.2019
2724 Clouds 20 1024 56 10000 8.2 100 12:57 09.12.2019
2725 Clouds 20 1024 56 10000 8.2 100 12:38 09.12.2019
2726 Clouds 20 1024 56 10000 8.2 100 12:20 09.12.2019
2727 Clouds 19 1025 59 10000 8.2 90 11:58 09.12.2019
2728 Clouds 19 1025 59 10000 8.2 90 11:39 09.12.2019
2729 Clouds 19 1025 59 10000 8.2 90 11:21 09.12.2019
2730 Clouds 18 1026 72 10000 7.2 90 10:54 09.12.2019
2731 Clouds 18 1026 72 10000 7.2 90 10:36 09.12.2019
2732 Clouds 18 1026 72 10000 7.2 90 10:18 09.12.2019
2733 Rain 15 1027 87 10000 8.2 90 09:41 09.12.2019
2734 Rain 15 1027 87 10000 8.2 90 09:22 09.12.2019
2735 Clouds 16 1027 77 10000 4.1 120 08:55 09.12.2019
2736 Clouds 16 1027 77 10000 4.1 120 08:37 09.12.2019
2737 Clouds 16 1027 77 10000 4.1 120 08:19 09.12.2019
2738 Clouds 15 1027 87 10000 3.1 160 07:42 09.12.2019
2739 Clouds 15 1027 87 10000 3.1 160 07:24 09.12.2019
2740 Rain 15 1017 73 0 3.1 89 06:49 09.12.2019
2741 Rain 15 1017 73 0 3.1 89 06:26 09.12.2019
2742 Rain 15 1017 73 0 3.1 89 05:29 09.12.2019
2743 Clouds 12 1016 91 0 1.49 80 04:49 09.12.2019
2744 Clouds 12 1016 91 0 1.49 80 03:45 09.12.2019
2745 Clouds 12 1016 91 0 1.49 80 02:27 09.12.2019
2746 Clouds 12 1014 91 0 1.13 57 01:44 09.12.2019
2747 Clouds 12 1015 90 0 1.09 48 00:53 09.12.2019
2748 Clouds 12 1015 90 0 1.09 48 00:32 09.12.2019
2749 Clouds 12 1015 90 0 1.09 48 23:54 08.12.2019
2750 Clouds 12 1015 90 0 1.09 48 23:36 08.12.2019
2751 Clouds 11 1016 90 0 2.03 80 23:18 08.12.2019
2752 Clouds 11 1016 90 0 2.03 80 22:56 08.12.2019
2753 Clouds 11 1016 90 0 2.03 80 22:37 08.12.2019
2754 Clouds 11 1016 90 0 2.03 80 22:18 08.12.2019
2755 Clouds 11 1016 90 0 2.03 80 21:54 08.12.2019
2756 Clouds 11 1016 90 0 2.03 80 21:36 08.12.2019
2757 Clouds 11 1016 90 0 2.03 80 21:18 08.12.2019
2758 Clouds 11 1016 90 0 2.03 80 20:54 08.12.2019
2759 Clouds 11 1016 90 0 2.03 80 20:36 08.12.2019
2760 Clouds 12 1017 86 0 2.68 62 20:18 08.12.2019
2761 Clouds 12 1016 85 0 2.8 52 19:42 08.12.2019
2762 Clouds 12 1016 85 0 2.8 52 19:23 08.12.2019
2763 Clouds 12 1016 85 0 2.8 52 18:56 08.12.2019
2764 Clouds 12 1016 85 0 2.8 52 18:56 08.12.2019
2765 Clouds 12 1016 85 0 2.8 52 18:37 08.12.2019
2766 Clouds 12 1016 85 0 2.8 52 18:19 08.12.2019
2767 Clouds 12 1016 85 0 2.8 52 17:57 08.12.2019
2768 Clouds 12 1016 85 0 2.8 52 17:39 08.12.2019
2769 Clouds 13 1014 79 0 3.89 76 17:20 08.12.2019
2770 Clouds 13 1014 79 0 3.89 76 16:57 08.12.2019
2771 Clouds 13 1014 79 0 3.89 76 16:39 08.12.2019
2772 Clouds 13 1014 79 0 3.89 76 16:21 08.12.2019
2773 Clouds 13 1014 79 0 3.89 76 15:56 08.12.2019
2774 Clouds 13 1014 79 0 3.89 76 15:37 08.12.2019
2775 Clouds 13 1014 79 0 3.89 76 15:18 08.12.2019
2776 Clouds 13 1014 79 0 3.89 76 14:44 08.12.2019
2777 Clouds 13 1014 79 0 3.89 76 14:24 08.12.2019
2778 Clouds 18 1011 62 0 6.37 101 13:59 08.12.2019
2779 Clouds 18 1011 62 0 6.37 101 13:40 08.12.2019
2780 Clear 19 1011 55 0 6.53 97 13:22 08.12.2019
2781 Clear 19 1011 55 0 6.53 97 12:58 08.12.2019
2782 Clear 19 1011 55 0 6.53 97 12:38 08.12.2019
2783 Clear 19 1011 55 0 6.53 97 12:18 08.12.2019
2784 Clear 19 1011 55 0 6.53 97 11:57 08.12.2019
2785 Clear 19 1011 55 0 6.53 97 11:37 08.12.2019
2786 Clouds 19 1014 49 0 4.33 93 11:19 08.12.2019
2787 Clouds 19 1014 49 0 4.33 93 10:40 08.12.2019
2788 Clouds 19 1014 49 0 4.33 93 10:22 08.12.2019
2789 Clouds 19 1014 49 0 4.33 93 09:58 08.12.2019
2790 Clouds 19 1014 49 0 4.33 93 09:39 08.12.2019
2791 Clouds 19 1014 49 0 4.33 93 09:20 08.12.2019
2792 Clouds 19 1014 49 0 4.33 93 08:59 08.12.2019
2793 Clouds 19 1014 49 0 4.33 93 08:39 08.12.2019
2794 Clouds 14 1017 56 0 1.96 90 08:21 08.12.2019
2795 Clouds 14 1017 56 0 1.96 90 07:49 08.12.2019
2796 Clouds 14 1017 56 0 1.96 90 07:21 08.12.2019
2797 Clouds 14 1017 56 0 1.96 90 06:53 08.12.2019
2798 Clouds 14 1017 56 0 1.96 90 06:23 08.12.2019
2799 Clouds 14 1017 56 0 1.96 90 05:58 08.12.2019
2800 Clouds 8 1017 69 0 1.22 38 05:20 08.12.2019
2801 Clouds 9 1025 81 10000 2.1 320 03:55 08.12.2019
2802 Clouds 9 1025 81 10000 2.1 320 03:37 08.12.2019
2803 Clouds 10 1024 81 10000 2.1 340 02:40 08.12.2019
2804 Clouds 10 1025 81 10000 2.1 340 01:57 08.12.2019
2805 Clouds 10 1025 81 10000 2.1 340 01:33 08.12.2019
2806 Clouds 11 1025 76 10000 2.1 360 00:43 08.12.2019
2807 Clouds 11 1025 76 10000 2.1 360 00:21 08.12.2019
2808 Clouds 12 1026 66 10000 4.6 70 23:55 07.12.2019
2809 Clouds 12 1026 66 10000 4.6 70 23:36 07.12.2019
2810 Clouds 12 1026 66 10000 4.6 70 23:18 07.12.2019
2811 Clouds 12 1026 71 10000 4.6 60 22:54 07.12.2019
2812 Clouds 12 1026 71 10000 4.6 60 22:54 07.12.2019
2813 Clouds 12 1026 71 10000 4.6 60 22:36 07.12.2019
2814 Clouds 12 1026 71 10000 4.6 60 22:18 07.12.2019
2815 Clouds 13 1026 66 10000 4.1 60 21:54 07.12.2019
2816 Clouds 13 1026 66 10000 4.1 60 21:36 07.12.2019
2817 Clouds 13 1026 66 10000 4.1 60 21:18 07.12.2019
2818 Clouds 13 1026 66 10000 3.1 60 20:37 07.12.2019
2819 Clouds 13 1026 66 10000 3.1 60 20:19 07.12.2019
2820 Clouds 15 1026 58 10000 5.1 70 19:57 07.12.2019
2821 Clouds 15 1026 58 10000 5.1 70 19:38 07.12.2019
2822 Clouds 15 1026 58 10000 5.1 70 19:20 07.12.2019
2823 Clouds 15 1026 58 10000 5.1 70 18:57 07.12.2019
2824 Clouds 15 1026 58 10000 5.1 70 18:38 07.12.2019
2825 Clouds 16 1025 59 10000 6.2 70 18:18 07.12.2019
2826 Clouds 16 1025 59 10000 6.2 70 17:55 07.12.2019
2827 Clouds 16 1025 59 10000 6.2 70 17:36 07.12.2019
2828 Clouds 16 1025 59 10000 6.2 70 17:18 07.12.2019
2829 Clouds 19 1024 45 10000 7.2 80 16:54 07.12.2019
2830 Clouds 19 1024 45 10000 7.2 80 16:36 07.12.2019
2831 Clouds 19 1024 45 10000 7.2 80 16:18 07.12.2019
2832 Clouds 21 1023 37 10000 6.2 100 15:40 07.12.2019
2833 Clouds 21 1023 37 10000 6.2 100 15:22 07.12.2019
2834 Clouds 22 1023 37 10000 5.1 100 14:43 07.12.2019
2835 Clouds 22 1023 37 10000 5.1 100 14:19 07.12.2019
2836 Clouds 22 1022 37 10000 5.1 180 13:59 07.12.2019
2837 Clouds 22 1022 37 10000 5.1 180 13:39 07.12.2019
2838 Clouds 22 1022 37 10000 5.1 180 13:39 07.12.2019
2839 Clouds 22 1022 37 10000 5.1 180 13:19 07.12.2019
2840 Clear 20 1011 39 0 5.98 101 12:54 07.12.2019
2841 Clear 20 1011 39 0 5.98 101 12:36 07.12.2019
2842 Clear 20 1011 39 0 5.98 101 12:36 07.12.2019
2843 Clear 20 1011 39 0 5.98 101 12:18 07.12.2019
2844 Clouds 21 1024 43 10000 2.6 160 11:41 07.12.2019
2845 Clouds 21 1024 43 10000 2.6 160 11:23 07.12.2019
2846 Clear 20 1014 42 0 2.16 115 10:54 07.12.2019
2847 Clear 20 1014 42 0 2.16 115 10:36 07.12.2019
2848 Clouds 18 1026 55 10000 3.1 140 10:18 07.12.2019
2849 Clouds 18 1026 55 10000 3.1 140 09:39 07.12.2019
2850 Clouds 18 1026 55 10000 3.1 140 09:20 07.12.2019
2851 Clouds 17 1027 55 10000 3.1 140 08:45 07.12.2019
2852 Clouds 17 1027 55 10000 3.1 140 08:24 07.12.2019
2853 Clouds 15 1027 62 10000 2.1 40 07:49 07.12.2019
2854 Clouds 15 1027 62 10000 2.1 40 07:28 07.12.2019
2855 Clouds 14 1017 64 0 1.96 94 06:52 07.12.2019
2856 Clouds 10 1026 81 10000 1.5 280 06:26 07.12.2019
2857 Clouds 10 1026 81 10000 1.5 280 05:47 07.12.2019
2858 Clouds 8 1018 87 0 0.96 347 04:43 07.12.2019
2859 Clouds 8 1018 87 0 0.96 347 03:50 07.12.2019
2860 Clouds 8 1016 84 0 0.93 289 02:22 07.12.2019
2861 Clouds 8 1016 84 0 0.93 289 01:42 07.12.2019
2862 Clouds 9 1016 84 0 1.05 294 01:24 07.12.2019
2863 Clouds 12 1026 66 10000 2.6 70 00:22 07.12.2019
2864 Clouds 12 1026 66 10000 2.6 70 23:59 06.12.2019
2865 Clouds 12 1026 66 10000 2.6 70 23:40 06.12.2019
2866 Clouds 12 1026 66 10000 2.6 70 23:20 06.12.2019
2867 Clouds 12 1027 71 10000 3.1 60 22:39 06.12.2019
2868 Clouds 12 1027 71 10000 3.1 60 22:39 06.12.2019
2869 Clouds 12 1027 71 10000 3.1 60 22:21 06.12.2019
2870 Clouds 13 1027 66 10000 3.6 60 21:59 06.12.2019
2871 Clouds 13 1027 66 10000 3.6 60 21:41 06.12.2019
2872 Clouds 13 1027 66 10000 3.6 60 21:21 06.12.2019
2873 Clouds 13 1027 66 10000 5.1 140 20:56 06.12.2019
2874 Clouds 13 1027 66 10000 5.1 140 20:38 06.12.2019
2875 Clouds 11 1016 68 0 2.87 66 20:19 06.12.2019
2876 Clouds 11 1016 68 0 2.87 66 19:42 06.12.2019
2877 Clouds 11 1016 68 0 2.87 66 19:24 06.12.2019
2878 Clouds 11 1016 68 0 2.87 66 19:24 06.12.2019
2879 Clouds 11 1016 68 0 2.87 66 18:59 06.12.2019
2880 Clouds 11 1016 68 0 2.87 66 18:40 06.12.2019
2881 Clouds 11 1016 68 0 2.87 66 18:21 06.12.2019
2882 Clouds 11 1016 68 0 2.87 66 17:58 06.12.2019
2883 Clouds 11 1016 68 0 2.87 66 17:40 06.12.2019
2884 Clouds 11 1016 68 0 2.87 66 17:40 06.12.2019
2885 Clouds 13 1014 63 0 4.32 99 17:21 06.12.2019
2886 Clouds 13 1014 63 0 4.32 99 16:57 06.12.2019
2887 Clouds 13 1014 63 0 4.32 99 16:37 06.12.2019
2888 Clouds 13 1014 63 0 4.32 99 16:19 06.12.2019
2889 Clouds 13 1014 63 0 4.32 99 15:41 06.12.2019
2890 Clouds 13 1014 63 0 4.32 99 15:22 06.12.2019
2891 Clouds 13 1014 63 0 4.32 99 14:58 06.12.2019
2892 Clouds 13 1014 63 0 4.32 99 14:40 06.12.2019
2893 Clouds 18 1010 60 0 5.27 118 14:20 06.12.2019
2894 Clouds 18 1010 60 0 5.27 118 13:46 06.12.2019
2895 Clouds 18 1010 60 0 5.27 118 13:26 06.12.2019
2896 Clouds 18 1011 59 0 5.08 120 12:57 06.12.2019
2897 Clouds 18 1011 59 0 5.08 120 12:39 06.12.2019
2898 Clouds 18 1011 59 0 5.08 120 12:20 06.12.2019
2899 Clouds 18 1011 59 0 5.08 120 11:42 06.12.2019
2900 Clouds 18 1011 59 0 5.08 120 11:23 06.12.2019
2901 Clouds 18 1014 57 0 2.49 116 10:55 06.12.2019
2902 Clouds 18 1014 57 0 2.49 116 10:37 06.12.2019
2903 Clouds 18 1014 57 0 2.49 116 10:19 06.12.2019
2904 Clouds 18 1014 57 0 2.49 116 09:55 06.12.2019
2905 Clouds 18 1014 57 0 2.49 116 09:36 06.12.2019
2906 Clouds 18 1014 57 0 2.49 116 09:36 06.12.2019
2907 Clouds 18 1014 57 0 2.49 116 09:18 06.12.2019
2908 Clouds 18 1014 57 0 2.49 116 08:40 06.12.2019
2909 Clouds 14 1018 73 0 1.91 79 08:22 06.12.2019
2910 Clouds 14 1018 73 0 1.91 79 07:38 06.12.2019
2911 Clouds 14 1018 73 0 1.91 79 07:20 06.12.2019
2912 Clouds 14 1018 73 0 1.91 79 07:20 06.12.2019
2913 Clouds 14 1018 73 0 1.91 79 06:48 06.12.2019
2914 Clouds 14 1018 73 0 1.91 79 06:24 06.12.2019
2915 Clouds 14 1018 73 0 1.91 79 05:47 06.12.2019
2916 Clouds 9 1018 93 0 1.66 30 02:46 06.12.2019
2917 Clouds 12 1025 76 10000 4.1 80 01:45 06.12.2019
2918 Clouds 9 1016 92 0 0.85 349 00:50 06.12.2019
2919 Clouds 13 1026 71 10000 4.1 60 00:23 06.12.2019
2920 Clouds 13 1026 71 10000 4.1 60 23:51 05.12.2019
2921 Clouds 13 1026 71 10000 4.1 60 23:20 05.12.2019
2922 Clouds 11 1017 85 0 1.3 53 22:58 05.12.2019
2923 Clouds 11 1017 85 0 1.3 53 22:58 05.12.2019
2924 Clouds 11 1017 85 0 1.3 53 22:39 05.12.2019
2925 Clouds 14 1027 67 10000 5.1 60 22:19 05.12.2019
2926 Clouds 14 1027 67 10000 5.1 60 21:57 05.12.2019
2927 Clouds 14 1027 67 10000 5.1 60 21:57 05.12.2019
2928 Clouds 14 1027 67 10000 5.1 60 21:39 05.12.2019
2929 Clouds 14 1027 67 10000 5.1 60 21:39 05.12.2019
2930 Clouds 14 1027 67 10000 5.1 60 21:20 05.12.2019
2931 Clouds 14 1028 71 10000 5.1 70 20:56 05.12.2019
2932 Clouds 14 1028 71 10000 5.1 70 20:38 05.12.2019
2933 Clouds 14 1028 71 10000 5.1 70 20:38 05.12.2019
2934 Clouds 14 1028 71 10000 5.1 70 20:18 05.12.2019
2935 Clouds 14 1028 71 10000 5.1 70 20:18 05.12.2019
2936 Clouds 15 1027 72 10000 4.1 70 19:41 05.12.2019
2937 Clouds 15 1027 72 10000 4.1 70 19:22 05.12.2019
2938 Clouds 12 1016 83 0 3.3 71 18:59 05.12.2019
2939 Clouds 12 1016 83 0 3.3 71 18:39 05.12.2019
2940 Clouds 12 1016 83 0 3.3 71 18:20 05.12.2019
2941 Clouds 12 1016 83 0 3.3 71 17:55 05.12.2019
2942 Clouds 12 1016 83 0 3.3 71 17:36 05.12.2019
2943 Clouds 14 1013 76 0 3.67 102 17:18 05.12.2019
2944 Clouds 14 1013 76 0 3.67 102 16:40 05.12.2019
2945 Clouds 14 1013 76 0 3.67 102 16:22 05.12.2019
2946 Clouds 14 1013 76 0 3.67 102 15:58 05.12.2019
2947 Clouds 14 1013 76 0 3.67 102 15:40 05.12.2019
2948 Clouds 22 1023 46 10000 5.1 170 15:20 05.12.2019
2949 Clouds 22 1023 46 10000 5.1 170 14:56 05.12.2019
2950 Clouds 22 1023 46 10000 5.1 170 14:38 05.12.2019
2951 Clouds 22 1023 46 10000 5.1 170 14:20 05.12.2019
2952 Clouds 21 1023 46 10000 4.1 130 13:58 05.12.2019
2953 Clouds 21 1023 46 10000 4.1 130 13:39 05.12.2019
2954 Clouds 21 1023 46 10000 4.1 130 13:20 05.12.2019
2955 Rain 18 1011 58 0 2.9 105 12:58 05.12.2019
2956 Rain 18 1011 58 0 2.9 105 12:39 05.12.2019
2957 Clouds 21 1025 49 10000 2.6 140 12:21 05.12.2019
2958 Clouds 21 1025 49 10000 2.6 140 11:40 05.12.2019
2959 Clouds 21 1025 49 10000 2.6 140 11:22 05.12.2019
2960 Clouds 18 1014 57 0 3.42 127 10:58 05.12.2019
2961 Clouds 18 1014 57 0 3.42 127 10:40 05.12.2019
2962 Clouds 18 1014 57 0 3.42 127 10:19 05.12.2019
2963 Clouds 18 1014 57 0 3.42 127 09:56 05.12.2019
2964 Clouds 18 1014 57 0 3.42 127 09:38 05.12.2019
2965 Clouds 17 1027 63 10000 4.1 60 09:19 05.12.2019
2966 Clouds 17 1027 63 10000 4.1 60 08:54 05.12.2019
2967 Clouds 17 1027 63 10000 4.1 60 08:36 05.12.2019
2968 Clouds 17 1027 63 10000 4.1 60 08:18 05.12.2019
2969 Clouds 14 1016 74 0 2.24 104 07:40 05.12.2019
2970 Clouds 15 1028 72 10000 5.1 70 07:21 05.12.2019
2971 Clouds 14 1016 74 0 2.24 104 06:47 05.12.2019
2972 Clouds 12 1027 87 10000 2.1 40 06:23 05.12.2019
2973 Clouds 14 1016 74 0 2.24 104 05:53 05.12.2019
2974 Clouds 10 1017 93 0 1.39 356 05:24 05.12.2019
2975 Clouds 10 1017 93 0 1.39 356 04:33 05.12.2019
2976 Clouds 10 1017 93 0 1.39 356 04:33 05.12.2019
2977 Clouds 11 1025 87 10000 3.1 30 03:33 05.12.2019
2978 Clouds 10 1017 93 0 1.39 356 02:41 05.12.2019
2979 Clouds 10 1015 95 0 0.72 3 02:21 05.12.2019
2980 Clouds 10 1015 95 0 0.72 3 01:49 05.12.2019
2981 Clouds 10 1015 94 0 0.95 13 01:22 05.12.2019
2982 Clouds 10 1015 94 0 0.95 13 00:38 05.12.2019
2983 Clouds 10 1015 94 0 0.95 13 00:20 05.12.2019
2984 Clouds 10 1015 94 0 0.95 13 00:20 05.12.2019
2985 Clouds 10 1015 94 0 0.95 13 23:45 04.12.2019
2986 Clouds 11 1017 94 0 1.82 49 23:22 04.12.2019
2987 Clouds 11 1017 94 0 1.82 49 22:57 04.12.2019
2988 Clouds 11 1017 94 0 1.82 49 22:38 04.12.2019
2989 Clouds 14 1026 76 10000 6.2 70 22:19 04.12.2019
2990 Clouds 14 1026 76 10000 6.2 70 22:19 04.12.2019
2991 Clouds 14 1026 76 10000 6.2 70 21:56 04.12.2019
2992 Clouds 14 1026 76 10000 6.2 70 21:56 04.12.2019
2993 Clouds 14 1026 76 10000 6.2 70 21:37 04.12.2019
2994 Clouds 14 1026 76 10000 6.2 70 21:19 04.12.2019
2995 Clouds 15 1027 72 10000 5.1 70 20:56 04.12.2019
2996 Clouds 15 1027 72 10000 5.1 70 20:56 04.12.2019
2997 Clouds 15 1027 72 10000 5.1 70 20:38 04.12.2019
2998 Clouds 15 1027 72 10000 5.1 70 20:20 04.12.2019
2999 Clouds 16 1027 67 10000 5.1 60 19:42 04.12.2019
3000 Clouds 16 1027 67 10000 5.1 60 19:24 04.12.2019
3001 Clouds 11 1015 89 0 2.54 53 18:59 04.12.2019
3002 Clouds 11 1015 89 0 2.54 53 18:41 04.12.2019
3003 Clouds 11 1015 89 0 2.54 53 18:22 04.12.2019
3004 Clouds 11 1015 89 0 2.54 53 18:22 04.12.2019
3005 Clouds 11 1015 89 0 2.54 53 17:58 04.12.2019
3006 Clouds 11 1015 89 0 2.54 53 17:58 04.12.2019
3007 Clouds 11 1015 89 0 2.54 53 17:39 04.12.2019
3008 Clouds 14 1013 74 0 4.06 96 17:18 04.12.2019
3009 Clouds 14 1013 74 0 4.06 96 17:18 04.12.2019
3010 Clouds 14 1013 74 0 4.06 96 16:54 04.12.2019
3011 Clouds 14 1013 74 0 4.06 96 16:36 04.12.2019
3012 Clouds 14 1013 74 0 4.06 96 16:18 04.12.2019
3013 Clouds 14 1013 74 0 4.06 96 15:42 04.12.2019
3014 Clouds 22 1022 43 10000 5.1 160 15:21 04.12.2019
3015 Clouds 22 1022 43 10000 5.1 160 15:00 04.12.2019
3016 Clouds 22 1022 43 10000 5.1 160 14:41 04.12.2019
3017 Clouds 22 1022 43 10000 5.1 160 14:21 04.12.2019
3018 Clouds 22 1022 43 10000 5.7 200 13:56 04.12.2019
3019 Clouds 18 1011 56 0 3.77 114 13:37 04.12.2019
3020 Clouds 22 1023 43 10000 4.1 130 13:18 04.12.2019
3021 Clouds 22 1023 43 10000 4.1 130 12:42 04.12.2019
3022 Clouds 22 1023 43 10000 4.1 130 12:23 04.12.2019
3023 Clouds 18 1011 55 0 3.37 115 11:45 04.12.2019
3024 Clouds 21 1025 46 10000 3.1 170 11:26 04.12.2019
3025 Clouds 21 1025 46 10000 3.1 170 10:59 04.12.2019
3026 Clouds 21 1025 46 10000 3.1 170 10:40 04.12.2019
3027 Clouds 21 1025 46 10000 3.1 170 10:22 04.12.2019
3028 Clouds 19 1025 48 10000 3.1 180 09:44 04.12.2019
3029 Clouds 19 1025 48 10000 3.1 180 09:24 04.12.2019
3030 Clouds 18 1026 52 10000 3.1 100 08:56 04.12.2019
3031 Clouds 18 1026 52 10000 3.1 100 08:38 04.12.2019
3032 Clouds 18 1026 52 10000 3.1 100 08:19 04.12.2019
3033 Clouds 16 1026 59 10000 3.1 90 07:42 04.12.2019
3034 Clouds 16 1026 59 10000 3.1 90 07:22 04.12.2019
3035 Clouds 15 1026 62 10000 0.5 350 06:33 04.12.2019
3036 Clouds 11 1026 81 10000 0.5 360 05:47 04.12.2019
3037 Clouds 11 1025 76 10000 3.1 60 04:43 04.12.2019
3038 Clouds 12 1025 71 10000 5.1 60 03:54 04.12.2019
3039 Clouds 12 1024 71 10000 4.6 70 02:21 04.12.2019
3040 Clouds 14 1025 62 10000 5.1 60 00:50 04.12.2019
3041 Clouds 14 1025 62 10000 5.1 60 00:23 04.12.2019
3042 Clouds 13 1025 66 10000 5.1 60 23:56 03.12.2019
3043 Clouds 13 1025 66 10000 5.1 60 23:37 03.12.2019
3044 Clouds 13 1025 66 10000 5.1 60 23:18 03.12.2019
3045 Clouds 13 1025 66 10000 5.1 60 23:18 03.12.2019
3046 Clouds 14 1026 67 10000 4.1 70 22:40 03.12.2019
3047 Clouds 14 1026 67 10000 4.1 70 22:19 03.12.2019
3048 Clouds 15 1026 62 10000 5.1 60 21:57 03.12.2019
3049 Clouds 15 1026 62 10000 5.1 60 21:37 03.12.2019
3050 Clouds 15 1026 62 10000 5.1 60 21:19 03.12.2019
3051 Clouds 15 1026 62 10000 4.1 70 20:56 03.12.2019
3052 Clouds 15 1026 62 10000 4.1 70 20:38 03.12.2019
3053 Clouds 15 1026 62 10000 4.1 70 20:18 03.12.2019
3054 Clouds 11 1015 76 0 3.32 53 19:54 03.12.2019
3055 Clouds 11 1015 76 0 3.32 53 19:36 03.12.2019
3056 Clouds 16 1025 59 10000 5.1 50 19:18 03.12.2019
3057 Clouds 16 1025 59 10000 5.1 50 18:55 03.12.2019
3058 Clouds 16 1025 59 10000 5.1 50 18:37 03.12.2019
3059 Clouds 16 1025 59 10000 5.1 50 18:18 03.12.2019
3060 Clouds 11 1015 76 0 3.32 53 17:40 03.12.2019
3061 Clouds 19 1023 45 10000 4.1 80 17:19 03.12.2019
3062 Clouds 19 1023 45 10000 4.1 80 16:59 03.12.2019
3063 Clouds 19 1023 45 10000 4.1 80 16:40 03.12.2019
3064 Clouds 19 1023 45 10000 4.1 80 16:21 03.12.2019
3065 Clouds 20 1023 42 10000 5.1 150 15:59 03.12.2019
3066 Clouds 20 1023 42 10000 5.1 150 15:39 03.12.2019
3067 Clouds 20 1023 42 10000 5.1 150 15:39 03.12.2019
3068 Clouds 20 1023 42 10000 5.1 150 15:19 03.12.2019
3069 Clouds 22 1022 37 10000 4.1 180 14:54 03.12.2019
3070 Clouds 22 1022 37 10000 4.1 180 14:36 03.12.2019
3071 Clouds 22 1022 37 10000 4.1 180 14:18 03.12.2019
3072 Clouds 22 1022 37 10000 5.1 130 13:38 03.12.2019
3073 Clouds 22 1022 37 10000 5.1 130 13:20 03.12.2019
3074 Clouds 23 1022 35 10000 4.1 180 12:58 03.12.2019
3075 Clouds 19 1010 50 0 3.17 100 12:37 03.12.2019
3076 Clouds 19 1010 50 0 3.17 100 12:18 03.12.2019
3077 Clouds 19 1010 50 0 3.17 100 11:56 03.12.2019
3078 Clouds 19 1010 50 0 3.17 100 11:37 03.12.2019
3079 Clouds 20 1025 40 10000 4.1 170 11:19 03.12.2019
3080 Clouds 20 1025 40 10000 4.1 170 10:54 03.12.2019
3081 Clouds 18 1014 48 0 3.55 112 10:36 03.12.2019
3082 Clouds 20 1025 37 10000 4.1 100 10:18 03.12.2019
3083 Clouds 20 1025 37 10000 4.1 100 09:42 03.12.2019
3084 Clouds 20 1025 37 10000 4.1 100 09:23 03.12.2019
3085 Clouds 19 1026 42 10000 5.1 100 08:56 03.12.2019
3086 Clouds 19 1026 42 10000 5.1 100 08:38 03.12.2019
3087 Clouds 19 1026 42 10000 5.1 100 08:19 03.12.2019
3088 Clouds 14 1016 58 0 2.08 118 07:50 03.12.2019
3089 Clouds 14 1016 58 0 2.08 118 07:24 03.12.2019
3090 Clouds 14 1016 58 0 2.08 118 06:24 03.12.2019
3091 Clouds 14 1016 58 0 2.08 118 05:59 03.12.2019
3092 Clouds 12 1016 70 0 0.7 60 04:55 03.12.2019
3093 Clouds 12 1016 70 0 0.7 60 03:41 03.12.2019
3094 Clouds 12 1016 70 0 0.7 60 03:20 03.12.2019
3095 Clouds 12 1016 70 0 0.7 60 03:20 03.12.2019
3096 Clouds 12 1016 70 0 0.7 60 02:51 03.12.2019
3097 Clouds 13 1024 62 10000 3.1 70 02:31 03.12.2019
3098 Clouds 13 1024 62 10000 3.1 70 01:53 03.12.2019
3099 Clouds 13 1024 62 10000 3.1 70 01:34 03.12.2019
3100 Clouds 13 1025 66 10000 3.6 70 00:59 03.12.2019
3101 Clouds 13 1025 66 10000 3.6 70 00:40 03.12.2019
3102 Clouds 13 1025 66 10000 3.6 70 00:21 03.12.2019
3103 Clouds 13 1025 71 10000 5.1 70 23:43 02.12.2019
3104 Clouds 13 1025 71 10000 5.1 70 23:21 02.12.2019
3105 Clouds 13 1026 71 10000 3.1 90 22:43 02.12.2019
3106 Clouds 13 1026 71 10000 3.1 90 22:23 02.12.2019
3107 Clouds 15 1025 62 10000 4.1 80 21:59 02.12.2019
3108 Clouds 15 1025 62 10000 4.1 80 21:39 02.12.2019
3109 Clouds 15 1025 62 10000 4.1 80 21:39 02.12.2019
3110 Clouds 15 1025 62 10000 4.1 80 21:39 02.12.2019
3111 Clouds 15 1025 62 10000 4.1 80 21:20 02.12.2019
3112 Clouds 15 1025 58 0 5.7 60 20:57 02.12.2019
3113 Clouds 15 1025 58 0 5.7 60 20:39 02.12.2019
3114 Clouds 15 1025 58 0 5.7 60 20:20 02.12.2019
3115 Clouds 16 1025 55 10000 4.1 60 19:56 02.12.2019
3116 Clouds 16 1025 55 10000 4.1 60 19:56 02.12.2019
3117 Clouds 16 1025 55 10000 4.1 60 19:38 02.12.2019
3118 Clouds 16 1025 55 10000 4.1 60 19:38 02.12.2019
3119 Clouds 16 1025 55 10000 4.1 60 19:20 02.12.2019
3120 Clouds 16 1025 55 10000 4.1 60 18:48 02.12.2019
3121 Clouds 16 1024 55 10000 4.1 60 18:24 02.12.2019
3122 Clouds 16 1024 55 10000 4.1 60 17:59 02.12.2019
3123 Clouds 11 1014 89 0 2.5 61 17:40 02.12.2019
3124 Clouds 14 1012 77 0 2.77 85 17:20 02.12.2019
3125 Clouds 14 1012 77 0 2.77 85 16:57 02.12.2019
3126 Clouds 14 1012 77 0 2.77 85 16:38 02.12.2019
3127 Clouds 14 1012 77 0 2.77 85 16:18 02.12.2019
3128 Clouds 14 1012 77 0 2.77 85 15:55 02.12.2019
3129 Clouds 22 1022 40 10000 3.1 120 15:37 02.12.2019
3130 Clouds 22 1022 40 10000 3.1 120 15:19 02.12.2019
3131 Clouds 22 1022 40 10000 3.1 120 14:39 02.12.2019
3132 Clouds 22 1022 40 10000 3.1 120 14:20 02.12.2019
3133 Clouds 21 1022 46 10000 3.1 150 13:58 02.12.2019
3134 Clouds 18 1010 58 0 3.96 110 13:39 02.12.2019
3135 Clouds 21 1023 43 10000 2.1 210 13:20 02.12.2019
3136 Clouds 21 1023 43 10000 2.1 210 13:20 02.12.2019
3137 Clouds 21 1023 43 10000 2.1 210 12:58 02.12.2019
3138 Clouds 21 1023 43 10000 2.1 210 12:40 02.12.2019
3139 Clouds 21 1023 43 10000 2.1 210 12:20 02.12.2019
3140 Clouds 18 1010 56 0 3.88 109 11:56 02.12.2019
3141 Clouds 18 1010 56 0 3.88 109 11:37 02.12.2019
3142 Clouds 20 1025 42 10000 3.1 140 11:18 02.12.2019
3143 Clouds 20 1025 42 10000 3.1 140 10:55 02.12.2019
3144 Clouds 20 1025 42 10000 3.1 140 10:36 02.12.2019
3145 Clouds 20 1025 42 10000 3.1 140 10:18 02.12.2019
3146 Clouds 19 1026 45 10000 3.1 140 09:41 02.12.2019
3147 Clouds 19 1026 45 10000 3.1 140 09:19 02.12.2019
3148 Clear 19 1014 50 0 2.94 171 08:57 02.12.2019
3149 Clear 19 1014 50 0 2.94 171 08:38 02.12.2019
3150 Clouds 16 1027 55 10000 2.1 170 08:20 02.12.2019
3151 Clear 15 1017 62 0 1.2 126 07:42 02.12.2019
3152 Clear 15 1017 62 0 1.2 126 07:21 02.12.2019
3153 Clear 15 1017 62 0 1.2 126 06:56 02.12.2019
3154 Clear 15 1017 62 0 1.2 126 06:37 02.12.2019
3155 Clouds 11 1026 76 10000 1 320 05:25 02.12.2019
3156 Clouds 11 1025 76 10000 2.1 320 04:21 02.12.2019
3157 Clear 9 1017 81 0 1.13 353 02:51 02.12.2019
3158 Clear 9 1017 81 0 1.13 353 02:26 02.12.2019
3159 Clear 9 1016 81 0 1.39 18 01:25 02.12.2019
3160 Clear 9 1016 79 0 1.55 18 00:55 02.12.2019
3161 Clear 9 1016 79 0 1.55 18 00:24 02.12.2019
3162 Clear 9 1016 79 0 1.55 18 23:45 01.12.2019
3163 Clear 9 1016 79 0 1.55 18 23:23 01.12.2019
3164 Clear 10 1017 75 0 1.43 21 22:58 01.12.2019
3165 Clear 10 1017 75 0 1.43 21 22:39 01.12.2019
3166 Clear 10 1017 75 0 1.43 21 22:20 01.12.2019
3167 Clear 10 1017 75 0 1.43 21 21:58 01.12.2019
3168 Clear 10 1017 75 0 1.43 21 21:40 01.12.2019
3169 Clear 10 1017 75 0 1.43 21 21:22 01.12.2019
3170 Clear 10 1017 75 0 1.43 21 20:59 01.12.2019
3171 Clear 10 1017 75 0 1.43 21 20:59 01.12.2019
3172 Clear 10 1017 75 0 1.43 21 20:41 01.12.2019
3173 Clear 11 1015 71 0 2.69 51 20:23 01.12.2019
3174 Clear 11 1015 71 0 2.69 51 19:59 01.12.2019
3175 Clear 11 1015 71 0 2.69 51 19:40 01.12.2019
3176 Clouds 14 1026 58 10000 6.2 60 19:21 01.12.2019
3177 Clouds 14 1026 58 10000 6.2 60 18:57 01.12.2019
3178 Clouds 14 1026 58 10000 6.2 60 18:39 01.12.2019
3179 Clouds 14 1026 58 10000 6.2 60 18:20 01.12.2019
3180 Clouds 16 1025 51 10000 5.1 80 17:59 01.12.2019
3181 Clouds 16 1025 51 10000 5.1 80 17:41 01.12.2019
3182 Clouds 16 1025 51 10000 5.1 80 17:23 01.12.2019
3183 Clouds 16 1025 51 10000 5.1 80 17:23 01.12.2019
3184 Clear 13 1013 65 0 3.12 93 16:56 01.12.2019
3185 Clear 13 1013 65 0 3.12 93 16:38 01.12.2019
3186 Clouds 21 1024 43 10000 4.1 150 16:20 01.12.2019
3187 Clouds 21 1024 43 10000 4.1 150 15:46 01.12.2019
3188 Clouds 21 1024 43 10000 4.1 150 15:28 01.12.2019
3189 Clouds 22 1023 37 10000 4.6 150 14:43 01.12.2019
3190 Clouds 22 1023 37 10000 4.6 150 14:20 01.12.2019
3191 Clouds 22 1023 37 10000 3.6 120 13:59 01.12.2019
3192 Clouds 19 1011 48 0 4.34 106 13:39 01.12.2019
3193 Clear 19 1011 47 0 4.46 108 13:19 01.12.2019
3194 Clear 19 1011 47 0 4.46 108 12:43 01.12.2019
3195 Clear 19 1011 47 0 4.46 108 11:58 01.12.2019
3196 Clear 19 1011 47 0 4.46 108 11:39 01.12.2019
3197 Clear 18 1015 50 0 2.69 116 11:19 01.12.2019
3198 Clear 18 1015 50 0 2.69 116 10:43 01.12.2019
3199 Clear 18 1015 50 0 2.69 116 10:21 01.12.2019
3200 Clear 18 1015 50 0 2.69 116 09:57 01.12.2019
3201 Clear 18 1015 50 0 2.69 116 09:38 01.12.2019
3202 Clear 18 1015 50 0 2.69 116 09:20 01.12.2019
3203 Clear 18 1015 50 0 2.69 116 09:20 01.12.2019
3204 Clear 18 1015 50 0 2.69 116 08:44 01.12.2019
3205 Clouds 14 1017 66 0 2.05 108 08:19 01.12.2019
3206 Clouds 14 1017 66 0 2.05 108 07:50 01.12.2019
3207 Clouds 14 1017 66 0 2.05 108 07:50 01.12.2019
3208 Clouds 14 1017 66 0 2.05 108 07:30 01.12.2019
3209 Clouds 14 1017 66 0 2.05 108 06:56 01.12.2019
3210 Clouds 14 1017 66 0 2.05 108 06:25 01.12.2019
3211 Clouds 14 1017 66 0 2.05 108 05:46 01.12.2019
3212 Clouds 8 1017 88 0 0.65 318 04:34 01.12.2019
3213 Clouds 8 1017 88 0 0.65 318 02:47 01.12.2019
3214 Clouds 8 1017 88 0 0.65 318 02:29 01.12.2019
3215 Clouds 9 1016 87 0 1.16 360 01:56 01.12.2019
3216 Clouds 9 1016 87 0 1.16 360 01:38 01.12.2019
3217 Clouds 9 1016 91 0 1.15 14 00:59 01.12.2019
3218 Clouds 9 1016 91 0 1.15 14 00:39 01.12.2019
3219 Clouds 9 1016 91 0 1.15 14 00:20 01.12.2019
3220 Clouds 9 1016 91 0 1.15 14 23:41 30.11.2019
3221 Clouds 13 1026 66 10000 4.1 60 23:22 30.11.2019
3222 Clouds 13 1026 66 10000 4.1 60 22:49 30.11.2019
3223 Clouds 13 1026 66 10000 4.1 60 22:29 30.11.2019
3224 Clouds 13 1027 71 10000 5.1 70 21:57 30.11.2019
3225 Clouds 13 1027 71 10000 5.1 70 21:39 30.11.2019
3226 Clouds 13 1027 71 10000 5.1 70 21:19 30.11.2019
3227 Clouds 14 1027 71 10000 5.1 70 20:55 30.11.2019
3228 Clouds 14 1027 71 10000 5.1 70 20:36 30.11.2019
3229 Clouds 14 1027 71 10000 5.1 70 20:18 30.11.2019
3230 Clouds 14 1027 71 10000 5.1 70 19:54 30.11.2019
3231 Clouds 14 1027 71 10000 5.1 70 19:36 30.11.2019
3232 Clouds 14 1027 71 10000 5.1 70 19:36 30.11.2019
3233 Clouds 14 1027 71 10000 5.1 70 19:18 30.11.2019
3234 Clouds 14 1027 71 10000 4.1 60 18:54 30.11.2019
3235 Clouds 14 1027 71 10000 4.1 60 18:54 30.11.2019
3236 Clouds 14 1027 71 10000 4.1 60 18:36 30.11.2019
3237 Clouds 14 1027 71 10000 4.1 60 18:18 30.11.2019
3238 Clouds 15 1026 72 10000 5.1 80 17:55 30.11.2019
3239 Clouds 15 1026 72 10000 5.1 80 17:36 30.11.2019
3240 Clouds 15 1026 72 10000 5.1 80 17:18 30.11.2019
3241 Clouds 16 1025 67 10000 5.1 80 16:41 30.11.2019
3242 Clouds 16 1025 67 10000 5.1 80 16:41 30.11.2019
3243 Clouds 16 1025 67 10000 5.1 80 16:22 30.11.2019
3244 Clouds 13 1014 84 0 4.22 88 15:55 30.11.2019
3245 Clouds 13 1014 84 0 4.22 88 15:37 30.11.2019
3246 Clouds 19 1024 55 10000 5.1 90 15:18 30.11.2019
3247 Clouds 19 1024 55 10000 5.1 90 14:55 30.11.2019
3248 Clouds 13 1014 84 0 4.22 88 14:37 30.11.2019
3249 Clouds 16 1013 68 0 3.37 95 14:18 30.11.2019
3250 Clouds 16 1013 68 0 3.37 95 13:45 30.11.2019
3251 Clouds 21 1024 52 10000 4.6 170 13:26 30.11.2019
3252 Clouds 21 1024 52 10000 4.6 170 12:58 30.11.2019
3253 Clouds 21 1024 52 10000 4.6 170 12:40 30.11.2019
3254 Clouds 21 1024 52 10000 4.6 170 12:21 30.11.2019
3255 Clouds 20 1025 52 10000 3.1 140 11:42 30.11.2019
3256 Clouds 20 1025 52 10000 3.1 140 11:19 30.11.2019
3257 Clouds 20 1026 52 10000 3.1 130 10:56 30.11.2019
3258 Clouds 20 1026 52 10000 3.1 130 10:37 30.11.2019
3259 Clouds 20 1026 52 10000 3.1 130 10:19 30.11.2019
3260 Clouds 18 1027 59 10000 4.6 100 09:46 30.11.2019
3261 Clouds 18 1027 59 10000 4.6 100 09:24 30.11.2019
3262 Clouds 16 1028 67 10000 4.1 80 08:44 30.11.2019
3263 Clouds 16 1028 67 10000 4.1 80 08:22 30.11.2019
3264 Clouds 15 1028 72 10000 5.1 100 07:58 30.11.2019
3265 Clouds 15 1028 72 10000 5.1 100 07:39 30.11.2019
3266 Clouds 14 1027 71 10000 3.6 60 06:56 30.11.2019
3267 Clouds 14 1027 71 10000 3.6 60 06:29 30.11.2019
3268 Clouds 12 1027 81 10000 2.6 90 05:50 30.11.2019
3269 Clouds 9 1018 93 0 0.98 334 03:48 30.11.2019
3270 Clouds 9 1018 93 0 0.98 334 02:39 30.11.2019
3271 Clouds 12 1026 81 10000 2.1 110 02:21 30.11.2019
3272 Clouds 12 1026 81 10000 2.1 110 01:25 30.11.2019
3273 Clouds 12 1026 81 10000 2.1 110 01:25 30.11.2019
3274 Clouds 12 1026 81 10000 2.1 110 01:25 30.11.2019
3275 Clouds 13 1027 76 10000 3.1 80 00:50 30.11.2019
3276 Clouds 13 1027 76 10000 3.1 80 00:31 30.11.2019
3277 Clear 9 1016 93 0 0.41 56 23:59 29.11.2019
3278 Clear 9 1016 93 0 0.41 56 23:40 29.11.2019
3279 Clear 10 1018 92 0 1.76 21 23:21 29.11.2019
3280 Clear 10 1018 92 0 1.76 21 22:44 29.11.2019
3281 Clouds 14 1027 76 10000 6.2 70 22:25 29.11.2019
3282 Clouds 14 1027 76 10000 6.2 70 22:25 29.11.2019
3283 Clouds 14 1027 76 10000 6.2 70 21:44 29.11.2019
3284 Clouds 14 1027 76 10000 6.2 70 21:44 29.11.2019
3285 Clouds 14 1027 76 10000 6.2 70 21:24 29.11.2019
3286 Clouds 14 1027 82 10000 5.1 70 20:58 29.11.2019
3287 Clouds 14 1027 82 10000 5.1 70 20:38 29.11.2019
3288 Clouds 14 1027 82 10000 5.1 70 20:19 29.11.2019
3289 Rain 14 1027 87 9000 6.2 70 19:57 29.11.2019
3290 Rain 14 1027 87 9000 6.2 70 19:39 29.11.2019
3291 Rain 14 1027 87 9000 6.2 70 19:19 29.11.2019
3292 Clouds 15 1027 77 10000 20.6 70 18:55 29.11.2019
3293 Clouds 15 1027 77 10000 20.6 70 18:37 29.11.2019
3294 Clouds 15 1027 77 10000 20.6 70 18:37 29.11.2019
3295 Clouds 15 1027 77 10000 20.6 70 18:37 29.11.2019
3296 Clouds 15 1027 77 10000 20.6 70 18:19 29.11.2019
3297 Clouds 11 1017 96 0 2.17 59 17:43 29.11.2019
3298 Clouds 11 1017 96 0 2.17 59 17:24 29.11.2019
3299 Rain 13 1014 88 0 4.27 81 16:56 29.11.2019
3300 Rain 13 1014 88 0 4.27 81 16:37 29.11.2019
3301 Rain 13 1014 88 0 4.27 81 16:18 29.11.2019
3302 Rain 13 1014 88 0 4.27 81 15:40 29.11.2019
3303 Rain 13 1014 88 0 4.27 81 15:22 29.11.2019
3304 Rain 13 1014 88 0 4.27 81 14:55 29.11.2019
3305 Rain 13 1014 88 0 4.27 81 14:37 29.11.2019
3306 Rain 17 1012 73 0 4.4 116 14:18 29.11.2019
3307 Rain 17 1012 73 0 4.4 116 13:40 29.11.2019
3308 Rain 17 1012 69 0 3.69 114 13:20 29.11.2019
3309 Rain 17 1012 69 0 3.69 114 12:56 29.11.2019
3310 Rain 17 1012 69 0 3.69 114 12:37 29.11.2019
3311 Rain 17 1012 69 0 3.69 114 12:19 29.11.2019
3312 Rain 17 1012 69 0 3.69 114 11:41 29.11.2019
3313 Rain 17 1015 67 0 3.5 124 11:19 29.11.2019
3314 Rain 17 1015 67 0 3.5 124 10:59 29.11.2019
3315 Rain 17 1015 67 0 3.5 124 10:40 29.11.2019
3316 Rain 17 1015 67 0 3.5 124 10:22 29.11.2019
3317 Rain 17 1015 67 0 3.5 124 09:59 29.11.2019
3318 Rain 17 1015 67 0 3.5 124 09:41 29.11.2019
3319 Rain 17 1015 67 0 3.5 124 09:22 29.11.2019
3320 Rain 17 1015 67 0 3.5 124 08:59 29.11.2019
3321 Rain 17 1015 67 0 3.5 124 08:38 29.11.2019
3322 Clouds 15 1018 72 0 2.03 121 08:20 29.11.2019
3323 Clouds 15 1018 71 0 1.86 130 07:55 29.11.2019
3324 Clouds 15 1018 71 0 1.86 130 07:36 29.11.2019
3325 Clouds 15 1018 71 0 1.86 130 07:18 29.11.2019
3326 Clouds 15 1018 71 0 1.86 130 06:41 29.11.2019
3327 Clouds 15 1018 71 0 1.86 130 05:47 29.11.2019
3328 Clouds 15 1018 71 0 1.86 130 05:23 29.11.2019
3329 Clouds 9 1018 91 0 1.57 12 04:20 29.11.2019
3330 Clouds 9 1018 91 0 1.57 12 03:21 29.11.2019
3331 Clouds 9 1018 91 0 1.57 12 02:28 29.11.2019
3332 Clear 10 1016 92 0 1.1 348 01:51 29.11.2019
3333 Clear 9 1016 92 0 1.14 340 01:25 29.11.2019
3334 Clear 9 1016 92 0 1.14 340 00:42 29.11.2019
3335 Clear 9 1016 92 0 1.14 340 00:20 29.11.2019
3336 Clear 9 1016 92 0 1.14 340 23:46 28.11.2019
3337 Clear 10 1017 94 0 1.64 45 23:22 28.11.2019
3338 Clear 10 1017 94 0 1.64 45 22:59 28.11.2019
3339 Clear 10 1017 94 0 1.64 45 22:38 28.11.2019
3340 Clear 10 1017 94 0 1.64 45 22:20 28.11.2019
3341 Clear 10 1017 94 0 1.64 45 21:58 28.11.2019
3342 Clear 10 1017 94 0 1.64 45 21:39 28.11.2019
3343 Clear 10 1017 94 0 1.64 45 21:19 28.11.2019
3344 Clear 10 1017 94 0 1.64 45 20:55 28.11.2019
3345 Clear 10 1017 94 0 1.64 45 20:37 28.11.2019
3346 Clouds 11 1017 94 0 2.33 52 20:18 28.11.2019
3347 Clouds 11 1017 94 0 2.33 52 19:41 28.11.2019
3348 Clouds 11 1017 94 0 2.33 52 19:41 28.11.2019
3349 Clouds 11 1017 94 0 2.33 52 19:23 28.11.2019
3350 Clouds 11 1017 94 0 2.33 52 18:59 28.11.2019
3351 Clouds 11 1017 94 0 2.33 52 18:40 28.11.2019
3352 Clouds 11 1017 94 0 2.33 52 18:19 28.11.2019
3353 Clouds 11 1017 94 0 2.33 52 17:59 28.11.2019
3354 Clouds 11 1017 94 0 2.33 52 17:59 28.11.2019
3355 Clouds 11 1017 94 0 2.33 52 17:41 28.11.2019
3356 Clouds 13 1014 81 0 3.72 101 17:23 28.11.2019
3357 Clouds 13 1014 81 0 3.72 101 16:58 28.11.2019
3358 Clouds 13 1014 81 0 3.72 101 16:38 28.11.2019
3359 Clouds 13 1014 81 0 3.72 101 16:19 28.11.2019
3360 Clouds 13 1014 81 0 3.72 101 15:42 28.11.2019
3361 Clouds 13 1014 81 0 3.72 101 15:21 28.11.2019
3362 Clouds 13 1014 81 0 3.72 101 14:59 28.11.2019
3363 Clouds 13 1014 81 0 3.72 101 14:41 28.11.2019
3364 Clouds 20 1024 52 10000 5.1 100 14:22 28.11.2019
3365 Clouds 20 1024 52 10000 5.1 100 13:58 28.11.2019
3366 Clouds 20 1024 52 10000 5.1 100 13:40 28.11.2019
3367 Clouds 20 1024 52 10000 5.1 100 13:21 28.11.2019
3368 Clouds 21 1024 43 10000 4.1 140 12:45 28.11.2019
3369 Clouds 21 1024 43 10000 4.1 140 12:27 28.11.2019
3370 Clouds 18 1012 57 0 5.1 115 11:58 28.11.2019
3371 Clouds 18 1012 57 0 5.1 115 11:40 28.11.2019
3372 Clouds 19 1015 45 0 3.55 101 11:20 28.11.2019
3373 Clouds 19 1015 45 0 3.55 101 10:56 28.11.2019
3374 Clouds 19 1015 45 0 3.55 101 10:38 28.11.2019
3375 Clouds 19 1027 48 10000 4.1 150 10:18 28.11.2019
3376 Clouds 19 1027 48 10000 4.1 150 09:41 28.11.2019
3377 Clouds 19 1027 48 10000 4.1 150 09:22 28.11.2019
3378 Clouds 19 1027 48 10000 4.1 150 08:57 28.11.2019
3379 Clouds 19 1015 45 0 3.55 101 08:38 28.11.2019
3380 Clouds 16 1028 51 10000 2.1 120 08:19 28.11.2019
3381 Clouds 14 1018 62 0 2.71 77 07:42 28.11.2019
3382 -273 0 0 0 0 0 07:23 28.11.2019
3383 Clouds 14 1018 62 0 2.71 77 06:50 28.11.2019
3384 Clouds 14 1018 62 0 2.71 77 06:50 28.11.2019
3385 Clouds 9 1027 81 10000 3.1 320 06:29 28.11.2019
3386 Clouds 9 1027 81 10000 3.1 320 05:51 28.11.2019
3387 Clouds 9 1027 81 10000 3.1 320 05:18 28.11.2019
3388 Clouds 10 1026 76 10000 2.1 360 02:46 28.11.2019
3389 Clouds 10 1026 76 10000 2.1 360 01:50 28.11.2019
3390 Clouds 10 1026 81 10000 3.1 40 00:48 28.11.2019
3391 Clouds 10 1026 81 10000 3.1 40 00:23 28.11.2019
3392 Clouds 11 1027 71 10000 3.1 100 23:55 27.11.2019
3393 Clouds 11 1027 71 10000 3.1 100 23:37 27.11.2019
3394 Clouds 11 1027 71 10000 3.1 100 23:19 27.11.2019
3395 Clouds 10 1018 77 0 2.43 42 22:39 27.11.2019
3396 Clouds 12 1027 71 10000 1.5 110 22:20 27.11.2019
3397 Clouds 12 1027 71 10000 1.5 110 21:56 27.11.2019
3398 Clouds 12 1027 71 10000 1.5 110 21:38 27.11.2019
3399 Clouds 12 1027 71 10000 1.5 110 21:38 27.11.2019
3400 Clouds 12 1027 71 10000 1.5 110 21:19 27.11.2019
3401 Clouds 13 1027 66 10000 3.6 70 20:59 27.11.2019
3402 Clouds 13 1027 66 10000 3.6 70 20:39 27.11.2019
3403 Clouds 13 1027 66 10000 3.6 70 20:21 27.11.2019
3404 Clouds 15 1026 54 10000 5.7 50 19:58 27.11.2019
3405 Clouds 15 1026 54 10000 5.7 50 19:40 27.11.2019
3406 Clouds 15 1026 54 10000 5.7 50 19:21 27.11.2019
3407 Clouds 15 1026 54 10000 6.2 60 18:59 27.11.2019
3408 Clouds 15 1026 54 10000 6.2 60 18:37 27.11.2019
3409 Clouds 15 1026 54 10000 6.2 60 18:19 27.11.2019
3410 Clouds 15 1025 54 10000 8.7 60 17:58 27.11.2019
3411 Clouds 15 1025 54 10000 8.7 60 17:40 27.11.2019
3412 Clouds 15 1025 54 10000 8.7 60 17:20 27.11.2019
3413 Clouds 16 1025 59 10000 7.2 80 16:56 27.11.2019
3414 Clouds 16 1025 59 10000 7.2 80 16:38 27.11.2019
3415 Clouds 16 1025 59 10000 7.2 80 16:20 27.11.2019
3416 Clouds 12 1014 77 0 5.09 88 15:57 27.11.2019
3417 Clouds 12 1014 77 0 5.09 88 15:38 27.11.2019
3418 Clouds 20 1024 49 10000 7.7 90 15:20 27.11.2019
3419 Clouds 20 1024 49 10000 7.7 90 14:57 27.11.2019
3420 Clouds 20 1024 49 10000 7.7 90 14:39 27.11.2019
3421 Clouds 20 1024 49 10000 7.7 90 14:21 27.11.2019
3422 Clouds 20 1024 49 10000 6.2 100 13:56 27.11.2019
3423 Clouds 20 1024 49 10000 6.2 100 13:38 27.11.2019
3424 Clouds 20 1024 49 10000 6.2 100 13:19 27.11.2019
3425 Clouds 20 1024 49 10000 6.2 100 13:19 27.11.2019
3426 Clouds 21 1024 49 10000 7.2 110 12:54 27.11.2019
3427 Clouds 21 1024 43 10000 6.7 90 12:36 27.11.2019
3428 Clouds 21 1024 43 10000 6.7 90 12:18 27.11.2019
3429 Clouds 21 1025 43 10000 6.7 110 11:38 27.11.2019
3430 Clouds 18 1016 53 0 6.67 88 11:19 27.11.2019
3431 Clouds 18 1016 53 0 6.67 88 10:55 27.11.2019
3432 Clouds 18 1016 53 0 6.67 88 10:37 27.11.2019
3433 Clouds 18 1016 53 0 6.67 88 10:19 27.11.2019
3434 Clouds 18 1016 53 0 6.67 88 09:42 27.11.2019
3435 Clouds 17 1028 67 10000 5.7 80 09:24 27.11.2019
3436 Clouds 17 1028 67 10000 5.7 80 08:43 27.11.2019
3437 Clouds 17 1028 67 10000 5.7 80 08:25 27.11.2019
3438 Clouds 14 1028 76 10000 5.7 80 07:59 27.11.2019
3439 Clouds 14 1028 76 10000 5.7 80 07:40 27.11.2019
3440 Clouds 14 1028 76 10000 5.7 80 07:21 27.11.2019
3441 Clouds 12 1028 87 10000 2.6 90 06:46 27.11.2019
3442 Clouds 12 1028 87 10000 2.6 90 06:26 27.11.2019
3443 Clouds 11 1027 81 10000 1.5 100 05:27 27.11.2019
3444 Clouds 9 1026 87 10000 2.1 320 04:57 27.11.2019
3445 Clouds 9 1026 87 10000 2.1 320 04:37 27.11.2019
3446 Clouds 9 1026 93 10000 1.5 350 03:50 27.11.2019
3447 Clouds 9 1026 93 10000 1.5 350 03:21 27.11.2019
3448 Clouds 10 1018 87 0 2.31 15 02:54 27.11.2019
3449 Clouds 10 1017 92 0 2.03 8 01:35 27.11.2019
3450 Clouds 10 1017 91 0 2.15 9 00:44 27.11.2019
3451 Clouds 10 1017 91 0 2.15 9 00:25 27.11.2019
3452 Clouds 10 1017 91 0 2.15 9 23:47 26.11.2019
3453 Clouds 13 1027 82 10000 4.1 80 23:26 26.11.2019
3454 Clouds 13 1027 82 10000 4.1 80 22:56 26.11.2019
3455 Clouds 13 1027 82 10000 4.1 80 22:38 26.11.2019
3456 Clouds 13 1027 82 10000 4.1 80 22:19 26.11.2019
3457 Clouds 11 1018 93 0 2.66 41 21:57 26.11.2019
3458 Clouds 11 1018 93 0 2.66 41 21:37 26.11.2019
3459 Clouds 11 1018 93 0 2.66 41 21:19 26.11.2019
3460 Clouds 11 1018 93 0 2.66 41 21:19 26.11.2019
3461 Clouds 11 1018 93 0 2.66 41 20:54 26.11.2019
3462 Clouds 11 1018 93 0 2.66 41 20:36 26.11.2019
3463 Clouds 11 1018 96 0 3.24 68 20:18 26.11.2019
3464 Clouds 11 1018 96 0 3.24 68 19:54 26.11.2019
3465 Clouds 11 1018 96 0 3.24 68 19:36 26.11.2019
3466 Clouds 11 1018 96 0 3.24 68 19:18 26.11.2019
3467 Clouds 11 1018 96 0 3.24 68 18:54 26.11.2019
3468 Clouds 11 1018 96 0 3.24 68 18:36 26.11.2019
3469 Clouds 11 1018 96 0 3.24 68 18:18 26.11.2019
3470 Clouds 11 1018 96 0 3.24 68 17:41 26.11.2019
3471 Clouds 11 1018 96 0 3.24 68 17:23 26.11.2019
3472 Clouds 11 1018 96 0 3.24 68 17:23 26.11.2019
3473 Clouds 13 1013 86 0 5.24 87 16:57 26.11.2019
3474 Clouds 13 1013 86 0 5.24 87 16:38 26.11.2019
3475 Clouds 13 1013 86 0 5.24 87 16:38 26.11.2019
3476 Clouds 19 1024 52 10000 6.2 80 16:19 26.11.2019
3477 Clouds 19 1024 52 10000 6.2 80 15:59 26.11.2019
3478 Clouds 19 1024 52 10000 6.2 80 15:38 26.11.2019
3479 Clouds 19 1024 52 10000 6.2 80 15:20 26.11.2019
3480 Clouds 13 1013 86 0 5.24 87 14:59 26.11.2019
3481 Clouds 13 1013 86 0 5.24 87 14:41 26.11.2019
3482 Clouds 21 1024 49 10000 7.2 100 14:22 26.11.2019
3483 Clouds 21 1024 49 10000 7.2 100 13:41 26.11.2019
3484 Clouds 21 1024 49 10000 7.2 100 13:23 26.11.2019
3485 Clouds 19 1025 52 10000 7.7 90 12:54 26.11.2019
3486 Clouds 19 1025 52 10000 7.7 90 12:36 26.11.2019
3487 Clouds 19 1025 52 10000 7.7 90 12:18 26.11.2019
3488 Clouds 18 1012 59 0 6.62 92 11:40 26.11.2019
3489 Clouds 20 1027 52 10000 8.2 100 11:20 26.11.2019
3490 Clouds 20 1027 52 10000 8.2 100 10:59 26.11.2019
3491 Clouds 20 1027 52 10000 8.2 100 10:41 26.11.2019
3492 Clouds 20 1027 52 10000 8.2 100 10:21 26.11.2019
3493 Clouds 19 1027 55 10000 7.2 100 09:58 26.11.2019
3494 Clouds 18 1015 57 0 6.2 95 09:38 26.11.2019
3495 Clouds 17 1028 63 10000 4.1 90 09:20 26.11.2019
3496 Clouds 17 1028 63 10000 4.1 90 08:44 26.11.2019
3497 Clouds 17 1028 63 10000 4.1 90 08:25 26.11.2019
3498 Clouds 15 1027 77 10000 1.5 10 07:47 26.11.2019
3499 Clouds 15 1027 77 10000 1.5 10 07:29 26.11.2019
3500 Clouds 15 1027 77 10000 1.5 10 07:29 26.11.2019
3501 Clouds 15 1018 70 0 2.87 88 06:56 26.11.2019
3502 Clouds 15 1018 70 0 2.87 88 06:35 26.11.2019
3503 Clouds 15 1018 70 0 2.87 88 05:54 26.11.2019
3504 Clear 9 1017 79 0 1.51 26 04:47 26.11.2019
3505 Clear 9 1017 79 0 1.51 26 02:52 26.11.2019
3506 Clouds 11 1025 100 10000 2.1 310 01:34 26.11.2019
3507 Clouds 11 1025 100 10000 2.1 310 00:53 26.11.2019
3508 Clouds 11 1025 100 10000 2.1 310 00:31 26.11.2019
3509 Clouds 12 1026 93 10000 2.1 330 23:55 25.11.2019
3510 Clouds 12 1026 93 10000 2.1 330 23:36 25.11.2019
3511 Clouds 13 1026 87 10000 3.1 90 23:18 25.11.2019
3512 Clouds 13 1026 87 10000 3.1 90 22:39 25.11.2019
3513 Clouds 13 1026 87 10000 3.1 90 22:19 25.11.2019
3514 Clouds 11 1017 89 0 2.25 48 21:59 25.11.2019
3515 Clouds 11 1017 89 0 2.25 48 21:40 25.11.2019
3516 Clouds 12 1027 93 10000 2.1 70 21:21 25.11.2019
3517 Clouds 11 1017 89 0 2.25 48 20:57 25.11.2019
3518 Clouds 11 1017 89 0 2.25 48 20:39 25.11.2019
3519 Clouds 15 1026 82 10000 5.1 60 20:20 25.11.2019
3520 Clouds 15 1026 82 10000 5.1 60 19:56 25.11.2019
3521 Clouds 15 1026 82 10000 5.1 60 19:56 25.11.2019
3522 Clouds 15 1026 82 10000 5.1 60 19:38 25.11.2019
3523 Clouds 15 1026 82 10000 5.1 60 19:18 25.11.2019
3524 Clouds 15 1025 82 10000 5.1 70 18:57 25.11.2019
3525 Clouds 15 1025 82 10000 5.1 70 18:39 25.11.2019
3526 Clouds 15 1025 82 10000 5.1 70 18:21 25.11.2019
3527 Clouds 15 1025 82 10000 5.1 70 18:21 25.11.2019
3528 Clouds 15 1025 82 10000 5.1 70 17:57 25.11.2019
3529 Clouds 12 1017 96 0 2.68 73 17:38 25.11.2019
3530 Rain 14 1013 91 0 4.96 82 17:20 25.11.2019
3531 Rain 14 1013 91 0 4.96 82 16:57 25.11.2019
3532 Rain 14 1013 91 0 4.96 82 16:39 25.11.2019
3533 Rain 14 1013 91 0 4.96 82 16:20 25.11.2019
3534 Rain 14 1013 91 0 4.96 82 15:54 25.11.2019
3535 Rain 14 1013 91 0 4.96 82 15:36 25.11.2019
3536 Clouds 20 1023 56 10000 6.2 110 15:18 25.11.2019
3537 Clouds 20 1023 56 10000 6.2 110 14:41 25.11.2019
3538 Clouds 20 1023 56 10000 6.2 110 14:22 25.11.2019
3539 Rain 18 1011 70 0 5.5 92 13:55 25.11.2019
3540 Rain 18 1011 70 0 5.5 92 13:36 25.11.2019
3541 Rain 18 1011 70 0 5.83 92 13:18 25.11.2019
3542 Rain 18 1011 70 0 5.83 92 13:18 25.11.2019
3543 Rain 18 1011 70 0 5.83 92 12:54 25.11.2019
3544 Rain 18 1011 70 0 5.83 92 12:36 25.11.2019
3545 Clouds 20 1026 56 10000 6.2 100 12:18 25.11.2019
3546 Clouds 20 1026 56 10000 6.2 100 11:40 25.11.2019
3547 Clouds 20 1026 56 10000 6.2 100 11:20 25.11.2019
3548 Clouds 19 1027 59 10000 6.2 100 10:54 25.11.2019
3549 Clouds 19 1027 59 10000 6.2 100 10:36 25.11.2019
3550 Clouds 19 1027 59 10000 6.2 100 10:18 25.11.2019
3551 Clouds 18 1028 72 10000 5.7 110 09:41 25.11.2019
3552 Clouds 18 1028 72 10000 5.7 110 09:23 25.11.2019
3553 Clouds 17 1028 72 10000 3.1 100 08:42 25.11.2019
3554 Clouds 17 1028 72 10000 3.1 100 08:23 25.11.2019
3555 Clouds 14 1028 87 10000 2.1 100 07:47 25.11.2019
3556 Clouds 14 1028 87 10000 2.1 100 07:28 25.11.2019
3557 Clouds 14 1028 87 10000 2.1 100 06:58 25.11.2019
3558 Clouds 14 1028 87 10000 1 60 06:23 25.11.2019
3559 Clouds 14 1028 87 10000 1 60 06:23 25.11.2019
3560 Clouds 15 1018 81 0 2.17 93 05:50 25.11.2019
3561 Clouds 15 1018 81 0 2.17 93 05:30 25.11.2019
3562 Clouds 12 1016 87 0 1.79 20 04:35 25.11.2019
3563 Mist 13 1025 100 8000 1 260 02:35 25.11.2019
3564 Clouds 11 1016 91 0 1.29 5 01:43 25.11.2019
3565 Clouds 14 1025 93 10000 1.5 290 01:24 25.11.2019
3566 Clouds 14 1025 93 10000 1.5 290 00:42 25.11.2019
3567 Clouds 14 1025 93 10000 1.5 290 00:18 25.11.2019
3568 Clouds 14 1026 93 10000 1 280 23:44 24.11.2019
3569 Clouds 14 1026 93 10000 1 280 23:20 24.11.2019
3570 Clouds 13 1017 90 0 1.36 36 22:57 24.11.2019
3571 Clouds 13 1017 90 0 1.36 36 22:38 24.11.2019
3572 Clouds 14 1027 93 10000 1 130 22:19 24.11.2019
3573 Clouds 14 1027 93 10000 1 130 21:56 24.11.2019
3574 Clouds 14 1027 93 10000 1 130 21:37 24.11.2019
3575 Clouds 14 1027 93 10000 1 130 21:19 24.11.2019
3576 Clouds 13 1017 90 0 1.36 36 20:56 24.11.2019
3577 Clouds 13 1017 90 0 1.36 36 20:37 24.11.2019
3578 Clouds 13 1017 90 0 1.36 36 20:37 24.11.2019
3579 Rain 12 1017 97 0 3.01 62 20:18 24.11.2019
3580 Rain 12 1017 97 0 3.01 62 19:55 24.11.2019
3581 Rain 12 1017 97 0 3.01 62 19:55 24.11.2019
3582 Rain 12 1017 97 0 3.01 62 19:37 24.11.2019
3583 Rain 12 1017 97 0 3.01 62 19:19 24.11.2019
3584 Rain 12 1017 97 0 3.01 62 19:19 24.11.2019
3585 Rain 12 1017 97 0 3.01 62 18:56 24.11.2019
3586 Rain 12 1017 97 0 3.01 62 18:36 24.11.2019
3587 Rain 12 1017 97 0 3.01 62 18:18 24.11.2019
3588 Rain 12 1017 97 0 3.01 62 18:18 24.11.2019
3589 Rain 12 1017 97 0 3.01 62 17:55 24.11.2019
3590 Rain 12 1017 97 0 3.01 62 17:36 24.11.2019
3591 Rain 13 1014 92 0 2.65 89 17:18 24.11.2019
3592 Rain 13 1014 92 0 2.65 89 16:42 24.11.2019
3593 Clouds 16 1024 87 10000 2.6 150 16:23 24.11.2019
3594 Clouds 16 1024 87 10000 2.6 150 15:59 24.11.2019
3595 Clouds 16 1024 87 10000 2.6 150 15:41 24.11.2019
3596 Clouds 16 1024 87 10000 2.6 150 15:22 24.11.2019
3597 Rain 13 1014 92 0 2.65 89 14:55 24.11.2019
3598 Rain 13 1014 92 0 2.65 89 14:37 24.11.2019
3599 Rain 16 1012 77 0 1.99 98 14:18 24.11.2019
3600 Rain 16 1012 77 0 1.99 98 13:39 24.11.2019
3601 Rain 16 1012 75 0 3.85 84 13:20 24.11.2019
3602 Rain 16 1012 75 0 3.85 84 12:57 24.11.2019
3603 Rain 16 1012 75 0 3.85 84 12:39 24.11.2019
3604 Clouds 17 1025 82 10000 1 190 12:18 24.11.2019
3605 Clouds 17 1025 82 10000 1 190 11:55 24.11.2019
3606 Clouds 17 1025 82 10000 1 190 11:36 24.11.2019
3607 Clouds 17 1025 82 10000 1 190 11:18 24.11.2019
3608 Rain 16 1027 82 7000 2.1 60 10:45 24.11.2019
3609 Rain 16 1027 82 7000 2.1 60 10:26 24.11.2019
3610 Rain 15 1027 87 7000 2.1 60 09:54 24.11.2019
3611 Rain 15 1027 87 7000 2.1 60 09:36 24.11.2019
3612 Rain 15 1027 87 7000 2.1 60 09:36 24.11.2019
3613 Rain 15 1027 87 7000 2.1 60 09:18 24.11.2019
3614 Rain 15 1027 87 7000 2.1 60 09:18 24.11.2019
3615 Rain 13 1016 93 0 1.17 238 08:42 24.11.2019
3616 Rain 15 1028 93 5000 1 60 08:21 24.11.2019
3617 Rain 15 1028 93 5000 1 60 07:52 24.11.2019
3618 Rain 15 1028 93 5000 1 60 07:34 24.11.2019
3619 Rain 14 1027 93 5000 2.1 160 06:55 24.11.2019
3620 Rain 13 1018 94 0 1.74 183 05:47 24.11.2019
3621 Clouds 13 1025 100 10000 1 70 04:45 24.11.2019
3622 Rain 13 1016 92 0 1.27 353 02:50 24.11.2019
3623 Clouds 14 1024 93 10000 1.5 140 01:57 24.11.2019
3624 Clouds 14 1024 93 10000 1.5 140 01:39 24.11.2019
3625 Clouds 14 1024 93 10000 1.5 140 01:20 24.11.2019
3626 Clouds 14 1024 93 10000 2.1 110 00:45 24.11.2019
3627 Clouds 14 1024 93 10000 2.1 110 00:22 24.11.2019
3628 Rain 14 1025 93 7000 4.1 80 23:44 23.11.2019
3629 Rain 14 1025 93 7000 4.1 80 23:21 23.11.2019
3630 Rain 14 1025 93 7000 4.1 80 22:57 23.11.2019
3631 Clouds 15 1025 87 10000 4.1 80 22:38 23.11.2019
3632 Clouds 15 1025 87 10000 4.1 80 22:38 23.11.2019
3633 Clouds 15 1025 87 10000 4.1 80 22:20 23.11.2019
3634 Clouds 15 1025 82 10000 2.1 80 21:57 23.11.2019
3635 Clouds 15 1025 82 10000 2.1 80 21:39 23.11.2019
3636 Clouds 15 1025 82 10000 2.1 80 21:21 23.11.2019
3637 Clouds 15 1025 82 10000 2.1 80 21:21 23.11.2019
3638 Rain 13 1016 93 0 3.29 74 20:39 23.11.2019
3639 Clouds 16 1026 82 10000 6.2 80 20:21 23.11.2019
3640 Clouds 16 1026 82 10000 6.2 80 20:21 23.11.2019
3641 Clouds 16 1026 82 10000 6.2 80 19:58 23.11.2019
3642 Clouds 16 1026 82 10000 6.2 80 19:39 23.11.2019
3643 Clouds 16 1026 82 10000 6.2 80 19:19 23.11.2019
3644 Clouds 16 1026 82 10000 6.2 80 19:19 23.11.2019
3645 Clouds 16 1025 77 10000 6.2 60 18:59 23.11.2019
3646 Clouds 16 1025 77 10000 6.2 60 18:39 23.11.2019
3647 Clouds 16 1025 77 10000 6.2 60 18:19 23.11.2019
3648 Rain 14 1015 91 0 2.53 72 17:45 23.11.2019
3649 Clouds 18 1023 72 10000 6.2 90 17:23 23.11.2019
3650 Clouds 18 1023 72 10000 6.2 90 17:23 23.11.2019
3651 Clouds 18 1023 72 10000 6.2 90 16:57 23.11.2019
3652 Rain 14 1012 90 0 4.78 78 16:39 23.11.2019
3653 Clouds 20 1023 64 10000 7.2 90 16:21 23.11.2019
3654 Clouds 20 1023 64 10000 7.2 90 15:59 23.11.2019
3655 Clouds 20 1023 64 10000 7.2 90 15:39 23.11.2019
3656 Clouds 20 1023 64 10000 7.2 90 15:19 23.11.2019
3657 Clouds 21 1022 52 10000 6.2 60 14:57 23.11.2019
3658 Clouds 21 1022 52 10000 6.2 60 14:39 23.11.2019
3659 Clouds 21 1022 52 10000 6.2 60 14:20 23.11.2019
3660 Clouds 21 1023 52 10000 4.1 100 13:54 23.11.2019
3661 Clouds 21 1023 52 10000 4.1 100 13:54 23.11.2019
3662 Clouds 21 1023 52 10000 4.1 100 13:36 23.11.2019
3663 Clouds 21 1023 52 10000 4.1 100 13:18 23.11.2019
3664 Clouds 21 1023 52 10000 4.1 100 13:18 23.11.2019
3665 Clouds 21 1023 52 10000 4.1 70 12:41 23.11.2019
3666 Clouds 21 1023 52 10000 4.1 70 12:22 23.11.2019
3667 Clouds 20 1024 60 10000 5.1 80 11:43 23.11.2019
3668 Clouds 20 1024 60 10000 5.1 80 11:22 23.11.2019
3669 Rain 14 1015 88 0 2.4 58 10:45 23.11.2019
3670 Rain 14 1015 88 0 2.4 58 10:22 23.11.2019
3671 Rain 14 1015 88 0 2.4 58 09:44 23.11.2019
3672 Clouds 18 1027 72 10000 4.1 110 09:21 23.11.2019
3673 Clouds 18 1027 72 10000 4.1 110 08:59 23.11.2019
3674 Clouds 18 1027 72 10000 4.1 110 08:40 23.11.2019
3675 Clouds 18 1027 72 10000 4.1 110 08:18 23.11.2019
3676 Rain 12 1018 95 0 1.72 98 07:41 23.11.2019
3677 Rain 12 1018 95 0 1.72 98 06:52 23.11.2019
3678 Clouds 13 1026 87 10000 3.1 340 06:24 23.11.2019
3679 Clouds 13 1026 87 10000 3.1 340 05:56 23.11.2019
3680 Clouds 13 1026 87 10000 3.1 340 05:31 23.11.2019
3681 Clouds 13 1025 87 10000 3.1 50 04:50 23.11.2019
3682 Clouds 13 1025 87 10000 3.1 50 04:31 23.11.2019
3683 Rain 12 1017 90 0 1.64 7 03:21 23.11.2019
3684 Rain 12 1017 90 0 1.64 7 02:31 23.11.2019
3685 Rain 12 1015 89 0 4.61 47 01:39 23.11.2019
3686 Rain 12 1015 89 0 4.69 44 00:45 23.11.2019
3687 Rain 12 1015 89 0 4.69 44 00:19 23.11.2019
3688 Rain 12 1015 89 0 4.69 44 23:43 22.11.2019
3689 Rain 13 1016 94 0 2.96 53 23:23 22.11.2019
3690 Rain 13 1016 94 0 2.96 53 22:59 22.11.2019
3691 Rain 13 1016 94 0 2.96 53 22:59 22.11.2019
3692 Rain 13 1016 94 0 2.96 53 22:59 22.11.2019
3693 Rain 13 1016 94 0 2.96 53 22:41 22.11.2019
3694 Rain 13 1016 94 0 2.96 53 22:23 22.11.2019
3695 Rain 13 1016 94 0 2.96 53 21:59 22.11.2019
3696 Rain 13 1016 94 0 2.96 53 21:40 22.11.2019
3697 Rain 13 1016 94 0 2.96 53 21:20 22.11.2019
3698 Rain 13 1016 94 0 2.96 53 20:44 22.11.2019
3699 Rain 13 1015 92 0 3.64 66 20:23 22.11.2019
3700 Rain 13 1015 90 0 3.4 72 19:58 22.11.2019
3701 Rain 13 1015 90 0 3.4 72 19:39 22.11.2019
3702 Rain 13 1015 90 0 3.4 72 19:19 22.11.2019
3703 Rain 13 1015 90 0 3.4 72 18:58 22.11.2019
3704 Rain 13 1015 90 0 3.4 72 18:37 22.11.2019
3705 Rain 13 1015 90 0 3.4 72 18:18 22.11.2019
3706 Rain 13 1015 90 0 3.4 72 17:41 22.11.2019
3707 Clouds 17 1023 77 10000 7.2 80 17:22 22.11.2019
3708 Clouds 17 1023 77 10000 7.2 80 16:48 22.11.2019
3709 Clouds 17 1023 77 10000 7.2 80 16:29 22.11.2019
3710 Clouds 17 1023 77 10000 7.2 80 16:29 22.11.2019
3711 Clouds 19 1022 63 10000 8.2 110 15:54 22.11.2019
3712 Clouds 19 1022 63 10000 8.2 110 15:36 22.11.2019
3713 Rain 14 1012 85 0 5.77 85 15:18 22.11.2019
3714 Rain 14 1012 85 0 5.77 85 14:54 22.11.2019
3715 Rain 14 1012 85 0 5.77 85 14:36 22.11.2019
3716 Clouds 22 1022 49 10000 6.2 90 14:18 22.11.2019
3717 Clouds 22 1022 49 10000 6.2 90 14:18 22.11.2019
3718 Rain 20 1009 55 0 6.24 91 13:38 22.11.2019
3719 Rain 19 1010 61 0 7.31 95 13:19 22.11.2019
3720 Rain 19 1010 61 0 7.31 95 12:58 22.11.2019
3721 Rain 19 1010 61 0 7.31 95 12:40 22.11.2019
3722 Rain 19 1010 61 0 7.31 95 12:19 22.11.2019
3723 Rain 19 1010 61 0 7.31 95 11:56 22.11.2019
3724 Rain 19 1010 61 0 7.31 95 11:36 22.11.2019
3725 Rain 15 1013 74 0 3.33 70 11:18 22.11.2019
3726 Rain 15 1013 74 0 3.33 70 10:42 22.11.2019
3727 Rain 15 1013 74 0 3.33 70 10:23 22.11.2019
3728 Rain 15 1013 74 0 3.33 70 09:59 22.11.2019
3729 Rain 15 1013 74 0 3.33 70 09:40 22.11.2019
3730 Rain 15 1013 74 0 3.33 70 09:21 22.11.2019
3731 Rain 15 1013 74 0 3.33 70 08:57 22.11.2019
3732 Rain 15 1013 74 0 3.33 70 08:37 22.11.2019
3733 Clouds 15 1015 76 0 3.01 98 08:19 22.11.2019
3734 Clouds 15 1015 76 0 3.01 98 07:40 22.11.2019
3735 Clouds 15 1015 76 0 3.01 98 07:19 22.11.2019
3736 Clouds 15 1015 76 0 3.01 98 06:42 22.11.2019
3737 Clouds 15 1015 76 0 3.01 98 06:18 22.11.2019
3738 Clouds 15 1015 76 0 3.01 98 05:32 22.11.2019
3739 Clouds 15 1023 77 10000 1.5 230 03:25 22.11.2019
3740 Clouds 15 1023 77 10000 1.5 230 03:25 22.11.2019
3741 Clouds 15 1023 77 10000 1.5 230 02:39 22.11.2019
3742 Clouds 15 1023 77 10000 1.5 230 02:19 22.11.2019
3743 Clear 11 1013 90 0 2.05 34 01:42 22.11.2019
3744 Clouds 17 1023 67 10000 3.6 50 01:18 22.11.2019
3745 Clouds 17 1023 67 10000 3.6 50 00:26 22.11.2019
3746 Clouds 11 1013 86 0 1.67 38 23:59 21.11.2019
3747 Clouds 11 1013 86 0 1.67 38 23:41 21.11.2019
3748 Clear 11 1014 89 0 2.47 40 23:23 21.11.2019
3749 Clear 11 1014 89 0 2.47 40 22:56 21.11.2019
3750 Clear 11 1014 89 0 2.47 40 22:37 21.11.2019
3751 Clear 11 1014 89 0 2.47 40 22:19 21.11.2019
3752 Clear 11 1014 89 0 2.47 40 21:54 21.11.2019
3753 Clear 11 1014 89 0 2.47 40 21:36 21.11.2019
3754 Clouds 17 1025 67 10000 5.1 60 21:18 21.11.2019
3755 Clouds 17 1025 67 10000 5.1 60 20:55 21.11.2019
3756 Clouds 17 1025 67 10000 5.1 60 20:36 21.11.2019
3757 Clouds 17 1025 67 10000 5.1 60 20:36 21.11.2019
3758 Clouds 17 1025 67 10000 5.1 60 20:18 21.11.2019
3759 Clouds 18 1025 63 10000 5.1 70 19:41 21.11.2019
3760 Clouds 18 1025 63 10000 5.1 70 19:41 21.11.2019
3761 Clouds 18 1025 63 10000 5.1 70 19:23 21.11.2019
3762 Clouds 18 1025 63 10000 5.1 70 19:23 21.11.2019
3763 Clouds 18 1025 63 10000 5.1 70 19:23 21.11.2019
3764 Clouds 18 1024 59 10000 5.1 70 18:59 21.11.2019
3765 Clouds 18 1024 59 10000 5.1 70 18:40 21.11.2019
3766 Clouds 18 1024 59 10000 5.1 70 18:21 21.11.2019
3767 Clouds 18 1022 59 10000 4.6 80 17:58 21.11.2019
3768 Clouds 18 1022 59 10000 4.6 80 17:39 21.11.2019
3769 Clouds 18 1022 59 10000 4.6 80 17:21 21.11.2019
3770 Clouds 18 1022 59 10000 4.6 80 16:57 21.11.2019
3771 Clear 16 1010 67 0 4.84 98 16:39 21.11.2019
3772 Clouds 19 1021 55 10000 4.1 90 16:20 21.11.2019
3773 Clouds 19 1021 55 10000 4.1 90 15:43 21.11.2019
3774 Clouds 19 1021 55 10000 4.1 90 15:21 21.11.2019
3775 Clouds 19 1021 55 10000 4.1 90 14:57 21.11.2019
3776 Clouds 19 1021 55 10000 4.1 90 14:57 21.11.2019
3777 Clouds 22 1021 37 10000 4.1 120 14:38 21.11.2019
3778 Clouds 22 1021 37 10000 4.1 120 14:19 21.11.2019
3779 Clouds 22 1021 37 10000 3.6 110 13:57 21.11.2019
3780 Clouds 22 1021 37 10000 3.6 110 13:37 21.11.2019
3781 Clouds 22 1021 37 10000 3.6 110 13:18 21.11.2019
3782 Clouds 22 1021 37 10000 3.6 110 13:18 21.11.2019
3783 Clouds 22 1008 45 0 5.86 98 12:40 21.11.2019
3784 Clouds 21 1023 60 10000 4.1 120 12:22 21.11.2019
3785 Clouds 21 1023 60 10000 4.1 120 11:55 21.11.2019
3786 Clouds 21 1024 68 10000 5.1 110 11:37 21.11.2019
3787 Clouds 21 1024 68 10000 5.1 110 11:19 21.11.2019
3788 Clouds 21 1024 68 10000 5.1 110 10:42 21.11.2019
3789 Clouds 21 1024 68 10000 5.1 110 10:24 21.11.2019
3790 Clouds 20 1025 60 10000 5.1 170 09:57 21.11.2019
3791 Clouds 20 1025 60 10000 5.1 170 09:39 21.11.2019
3792 Clouds 20 1025 60 10000 5.1 170 09:21 21.11.2019
3793 Clouds 21 1011 48 0 5.57 107 08:44 21.11.2019
3794 Clouds 17 1015 62 0 2.87 108 08:23 21.11.2019
3795 Clouds 17 1015 62 0 2.87 108 07:45 21.11.2019
3796 Clouds 17 1025 67 10000 1.5 90 07:20 21.11.2019
3797 Clouds 17 1025 67 10000 1.5 90 06:58 21.11.2019
3798 Clouds 17 1025 67 10000 1.5 90 06:34 21.11.2019
3799 Clouds 14 1025 76 10000 1.5 100 05:50 21.11.2019
3800 Clouds 11 1015 85 0 0.16 3 03:36 21.11.2019
3801 Clouds 11 1015 85 0 0.16 3 02:42 21.11.2019
3802 Clouds 14 1023 82 10000 3.1 320 02:23 21.11.2019
3803 Clouds 14 1023 82 10000 3.1 320 01:47 21.11.2019
3804 Clouds 14 1023 82 10000 3.1 320 01:20 21.11.2019
3805 Clouds 14 1023 82 10000 3.1 320 00:38 21.11.2019
3806 Clouds 14 1023 82 10000 3.1 320 00:19 21.11.2019
3807 Clouds 15 1024 82 10000 3.1 60 23:42 20.11.2019
3808 Clouds 15 1024 82 10000 3.1 60 23:21 20.11.2019
3809 Clouds 15 1024 82 10000 2.1 100 22:58 20.11.2019
3810 Clouds 15 1024 82 10000 2.1 100 22:38 20.11.2019
3811 Clouds 15 1024 82 10000 2.1 100 22:19 20.11.2019
3812 Clouds 15 1024 82 10000 2.1 100 22:19 20.11.2019
3813 Clouds 13 1014 84 0 1.92 28 21:57 20.11.2019
3814 Clouds 13 1014 84 0 1.92 28 21:38 20.11.2019
3815 Clouds 13 1014 84 0 1.92 28 21:38 20.11.2019
3816 Clouds 16 1025 82 10000 4.1 80 21:19 20.11.2019
3817 Clouds 16 1025 82 10000 4.1 80 21:19 20.11.2019
3818 Clouds 16 1025 82 10000 4.1 80 20:56 20.11.2019
3819 Clouds 16 1025 82 10000 4.1 80 20:56 20.11.2019
3820 Clouds 16 1025 82 10000 4.1 80 20:38 20.11.2019
3821 Clouds 16 1025 82 10000 4.1 80 20:19 20.11.2019
3822 Clouds 17 1025 77 10000 3.1 60 19:55 20.11.2019
3823 Clouds 17 1025 77 10000 3.1 60 19:55 20.11.2019
3824 Clouds 17 1025 77 10000 3.1 60 19:36 20.11.2019
3825 Clouds 17 1025 77 10000 3.1 60 19:18 20.11.2019
3826 Clouds 13 1014 80 0 2.8 45 18:57 20.11.2019
3827 Clouds 13 1014 80 0 2.8 45 18:38 20.11.2019
3828 Clouds 13 1014 80 0 2.8 45 18:20 20.11.2019
3829 Clouds 13 1014 80 0 2.8 45 17:55 20.11.2019
3830 Clouds 13 1014 80 0 2.8 45 17:37 20.11.2019
3831 Clouds 16 1011 67 0 4.54 94 17:18 20.11.2019
3832 Clouds 16 1011 67 0 4.54 94 16:41 20.11.2019
3833 Clouds 16 1011 67 0 4.54 94 16:20 20.11.2019
3834 Rain 25 1023 50 3000 4.1 40 15:58 20.11.2019
3835 Rain 25 1023 50 3000 4.1 40 15:40 20.11.2019
3836 Rain 25 1023 50 3000 4.1 40 15:20 20.11.2019
3837 Clouds 16 1011 67 0 4.54 94 14:57 20.11.2019
3838 Clouds 16 1011 67 0 4.54 94 14:57 20.11.2019
3839 Clouds 16 1011 67 0 4.54 94 14:38 20.11.2019
3840 Clouds 22 1009 46 0 6.45 96 14:19 20.11.2019
3841 Clouds 22 1009 46 0 6.45 96 13:56 20.11.2019
3842 Clouds 22 1009 46 0 6.45 96 13:37 20.11.2019
3843 Clouds 22 1009 46 0 5.75 99 13:18 20.11.2019
3844 Clouds 22 1009 46 0 5.75 99 12:42 20.11.2019
3845 Clouds 22 1009 46 0 5.75 99 12:23 20.11.2019
3846 Clouds 22 1009 46 0 5.75 99 11:55 20.11.2019
3847 Clouds 22 1009 46 0 5.75 99 11:37 20.11.2019
3848 Clouds 21 1012 46 0 4.75 98 11:18 20.11.2019
3849 Clouds 21 1012 46 0 4.75 98 10:54 20.11.2019
3850 Clouds 21 1026 56 10000 4.1 90 10:36 20.11.2019
3851 Clouds 21 1026 56 10000 4.1 90 10:18 20.11.2019
3852 Clouds 21 1026 56 10000 4.1 90 09:42 20.11.2019
3853 Clouds 21 1026 56 10000 4.1 90 09:20 20.11.2019
3854 Clouds 18 1026 68 10000 3.1 70 08:47 20.11.2019
3855 Clouds 18 1026 68 10000 3.1 70 08:28 20.11.2019
3856 Clouds 18 1026 68 10000 3.1 70 07:57 20.11.2019
3857 Rain 17 1016 68 0 2.87 109 07:37 20.11.2019
3858 Clouds 16 1026 77 10000 3.6 90 07:18 20.11.2019
3859 Clouds 16 1026 77 10000 3.6 90 06:45 20.11.2019
3860 Clouds 16 1026 77 10000 3.6 90 06:19 20.11.2019
3861 Rain 12 1015 89 0 0.91 12 04:50 20.11.2019
3862 Rain 12 1015 89 0 0.91 12 02:47 20.11.2019
3863 Rain 13 1014 84 0 1.3 37 01:39 20.11.2019
3864 Clouds 15 1024 72 10000 2.1 90 00:59 20.11.2019
3865 Clouds 15 1024 72 10000 2.1 90 00:34 20.11.2019
3866 Clouds 14 1025 82 10000 2.1 100 23:43 19.11.2019
3867 Clouds 14 1025 82 10000 2.1 100 23:24 19.11.2019
3868 Clouds 14 1025 82 10000 2.1 100 22:56 19.11.2019
3869 Clouds 12 1015 87 0 1.96 29 22:38 19.11.2019
3870 Clouds 16 1025 72 10000 4.1 80 22:18 19.11.2019
3871 Clouds 16 1025 72 10000 4.1 80 21:55 19.11.2019
3872 Clouds 16 1025 72 10000 4.1 80 21:37 19.11.2019
3873 Clouds 16 1025 72 10000 4.1 80 21:18 19.11.2019
3874 Clouds 12 1015 87 0 1.96 29 20:55 19.11.2019
3875 Clouds 12 1015 87 0 1.96 29 20:36 19.11.2019
3876 Clouds 12 1015 87 0 1.96 29 20:36 19.11.2019
3877 Rain 14 1015 74 0 3.67 70 20:18 19.11.2019
3878 Rain 14 1015 74 0 3.67 70 19:54 19.11.2019
3879 Rain 14 1015 74 0 3.67 70 19:36 19.11.2019
3880 Rain 14 1015 74 0 3.67 70 19:18 19.11.2019
3881 Rain 14 1015 74 0 3.67 70 18:41 19.11.2019
3882 Rain 14 1015 74 0 3.67 70 18:21 19.11.2019
3883 Rain 14 1015 74 0 3.67 70 18:21 19.11.2019
3884 Rain 14 1015 74 0 3.67 70 17:58 19.11.2019
3885 Rain 14 1015 74 0 3.67 70 17:40 19.11.2019
3886 Clouds 18 1011 58 0 5.22 88 17:20 19.11.2019
3887 Clouds 18 1011 58 0 5.22 88 16:59 19.11.2019
3888 Clouds 18 1011 58 0 5.22 88 16:40 19.11.2019
3889 Clouds 18 1011 58 0 5.22 88 16:40 19.11.2019
3890 Clouds 18 1011 58 0 5.22 88 16:20 19.11.2019
3891 Clouds 18 1011 58 0 5.22 88 15:47 19.11.2019
3892 Clouds 18 1011 58 0 5.22 88 15:47 19.11.2019
3893 Clouds 17 1023 77 10000 4.1 50 15:27 19.11.2019
3894 Clouds 17 1023 77 10000 4.1 50 14:58 19.11.2019
3895 Clouds 18 1011 58 0 5.22 88 14:39 19.11.2019
3896 Clouds 23 1023 40 10000 5.1 110 14:21 19.11.2019
3897 Clouds 21 1009 47 0 6.19 98 13:42 19.11.2019
3898 Clouds 21 1009 47 0 6.19 98 13:42 19.11.2019
3899 Clouds 21 1009 47 0 6.19 98 13:42 19.11.2019
3900 Clouds 23 1024 40 10000 5.1 80 13:22 19.11.2019
3901 Clouds 23 1024 40 10000 5.1 80 12:58 19.11.2019
3902 Clouds 23 1024 40 10000 5.1 80 12:39 19.11.2019
3903 Clouds 23 1024 40 10000 5.1 80 12:21 19.11.2019
3904 Clouds 22 1024 43 10000 5.1 120 11:56 19.11.2019
3905 Clouds 22 1024 43 10000 5.1 120 11:56 19.11.2019
3906 Clouds 22 1024 43 10000 5.1 120 11:37 19.11.2019
3907 Clouds 22 1024 43 10000 5.1 120 11:18 19.11.2019
3908 Clouds 21 1026 49 10000 5.1 70 10:44 19.11.2019
3909 Clouds 21 1026 49 10000 5.1 70 10:21 19.11.2019
3910 Clouds 21 1027 49 10000 5.1 110 09:45 19.11.2019
3911 Clouds 21 1027 49 10000 5.1 110 09:22 19.11.2019
3912 Clouds 19 1027 55 10000 6.2 80 08:59 19.11.2019
3913 Clouds 19 1027 55 10000 6.2 80 08:40 19.11.2019
3914 Clouds 19 1027 55 10000 6.2 80 08:22 19.11.2019
3915 Clouds 19 1027 55 10000 6.2 110 07:56 19.11.2019
3916 Clouds 17 1017 58 0 3.23 87 07:37 19.11.2019
3917 Clouds 17 1017 58 0 3.23 87 07:18 19.11.2019
3918 Clouds 17 1017 58 0 3.23 87 06:44 19.11.2019
3919 Clouds 17 1017 58 0 3.23 87 06:24 19.11.2019
3920 Clouds 14 1026 71 10000 1 20 05:19 19.11.2019
3921 Clouds 13 1026 76 10000 2.1 70 03:41 19.11.2019
3922 Clouds 13 1026 76 10000 2.1 70 03:20 19.11.2019
3923 Clouds 13 1026 76 10000 1.5 290 02:50 19.11.2019
3924 Clouds 14 1026 71 10000 1 210 01:49 19.11.2019
3925 Clouds 13 1016 70 0 1.86 23 00:49 19.11.2019
3926 Clouds 13 1016 70 0 1.86 23 00:21 19.11.2019
3927 Clouds 13 1016 70 0 1.86 23 23:40 18.11.2019
3928 Clouds 17 1026 63 10000 2.1 60 23:20 18.11.2019
3929 Clouds 17 1026 63 10000 2.1 60 23:20 18.11.2019
3930 Clouds 17 1026 63 10000 2.1 60 22:48 18.11.2019
3931 Clouds 17 1026 63 10000 2.1 60 22:24 18.11.2019
3932 Clouds 17 1027 59 10000 2.6 60 21:59 18.11.2019
3933 Clouds 17 1027 59 10000 2.6 60 21:40 18.11.2019
3934 Clouds 17 1027 59 10000 2.6 60 21:40 18.11.2019
3935 Clouds 17 1027 59 10000 2.6 60 21:22 18.11.2019
3936 Clouds 17 1026 63 10000 2.6 50 20:59 18.11.2019
3937 Clouds 17 1026 63 10000 2.6 50 20:41 18.11.2019
3938 Clouds 17 1026 63 10000 2.6 50 20:19 18.11.2019
3939 Clouds 17 1026 63 10000 3.1 60 19:58 18.11.2019
3940 Clouds 17 1026 63 10000 3.1 60 19:38 18.11.2019
3941 Clouds 17 1026 63 10000 3.1 60 19:20 18.11.2019
3942 Clouds 13 1015 66 0 3.98 63 18:56 18.11.2019
3943 Clouds 13 1015 66 0 3.98 63 18:38 18.11.2019
3944 Clouds 18 1025 55 10000 4.1 70 18:19 18.11.2019
3945 Clouds 18 1025 55 10000 4.1 70 17:59 18.11.2019
3946 Clouds 18 1025 55 10000 4.1 70 17:37 18.11.2019
3947 Clouds 18 1025 55 10000 4.1 70 17:19 18.11.2019
3948 Clouds 16 1011 57 0 4.3 95 16:43 18.11.2019
3949 Clouds 16 1011 57 0 4.3 95 16:24 18.11.2019
3950 Clouds 16 1011 57 0 4.3 95 15:59 18.11.2019
3951 Clouds 16 1011 57 0 4.3 95 15:40 18.11.2019
3952 Clouds 24 1023 38 10000 4.1 130 15:21 18.11.2019
3953 Clouds 24 1023 38 10000 4.1 130 14:58 18.11.2019
3954 Clouds 24 1023 38 10000 4.1 130 14:39 18.11.2019
3955 Clouds 24 1023 38 10000 4.1 130 14:20 18.11.2019
3956 Clouds 22 1010 40 0 5.15 99 13:43 18.11.2019
3957 Clouds 23 1023 40 10000 3.1 190 13:25 18.11.2019
3958 Clouds 22 1010 38 0 4.83 103 12:45 18.11.2019
3959 Clouds 22 1010 38 0 4.83 103 12:20 18.11.2019
3960 Clouds 22 1010 38 0 4.83 103 11:58 18.11.2019
3961 Clouds 22 1010 38 0 4.83 103 11:40 18.11.2019
3962 Clouds 22 1025 46 10000 3.1 110 11:22 18.11.2019
3963 Clouds 22 1025 46 10000 3.1 110 10:44 18.11.2019
3964 Clouds 22 1025 46 10000 3.1 110 10:25 18.11.2019
3965 Clouds 21 1013 42 0 3.83 124 09:58 18.11.2019
3966 Clouds 21 1013 42 0 3.83 124 09:38 18.11.2019
3967 Clouds 21 1013 42 0 3.83 124 09:20 18.11.2019
3968 Clouds 21 1013 42 0 3.83 124 08:55 18.11.2019
3969 Clouds 21 1013 42 0 3.83 124 08:36 18.11.2019
3970 Clouds 17 1016 58 0 4.05 99 08:18 18.11.2019
3971 Clouds 17 1016 58 0 4.05 99 07:44 18.11.2019
3972 Clouds 17 1016 58 0 4.05 99 07:23 18.11.2019
3973 Clouds 17 1016 58 0 4.05 99 06:48 18.11.2019
3974 Clouds 17 1016 58 0 4.05 99 06:28 18.11.2019
3975 Clouds 17 1016 58 0 4.05 99 05:42 18.11.2019
3976 Clouds 10 1016 87 0 1.84 20 03:59 18.11.2019
3977 Clouds 11 1015 86 0 2.31 17 01:40 18.11.2019
3978 Rain 13 1015 83 0 3.29 59 00:54 18.11.2019
3979 Rain 13 1015 83 0 3.29 59 00:20 18.11.2019
3980 Rain 13 1015 83 0 3.29 59 23:41 17.11.2019
3981 Clouds 12 1015 87 0 3.87 55 23:21 17.11.2019
3982 Clouds 12 1015 87 0 3.87 55 22:57 17.11.2019
3983 Clouds 12 1015 87 0 3.87 55 22:57 17.11.2019
3984 Clouds 12 1015 87 0 3.87 55 22:39 17.11.2019
3985 Clouds 12 1015 87 0 3.87 55 22:20 17.11.2019
3986 Clouds 12 1015 87 0 3.87 55 21:56 17.11.2019
3987 Clouds 12 1015 87 0 3.87 55 21:37 17.11.2019
3988 Clouds 12 1015 87 0 3.87 55 21:18 17.11.2019
3989 Clouds 12 1015 87 0 3.87 55 21:18 17.11.2019
3990 Clouds 12 1015 87 0 3.87 55 20:54 17.11.2019
3991 Clouds 12 1015 87 0 3.87 55 20:36 17.11.2019
3992 Clouds 13 1014 77 0 4.48 76 20:18 17.11.2019
3993 Clouds 13 1014 77 0 4.48 76 20:18 17.11.2019
3994 Clouds 13 1014 77 0 4.48 76 19:54 17.11.2019
3995 Clouds 13 1014 77 0 4.48 76 19:36 17.11.2019
3996 Clouds 13 1014 77 0 4.48 76 19:18 17.11.2019
3997 Clouds 13 1014 77 0 4.48 76 18:54 17.11.2019
3998 Clouds 13 1014 77 0 4.48 76 18:54 17.11.2019
3999 Clouds 13 1014 77 0 4.48 76 18:36 17.11.2019
4000 Clouds 13 1014 77 0 4.48 76 18:18 17.11.2019
4001 Clouds 13 1014 77 0 4.48 76 18:18 17.11.2019
4002 Clouds 13 1014 77 0 4.48 76 17:56 17.11.2019
4003 Clouds 13 1014 77 0 4.48 76 17:56 17.11.2019
4004 Clouds 13 1014 77 0 4.48 76 17:38 17.11.2019
4005 Clouds 15 1011 64 0 4.64 97 17:18 17.11.2019
4006 Clouds 15 1011 64 0 4.64 97 16:42 17.11.2019
4007 Clouds 15 1011 64 0 4.64 97 16:22 17.11.2019
4008 Clouds 15 1011 64 0 4.64 97 15:57 17.11.2019
4009 Clouds 15 1011 64 0 4.64 97 15:39 17.11.2019
4010 Clouds 15 1011 64 0 4.64 97 15:19 17.11.2019
4011 Clouds 15 1011 64 0 4.64 97 14:57 17.11.2019
4012 Clouds 15 1011 64 0 4.64 97 14:39 17.11.2019
4013 Clouds 20 1009 47 0 3.8 109 14:20 17.11.2019
4014 Clouds 20 1009 47 0 3.8 109 13:58 17.11.2019
4015 Clouds 20 1009 47 0 3.8 109 13:40 17.11.2019
4016 Clouds 20 1009 46 0 2.65 101 13:19 17.11.2019
4017 Clouds 20 1009 46 0 2.65 101 12:45 17.11.2019
4018 Clouds 20 1009 46 0 2.65 101 12:23 17.11.2019
4019 Clouds 20 1009 46 0 2.65 101 12:23 17.11.2019
4020 Clouds 20 1009 46 0 2.65 101 11:58 17.11.2019
4021 Clouds 20 1009 46 0 2.65 101 11:40 17.11.2019
4022 Clouds 20 1009 46 0 2.65 101 11:40 17.11.2019
4023 Clouds 20 1012 47 0 3.71 115 11:20 17.11.2019
4024 Clouds 20 1012 47 0 3.71 115 10:45 17.11.2019
4025 Clouds 20 1012 47 0 3.71 115 10:24 17.11.2019
4026 Clouds 20 1012 47 0 3.71 115 09:58 17.11.2019
4027 Clouds 20 1012 47 0 3.71 115 09:40 17.11.2019
4028 Clouds 20 1012 47 0 3.71 115 09:22 17.11.2019
4029 Clouds 20 1012 47 0 3.71 115 08:42 17.11.2019
4030 Clouds 19 1012 48 0 3.71 114 08:23 17.11.2019
4031 Clouds 16 1015 57 0 4.64 98 07:56 17.11.2019
4032 Clouds 16 1015 57 0 4.64 98 07:38 17.11.2019
4033 Clouds 16 1025 59 10000 5.1 60 07:19 17.11.2019
4034 Clouds 16 1025 59 10000 5.1 60 06:47 17.11.2019
4035 Clouds 16 1025 59 10000 5.1 60 06:27 17.11.2019
4036 Clouds 12 1024 66 10000 3.6 90 04:48 17.11.2019
4037 Clouds 11 1023 71 10000 1.5 200 03:53 17.11.2019
4038 Clouds 11 1023 71 10000 1.5 200 03:33 17.11.2019
4039 Clouds 11 1023 71 10000 1.5 90 02:40 17.11.2019
4040 Clouds 10 1013 67 0 2.44 30 01:45 17.11.2019
4041 Clouds 14 1023 58 10000 4.1 70 00:56 17.11.2019
4042 Clouds 14 1023 58 10000 4.1 70 00:23 17.11.2019
4043 Clouds 15 1023 54 10000 3.1 70 23:54 16.11.2019
4044 Clouds 15 1023 54 10000 3.1 70 23:21 16.11.2019
4045 Clouds 15 1024 54 10000 2.1 140 22:59 16.11.2019
4046 Clouds 15 1024 54 10000 2.1 140 22:41 16.11.2019
4047 Clouds 15 1024 54 10000 2.1 140 22:20 16.11.2019
4048 Clouds 11 1014 65 0 2.84 47 21:57 16.11.2019
4049 Clouds 11 1014 65 0 2.84 47 21:38 16.11.2019
4050 Clouds 17 1024 48 10000 5.1 50 21:20 16.11.2019
4051 Clouds 17 1024 48 10000 5.1 50 20:56 16.11.2019
4052 Clouds 17 1024 48 10000 5.1 50 20:38 16.11.2019
4053 Clouds 17 1024 48 10000 5.1 50 20:18 16.11.2019
4054 Clouds 12 1014 57 0 3.55 55 19:40 16.11.2019
4055 Clouds 12 1014 57 0 3.55 55 19:22 16.11.2019
4056 Clouds 12 1014 57 0 3.55 55 18:48 16.11.2019
4057 Clouds 12 1014 57 0 3.55 55 18:30 16.11.2019
4058 Clouds 12 1014 57 0 3.55 55 17:58 16.11.2019
4059 Clouds 12 1014 57 0 3.55 55 17:39 16.11.2019
4060 Clouds 15 1010 50 0 4.08 95 17:21 16.11.2019
4061 Clouds 15 1010 50 0 4.08 95 16:56 16.11.2019
4062 Clouds 15 1010 50 0 4.08 95 16:37 16.11.2019
4063 Clouds 21 1022 40 10000 4.1 130 16:19 16.11.2019
4064 Clouds 21 1022 40 10000 4.1 130 15:41 16.11.2019
4065 Clouds 21 1022 40 10000 4.1 130 15:22 16.11.2019
4066 Clouds 22 1022 40 10000 5.7 160 14:58 16.11.2019
4067 Clouds 22 1022 40 10000 5.7 160 14:40 16.11.2019
4068 Clouds 22 1022 40 10000 5.7 160 14:21 16.11.2019
4069 Clouds 22 1022 40 10000 5.7 170 13:56 16.11.2019
4070 Clouds 22 1022 40 10000 5.7 170 13:38 16.11.2019
4071 Clouds 22 1022 40 10000 5.7 170 13:18 16.11.2019
4072 Clouds 21 1009 40 0 5.6 100 12:55 16.11.2019
4073 Clouds 21 1023 43 10000 6.2 150 12:36 16.11.2019
4074 Clouds 21 1023 43 10000 6.2 150 12:18 16.11.2019
4075 Clouds 21 1023 43 10000 6.2 150 11:42 16.11.2019
4076 Clouds 21 1023 43 10000 6.2 150 11:23 16.11.2019
4077 Clouds 20 1012 43 0 5.83 96 10:56 16.11.2019
4078 Clouds 20 1012 43 0 5.83 96 10:37 16.11.2019
4079 Clouds 21 1024 43 10000 5.7 110 10:18 16.11.2019
4080 Clouds 21 1024 43 10000 5.7 110 09:40 16.11.2019
4081 Clouds 21 1024 43 10000 5.7 110 09:20 16.11.2019
4082 Clouds 20 1012 43 0 5.83 96 08:56 16.11.2019
4083 Clouds 20 1012 43 0 5.83 96 08:36 16.11.2019
4084 Clouds 17 1025 55 10000 5.1 80 08:18 16.11.2019
4085 Clouds 17 1025 55 10000 5.1 80 07:41 16.11.2019
4086 Clouds 17 1025 55 10000 5.1 80 07:19 16.11.2019
4087 Clouds 16 1015 52 0 4.52 89 06:43 16.11.2019
4088 Clouds 16 1015 52 0 4.52 89 06:23 16.11.2019
4089 Clear 9 1016 76 0 1.89 19 04:47 16.11.2019
4090 Clouds 12 1024 76 10000 1 30 03:26 16.11.2019
4091 Clear 9 1016 76 0 1.89 19 02:54 16.11.2019
4092 Clouds 13 1024 71 10000 1 90 01:41 16.11.2019
4093 Clouds 13 1024 71 10000 1.5 70 00:56 16.11.2019
4094 Clouds 13 1024 71 10000 1.5 70 00:36 16.11.2019
4095 Clouds 13 1024 71 10000 1.5 70 00:18 16.11.2019
4096 Clouds 14 1025 67 10000 2.6 90 23:39 15.11.2019
4097 Clouds 14 1025 67 10000 2.6 90 23:20 15.11.2019
4098 Clouds 15 1026 62 10000 3.1 60 22:42 15.11.2019
4099 Clouds 15 1026 62 10000 3.1 60 22:20 15.11.2019
4100 Clouds 15 1026 67 10000 2.6 50 21:59 15.11.2019
4101 Clouds 15 1026 67 10000 2.6 50 21:40 15.11.2019
4102 Clouds 15 1026 67 10000 2.6 50 21:20 15.11.2019
4103 Clouds 16 1026 63 10000 3.1 80 20:57 15.11.2019
4104 Clouds 16 1026 63 10000 3.1 80 20:39 15.11.2019
4105 Clouds 16 1026 63 10000 3.1 80 20:39 15.11.2019
4106 Clouds 16 1026 63 10000 3.1 80 20:21 15.11.2019
4107 Clouds 16 1026 63 10000 3.1 60 19:58 15.11.2019
4108 Clouds 16 1026 63 10000 3.1 60 19:39 15.11.2019
4109 Clouds 16 1026 63 10000 3.1 60 19:20 15.11.2019
4110 Clouds 17 1025 55 10000 3.1 60 18:58 15.11.2019
4111 Clouds 17 1025 55 10000 3.1 60 18:39 15.11.2019
4112 Clouds 17 1025 55 10000 3.1 60 18:21 15.11.2019
4113 Clouds 18 1025 52 10000 3.6 80 17:42 15.11.2019
4114 Clouds 18 1025 52 10000 3.6 80 17:24 15.11.2019
4115 Clouds 19 1024 48 10000 5.1 90 16:56 15.11.2019
4116 Clouds 19 1024 48 10000 5.1 90 16:37 15.11.2019
4117 Clouds 19 1024 48 10000 5.1 90 16:19 15.11.2019
4118 Clouds 21 1023 43 10000 3.6 110 15:38 15.11.2019
4119 Clouds 21 1023 43 10000 3.6 110 15:20 15.11.2019
4120 Clouds 21 1023 43 10000 3.6 110 14:57 15.11.2019
4121 Clouds 22 1023 40 10000 5.1 150 14:38 15.11.2019
4122 Clouds 22 1023 40 10000 5.1 150 14:19 15.11.2019
4123 Clouds 22 1023 40 10000 2.6 80 13:58 15.11.2019
4124 Clouds 22 1023 40 10000 2.6 80 13:39 15.11.2019
4125 Clouds 22 1023 40 10000 2.6 80 13:39 15.11.2019
4126 Clouds 22 1023 40 10000 2.6 80 13:20 15.11.2019
4127 Clouds 21 1024 43 10000 46.8 70 12:57 15.11.2019
4128 Clouds 21 1024 43 10000 46.8 70 12:39 15.11.2019
4129 Clouds 21 1024 43 10000 46.8 70 12:20 15.11.2019
4130 Clouds 21 1025 43 10000 46.8 100 11:57 15.11.2019
4131 Clouds 21 1025 43 10000 46.8 100 11:38 15.11.2019
4132 Clouds 21 1025 43 10000 46.8 100 11:19 15.11.2019
4133 Clouds 20 1014 45 0 5.4 99 10:41 15.11.2019
4134 Clouds 20 1027 45 10000 5.7 110 10:22 15.11.2019
4135 Clouds 20 1027 45 10000 5.7 110 09:58 15.11.2019
4136 Clouds 20 1014 45 0 5.4 99 09:40 15.11.2019
4137 Clouds 20 1014 45 0 5.4 99 09:19 15.11.2019
4138 Clouds 20 1014 45 0 5.4 99 08:44 15.11.2019
4139 Clouds 17 1028 51 10000 3.1 120 08:23 15.11.2019
4140 Clouds 17 1028 51 10000 3.1 120 07:48 15.11.2019
4141 Clouds 17 1028 51 10000 3.1 120 07:28 15.11.2019
4142 Clouds 16 1018 55 0 4.07 89 06:50 15.11.2019
4143 Clouds 16 1018 55 0 4.07 89 06:31 15.11.2019
4144 Clouds 16 1018 55 0 4.07 89 05:40 15.11.2019
4145 Clouds 11 1017 77 0 1.41 39 05:22 15.11.2019
4146 Clouds 11 1017 77 0 1.41 39 03:50 15.11.2019
4147 Clouds 11 1017 77 0 1.41 39 03:22 15.11.2019
4148 Clouds 13 1025 62 10000 3.1 80 02:19 15.11.2019
4149 Clouds 13 1025 62 10000 3.1 80 01:33 15.11.2019
4150 Clouds 12 1025 66 10000 2.1 70 00:51 15.11.2019
4151 Clouds 12 1025 66 10000 2.1 70 00:32 15.11.2019
4152 Clouds 15 1025 54 10000 4.1 60 23:52 14.11.2019
4153 Clouds 15 1025 54 10000 4.1 60 23:28 14.11.2019
4154 Clouds 15 1025 54 10000 4.1 60 22:59 14.11.2019
4155 Clouds 11 1016 76 0 2.32 22 22:39 14.11.2019
4156 Clouds 11 1016 76 0 2.32 22 22:21 14.11.2019
4157 Clouds 11 1016 76 0 2.32 22 21:55 14.11.2019
4158 Clouds 11 1016 76 0 2.32 22 21:37 14.11.2019
4159 Clouds 15 1026 54 10000 5.1 60 21:19 14.11.2019
4160 Clouds 15 1026 54 10000 5.1 60 20:42 14.11.2019
4161 Clouds 15 1026 54 10000 5.1 60 20:23 14.11.2019
4162 Clouds 15 1026 54 10000 5.1 60 19:59 14.11.2019
4163 Clear 12 1015 69 0 3.12 44 19:40 14.11.2019
4164 Clear 12 1015 69 0 3.12 44 19:18 14.11.2019
4165 Clear 12 1015 69 0 3.12 44 19:18 14.11.2019
4166 Clear 12 1015 69 0 3.12 44 19:18 14.11.2019
4167 Clear 12 1015 69 0 3.12 44 18:56 14.11.2019
4168 Clear 12 1015 69 0 3.12 44 18:38 14.11.2019
4169 Clouds 18 1025 48 10000 4.1 80 18:19 14.11.2019
4170 Clouds 18 1025 48 10000 4.1 80 17:55 14.11.2019
4171 Clouds 18 1025 48 10000 4.1 80 17:36 14.11.2019
4172 Clouds 18 1025 48 10000 4.1 80 17:18 14.11.2019
4173 Clouds 18 1025 48 10000 4.1 80 16:55 14.11.2019
4174 Clouds 19 1025 45 10000 5.1 90 16:36 14.11.2019
4175 Clouds 19 1025 45 10000 5.1 90 16:18 14.11.2019
4176 Clouds 21 1024 40 10000 6.2 100 15:54 14.11.2019
4177 Clouds 21 1024 40 10000 6.2 100 15:36 14.11.2019
4178 Clouds 21 1024 40 10000 6.2 100 15:18 14.11.2019
4179 Clouds 22 1024 40 10000 4.1 110 14:41 14.11.2019
4180 Clouds 22 1024 40 10000 4.1 110 14:22 14.11.2019
4181 Clouds 23 1024 35 10000 3.6 140 13:55 14.11.2019
4182 Clouds 23 1024 35 10000 3.6 140 13:37 14.11.2019
4183 Clouds 23 1024 35 10000 3.6 140 13:18 14.11.2019
4184 Clouds 20 1010 45 0 5.65 98 12:46 14.11.2019
4185 Clouds 22 1025 40 10000 5.1 70 12:26 14.11.2019
4186 Clouds 22 1025 40 10000 5.1 70 11:58 14.11.2019
4187 Clouds 22 1025 40 10000 5.1 70 11:38 14.11.2019
4188 Clouds 22 1025 40 10000 5.1 70 11:19 14.11.2019
4189 Clouds 21 1026 43 10000 6.2 120 10:57 14.11.2019
4190 Clouds 21 1026 43 10000 6.2 120 10:37 14.11.2019
4191 Clouds 21 1026 43 10000 6.2 120 10:19 14.11.2019
4192 Clouds 20 1014 42 0 5.16 99 09:55 14.11.2019
4193 Clouds 20 1014 42 0 5.16 99 09:37 14.11.2019
4194 Clouds 18 1028 52 10000 6.2 80 09:18 14.11.2019
4195 Clouds 18 1028 52 10000 6.2 80 08:46 14.11.2019
4196 Clouds 18 1028 52 10000 6.2 80 08:23 14.11.2019
4197 Clouds 17 1017 54 0 4.38 87 07:42 14.11.2019
4198 Clouds 15 1027 62 10000 4.1 100 07:24 14.11.2019
4199 Clouds 15 1027 62 10000 4.1 100 06:47 14.11.2019
4200 Clouds 15 1027 62 10000 4.1 100 06:21 14.11.2019
4201 Clouds 17 1017 54 0 4.38 87 05:59 14.11.2019
4202 Clouds 11 1017 67 0 1.49 24 04:38 14.11.2019
4203 Clouds 11 1017 67 0 1.49 24 03:47 14.11.2019
4204 Clouds 11 1017 67 0 1.49 24 02:39 14.11.2019
4205 Clouds 13 1025 62 10000 3.6 70 01:41 14.11.2019
4206 Clouds 13 1025 62 10000 4.1 70 00:58 14.11.2019
4207 Clouds 13 1025 62 10000 4.1 70 00:58 14.11.2019
4208 Clouds 13 1025 62 10000 4.1 70 00:40 14.11.2019
4209 Clouds 13 1025 62 10000 4.1 70 00:39 14.11.2019
4210 Clouds 13 1025 62 10000 4.1 70 00:20 14.11.2019
4211 Clouds 14 1026 62 10000 3.6 70 23:39 13.11.2019
4212 Clouds 14 1026 62 10000 3.6 70 23:20 13.11.2019
4213 Clouds 11 1016 68 0 2.23 29 22:55 13.11.2019
4214 Clouds 11 1016 68 0 2.23 29 22:37 13.11.2019
4215 Clouds 16 1026 55 10000 4.1 50 22:19 13.11.2019
4216 Clouds 16 1026 55 10000 4.1 50 21:55 13.11.2019
4217 Clouds 16 1026 55 10000 4.1 50 21:37 13.11.2019
4218 Clouds 11 1016 68 0 2.23 29 21:18 13.11.2019
4219 Clouds 11 1016 68 0 2.23 29 20:55 13.11.2019
4220 Clouds 11 1016 68 0 2.23 29 20:37 13.11.2019
4221 Clouds 16 1026 59 10000 5.1 70 20:37 13.11.2019
4222 Clouds 16 1026 59 10000 5.1 70 20:18 13.11.2019
4223 Clouds 16 1026 59 10000 5.1 70 20:18 13.11.2019
4224 Clouds 16 1026 59 10000 5.1 70 19:42 13.11.2019
4225 Clouds 16 1026 59 10000 5.1 70 19:19 13.11.2019
4226 Clouds 16 1026 59 10000 5.1 70 18:56 13.11.2019
4227 Clouds 13 1015 60 0 3.54 50 18:38 13.11.2019
4228 Clouds 13 1015 60 0 3.54 50 18:19 13.11.2019
4229 Clouds 13 1015 60 0 3.54 50 18:19 13.11.2019
4230 Clouds 13 1015 60 0 3.54 50 17:57 13.11.2019
4231 Clouds 13 1015 60 0 3.54 50 17:38 13.11.2019
4232 Clear 14 1012 58 0 5.07 91 17:19 13.11.2019
4233 Clouds 15 1012 59 0 4.88 92 16:58 13.11.2019
4234 Clouds 15 1012 59 0 4.88 92 16:39 13.11.2019
4235 Clouds 15 1012 59 0 4.88 92 16:21 13.11.2019
4236 Clear 14 1012 58 0 5.07 91 15:57 13.11.2019
4237 Clouds 15 1012 59 0 4.88 92 15:38 13.11.2019
4238 Clouds 23 1022 38 10000 7.2 100 15:20 13.11.2019
4239 Clouds 23 1022 38 10000 7.2 100 14:42 13.11.2019
4240 Clouds 23 1022 38 10000 7.2 100 14:21 13.11.2019
4241 Clouds 23 1022 38 10000 5.1 100 13:57 13.11.2019
4242 Clouds 23 1022 38 10000 5.1 100 13:36 13.11.2019
4243 Clouds 23 1023 38 10000 4.1 110 13:18 13.11.2019
4244 Clouds 23 1023 38 10000 4.1 110 12:43 13.11.2019
4245 Clouds 23 1023 38 10000 4.1 110 12:25 13.11.2019
4246 Clouds 23 1023 38 10000 5.1 80 11:59 13.11.2019
4247 Clouds 23 1023 38 10000 5.1 80 11:38 13.11.2019
4248 Clouds 23 1023 38 10000 5.1 80 11:19 13.11.2019
4249 Clouds 21 1025 46 10000 4.1 140 10:57 13.11.2019
4250 Clouds 21 1025 46 10000 4.1 140 10:39 13.11.2019
4251 Clouds 21 1025 46 10000 4.1 140 10:19 13.11.2019
4252 Clouds 21 1025 46 10000 4.1 140 10:19 13.11.2019
4253 Clouds 20 1013 46 0 4.42 106 09:45 13.11.2019
4254 Clouds 19 1026 48 0 4.1 110 09:21 13.11.2019
4255 Clouds 19 1026 48 0 4.1 110 09:21 13.11.2019
4256 Clouds 19 1026 48 0 4.1 110 08:55 13.11.2019
4257 Clouds 19 1026 48 0 4.1 110 08:36 13.11.2019
4258 Clouds 19 1026 48 0 4.1 110 08:18 13.11.2019
4259 Clouds 16 1016 56 0 3.33 90 07:42 13.11.2019
4260 Clouds 16 1016 56 0 3.33 90 07:20 13.11.2019
4261 Clouds 16 1016 56 0 3.33 90 06:43 13.11.2019
4262 Clouds 11 1026 71 10000 2.1 60 06:19 13.11.2019
4263 Clouds 11 1026 71 10000 2.1 60 06:19 13.11.2019
4264 Clouds 11 1026 71 10000 2.1 60 06:19 13.11.2019
4265 Clouds 11 1026 71 10000 2.1 60 06:19 13.11.2019
4266 Clouds 11 1026 71 10000 2.1 60 06:19 13.11.2019
4267 Clouds 11 1026 71 10000 2.1 60 05:51 13.11.2019
4268 Clouds 11 1026 71 10000 2.1 60 05:30 13.11.2019
4269 Clouds 11 1025 71 10000 1 330 04:20 13.11.2019
4270 Clouds 11 1025 71 10000 1.5 60 01:58 13.11.2019
4271 Clouds 11 1025 71 10000 1.5 60 01:40 13.11.2019
4272 Clouds 10 1015 78 0 1.3 7 00:44 13.11.2019
4273 Clouds 15 1025 51 10000 4.1 60 23:59 12.11.2019
4274 Clouds 15 1025 51 10000 4.1 60 23:41 12.11.2019
4275 Clouds 15 1025 51 10000 4.1 60 23:21 12.11.2019
4276 Clouds 15 1026 51 10000 3.1 50 22:43 12.11.2019
4277 Clouds 15 1026 51 10000 3.1 50 22:20 12.11.2019
4278 Clouds 15 1025 54 10000 28.3 60 21:58 12.11.2019
4279 Clouds 15 1025 54 10000 28.3 60 21:40 12.11.2019
4280 Clouds 15 1025 54 10000 28.3 60 21:22 12.11.2019
4281 Clouds 10 1016 74 0 2.49 29 20:56 12.11.2019
4282 Clouds 10 1016 74 0 2.49 29 20:37 12.11.2019
4283 Clouds 10 1016 74 0 2.49 29 20:37 12.11.2019
4284 Clouds 16 1025 59 10000 3.1 80 20:18 12.11.2019
4285 Clouds 16 1025 59 10000 3.1 80 19:57 12.11.2019
4286 Clouds 16 1025 59 10000 3.1 80 19:38 12.11.2019
4287 Clouds 16 1025 59 10000 3.1 80 19:19 12.11.2019
4288 Clouds 16 1024 59 10000 4.1 70 18:57 12.11.2019
4289 Clouds 16 1024 59 10000 4.1 70 18:39 12.11.2019
4290 Clouds 16 1024 59 10000 4.1 70 18:21 12.11.2019
4291 Clouds 17 1024 55 10000 6.2 90 17:56 12.11.2019
4292 Clouds 17 1024 55 10000 6.2 90 17:56 12.11.2019
4293 Clouds 17 1024 55 10000 6.2 90 17:37 12.11.2019
4294 Clouds 17 1024 55 10000 6.2 90 17:19 12.11.2019
4295 Clear 15 1010 56 0 4.72 91 16:44 12.11.2019
4296 Clear 15 1010 56 0 4.72 91 16:25 12.11.2019
4297 Clear 15 1010 56 0 4.72 91 15:57 12.11.2019
4298 Clear 15 1010 56 0 4.72 91 15:57 12.11.2019
4299 Clear 15 1010 56 0 4.72 91 15:39 12.11.2019
4300 Clouds 22 1022 40 10000 5.1 100 15:20 12.11.2019
4301 Clouds 22 1022 40 10000 5.1 100 14:55 12.11.2019
4302 Clouds 22 1022 40 10000 5.1 100 14:36 12.11.2019
4303 Clouds 20 1008 42 0 6.25 100 14:18 12.11.2019
4304 Clouds 20 1008 42 0 6.25 100 13:54 12.11.2019
4305 Clouds 20 1008 42 0 6.61 99 13:36 12.11.2019
4306 Clouds 23 1022 38 10000 5.1 80 13:18 12.11.2019
4307 Clouds 23 1022 38 10000 5.1 80 12:39 12.11.2019
4308 Clouds 23 1022 38 10000 5.1 80 12:19 12.11.2019
4309 Clouds 22 1023 43 10000 4.6 110 11:55 12.11.2019
4310 Clouds 22 1023 43 10000 4.6 110 11:36 12.11.2019
4311 Clouds 22 1023 43 10000 4.6 110 11:18 12.11.2019
4312 Clouds 21 1025 43 10000 4.1 90 10:55 12.11.2019
4313 Clouds 21 1025 43 10000 4.1 90 10:36 12.11.2019
4314 Clouds 21 1025 43 10000 4.1 90 10:18 12.11.2019
4315 Clouds 20 1025 45 10000 6.2 120 09:39 12.11.2019
4316 Clouds 20 1025 45 10000 6.2 120 09:20 12.11.2019
4317 Clouds 19 1025 52 10000 5.1 90 08:49 12.11.2019
4318 Clouds 19 1025 52 10000 5.1 90 08:29 12.11.2019
4319 Clouds 16 1015 51 0 3.83 86 07:43 12.11.2019
4320 Clouds 15 1025 67 10000 5.7 60 07:25 12.11.2019
4321 Clouds 15 1025 67 10000 5.7 60 06:54 12.11.2019
4322 Clouds 15 1025 67 10000 5.7 60 06:26 12.11.2019
4323 Clouds 11 1024 71 10000 1.5 110 05:56 12.11.2019
4324 Clouds 9 1015 76 0 1.97 19 04:59 12.11.2019
4325 Clouds 9 1015 76 0 1.97 19 04:37 12.11.2019
4326 Clouds 9 1015 76 0 1.97 19 02:41 12.11.2019
4327 Clouds 11 1023 66 10000 3.1 80 01:27 12.11.2019
4328 Clouds 12 1023 62 10000 3.1 120 00:57 12.11.2019
4329 Clouds 12 1023 62 10000 3.1 120 00:57 12.11.2019
4330 Clouds 12 1023 62 10000 3.1 120 00:39 12.11.2019
4331 Clouds 12 1023 62 10000 3.1 120 00:18 12.11.2019
4332 Clouds 10 1013 68 0 1.46 17 23:41 11.11.2019
4333 Clouds 10 1014 67 0 2.53 32 23:20 11.11.2019
4334 Clouds 10 1014 67 0 2.53 32 22:39 11.11.2019
4335 Clouds 10 1014 67 0 2.53 32 22:20 11.11.2019
4336 Clouds 10 1014 67 0 2.53 32 21:58 11.11.2019
4337 Clouds 10 1014 67 0 2.53 32 21:39 11.11.2019
4338 Clouds 10 1014 67 0 2.53 32 21:21 11.11.2019
4339 Clouds 10 1014 67 0 2.53 32 20:56 11.11.2019
4340 Clouds 10 1014 67 0 2.53 32 20:56 11.11.2019
4341 Clouds 10 1014 67 0 2.53 32 20:38 11.11.2019
4342 Clouds 16 1024 51 10000 4.1 60 20:19 11.11.2019
4343 Clouds 16 1024 51 10000 4.1 60 20:19 11.11.2019
4344 Clouds 16 1024 51 10000 4.1 60 19:55 11.11.2019
4345 Clouds 16 1024 51 10000 4.1 60 19:37 11.11.2019
4346 Clouds 16 1024 51 10000 4.1 60 19:18 11.11.2019
4347 Clouds 17 1022 48 10000 6.2 70 18:41 11.11.2019
4348 Clouds 17 1022 48 10000 6.2 70 18:21 11.11.2019
4349 Clouds 17 1022 48 10000 6.2 70 17:46 11.11.2019
4350 Clouds 18 1022 42 10000 6.2 80 17:46 11.11.2019
4351 Clouds 18 1022 42 10000 6.2 80 17:28 11.11.2019
4352 Clouds 15 1009 53 0 4.89 90 16:58 11.11.2019
4353 -273 0 0 0 0 0 16:38 11.11.2019
4354 Clouds 15 1009 53 0 4.89 90 16:20 11.11.2019
4355 Clouds 15 1009 53 0 4.89 90 15:41 11.11.2019
4356 Clouds 23 1021 35 10000 6.7 90 15:20 11.11.2019
4357 Clouds 23 1021 35 10000 6.7 90 14:56 11.11.2019
4358 Clouds 23 1021 35 10000 6.7 90 14:56 11.11.2019
4359 Clouds 23 1021 35 10000 6.7 90 14:38 11.11.2019
4360 Clouds 23 1021 35 10000 6.7 90 14:20 11.11.2019
4361 Clouds 21 1007 41 0 6.86 93 13:56 11.11.2019
4362 Clouds 21 1007 41 0 6.86 93 13:56 11.11.2019
4363 Clouds 21 1007 41 0 6.86 93 13:36 11.11.2019
4364 Clouds 21 1007 41 0 6.86 93 13:36 11.11.2019
4365 Clouds 22 1022 35 10000 6.7 90 13:18 11.11.2019
4366 Clouds 22 1022 35 10000 6.7 90 12:55 11.11.2019
4367 Clouds 22 1022 35 10000 6.7 90 12:37 11.11.2019
4368 Clouds 22 1022 35 10000 6.7 90 12:19 11.11.2019
4369 Clouds 23 1022 35 10000 6.2 110 11:41 11.11.2019
4370 Clouds 23 1022 35 10000 6.2 110 11:21 11.11.2019
4371 Clouds 22 1024 43 10000 6.2 110 10:44 11.11.2019
4372 Clouds 22 1024 43 10000 6.2 110 10:19 11.11.2019
4373 Clouds 21 1025 43 10000 6.2 100 09:59 11.11.2019
4374 Clouds 21 1025 43 10000 6.2 100 09:40 11.11.2019
4375 Clouds 21 1025 43 10000 6.2 100 09:19 11.11.2019
4376 Clouds 20 1025 45 10000 6.2 100 08:42 11.11.2019
4377 Clouds 20 1025 45 10000 6.2 100 08:22 11.11.2019
4378 Clouds 17 1015 52 0 3.67 89 07:57 11.11.2019
4379 Clouds 17 1015 52 0 3.67 89 07:38 11.11.2019
4380 Clouds 16 1025 59 10000 4.1 70 07:19 11.11.2019
4381 Clouds 16 1025 59 10000 4.1 70 06:49 11.11.2019
4382 Clouds 16 1025 59 10000 4.1 70 06:49 11.11.2019
4383 Clouds 16 1025 59 10000 4.1 70 06:24 11.11.2019
4384 Clouds 14 1024 62 10000 3.6 60 05:51 11.11.2019
4385 Clouds 13 1024 66 10000 3.1 60 04:50 11.11.2019
4386 Clouds 11 1015 69 0 0.95 6 03:25 11.11.2019
4387 Clouds 15 1023 58 10000 3.1 100 02:30 11.11.2019
4388 Clouds 15 1023 58 10000 3.1 100 01:57 11.11.2019
4389 Clouds 15 1023 58 10000 3.1 100 01:35 11.11.2019
4390 Clear 10 1014 74 0 1.23 357 00:51 11.11.2019
4391 Clear 10 1014 74 0 1.23 357 00:26 11.11.2019
4392 Clear 10 1014 74 0 1.23 357 23:55 10.11.2019
4393 Clear 10 1014 74 0 1.23 357 23:36 10.11.2019
4394 Clouds 16 1025 55 10000 3.1 100 23:18 10.11.2019
4395 Clouds 16 1025 55 10000 3.1 100 22:54 10.11.2019
4396 Clouds 16 1025 55 10000 3.1 100 22:36 10.11.2019
4397 Clouds 16 1025 55 10000 3.1 100 22:18 10.11.2019
4398 Clouds 16 1025 59 10000 3.1 80 21:40 10.11.2019
4399 Clouds 16 1025 59 10000 3.1 80 21:21 10.11.2019
4400 Clouds 17 1025 55 10000 5.1 60 20:59 10.11.2019
4401 Clouds 17 1025 55 10000 5.1 60 20:39 10.11.2019
4402 Clouds 17 1025 55 10000 5.1 60 20:21 10.11.2019
4403 Clouds 17 1025 55 10000 4.1 80 19:55 10.11.2019
4404 Clouds 17 1025 55 10000 4.1 80 19:37 10.11.2019
4405 Clouds 17 1025 55 10000 4.1 80 19:18 10.11.2019
4406 Clouds 17 1025 55 10000 4.1 80 19:18 10.11.2019
4407 Clouds 17 1025 55 10000 4.1 80 19:18 10.11.2019
4408 Clouds 17 1024 55 10000 4.1 70 18:55 10.11.2019
4409 Clouds 12 1014 68 0 3.16 54 18:37 10.11.2019
4410 Clouds 18 1023 52 10000 4.1 90 18:19 10.11.2019
4411 Clouds 18 1023 52 10000 4.1 90 18:19 10.11.2019
4412 Clouds 18 1023 52 10000 4.1 90 17:55 10.11.2019
4413 Clouds 18 1023 52 10000 4.1 90 17:37 10.11.2019
4414 Clouds 18 1023 52 10000 4.1 90 17:19 10.11.2019
4415 Clouds 20 1022 45 10000 5.1 80 16:44 10.11.2019
4416 Clouds 20 1022 45 10000 5.1 80 16:25 10.11.2019
4417 Clouds 21 1022 46 10000 5.1 90 15:57 10.11.2019
4418 Clouds 21 1022 46 10000 5.1 90 15:57 10.11.2019
4419 Clouds 21 1022 46 10000 5.1 90 15:38 10.11.2019
4420 Clouds 21 1022 46 10000 5.1 90 15:19 10.11.2019
4421 Clouds 21 1022 46 10000 5.1 90 15:19 10.11.2019
4422 Clouds 21 1022 46 10000 5.1 90 15:19 10.11.2019
4423 Clouds 16 1011 54 0 4.13 98 14:58 10.11.2019
4424 Clouds 16 1011 54 0 4.13 98 14:39 10.11.2019
4425 Clouds 21 1008 42 0 4.74 93 14:20 10.11.2019
4426 Clouds 21 1008 42 0 4.74 93 13:55 10.11.2019
4427 Clouds 21 1008 42 0 4.74 93 13:37 10.11.2019
4428 Clouds 21 1008 42 0 4.58 93 13:19 10.11.2019
4429 Clouds 21 1008 42 0 4.58 93 12:41 10.11.2019
4430 Clouds 23 1023 35 10000 4.1 120 12:20 10.11.2019
4431 Clouds 23 1023 35 10000 4.1 120 11:56 10.11.2019
4432 Clouds 23 1023 35 10000 4.1 120 11:38 10.11.2019
4433 Clouds 23 1023 35 10000 4.1 120 11:19 10.11.2019
4434 Clouds 22 1024 40 10000 3.1 110 10:42 10.11.2019
4435 Clouds 22 1024 40 10000 3.1 110 10:22 10.11.2019
4436 Clouds 21 1025 40 0 4.1 140 09:59 10.11.2019
4437 Clouds 21 1013 42 0 4.12 109 09:40 10.11.2019
4438 Clouds 21 1026 37 0 2.6 110 09:21 10.11.2019
4439 Clouds 21 1026 37 0 2.6 110 08:40 10.11.2019
4440 Clouds 21 1026 37 0 2.6 110 08:21 10.11.2019
4441 Clouds 18 1026 45 0 2.1 180 07:53 10.11.2019
4442 Clouds 18 1026 45 0 2.1 180 07:34 10.11.2019
4443 Clouds 16 1026 51 0 1 170 06:59 10.11.2019
4444 Clouds 16 1026 51 0 1 170 06:22 10.11.2019
4445 Clouds 10 1016 64 0 1.59 12 03:55 10.11.2019
4446 Clouds 10 1016 64 0 1.59 12 02:33 10.11.2019
4447 Clouds 11 1014 61 0 1.23 342 01:37 10.11.2019
4448 Clouds 14 1025 62 10000 1 330 01:18 10.11.2019
4449 Clouds 14 1025 62 10000 1 330 00:37 10.11.2019
4450 Clouds 15 1026 54 10000 2.1 360 23:42 09.11.2019
4451 Clouds 15 1026 54 10000 2.1 360 23:19 09.11.2019
4452 Clouds 15 1026 54 10000 3.1 70 22:43 09.11.2019
4453 Clouds 15 1026 54 10000 3.1 70 22:23 09.11.2019
4454 Clouds 15 1026 54 10000 3.1 70 22:23 09.11.2019
4455 Clouds 16 1026 51 10000 4.6 70 21:58 09.11.2019
4456 Clouds 16 1026 51 10000 4.6 70 21:40 09.11.2019
4457 Clouds 16 1026 51 10000 4.6 70 21:21 09.11.2019
4458 Clouds 16 1027 51 10000 4.6 70 20:56 09.11.2019
4459 Clouds 16 1027 51 10000 4.6 70 20:38 09.11.2019
4460 Clouds 16 1027 51 10000 4.6 70 20:20 09.11.2019
4461 Clouds 17 1026 48 10000 5.1 70 19:54 09.11.2019
4462 Clouds 17 1026 48 10000 5.1 70 19:36 09.11.2019
4463 Clouds 17 1026 48 10000 5.1 70 19:18 09.11.2019
4464 Clear 12 1015 54 0 3.39 49 18:39 09.11.2019
4465 Clear 12 1015 54 0 3.39 49 18:39 09.11.2019
4466 Clear 12 1015 54 0 3.39 49 18:19 09.11.2019
4467 Clear 12 1015 54 0 3.39 49 17:44 09.11.2019
4468 Clouds 20 1024 42 10000 6.2 90 17:23 09.11.2019
4469 Clouds 20 1024 42 10000 6.2 90 16:59 09.11.2019
4470 Clouds 20 1024 42 10000 6.2 90 16:41 09.11.2019
4471 Clouds 20 1024 42 10000 6.2 90 16:20 09.11.2019
4472 Clouds 20 1024 42 10000 6.2 90 16:20 09.11.2019
4473 Clear 16 1013 46 0 4.5 94 15:43 09.11.2019
4474 Clouds 23 1023 38 10000 5.1 110 15:24 09.11.2019
4475 Clouds 23 1023 38 10000 5.1 110 14:59 09.11.2019
4476 Clouds 23 1023 38 10000 5.1 110 14:59 09.11.2019
4477 Clouds 23 1023 38 10000 5.1 110 14:40 09.11.2019
4478 Clouds 23 1023 38 10000 5.1 110 14:18 09.11.2019
4479 Clouds 24 1023 36 10000 4.1 120 13:56 09.11.2019
4480 Clouds 24 1023 36 10000 4.1 120 13:36 09.11.2019
4481 Clouds 24 1023 36 10000 4.1 120 13:18 09.11.2019
4482 Clouds 24 1023 36 10000 4.1 120 13:18 09.11.2019
4483 Clouds 22 1024 37 10000 5.1 150 12:42 09.11.2019
4484 Clouds 22 1024 37 10000 5.1 150 12:23 09.11.2019
4485 Clouds 23 1025 35 10000 4.1 80 11:56 09.11.2019
4486 Clouds 23 1025 35 10000 4.1 80 11:38 09.11.2019
4487 Clouds 23 1025 35 10000 4.1 80 11:18 09.11.2019
4488 Clouds 22 1026 37 10000 6.2 90 10:41 09.11.2019
4489 Clouds 22 1026 37 10000 6.2 90 10:19 09.11.2019
4490 Clear 21 1014 38 0 3.43 112 09:48 09.11.2019
4491 Clouds 20 1027 42 10000 4.1 120 09:28 09.11.2019
4492 Clouds 20 1027 42 10000 4.1 120 08:59 09.11.2019
4493 Clouds 20 1027 42 10000 4.1 120 08:40 09.11.2019
4494 Clouds 20 1027 42 10000 4.1 120 08:21 09.11.2019
4495 Clouds 19 1028 39 10000 4.1 110 07:46 09.11.2019
4496 Clouds 19 1028 39 10000 4.1 110 07:24 09.11.2019
4497 Clouds 17 1027 45 10000 2.1 80 06:50 09.11.2019
4498 Clouds 17 1027 45 10000 2.1 80 06:32 09.11.2019
4499 Clouds 17 1018 46 0 2 115 05:47 09.11.2019
4500 Clouds 10 1017 67 0 1.43 5 05:23 09.11.2019
4501 Clouds 10 1017 67 0 1.43 5 03:57 09.11.2019
4502 Clouds 10 1017 67 0 1.43 5 03:57 09.11.2019
4503 Clouds 13 1025 66 10000 2.1 50 02:44 09.11.2019
4504 Clouds 13 1026 66 10000 1.5 10 01:55 09.11.2019
4505 Clouds 13 1026 62 10000 2.1 70 00:53 09.11.2019
4506 Clouds 13 1026 62 10000 2.1 70 00:31 09.11.2019
4507 Clouds 14 1026 62 10000 2.6 310 23:58 08.11.2019
4508 Clouds 14 1026 62 10000 2.6 310 23:39 08.11.2019
4509 Clouds 14 1026 62 10000 2.6 310 23:20 08.11.2019
4510 Clouds 14 1027 54 10000 3.1 80 22:48 08.11.2019
4511 Clouds 14 1027 54 10000 3.1 80 22:22 08.11.2019
4512 Clouds 15 1027 58 10000 4.1 70 21:57 08.11.2019
4513 Clouds 15 1027 58 10000 4.1 70 21:39 08.11.2019
4514 Clouds 15 1027 58 10000 4.1 70 21:19 08.11.2019
4515 Clouds 11 1016 64 0 2.21 15 20:43 08.11.2019
4516 Clear 12 1016 61 0 3.07 46 20:22 08.11.2019
4517 Clear 12 1016 61 0 3.07 46 20:22 08.11.2019
4518 Clear 12 1016 61 0 3.07 46 19:59 08.11.2019
4519 Clear 12 1016 61 0 3.07 46 19:39 08.11.2019
4520 Clear 12 1016 61 0 3.07 46 19:19 08.11.2019
4521 Clear 12 1016 61 0 3.07 46 18:56 08.11.2019
4522 Clear 12 1016 61 0 3.07 46 18:38 08.11.2019
4523 Clear 12 1016 61 0 3.07 46 18:20 08.11.2019
4524 Clear 12 1016 61 0 3.07 46 17:56 08.11.2019
4525 Clear 12 1016 61 0 3.07 46 17:37 08.11.2019
4526 Clear 12 1016 61 0 3.07 46 17:37 08.11.2019
4527 Clouds 20 1025 42 10000 6.2 80 17:19 08.11.2019
4528 Clouds 20 1025 42 10000 6.2 80 16:58 08.11.2019
4529 Clouds 20 1025 42 10000 6.2 80 16:58 08.11.2019
4530 Clouds 20 1025 42 10000 6.2 80 16:39 08.11.2019
4531 Clouds 20 1025 42 10000 6.2 80 16:19 08.11.2019
4532 Clouds 20 1025 42 10000 6.2 80 16:19 08.11.2019
4533 Clear 15 1013 55 0 4.06 90 15:57 08.11.2019
4534 Clear 15 1013 55 0 4.06 90 15:38 08.11.2019
4535 Clear 15 1013 55 0 4.06 90 15:20 08.11.2019
4536 Clear 15 1013 55 0 4.06 90 14:55 08.11.2019
4537 Clear 15 1013 55 0 4.06 90 14:36 08.11.2019
4538 Clear 15 1013 55 0 4.06 90 14:36 08.11.2019
4539 Clouds 23 1024 38 10000 4.1 110 14:18 08.11.2019
4540 Clouds 23 1024 38 10000 4.1 110 13:55 08.11.2019
4541 Clouds 23 1024 38 10000 4.1 110 13:36 08.11.2019
4542 Clouds 23 1024 38 10000 4.1 110 13:18 08.11.2019
4543 Clouds 21 1011 40 0 5.32 104 12:42 08.11.2019
4544 Clouds 21 1011 40 0 5.32 104 12:24 08.11.2019
4545 Clouds 21 1011 40 0 5.32 104 11:56 08.11.2019
4546 Clouds 21 1011 40 0 5.32 104 11:37 08.11.2019
4547 Clouds 21 1015 41 0 4.25 106 11:19 08.11.2019
4548 Clouds 21 1015 41 0 4.25 106 11:19 08.11.2019
4549 Clouds 21 1015 41 0 4.25 106 10:43 08.11.2019
4550 Clouds 21 1015 41 0 4.25 106 10:23 08.11.2019
4551 Clouds 21 1015 41 0 4.25 106 09:59 08.11.2019
4552 Clouds 21 1015 41 0 4.25 106 09:41 08.11.2019
4553 Clouds 21 1015 41 0 4.25 106 09:20 08.11.2019
4554 Clouds 21 1015 41 0 4.25 106 08:54 08.11.2019
4555 Clouds 21 1015 41 0 4.25 106 08:36 08.11.2019
4556 Clouds 16 1029 59 10000 2.1 90 08:18 08.11.2019
4557 Clouds 16 1029 59 10000 2.1 90 07:39 08.11.2019
4558 Clouds 16 1029 59 10000 2.1 90 07:20 08.11.2019
4559 Clouds 15 1028 54 10000 1 320 06:40 08.11.2019
4560 Clouds 15 1028 54 10000 1 320 06:20 08.11.2019
4561 Clouds 16 1018 50 0 3.27 95 05:40 08.11.2019
4562 Clouds 13 1027 62 10000 1 340 05:19 08.11.2019
4563 Clouds 9 1018 63 0 1.59 18 03:44 08.11.2019
4564 Clouds 13 1026 62 10000 1.5 120 03:21 08.11.2019
4565 Clouds 13 1026 62 10000 1.5 120 02:41 08.11.2019
4566 Clouds 13 1026 58 10000 2.6 150 01:46 08.11.2019
4567 Clouds 13 1026 58 10000 2.6 150 01:18 08.11.2019
4568 Clouds 15 1026 51 10000 3.1 110 00:24 08.11.2019
4569 Clouds 16 1026 41 10000 2.1 110 23:57 07.11.2019
4570 Clouds 16 1026 41 10000 2.1 110 23:39 07.11.2019
4571 Clouds 16 1026 41 10000 2.1 110 23:20 07.11.2019
4572 Clear 11 1017 58 0 1.76 0 22:42 07.11.2019
4573 Clear 11 1017 58 0 1.76 0 22:21 07.11.2019
4574 Clear 11 1017 58 0 1.76 0 21:56 07.11.2019
4575 Clear 11 1017 58 0 1.76 0 21:37 07.11.2019
4576 Clear 11 1017 58 0 1.76 0 21:18 07.11.2019
4577 Clear 11 1017 58 0 1.76 0 20:55 07.11.2019
4578 Clear 11 1017 58 0 1.76 0 20:37 07.11.2019
4579 Clear 11 1017 58 0 1.76 0 20:37 07.11.2019
4580 Clear 12 1016 54 0 3.22 23 20:18 07.11.2019
4581 Clear 12 1016 54 0 3.22 23 19:41 07.11.2019
4582 Clear 12 1016 54 0 3.22 23 19:23 07.11.2019
4583 Clear 12 1016 54 0 3.22 23 18:58 07.11.2019
4584 Clear 12 1016 54 0 3.22 23 18:39 07.11.2019
4585 Clouds 18 1025 48 10000 3.1 100 18:19 07.11.2019
4586 Clouds 18 1025 48 10000 3.1 100 17:59 07.11.2019
4587 Clouds 18 1025 48 10000 3.1 100 17:39 07.11.2019
4588 Clouds 18 1025 48 10000 3.1 100 17:20 07.11.2019
4589 Clear 15 1013 50 0 4.65 90 16:56 07.11.2019
4590 Clear 15 1013 50 0 4.65 90 16:38 07.11.2019
4591 Clouds 21 1024 43 10000 7.2 90 16:19 07.11.2019
4592 Clouds 21 1024 43 10000 7.2 90 15:54 07.11.2019
4593 Clouds 21 1024 43 10000 7.2 90 15:36 07.11.2019
4594 Clouds 21 1024 43 10000 7.2 90 15:18 07.11.2019
4595 Clear 15 1013 50 0 4.65 90 14:41 07.11.2019
4596 Clouds 23 1024 43 10000 6.2 90 14:23 07.11.2019
4597 Clouds 23 1024 43 10000 6.2 90 13:56 07.11.2019
4598 Clouds 23 1024 43 10000 6.2 90 13:37 07.11.2019
4599 Clouds 23 1024 43 10000 6.2 90 13:19 07.11.2019
4600 Clear 20 1010 44 0 6.75 97 12:57 07.11.2019
4601 Clear 20 1010 44 0 6.75 97 12:39 07.11.2019
4602 Clouds 23 1026 35 10000 5.7 80 12:20 07.11.2019
4603 Clouds 23 1026 35 10000 5.7 80 11:43 07.11.2019
4604 Clouds 23 1026 35 10000 5.7 80 11:23 07.11.2019
4605 Clouds 22 1027 40 10000 5.1 100 10:57 07.11.2019
4606 Clouds 22 1027 40 10000 5.1 100 10:55 07.11.2019
4607 Clouds 22 1027 40 10000 5.1 100 10:37 07.11.2019
4608 Clouds 22 1027 40 10000 5.1 100 10:18 07.11.2019
4609 Clouds 21 1028 40 10000 6.2 100 09:42 07.11.2019
4610 Clouds 21 1028 40 10000 6.2 100 09:21 07.11.2019
4611 Clouds 19 1028 52 10000 5.1 110 08:48 07.11.2019
4612 -273 0 0 0 0 0 08:45 07.11.2019
4613 Clouds 19 1028 52 10000 5.1 110 08:44 07.11.2019
4614 Clouds 19 1028 52 10000 5.1 110 08:44 07.11.2019
4615 Clouds 19 1028 52 10000 5.1 110 08:23 07.11.2019
4616 Clouds 19 1028 52 10000 5.1 110 08:23 07.11.2019
4617 Clear 16 1018 58 0 3.43 91 07:57 07.11.2019
4618 Clear 16 1018 58 0 3.43 91 07:39 07.11.2019
4619 Clouds 16 1028 63 10000 2.6 100 07:20 07.11.2019
4620 Clouds 16 1028 63 10000 2.6 100 06:46 07.11.2019
4621 Clouds 16 1028 63 10000 2.6 100 06:25 07.11.2019
4622 Clouds 12 1027 66 10000 3.6 60 05:51 07.11.2019
4623 Clouds 12 1027 66 10000 3.6 60 05:51 07.11.2019
4624 Clouds 12 1027 66 10000 3.6 60 05:32 07.11.2019
4625 Clouds 12 1027 66 10000 3.6 60 05:32 07.11.2019
4626 Clouds 11 1027 71 10000 1.5 50 04:52 07.11.2019
4627 Clouds 11 1027 71 10000 1.5 50 04:52 07.11.2019
4628 Clouds 11 1027 71 10000 1.5 50 04:52 07.11.2019
4629 Clouds 11 1027 71 10000 1.5 50 04:29 07.11.2019
4630 Clouds 13 1025 62 10000 3.1 70 01:30 07.11.2019
4631 Clouds 13 1025 62 10000 3.1 70 01:29 07.11.2019
4632 Clouds 13 1025 62 10000 4.1 70 00:41 07.11.2019
4633 Clouds 13 1025 62 10000 4.1 70 00:18 07.11.2019
4634 Clouds 14 1025 62 10000 4.1 80 23:43 06.11.2019
4635 Clouds 14 1025 62 10000 4.1 80 23:20 06.11.2019
4636 Clouds 11 1016 72 0 2.16 13 22:41 06.11.2019
4637 Clouds 11 1016 72 0 2.16 13 22:21 06.11.2019
4638 Clouds 11 1016 72 0 2.16 13 21:58 06.11.2019
4639 Clouds 11 1016 72 0 2.16 13 21:39 06.11.2019
4640 Clouds 11 1016 72 0 2.16 13 21:20 06.11.2019
4641 Clouds 11 1016 72 0 2.16 13 21:20 06.11.2019
4642 Clouds 11 1016 72 0 2.16 13 20:58 06.11.2019
4643 Clouds 11 1016 72 0 2.16 13 20:39 06.11.2019
4644 Clouds 15 1027 51 10000 4.1 70 20:20 06.11.2019
4645 Clouds 15 1027 51 10000 4.1 70 19:58 06.11.2019
4646 Clouds 15 1027 51 10000 4.1 70 19:37 06.11.2019
4647 Clouds 15 1027 51 10000 4.1 70 19:19 06.11.2019
4648 Clouds 11 1016 66 0 3.52 32 18:56 06.11.2019
4649 Clouds 11 1016 66 0 3.52 32 18:38 06.11.2019
4650 Clouds 11 1016 66 0 3.52 32 18:18 06.11.2019
4651 Clouds 11 1016 66 0 3.52 32 17:42 06.11.2019
4652 Clouds 11 1016 66 0 3.52 32 17:42 06.11.2019
4653 Clouds 11 1016 66 0 3.52 32 17:24 06.11.2019
4654 Clear 14 1012 55 0 5.17 86 16:58 06.11.2019
4655 Clear 14 1012 55 0 5.17 86 16:39 06.11.2019
4656 Clear 14 1012 55 0 5.17 86 16:21 06.11.2019
4657 Clear 14 1012 55 0 5.17 86 15:58 06.11.2019
4658 Clear 14 1012 55 0 5.17 86 15:38 06.11.2019
4659 Clear 14 1012 55 0 5.17 86 15:19 06.11.2019
4660 Clear 14 1012 55 0 5.17 86 14:59 06.11.2019
4661 Clear 14 1012 55 0 5.17 86 14:41 06.11.2019
4662 Clear 22 1024 30 10000 7.48 89 14:22 06.11.2019
4663 Clear 22 1024 30 10000 7.48 89 13:59 06.11.2019
4664 Clouds 22 1024 30 10000 7.44 90 13:38 06.11.2019
4665 Clouds 22 1024 30 10000 7.44 90 13:19 06.11.2019
4666 Clouds 20 1010 41 0 7.44 90 12:55 06.11.2019
4667 Clouds 20 1010 41 0 7.44 90 12:37 06.11.2019
4668 Clouds 21 1024 40 10000 7.2 120 12:18 06.11.2019
4669 Clouds 21 1024 40 10000 7.2 120 12:18 06.11.2019
4670 Clouds 21 1024 40 10000 7.2 120 11:57 06.11.2019
4671 Clouds 21 1024 40 10000 7.2 120 11:36 06.11.2019
4672 Clear 21 1024 40 10000 7.2 120 11:18 06.11.2019
4673 Clear 21 1026 40 10000 6.2 90 10:55 06.11.2019
4674 Clear 21 1026 40 10000 6.2 90 10:37 06.11.2019
4675 Clear 21 1027 43 10000 6.2 100 10:18 06.11.2019
4676 Clear 21 1027 43 10000 6.2 100 09:41 06.11.2019
4677 Clear 21 1027 43 10000 6.2 100 09:21 06.11.2019
4678 Clear 20 1014 46 0 6.39 99 08:56 06.11.2019
4679 Clear 20 1014 46 0 6.39 99 08:38 06.11.2019
4680 Clouds 17 1027 59 10000 3.1 100 08:19 06.11.2019
4681 Clouds 17 1027 59 10000 3.1 100 07:47 06.11.2019
4682 Clouds 17 1027 59 10000 3.1 100 07:29 06.11.2019
4683 Clouds 15 1027 62 10000 3.1 130 06:54 06.11.2019
4684 Clouds 15 1027 62 10000 3.1 130 06:36 06.11.2019
4685 Clouds 16 1017 61 0 3.37 94 05:58 06.11.2019
4686 Clouds 12 1025 71 10000 3.1 70 03:52 06.11.2019
4687 Clouds 11 1025 76 10000 4.1 100 02:18 06.11.2019
4688 Clouds 12 1025 66 10000 3.1 130 00:51 06.11.2019
4689 Clouds 12 1025 66 10000 3.1 130 00:26 06.11.2019
4690 Clouds 15 1025 54 10000 4.1 50 23:56 05.11.2019
4691 Clouds 15 1025 54 10000 4.1 50 23:37 05.11.2019
4692 Clouds 15 1025 54 10000 4.1 50 23:37 05.11.2019
4693 Clouds 15 1025 54 10000 4.1 50 23:18 05.11.2019
4694 Clouds 15 1025 54 10000 4.1 50 23:18 05.11.2019
4695 Clouds 15 1026 54 10000 5.1 40 22:41 05.11.2019
4696 Clouds 15 1026 54 10000 5.1 40 22:19 05.11.2019
4697 Clouds 16 1027 51 10000 6.2 50 21:57 05.11.2019
4698 Clouds 16 1027 51 10000 6.2 50 21:39 05.11.2019
4699 Clouds 16 1027 51 10000 6.2 50 21:19 05.11.2019
4700 Clouds 16 1027 55 10000 6.2 60 20:56 05.11.2019
4701 Clouds 16 1027 55 10000 6.2 60 20:38 05.11.2019
4702 Clouds 16 1027 55 10000 6.2 60 20:19 05.11.2019
4703 Clouds 16 1027 55 10000 6.2 60 19:42 05.11.2019
4704 Clouds 16 1027 55 10000 6.2 60 19:23 05.11.2019
4705 Clouds 16 1026 55 10000 6.2 60 18:59 05.11.2019
4706 Clouds 16 1026 55 10000 6.2 60 18:40 05.11.2019
4707 Clouds 16 1026 55 10000 6.2 60 18:22 05.11.2019
4708 Clouds 12 1016 63 0 3.96 49 17:59 05.11.2019
4709 Clouds 12 1016 63 0 3.96 49 17:39 05.11.2019
4710 Clouds 19 1024 45 10000 6.2 80 17:21 05.11.2019
4711 Clouds 19 1024 45 10000 6.2 80 16:58 05.11.2019
4712 Clouds 19 1024 45 10000 6.2 80 16:40 05.11.2019
4713 Clouds 19 1024 45 10000 6.2 80 16:20 05.11.2019
4714 Clouds 20 1024 40 10000 6.2 90 15:39 05.11.2019
4715 Clouds 20 1024 40 10000 6.2 90 15:20 05.11.2019
4716 Clouds 20 1024 40 10000 6.2 90 15:20 05.11.2019
4717 Clouds 22 1023 37 0 6.7 100 14:59 05.11.2019
4718 Clouds 22 1023 37 0 6.7 100 14:40 05.11.2019
4719 Clouds 22 1023 37 0 6.7 100 14:22 05.11.2019
4720 Clouds 22 1024 35 10000 7.2 100 13:58 05.11.2019
4721 Clouds 22 1024 35 10000 7.2 100 13:40 05.11.2019
4722 Clouds 22 1024 35 10000 7.2 100 13:22 05.11.2019
4723 Clouds 22 1024 35 10000 8.2 100 12:40 05.11.2019
4724 Clouds 22 1024 35 10000 8.2 100 12:21 05.11.2019
4725 Clouds 23 1025 33 10000 8.7 110 11:56 05.11.2019
4726 Clouds 23 1025 33 10000 8.7 110 11:38 05.11.2019
4727 Clouds 23 1025 33 10000 8.7 110 11:19 05.11.2019
4728 Clouds 19 1015 46 0 7.7 92 10:48 05.11.2019
4729 Clouds 19 1015 46 0 7.7 92 10:27 05.11.2019
4730 Clouds 19 1015 46 0 7.7 92 10:27 05.11.2019
4731 Clouds 19 1015 46 0 7.7 92 09:59 05.11.2019
4732 Clouds 19 1015 46 0 7.7 92 09:41 05.11.2019
4733 Clouds 19 1028 48 10000 6.7 90 09:21 05.11.2019
4734 Clouds 19 1028 48 10000 6.7 90 08:57 05.11.2019
4735 Clouds 19 1028 48 10000 6.7 90 08:37 05.11.2019
4736 Clouds 19 1028 48 10000 6.7 90 08:19 05.11.2019
4737 Clouds 16 1018 62 0 3.54 86 07:45 05.11.2019
4738 Clouds 16 1028 63 10000 2.1 70 07:26 05.11.2019
4739 Clouds 16 1028 63 10000 2.1 70 06:52 05.11.2019
4740 Clouds 16 1028 63 10000 2.1 70 06:33 05.11.2019
4741 Clouds 16 1018 62 0 3.54 86 05:49 05.11.2019
4742 Clouds 12 1027 76 10000 3.1 70 05:21 05.11.2019
4743 Clouds 12 1027 76 10000 3.1 70 04:22 05.11.2019
4744 Clouds 13 1026 71 10000 2.1 40 03:31 05.11.2019
4745 Clouds 13 1026 71 10000 3.1 80 02:43 05.11.2019
4746 Clouds 14 1026 67 10000 4.1 60 01:55 05.11.2019
4747 Clouds 14 1026 62 10000 4.1 60 00:46 05.11.2019
4748 Clouds 14 1026 62 10000 4.1 60 00:26 05.11.2019
4749 Clouds 14 1027 62 10000 5.1 50 23:42 04.11.2019
4750 Clouds 14 1027 62 10000 5.1 50 23:19 04.11.2019
4751 Clouds 14 1028 67 10000 3.1 110 22:57 04.11.2019
4752 Clouds 14 1028 67 10000 3.1 110 22:39 04.11.2019
4753 Clouds 14 1028 67 10000 3.1 110 22:20 04.11.2019
4754 Clouds 14 1028 67 10000 3.1 110 22:20 04.11.2019
4755 Clouds 14 1028 67 10000 5.1 60 21:55 04.11.2019
4756 Clouds 14 1028 67 10000 5.1 60 21:37 04.11.2019
4757 Clouds 14 1028 67 10000 5.1 60 21:18 04.11.2019
4758 Clouds 10 1019 81 0 1.94 22 20:55 04.11.2019
4759 Clouds 10 1019 81 0 1.94 22 20:37 04.11.2019
4760 Clear 10 1019 79 0 2.57 34 20:19 04.11.2019
4761 Clear 10 1019 79 0 2.57 34 19:56 04.11.2019
4762 Clear 10 1019 79 0 2.57 34 19:38 04.11.2019
4763 Clear 10 1019 79 0 2.57 34 19:20 04.11.2019
4764 Clear 10 1019 79 0 2.57 34 18:42 04.11.2019
4765 Clear 10 1019 79 0 2.57 34 18:23 04.11.2019
4766 Clear 10 1019 79 0 2.57 34 17:59 04.11.2019
4767 Clear 10 1019 79 0 2.57 34 17:37 04.11.2019
4768 Clouds 18 1026 48 10000 8.2 90 17:19 04.11.2019
4769 Clouds 18 1026 48 10000 8.2 90 16:44 04.11.2019
4770 Clouds 18 1026 48 10000 8.2 90 16:25 04.11.2019
4771 Clear 14 1015 64 0 5.51 89 15:59 04.11.2019
4772 Clear 14 1015 64 0 5.51 89 15:41 04.11.2019
4773 Clouds 21 1025 37 10000 9.3 110 15:21 04.11.2019
4774 Clouds 21 1025 37 10000 9.3 110 14:58 04.11.2019
4775 Clouds 21 1025 37 10000 9.3 110 14:58 04.11.2019
4776 Clouds 21 1025 37 10000 9.3 110 14:40 04.11.2019
4777 Clouds 21 1025 37 10000 9.3 110 14:20 04.11.2019
4778 Clouds 19 1013 50 0 7.87 92 13:58 04.11.2019
4779 Clouds 19 1013 50 0 7.87 92 13:40 04.11.2019
4780 Clouds 19 1014 49 0 7.63 93 13:21 04.11.2019
4781 Clouds 19 1014 49 0 7.63 93 12:56 04.11.2019
4782 Clouds 19 1014 49 0 7.63 93 12:38 04.11.2019
4783 Clouds 19 1014 49 0 7.63 93 12:18 04.11.2019
4784 Clouds 19 1014 49 0 7.63 93 11:42 04.11.2019
4785 Clouds 19 1017 50 0 7.66 91 11:23 04.11.2019
4786 Clouds 19 1017 50 0 7.66 91 10:58 04.11.2019
4787 Clouds 19 1017 50 0 7.66 91 10:58 04.11.2019
4788 Clouds 19 1017 50 0 7.66 91 10:39 04.11.2019
4789 Clouds 19 1017 50 0 7.66 91 10:20 04.11.2019
4790 Clouds 19 1017 50 0 7.66 91 09:45 04.11.2019
4791 Clouds 19 1017 50 0 7.66 91 09:45 04.11.2019
4792 Clouds 19 1017 50 0 7.66 91 09:27 04.11.2019
4793 Clouds 19 1017 50 0 7.66 91 08:57 04.11.2019
4794 Clouds 19 1017 50 0 7.66 91 08:37 04.11.2019
4795 Clouds 16 1020 59 0 4.63 78 08:18 04.11.2019
4796 Clouds 16 1020 59 0 4.63 78 07:42 04.11.2019
4797 Clouds 16 1020 59 0 4.63 78 07:21 04.11.2019
4798 Clouds 16 1020 59 0 4.63 78 06:49 04.11.2019
4799 Clouds 16 1020 59 0 4.63 78 06:49 04.11.2019
4800 Clouds 16 1020 59 0 4.63 78 06:49 04.11.2019
4801 Clouds 16 1020 59 0 4.63 78 06:18 04.11.2019
4802 Clouds 16 1020 59 0 4.63 78 05:38 04.11.2019
4803 Clouds 9 1020 86 0 2.63 19 04:43 04.11.2019
4804 Clouds 9 1020 86 0 2.63 19 04:21 04.11.2019
4805 Clouds 9 1018 83 0 2.25 19 01:46 04.11.2019
4806 Clouds 9 1018 83 0 2.29 12 01:20 04.11.2019
4807 Clouds 9 1018 83 0 2.29 12 00:39 04.11.2019
4808 Clouds 9 1018 83 0 2.29 12 00:19 04.11.2019
4809 Clouds 9 1018 83 0 2.29 12 23:40 03.11.2019
4810 Clouds 10 1018 68 0 2.75 24 23:21 03.11.2019
4811 Clouds 10 1018 68 0 2.75 24 22:57 03.11.2019
4812 Clouds 10 1018 68 0 2.75 24 22:39 03.11.2019
4813 Clouds 10 1018 68 0 2.75 24 22:19 03.11.2019
4814 Clouds 10 1018 68 0 2.75 24 21:44 03.11.2019
4815 Clouds 10 1018 68 0 2.75 24 21:22 03.11.2019
4816 Clouds 10 1018 68 0 2.75 24 20:59 03.11.2019
4817 Clouds 10 1018 68 0 2.75 24 20:38 03.11.2019
4818 Clouds 11 1018 60 0 3.52 24 20:20 03.11.2019
4819 Clouds 11 1018 60 0 3.52 24 19:58 03.11.2019
4820 Clouds 11 1018 60 0 3.52 24 19:58 03.11.2019
4821 Clouds 11 1018 60 0 3.52 24 19:39 03.11.2019
4822 Clouds 11 1018 60 0 3.52 24 19:21 03.11.2019
4823 Clouds 11 1018 60 0 3.52 24 18:58 03.11.2019
4824 Clouds 11 1018 60 0 3.52 24 18:38 03.11.2019
4825 Clouds 11 1018 60 0 3.52 24 18:18 03.11.2019
4826 Clouds 11 1018 60 0 3.52 24 17:55 03.11.2019
4827 Clouds 11 1018 60 0 3.52 24 17:37 03.11.2019
4828 Clear 13 1016 55 0 3.78 85 17:18 03.11.2019
4829 Clear 13 1016 55 0 3.78 85 16:42 03.11.2019
4830 Clear 13 1016 55 0 3.78 85 16:22 03.11.2019
4831 Clear 13 1016 55 0 3.78 85 15:59 03.11.2019
4832 Clear 13 1016 55 0 3.78 85 15:41 03.11.2019
4833 Clear 13 1016 55 0 3.78 85 15:23 03.11.2019
4834 Clear 13 1016 55 0 3.78 85 14:56 03.11.2019
4835 Clear 13 1016 55 0 3.78 85 14:37 03.11.2019
4836 Clear 13 1016 55 0 3.78 85 14:37 03.11.2019
4837 Clouds 19 1013 42 0 7.25 90 14:18 03.11.2019
4838 Clouds 19 1013 42 0 7.25 90 13:42 03.11.2019
4839 Clouds 19 1013 42 0 7.25 90 13:20 03.11.2019
4840 Clouds 19 1013 40 0 7.17 88 12:58 03.11.2019
4841 Clouds 19 1013 40 0 7.17 88 12:37 03.11.2019
4842 Clouds 19 1013 40 0 7.17 88 12:18 03.11.2019
4843 Clouds 19 1013 40 0 7.17 88 11:42 03.11.2019
4844 Clear 19 1016 41 0 8.25 89 11:22 03.11.2019
4845 Clear 19 1016 41 0 8.25 89 10:58 03.11.2019
4846 Clear 19 1016 41 0 8.25 89 10:39 03.11.2019
4847 Clear 19 1016 41 0 8.25 89 10:21 03.11.2019
4848 Clear 19 1016 41 0 8.25 89 09:44 03.11.2019
4849 Clear 19 1016 41 0 8.25 89 09:25 03.11.2019
4850 Clear 19 1016 41 0 8.25 89 08:57 03.11.2019
4851 Clear 19 1016 41 0 8.25 89 08:38 03.11.2019
4852 Clouds 16 1018 44 0 5.47 72 08:19 03.11.2019
4853 Clouds 16 1018 44 0 5.47 72 07:45 03.11.2019
4854 Clouds 16 1018 44 0 5.47 72 07:22 03.11.2019
4855 Clouds 16 1018 44 0 5.47 72 06:46 03.11.2019
4856 Clouds 16 1018 44 0 5.47 72 06:28 03.11.2019
4857 Clouds 16 1018 44 0 5.47 72 05:38 03.11.2019
4858 Clouds 10 1026 71 10000 1.5 70 04:56 03.11.2019
4859 Clouds 10 1026 71 10000 1.5 70 04:28 03.11.2019
4860 Clouds 11 1026 71 10000 1 40 03:28 03.11.2019
4861 Clouds 11 1026 66 10000 2.1 70 02:30 03.11.2019
4862 Clouds 12 1026 62 10000 1.5 220 01:57 03.11.2019
4863 Clouds 12 1026 62 10000 1.5 220 01:37 03.11.2019
4864 Clouds 12 1026 62 10000 1.5 220 01:19 03.11.2019
4865 Clouds 12 1026 66 10000 1 20 00:41 03.11.2019
4866 Clouds 12 1026 66 10000 1 20 00:22 03.11.2019
4867 Clouds 12 1026 66 10000 1 20 23:57 02.11.2019
4868 Clouds 9 1017 50 0 2.6 5 23:37 02.11.2019
4869 Clear 10 1017 48 0 3.01 359 23:18 02.11.2019
4870 Clear 10 1017 48 0 3.01 359 22:55 02.11.2019
4871 Clear 10 1017 48 0 3.01 359 22:37 02.11.2019
4872 Clear 10 1017 48 0 3.01 359 22:37 02.11.2019
4873 Clouds 16 1027 48 10000 3.1 340 22:18 02.11.2019
4874 Clouds 16 1027 48 10000 3.1 340 22:18 02.11.2019
4875 Clouds 16 1027 48 10000 3.1 340 21:55 02.11.2019
4876 Clouds 16 1027 48 10000 3.1 340 21:55 02.11.2019
4877 Clouds 16 1027 48 10000 3.1 340 21:37 02.11.2019
4878 Clouds 16 1027 48 10000 3.1 340 21:18 02.11.2019
4879 Clouds 16 1027 48 10000 3.1 340 20:56 02.11.2019
4880 Clear 10 1017 48 0 3.01 359 20:38 02.11.2019
4881 Clouds 16 1027 48 10000 3.1 50 20:19 02.11.2019
4882 Clouds 16 1027 48 10000 3.1 50 19:40 02.11.2019
4883 Clouds 16 1027 48 10000 3.1 50 19:21 02.11.2019
4884 Clear 17 1026 45 0 5.1 70 18:56 02.11.2019
4885 Clear 17 1026 45 0 5.1 70 18:56 02.11.2019
4886 Clear 17 1026 45 0 5.1 70 18:37 02.11.2019
4887 Clear 17 1026 45 0 5.1 70 18:19 02.11.2019
4888 Clear 11 1016 55 0 3.15 12 17:56 02.11.2019
4889 Clear 11 1016 55 0 3.15 12 17:37 02.11.2019
4890 Clear 20 1024 40 0 6.2 100 17:19 02.11.2019
4891 Clear 20 1024 40 0 6.2 100 16:56 02.11.2019
4892 Clear 20 1024 40 0 6.2 100 16:36 02.11.2019
4893 Clear 20 1024 40 0 6.2 100 16:18 02.11.2019
4894 Clouds 22 1024 35 10000 7.2 100 15:41 02.11.2019
4895 Clouds 22 1024 35 10000 7.2 100 15:19 02.11.2019
4896 Clouds 23 1023 33 10000 7.2 100 14:42 02.11.2019
4897 Clouds 23 1023 33 10000 7.2 100 14:23 02.11.2019
4898 Clouds 24 1023 33 10000 7.2 90 13:57 02.11.2019
4899 Clouds 24 1023 33 10000 7.2 90 13:38 02.11.2019
4900 Clouds 24 1023 33 10000 7.2 90 13:18 02.11.2019
4901 Clouds 23 1023 33 10000 6.2 120 12:41 02.11.2019
4902 Clouds 23 1023 33 10000 6.2 120 12:22 02.11.2019
4903 Clouds 20 1011 36 0 6.81 96 11:57 02.11.2019
4904 Clouds 20 1011 36 0 6.81 96 11:39 02.11.2019
4905 Clouds 22 1025 37 10000 3.6 100 11:20 02.11.2019
4906 Clouds 22 1025 37 10000 3.6 100 10:46 02.11.2019
4907 Clouds 22 1025 37 10000 3.6 100 10:27 02.11.2019
4908 Clouds 21 1026 37 10000 4.1 70 09:57 02.11.2019
4909 Clouds 21 1026 37 10000 4.1 70 09:39 02.11.2019
4910 Clouds 21 1026 37 10000 4.1 70 09:19 02.11.2019
4911 Clouds 21 1027 37 10000 4.6 80 08:44 02.11.2019
4912 Clouds 21 1027 37 10000 4.6 80 08:21 02.11.2019
4913 Clouds 19 1027 39 10000 4.6 90 07:47 02.11.2019
4914 Clouds 19 1027 39 10000 4.6 90 07:28 02.11.2019
4915 Clouds 17 1027 48 10000 1.5 120 06:54 02.11.2019
4916 Clouds 17 1027 48 10000 1.5 120 06:29 02.11.2019
4917 Clouds 13 1026 62 10000 2.1 360 05:56 02.11.2019
4918 Clouds 12 1026 62 10000 1 330 04:53 02.11.2019
4919 Clouds 12 1026 62 10000 1 330 04:20 02.11.2019
4920 Clouds 13 1025 58 10000 1 310 03:46 02.11.2019
4921 Clouds 14 1025 50 10000 1 270 02:40 02.11.2019
4922 Clear 10 1015 56 0 2.64 10 01:42 02.11.2019
4923 Clouds 15 1025 47 10000 1.5 200 01:21 02.11.2019
4924 Clouds 15 1025 47 10000 1.5 200 00:43 02.11.2019
4925 Clouds 15 1025 47 10000 1.5 200 00:25 02.11.2019
4926 Clouds 16 1025 44 10000 5.1 40 23:46 01.11.2019
4927 Clouds 16 1025 44 10000 5.1 40 23:20 01.11.2019
4928 Clouds 16 1026 48 10000 4.6 50 22:57 01.11.2019
4929 Clouds 16 1026 48 10000 4.6 50 22:38 01.11.2019
4930 Clouds 16 1026 48 10000 4.6 50 22:20 01.11.2019
4931 Clouds 17 1026 45 10000 5.1 50 21:40 01.11.2019
4932 Clouds 17 1026 45 10000 5.1 50 21:22 01.11.2019
4933 Clouds 16 1026 44 10000 5.7 60 20:56 01.11.2019
4934 Clouds 16 1026 44 10000 5.7 60 20:38 01.11.2019
4935 Clouds 16 1026 44 10000 5.7 60 20:18 01.11.2019
4936 Clouds 16 1026 48 10000 3.1 50 19:42 01.11.2019
4937 Clouds 16 1026 48 10000 3.1 50 19:22 01.11.2019
4938 Clouds 16 1026 48 10000 3.1 50 19:22 01.11.2019
4939 Clouds 16 1026 48 10000 3.1 50 18:59 01.11.2019
4940 Clouds 12 1015 58 0 3.13 40 18:39 01.11.2019
4941 Clouds 18 1025 45 10000 3.1 80 18:19 01.11.2019
4942 Clouds 18 1025 45 10000 3.1 80 17:55 01.11.2019
4943 Clouds 18 1025 45 10000 3.1 80 17:36 01.11.2019
4944 Clouds 18 1025 45 10000 3.1 80 17:18 01.11.2019
4945 Clouds 21 1024 37 10000 4.1 90 16:37 01.11.2019
4946 Clouds 21 1024 37 10000 4.1 90 16:18 01.11.2019
4947 Clouds 22 1026 35 10000 5.1 140 15:41 01.11.2019
4948 Clouds 22 1026 35 10000 5.1 140 15:22 01.11.2019
4949 Clouds 22 1026 35 10000 5.1 140 14:58 01.11.2019
4950 Clouds 14 1012 55 0 3.39 99 14:40 01.11.2019
4951 Clouds 23 1024 33 10000 2.6 180 14:21 01.11.2019
4952 Clouds 23 1024 33 10000 2.6 180 13:56 01.11.2019
4953 Clouds 23 1024 33 10000 2.6 180 13:37 01.11.2019
4954 Clouds 23 1024 33 10000 2.6 180 13:18 01.11.2019
4955 Clouds 23 1024 33 10000 3.1 170 12:43 01.11.2019
4956 Clouds 23 1024 33 10000 3.1 170 12:24 01.11.2019
4957 Clouds 22 1024 35 10000 3.6 160 11:43 01.11.2019
4958 Clouds 22 1024 35 10000 3.6 160 11:43 01.11.2019
4959 Clouds 22 1024 35 10000 3.6 160 11:25 01.11.2019
4960 Clouds 22 1026 35 10000 2.1 180 10:58 01.11.2019
4961 Clouds 22 1026 35 10000 2.1 180 10:39 01.11.2019
4962 Clouds 22 1026 35 10000 2.1 180 10:20 01.11.2019
4963 Clouds 21 1026 35 10000 3.1 180 09:45 01.11.2019
4964 Clouds 21 1026 35 10000 3.1 180 09:26 01.11.2019
4965 Clouds 20 1027 37 10000 2.1 160 08:58 01.11.2019
4966 Clouds 20 1027 37 10000 2.1 160 08:40 01.11.2019
4967 Clouds 20 1027 37 10000 2.1 160 08:21 01.11.2019
4968 Clouds 17 1028 42 10000 2.6 110 07:52 01.11.2019
4969 Clouds 17 1028 42 10000 2.6 110 07:25 01.11.2019
4970 Clouds 16 1028 48 10000 1 340 06:56 01.11.2019
4971 Clouds 16 1028 48 10000 1 340 06:37 01.11.2019
4972 Clouds 16 1028 48 10000 1 340 06:18 01.11.2019
4973 Clear 16 1017 42 0 2.77 83 05:41 01.11.2019
4974 Clouds 12 1026 66 10000 1 310 03:33 01.11.2019
4975 Clouds 13 1025 58 10000 1 290 01:51 01.11.2019
4976 Clouds 13 1025 58 10000 1 290 01:26 01.11.2019
4977 Clouds 15 1025 47 10000 2.1 360 00:21 01.11.2019
4978 Clouds 15 1026 51 10000 3.1 40 23:55 31.10.2019
4979 Clouds 15 1026 51 10000 3.1 40 23:36 31.10.2019
4980 Clouds 16 1026 48 10000 4.1 50 23:18 31.10.2019
4981 Clouds 16 1026 48 10000 4.1 50 22:42 31.10.2019
4982 Clouds 16 1026 48 10000 4.1 50 22:23 31.10.2019
4983 Clouds 16 1026 48 10000 3.1 50 21:56 31.10.2019
4984 Clouds 16 1026 48 10000 4.1 50 21:38 31.10.2019
4985 Clouds 16 1026 48 10000 4.1 50 21:18 31.10.2019
4986 Clouds 16 1026 48 10000 4.1 50 21:18 31.10.2019
4987 Clouds 16 1027 48 10000 3.1 50 20:41 31.10.2019
4988 Clouds 16 1027 48 10000 3.1 50 20:41 31.10.2019
4989 Clouds 16 1027 48 10000 3.1 50 20:41 31.10.2019
4990 Clouds 16 1027 48 10000 3.1 50 20:22 31.10.2019
4991 Clouds 16 1027 51 10000 4.1 40 19:56 31.10.2019
4992 Clouds 16 1027 51 10000 4.1 40 19:38 31.10.2019
4993 Clouds 16 1027 51 10000 4.1 40 19:18 31.10.2019
4994 Clouds 11 1016 56 0 2.71 36 18:43 31.10.2019
4995 Clouds 18 1025 45 10000 4.1 80 18:25 31.10.2019
4996 Clouds 18 1025 45 10000 4.1 80 17:56 31.10.2019
4997 Clouds 18 1025 45 10000 4.1 80 17:37 31.10.2019
4998 Clouds 18 1025 45 10000 4.1 80 17:19 31.10.2019
4999 Clouds 20 1024 40 10000 5.1 100 16:41 31.10.2019
5000 Clouds 20 1024 40 10000 5.1 100 16:20 31.10.2019
5001 Clouds 14 1013 54 0 3.64 90 15:59 31.10.2019
5002 Clouds 14 1013 54 0 3.64 90 15:40 31.10.2019
5003 Clouds 23 1024 33 10000 4.1 150 15:20 31.10.2019
5004 Clouds 23 1024 33 10000 4.1 150 14:57 31.10.2019
5005 Clouds 23 1024 33 10000 4.1 150 14:39 31.10.2019
5006 Clouds 23 1024 33 10000 4.1 150 14:39 31.10.2019
5007 Clouds 23 1024 33 10000 4.1 150 14:21 31.10.2019
5008 Clear 26 1024 27 0 3.6 120 13:59 31.10.2019
5009 Clear 26 1024 27 0 3.6 120 13:59 31.10.2019
5010 Clear 26 1024 27 0 3.6 120 13:38 31.10.2019
5011 Clear 26 1024 27 0 3.6 120 13:19 31.10.2019
5012 Clear 24 1024 29 0 4.6 90 12:55 31.10.2019
5013 Clear 24 1024 29 0 4.6 90 12:55 31.10.2019
5014 Clear 24 1024 29 0 4.6 90 12:37 31.10.2019
5015 Clear 24 1024 29 0 4.6 90 12:18 31.10.2019
5016 Clear 23 1025 31 0 4.6 120 11:44 31.10.2019
5017 Clear 23 1025 31 0 4.6 120 11:20 31.10.2019
5018 Clear 20 1015 39 0 4.5 90 10:57 31.10.2019
5019 Clear 20 1015 39 0 4.5 90 10:38 31.10.2019
5020 Clear 20 1015 39 0 4.5 90 10:20 31.10.2019
5021 Clear 20 1015 39 0 4.5 90 09:44 31.10.2019
5022 Clear 20 1015 39 0 4.5 90 09:44 31.10.2019
5023 Clear 21 1028 35 0 4.1 70 09:19 31.10.2019
5024 Clear 21 1028 35 0 4.1 70 08:56 31.10.2019
5025 Clear 21 1028 35 0 4.1 70 08:38 31.10.2019
5026 Clouds 21 1028 35 0 4.1 70 08:19 31.10.2019
5027 Clouds 18 1028 39 0 4.6 90 07:43 31.10.2019
5028 Clouds 18 1028 39 0 4.6 90 07:24 31.10.2019
5029 Clouds 15 1028 51 0 2.1 130 06:39 31.10.2019
5030 Clouds 15 1028 51 0 2.1 130 06:20 31.10.2019
5031 Clouds 9 1018 52 0 2.47 2 05:18 31.10.2019
5032 Clouds 9 1018 52 0 2.47 2 02:47 31.10.2019
5033 Clear 12 1025 50 10000 2.1 270 02:22 31.10.2019
5034 Clear 12 1025 50 10000 2.1 270 02:22 31.10.2019
5035 Clear 9 1016 53 0 2.18 2 00:47 31.10.2019
5036 Clouds 12 1026 58 10000 2.1 50 00:24 31.10.2019
5037 Clouds 12 1026 58 10000 2.1 50 23:34 30.10.2019
5038 Clouds 12 1027 58 10000 3.1 80 22:59 30.10.2019
5039 Clouds 12 1027 58 10000 3.1 80 22:39 30.10.2019
5040 Clouds 12 1027 58 10000 3.1 80 22:19 30.10.2019
5041 Clear 10 1017 50 0 3.28 22 21:54 30.10.2019
5042 Clear 10 1017 50 0 3.28 22 21:36 30.10.2019
5043 Clear 10 1017 50 0 3.28 22 21:18 30.10.2019
5044 Clear 10 1017 50 0 3.28 22 20:56 30.10.2019
5045 Clear 10 1017 50 0 3.28 22 20:56 30.10.2019
5046 Clear 11 1016 48 0 3.52 31 20:36 30.10.2019
5047 Clear 11 1016 48 0 3.52 31 20:36 30.10.2019
5048 Clouds 11 1017 51 0 3.71 35 20:18 30.10.2019
5049 Clouds 11 1017 51 0 3.71 35 19:40 30.10.2019
5050 Clouds 11 1017 51 0 3.71 35 19:22 30.10.2019
5051 Clouds 11 1017 51 0 3.71 35 18:59 30.10.2019
5052 Clouds 11 1017 51 0 3.71 35 18:38 30.10.2019
5053 Clouds 17 1025 42 10000 5.1 90 18:18 30.10.2019
5054 Clouds 17 1025 42 10000 5.1 90 17:55 30.10.2019
5055 Clouds 17 1025 42 10000 5.1 90 17:36 30.10.2019
5056 Clouds 17 1025 42 10000 5.1 90 17:18 30.10.2019
5057 Clouds 13 1013 49 0 4.87 86 16:42 30.10.2019
5058 Clouds 21 1023 35 10000 7.7 110 16:23 30.10.2019
5059 Clouds 13 1013 49 0 4.87 86 15:57 30.10.2019
5060 Clouds 22 1023 33 10000 6.2 110 15:38 30.10.2019
5061 Clouds 22 1023 33 10000 6.2 110 15:19 30.10.2019
5062 Clouds 22 1023 33 10000 6.2 110 14:56 30.10.2019
5063 Clouds 22 1023 33 10000 6.2 110 14:38 30.10.2019
5064 Clouds 22 1023 33 10000 6.2 110 14:20 30.10.2019
5065 Clouds 24 1023 29 10000 8.2 110 13:54 30.10.2019
5066 Clouds 24 1023 29 10000 8.2 110 13:36 30.10.2019
5067 Clouds 24 1023 29 10000 8.2 110 13:18 30.10.2019
5068 Clouds 19 1010 33 0 6.8 97 12:42 30.10.2019
5069 Clouds 24 1024 29 10000 8.2 110 12:23 30.10.2019
5070 Clouds 24 1024 29 10000 8.2 110 11:54 30.10.2019
5071 Clouds 24 1024 29 10000 8.2 110 11:36 30.10.2019
5072 Clouds 24 1024 29 10000 8.2 110 11:36 30.10.2019
5073 Clouds 24 1024 29 10000 8.2 110 11:18 30.10.2019
5074 Clouds 20 1014 35 0 5.99 91 10:41 30.10.2019
5075 Clouds 20 1014 35 0 5.99 91 10:23 30.10.2019
5076 Clouds 20 1014 35 0 5.99 91 09:42 30.10.2019
5077 Clouds 20 1014 35 0 5.99 91 09:22 30.10.2019
5078 Clouds 20 1014 35 0 5.99 91 08:57 30.10.2019
5079 Clouds 20 1014 35 0 5.99 91 08:39 30.10.2019
5080 Clear 16 1017 42 0 3.93 76 08:19 30.10.2019
5081 Clear 16 1017 42 0 3.93 76 07:43 30.10.2019
5082 Clear 16 1017 42 0 3.93 76 06:59 30.10.2019
5083 Clear 16 1017 42 0 3.93 76 06:41 30.10.2019
5084 Clouds 13 1027 54 10000 1.5 320 05:58 30.10.2019
5085 Clear 16 1017 42 0 3.93 76 05:40 30.10.2019
5086 Clouds 11 1026 62 10000 3.1 330 04:26 30.10.2019
5087 Clouds 11 1026 62 10000 3.1 330 04:26 30.10.2019
5088 Clouds 11 1026 62 10000 3.1 330 03:39 30.10.2019
5089 Clouds 11 1025 62 10000 2.1 330 02:49 30.10.2019
5090 Clouds 11 1025 62 10000 1.5 100 01:49 30.10.2019
5091 Clouds 12 1025 54 10000 2.1 80 00:43 30.10.2019
5092 Clouds 12 1025 54 10000 2.1 80 00:25 30.10.2019
5093 Clouds 9 1016 48 0 2.54 6 23:41 29.10.2019
5094 Clouds 10 1018 49 0 3.39 22 23:22 29.10.2019
5095 Clouds 10 1018 49 0 3.39 22 22:45 29.10.2019
5096 Clouds 16 1027 44 10000 4.1 40 22:20 29.10.2019
5097 Clouds 16 1027 44 10000 4.1 40 21:56 29.10.2019
5098 Clouds 16 1027 44 10000 4.1 40 21:38 29.10.2019
5099 Clouds 16 1027 44 10000 4.1 40 21:20 29.10.2019
5100 Clouds 10 1018 49 0 3.39 22 20:42 29.10.2019
5101 Clouds 15 1026 47 10000 2.1 100 20:23 29.10.2019
5102 Clouds 15 1026 47 10000 2.1 100 19:59 29.10.2019
5103 Clouds 11 1016 48 0 3.82 53 19:41 29.10.2019
5104 Clouds 11 1016 48 0 3.82 53 19:22 29.10.2019
5105 Clouds 11 1016 48 0 3.82 53 18:59 29.10.2019
5106 Clouds 11 1016 48 0 3.82 53 18:40 29.10.2019
5107 Clouds 18 1025 42 10000 3.1 80 18:21 29.10.2019
5108 Clouds 18 1025 42 10000 3.1 80 17:59 29.10.2019
5109 Clouds 18 1025 42 10000 3.1 80 17:40 29.10.2019
5110 Clouds 18 1025 42 10000 3.1 80 17:21 29.10.2019
5111 Clouds 20 1024 37 10000 6.2 110 16:58 29.10.2019
5112 Clouds 20 1024 37 10000 6.2 110 16:38 29.10.2019
5113 Clouds 20 1024 37 10000 6.2 110 16:18 29.10.2019
5114 Clouds 21 1023 35 10000 7.2 100 15:42 29.10.2019
5115 Clouds 21 1023 35 10000 7.2 100 15:22 29.10.2019
5116 Clouds 14 1013 47 0 4.84 87 14:59 29.10.2019
5117 Clouds 14 1013 47 0 4.84 87 14:41 29.10.2019
5118 Clouds 20 1010 40 0 6.31 94 14:23 29.10.2019
5119 Clouds 20 1010 40 0 6.31 94 13:57 29.10.2019
5120 Clouds 20 1010 40 0 6.31 94 13:38 29.10.2019
5121 Clouds 20 1010 38 0 6.48 95 13:20 29.10.2019
5122 Clouds 20 1010 38 0 6.48 95 12:43 29.10.2019
5123 Clouds 23 1024 33 10000 6.2 120 12:25 29.10.2019
5124 Clouds 23 1024 33 10000 6.2 120 11:55 29.10.2019
5125 Clouds 23 1024 33 10000 6.2 120 11:37 29.10.2019
5126 Clouds 23 1024 33 10000 6.2 120 11:18 29.10.2019
5127 Clouds 22 1025 33 10000 5.1 110 10:56 29.10.2019
5128 Clouds 22 1025 33 10000 5.1 110 10:38 29.10.2019
5129 Clouds 22 1025 33 10000 5.1 110 10:19 29.10.2019
5130 Clouds 21 1026 35 10000 4.1 110 09:41 29.10.2019
5131 Clouds 21 1026 35 10000 4.1 110 09:23 29.10.2019
5132 Clouds 20 1026 32 10000 5.1 100 08:56 29.10.2019
5133 Clouds 20 1026 32 10000 5.1 100 08:37 29.10.2019
5134 Clouds 20 1026 32 10000 5.1 100 08:18 29.10.2019
5135 Clouds 18 1027 36 10000 3.1 100 07:47 29.10.2019
5136 Clouds 18 1027 36 10000 3.1 100 07:20 29.10.2019
5137 Clouds 16 1026 44 10000 2.1 110 06:53 29.10.2019
5138 Clouds 16 1026 44 10000 2.1 110 06:29 29.10.2019
5139 Clouds 11 1026 71 10000 1 20 05:54 29.10.2019
5140 Clouds 16 1016 48 0 2.49 93 05:36 29.10.2019
5141 Clouds 9 1017 67 0 1.71 4 04:39 29.10.2019
5142 Clouds 11 1024 66 0 2.1 20 02:34 29.10.2019
5143 Clouds 11 1024 71 0 2.1 360 01:56 29.10.2019
5144 Clouds 12 1024 62 0 1 140 01:34 29.10.2019
5145 Clouds 10 1014 66 0 2.03 13 00:52 29.10.2019
5146 Clouds 15 1025 51 10000 2.6 20 23:59 28.10.2019
5147 Clouds 15 1025 51 10000 2.6 20 23:37 28.10.2019
5148 Clouds 15 1025 51 10000 2.6 20 23:19 28.10.2019
5149 Clouds 15 1025 51 10000 2.6 10 22:39 28.10.2019
5150 Clouds 15 1025 51 10000 2.6 10 22:20 28.10.2019
5151 Clouds 14 1025 54 10000 3.1 70 21:57 28.10.2019
5152 Clouds 14 1025 54 10000 3.1 70 21:39 28.10.2019
5153 Clouds 14 1025 54 10000 3.1 70 21:21 28.10.2019
5154 Clouds 16 1026 48 10000 4.1 90 20:57 28.10.2019
5155 Clouds 16 1026 48 10000 4.1 90 20:39 28.10.2019
5156 Clouds 16 1026 48 10000 4.1 90 20:20 28.10.2019
5157 Clouds 16 1026 48 10000 4.1 90 20:20 28.10.2019
5158 Clouds 12 1014 59 0 3.16 36 19:54 28.10.2019
5159 Clouds 12 1014 59 0 3.16 36 19:36 28.10.2019
5160 Clouds 12 1014 59 0 3.16 36 19:18 28.10.2019
5161 Clouds 12 1014 59 0 3.16 36 18:55 28.10.2019
5162 Clouds 12 1014 59 0 3.16 36 18:37 28.10.2019
5163 Clouds 17 1023 48 10000 3.1 70 18:18 28.10.2019
5164 Clouds 17 1023 48 10000 3.1 70 17:55 28.10.2019
5165 Clouds 17 1023 48 10000 3.1 70 17:36 28.10.2019
5166 Clouds 17 1023 48 10000 3.1 70 17:18 28.10.2019
5167 Clouds 14 1011 58 0 4.76 90 16:44 28.10.2019
5168 Clouds 22 1022 35 10000 5.1 150 16:24 28.10.2019
5169 Clouds 22 1022 35 10000 5.1 150 15:59 28.10.2019
5170 Clouds 22 1022 35 10000 5.1 150 15:40 28.10.2019
5171 Clouds 22 1022 35 10000 5.1 150 15:22 28.10.2019
5172 Clouds 24 1021 33 10000 5.1 150 14:58 28.10.2019
5173 Clouds 24 1021 33 10000 5.1 150 14:40 28.10.2019
5174 Clouds 24 1021 33 10000 5.1 150 14:19 28.10.2019
5175 Clouds 19 1008 52 0 5.97 98 13:58 28.10.2019
5176 Clouds 20 1008 49 0 6.06 101 13:40 28.10.2019
5177 Clouds 20 1008 49 0 6.06 101 13:18 28.10.2019
5178 Clouds 20 1008 49 0 6.06 101 12:43 28.10.2019
5179 Clouds 23 1023 35 10000 4.6 150 12:21 28.10.2019
5180 Clouds 23 1023 35 10000 4.6 150 11:57 28.10.2019
5181 Clouds 23 1023 35 10000 4.6 150 11:37 28.10.2019
5182 Clouds 23 1023 35 10000 4.6 150 11:18 28.10.2019
5183 Clouds 22 1024 37 0 3.6 90 10:40 28.10.2019
5184 Clouds 22 1024 37 0 3.6 90 10:21 28.10.2019
5185 Clouds 21 1025 37 0 2.6 190 09:57 28.10.2019
5186 Clouds 21 1025 37 0 2.6 190 09:39 28.10.2019
5187 Clouds 21 1025 37 0 2.6 190 09:19 28.10.2019
5188 Clouds 19 1026 34 0 3.1 110 08:57 28.10.2019
5189 Clouds 19 1026 34 0 3.1 110 08:38 28.10.2019
5190 Clouds 19 1026 34 0 3.1 110 08:19 28.10.2019
5191 Clouds 17 1026 36 0 2.1 190 07:56 28.10.2019
5192 Clouds 17 1026 36 0 2.1 190 07:56 28.10.2019
5193 Clouds 17 1026 36 0 2.1 190 07:36 28.10.2019
5194 Clouds 16 1026 44 0 2.6 220 07:18 28.10.2019
5195 Clouds 16 1026 44 0 2.6 220 06:39 28.10.2019
5196 Clouds 12 1025 58 0 2.6 330 05:40 28.10.2019
5197 Clouds 11 1024 62 0 2.6 350 03:45 28.10.2019
5198 Clouds 12 1024 58 10000 21.6 310 02:46 28.10.2019
5199 Clouds 12 1024 58 10000 21.6 310 01:55 28.10.2019
5200 Clouds 13 1024 54 10000 2.1 320 00:56 28.10.2019
5201 Clouds 13 1024 54 10000 2.1 320 00:32 28.10.2019
5202 Clouds 10 1014 56 0 1.78 356 23:47 27.10.2019
5203 Clouds 15 1025 44 10000 2.1 80 23:23 27.10.2019
5204 Clouds 15 1025 44 10000 2.1 80 23:23 27.10.2019
5205 Clouds 15 1025 44 10000 2.1 80 22:58 27.10.2019
5206 Clouds 15 1025 44 10000 2.1 80 22:58 27.10.2019
5207 Clouds 15 1025 44 10000 2.1 80 22:39 27.10.2019
5208 Clouds 15 1025 44 10000 2.1 80 22:21 27.10.2019
5209 Clouds 15 1025 44 10000 2.1 80 22:21 27.10.2019
5210 Clouds 11 1015 56 0 2.71 10 21:57 27.10.2019
5211 Clouds 11 1015 56 0 2.71 10 21:39 27.10.2019
5212 Clouds 11 1015 56 0 2.71 10 21:20 27.10.2019
5213 Clouds 10 1015 56 0 2.87 12 20:56 27.10.2019
5214 Clouds 10 1015 56 0 2.87 12 20:37 27.10.2019
5215 Clouds 11 1014 53 0 3.65 51 20:19 27.10.2019
5216 Clouds 11 1014 53 0 3.65 51 19:40 27.10.2019
5217 Clouds 11 1014 53 0 3.65 51 19:21 27.10.2019
5218 Clouds 11 1014 53 0 3.65 51 18:58 27.10.2019
5219 Clouds 11 1014 53 0 3.65 51 18:40 27.10.2019
5220 Clouds 11 1014 53 0 3.65 51 18:22 27.10.2019
5221 Clouds 11 1014 53 0 3.65 51 17:58 27.10.2019
5222 Clouds 11 1014 53 0 3.65 51 17:39 27.10.2019
5223 Clouds 19 1022 37 10000 5.1 120 17:19 27.10.2019
5224 Clouds 19 1022 37 10000 5.1 120 16:57 27.10.2019
5225 Clouds 19 1022 37 10000 5.1 120 16:39 27.10.2019
5226 Clouds 19 1022 37 10000 5.1 120 16:20 27.10.2019
5227 Clouds 14 1011 55 0 3.71 91 15:56 27.10.2019
5228 Clouds 14 1011 55 0 3.71 91 15:37 27.10.2019
5229 Clouds 23 1022 31 10000 4.6 160 15:19 27.10.2019
5230 Clouds 23 1022 31 10000 4.6 160 14:42 27.10.2019
5231 Clouds 23 1022 31 10000 4.6 160 14:20 27.10.2019
5232 Clouds 20 1009 47 0 4.34 103 13:57 27.10.2019
5233 Clouds 20 1009 47 0 4.34 103 13:38 27.10.2019
5234 Clouds 23 1022 33 10000 3.81 104 13:19 27.10.2019
5235 Clouds 23 1022 33 10000 3.81 104 12:45 27.10.2019
5236 Clouds 23 1022 33 10000 3.81 104 12:24 27.10.2019
5237 Clouds 23 1023 31 0 3.81 104 11:59 27.10.2019
5238 Clouds 23 1023 31 0 3.81 104 11:59 27.10.2019
5239 Clouds 23 1023 31 0 3.81 104 11:40 27.10.2019
5240 Clouds 23 1023 31 0 3.9 110 11:21 27.10.2019
5241 Clouds 22 1025 33 0 3.9 110 10:44 27.10.2019
5242 Clouds 22 1025 33 0 3.9 110 10:25 27.10.2019
5243 Clouds 21 1025 32 0 3.9 110 09:56 27.10.2019
5244 Clouds 21 1025 32 0 3.9 110 09:38 27.10.2019
5245 Clouds 21 1025 32 0 3.9 110 09:18 27.10.2019
5246 Clouds 21 1026 32 0 3.9 110 08:42 27.10.2019
5247 Clouds 21 1026 32 0 3.36 88 08:22 27.10.2019
5248 Clouds 18 1026 34 0 3.36 88 07:56 27.10.2019
5249 Clouds 18 1026 34 0 3.36 88 07:38 27.10.2019
5250 Clouds 18 1026 34 0 3.36 88 07:19 27.10.2019
5251 Clouds 16 1016 48 0 3.36 88 06:42 27.10.2019
5252 Clouds 16 1016 48 0 3.36 88 06:23 27.10.2019
5253 Clouds 16 1016 48 0 3.36 88 05:38 27.10.2019
5254 Clouds 9 1017 62 0 1.92 3 04:49 27.10.2019
5255 Clouds 11 1024 57 0 1.92 3 02:48 27.10.2019
5256 Clear 11 1024 57 0 1.46 3 02:18 27.10.2019
5257 Clouds 13 1025 50 10000 1 60 01:51 27.10.2019
5258 Clouds 13 1025 50 10000 1 60 01:23 27.10.2019
5259 Clouds 15 1025 41 10000 2.1 60 00:48 27.10.2019
5260 Clouds 15 1025 41 10000 2.1 60 00:28 27.10.2019
5261 Clouds 15 1026 41 10000 3.1 50 23:56 26.10.2019
5262 Clouds 15 1026 41 10000 3.1 50 23:38 26.10.2019
5263 Clouds 15 1026 41 10000 3.1 50 23:20 26.10.2019
5264 Clouds 15 1026 41 10000 3.1 50 22:55 26.10.2019
5265 Clouds 15 1026 41 10000 3.1 50 22:36 26.10.2019
5266 Clouds 15 1026 41 10000 3.1 50 22:18 26.10.2019
5267 Clouds 15 1026 41 10000 3.1 50 22:18 26.10.2019
5268 Clouds 15 1026 44 10000 3.1 50 21:43 26.10.2019
5269 Clouds 15 1026 44 10000 3.1 50 21:21 26.10.2019
5270 Clouds 15 1026 44 10000 3.1 50 21:21 26.10.2019
5271 Clouds 16 1026 41 10000 3.1 60 20:57 26.10.2019
5272 Clouds 16 1026 41 10000 3.1 60 20:36 26.10.2019
5273 Clouds 16 1026 41 10000 3.1 60 20:36 26.10.2019
5274 Clouds 16 1026 41 10000 3.1 60 20:18 26.10.2019
5275 Clouds 16 1025 41 10000 5.1 60 19:41 26.10.2019
5276 Clouds 16 1025 41 10000 5.1 60 19:20 26.10.2019
5277 Clouds 17 1024 39 10000 6.2 60 18:57 26.10.2019
5278 Clouds 17 1024 39 10000 6.2 60 18:38 26.10.2019
5279 Clouds 17 1024 39 10000 6.2 60 18:18 26.10.2019
5280 Clear 14 1012 56 0 3.72 94 17:56 26.10.2019
5281 Clear 14 1012 56 0 3.72 94 17:37 26.10.2019
5282 Clouds 22 1023 30 10000 5.1 100 17:18 26.10.2019
5283 Clouds 22 1023 30 10000 5.1 100 16:43 26.10.2019
5284 Clouds 22 1023 30 10000 5.1 100 16:24 26.10.2019
5285 Clear 23 1023 31 0 6.2 150 15:44 26.10.2019
5286 Clouds 23 1023 31 0 6.2 150 15:21 26.10.2019
5287 Clouds 23 1023 31 0 6.2 170 14:58 26.10.2019
5288 Clouds 23 1023 31 0 6.2 170 14:37 26.10.2019
5289 Clouds 23 1023 31 0 6.2 170 14:18 26.10.2019
5290 Clouds 19 1011 47 0 5.28 99 13:42 26.10.2019
5291 Clouds 23 1024 31 0 6.2 160 13:22 26.10.2019
5292 Clouds 19 1011 47 0 5.28 99 13:22 26.10.2019
5293 Clouds 19 1011 47 0 5.28 99 12:49 26.10.2019
5294 Clouds 22 1026 30 0 4.1 120 12:26 26.10.2019
5295 Clear 22 1026 30 0 4.1 120 11:56 26.10.2019
5296 Clear 22 1026 30 0 4.1 120 11:37 26.10.2019
5297 Clear 22 1026 30 0 4.1 120 11:18 26.10.2019
5298 Clear 21 1026 35 0 4.1 140 10:44 26.10.2019
5299 Clear 21 1026 35 0 4.1 140 10:24 26.10.2019
5300 Clear 20 1014 45 0 4.18 106 09:48 26.10.2019
5301 Clear 18 1027 39 0 2.1 130 09:28 26.10.2019
5302 Clear 18 1027 39 0 2.1 130 08:44 26.10.2019
5303 Clear 18 1027 39 0 2.1 130 08:26 26.10.2019
5304 Clear 16 1027 44 0 1 350 07:56 26.10.2019
5305 Clear 16 1027 44 0 1 350 07:33 26.10.2019
5306 Clear 16 1018 47 0 2.7 95 06:48 26.10.2019
5307 Clear 11 1026 62 0 2.1 310 06:29 26.10.2019
5308 Clear 11 1026 62 0 2.1 310 05:21 26.10.2019
5309 Clear 9 1018 56 0 1.98 355 04:44 26.10.2019
5310 Clear 11 1025 66 0 1 360 03:22 26.10.2019
5311 Clouds 12 1025 54 10000 2.1 210 01:58 26.10.2019
5312 Clouds 12 1025 54 10000 2.1 210 01:37 26.10.2019
5313 Clouds 15 1025 44 10000 4.6 50 00:31 26.10.2019
5314 Clouds 15 1026 44 10000 5.7 50 23:47 25.10.2019
5315 Clouds 15 1026 44 10000 5.7 50 23:21 25.10.2019
5316 Clear 15 1026 47 0 5.7 50 22:43 25.10.2019
5317 Clear 15 1026 47 0 5.7 50 22:25 25.10.2019
5318 Clear 10 1017 55 0 2.12 8 21:58 25.10.2019
5319 Clear 10 1017 55 0 2.12 8 21:40 25.10.2019
5320 Clear 11 1016 54 0 2.69 31 21:22 25.10.2019
5321 Clear 11 1016 54 0 2.69 31 20:59 25.10.2019
5322 Clear 11 1016 54 0 2.69 31 20:59 25.10.2019
5323 Clear 11 1016 54 0 2.69 31 20:41 25.10.2019
5324 Clear 16 1026 44 0 4.1 60 20:19 25.10.2019
5325 Clear 16 1026 44 0 4.1 60 20:19 25.10.2019
5326 Clear 16 1026 44 0 4.1 60 19:45 25.10.2019
5327 Clear 16 1026 44 0 4.1 60 19:27 25.10.2019
5328 Clear 11 1016 54 0 2.69 31 18:47 25.10.2019
5329 Clear 20 1024 37 0 5.7 100 18:28 25.10.2019
5330 Clear 20 1024 37 0 5.7 100 17:54 25.10.2019
5331 Clear 20 1024 37 0 5.7 100 17:36 25.10.2019
5332 Clear 20 1024 37 0 5.7 100 17:18 25.10.2019
5333 Clear 13 1013 56 0 3.14 89 16:42 25.10.2019
5334 Clouds 24 1023 29 10000 6.2 140 16:21 25.10.2019
5335 Clouds 24 1023 29 10000 6.2 140 15:41 25.10.2019
5336 Clouds 24 1023 29 10000 6.2 140 15:23 25.10.2019
5337 Clear 19 1011 44 0 5.85 101 14:59 25.10.2019
5338 Clear 19 1011 44 0 5.91 100 14:41 25.10.2019
5339 Clear 19 1011 44 0 5.91 100 14:22 25.10.2019
5340 Clear 19 1011 44 0 5.91 100 13:44 25.10.2019
5341 Clear 23 1024 31 0 3.1 100 13:25 25.10.2019
5342 Clear 23 1024 31 0 3.1 100 13:25 25.10.2019
5343 Clear 19 1011 44 0 5.91 100 12:58 25.10.2019
5344 Clear 19 1011 44 0 5.91 100 12:40 25.10.2019
5345 Clear 19 1011 44 0 5.91 100 12:40 25.10.2019
5346 Clear 22 1025 30 0 4.1 100 12:20 25.10.2019
5347 Clear 20 1015 43 0 4.54 100 11:42 25.10.2019
5348 Clear 21 1027 30 0 4.1 100 11:24 25.10.2019
5349 Clear 21 1027 30 0 4.1 100 10:59 25.10.2019
5350 Clear 21 1027 30 0 4.1 100 10:40 25.10.2019
5351 Clear 21 1027 30 0 4.1 100 10:21 25.10.2019
5352 Clear 20 1028 34 0 4.1 100 09:57 25.10.2019
5353 Clear 20 1028 34 0 4.1 100 09:38 25.10.2019
5354 Clouds 20 1028 34 0 4.1 100 09:19 25.10.2019
5355 Clouds 18 1028 39 0 3.1 100 08:45 25.10.2019
5356 Clouds 18 1028 39 0 3.1 100 08:26 25.10.2019
5357 Clouds 16 1028 41 0 1 90 07:53 25.10.2019
5358 Clouds 16 1028 41 0 1 90 07:34 25.10.2019
5359 Clouds 16 1019 45 0 2.82 89 06:41 25.10.2019
5360 Clouds 9 1019 50 0 2.22 3 05:51 25.10.2019
5361 Clouds 9 1019 50 0 2.22 3 05:32 25.10.2019
5362 Clouds 9 1019 50 0 2.22 3 04:42 25.10.2019
5363 Clouds 11 1025 62 0 3.1 130 03:29 25.10.2019
5364 Clouds 15 1026 67 10000 3.6 40 01:53 25.10.2019
5365 Clouds 9 1017 51 0 2 12 00:50 25.10.2019
5366 Clouds 15 1026 41 10000 5.1 50 00:20 25.10.2019
5367 Clouds 15 1026 41 10000 5.1 50 23:40 24.10.2019
5368 Clouds 15 1026 41 10000 5.1 50 23:22 24.10.2019
5369 Clouds 10 1017 51 0 3.27 18 22:54 24.10.2019
5370 Clouds 10 1017 51 0 3.27 18 22:36 24.10.2019
5371 Clouds 16 1027 44 10000 5.1 40 22:18 24.10.2019
5372 Clouds 16 1027 44 10000 5.1 40 21:55 24.10.2019
5373 Clouds 16 1027 44 10000 5.1 40 21:37 24.10.2019
5374 Clouds 16 1027 44 10000 5.1 40 21:37 24.10.2019
5375 Clouds 16 1027 44 10000 5.1 40 21:18 24.10.2019
5376 Clouds 16 1027 44 10000 5.1 40 21:18 24.10.2019
5377 Clouds 16 1027 44 10000 5.1 50 20:55 24.10.2019
5378 Clouds 16 1027 44 10000 5.1 50 20:55 24.10.2019
5379 Clouds 16 1027 44 10000 5.1 50 20:37 24.10.2019
5380 Clouds 16 1027 44 10000 5.1 50 20:18 24.10.2019
5381 Clear 11 1017 52 0 2.84 34 19:42 24.10.2019
5382 Clear 11 1017 52 0 2.84 34 19:23 24.10.2019
5383 Clear 11 1017 52 0 2.84 34 18:58 24.10.2019
5384 Clear 11 1017 52 0 2.84 34 18:39 24.10.2019
5385 Clear 13 1014 56 0 3.11 97 18:21 24.10.2019
5386 Clear 13 1014 56 0 3.11 97 17:57 24.10.2019
5387 Clear 13 1014 56 0 3.11 97 17:37 24.10.2019
5388 Clear 13 1014 56 0 3.11 97 17:18 24.10.2019
5389 Clear 13 1014 56 0 3.11 97 16:42 24.10.2019
5390 Clouds 22 1024 33 10000 4.1 130 16:23 24.10.2019
5391 Clouds 22 1024 33 10000 4.1 130 15:59 24.10.2019
5392 Clouds 22 1024 33 10000 4.1 130 15:59 24.10.2019
5393 Clouds 22 1024 33 10000 4.1 130 15:41 24.10.2019
5394 Clouds 22 1024 33 10000 4.1 130 15:23 24.10.2019
5395 Clouds 23 1024 31 10000 4.1 120 14:59 24.10.2019
5396 Clouds 23 1024 31 10000 4.1 120 14:41 24.10.2019
5397 Clouds 23 1024 31 10000 4.1 120 14:41 24.10.2019
5398 Clouds 23 1024 31 10000 4.1 120 14:22 24.10.2019
5399 Clear 23 1025 28 0 4.1 130 13:57 24.10.2019
5400 Clear 23 1025 28 0 4.1 130 13:37 24.10.2019
5401 Clear 23 1025 28 0 4.1 130 13:18 24.10.2019
5402 Clear 22 1026 28 0 5.1 120 12:55 24.10.2019
5403 Clear 22 1026 28 0 5.1 120 12:37 24.10.2019
5404 Clear 22 1026 28 0 5.1 120 12:18 24.10.2019
5405 Clear 22 1026 28 0 5.1 120 11:54 24.10.2019
5406 Clear 21 1027 30 0 5.1 110 11:36 24.10.2019
5407 Clear 20 1028 32 10000 6.2 70 11:18 24.10.2019
5408 Clear 20 1028 32 10000 6.2 70 10:41 24.10.2019
5409 Clear 20 1028 32 10000 6.2 70 10:22 24.10.2019
5410 Clear 19 1028 34 10000 6.2 80 09:39 24.10.2019
5411 Clear 19 1028 34 10000 6.2 80 09:39 24.10.2019
5412 Clear 19 1028 34 10000 6.2 80 09:19 24.10.2019
5413 Clear 19 1028 34 10000 6.2 80 08:57 24.10.2019
5414 Clear 17 1028 36 0 6.2 80 08:38 24.10.2019
5415 Clear 17 1028 36 0 6.2 80 08:18 24.10.2019
5416 Clear 17 1028 36 0 6.2 80 08:18 24.10.2019
5417 Clear 17 1028 36 0 4.6 80 07:46 24.10.2019
5418 Clear 17 1028 36 0 4.6 80 07:23 24.10.2019
5419 Clear 16 1019 42 0 3.68 85 06:50 24.10.2019
5420 Clear 16 1019 42 0 3.68 85 06:32 24.10.2019
5421 Clouds 8 1018 42 0 2.73 28 05:53 24.10.2019
5422 Clouds 8 1018 42 0 2.73 28 05:30 24.10.2019
5423 Clouds 8 1018 42 0 2.73 28 03:51 24.10.2019
5424 Clouds 8 1018 42 0 2.73 28 03:26 24.10.2019
5425 Clear 8 1017 40 0 2.42 12 02:29 24.10.2019
5426 Clear 8 1017 40 0 2.42 12 01:57 24.10.2019
5427 Clear 8 1017 40 0 2.42 12 01:30 24.10.2019
5428 Clear 8 1017 40 0 2.42 12 00:51 24.10.2019
5429 Clear 9 1017 46 0 2.91 13 00:23 24.10.2019
5430 Clear 9 1017 46 0 2.91 13 23:44 23.10.2019
5431 Clear 9 1017 46 0 2.91 13 23:24 23.10.2019
5432 Clear 9 1017 46 0 2.91 13 22:57 23.10.2019
5433 Clear 9 1017 46 0 2.91 13 22:39 23.10.2019
5434 Clear 9 1017 46 0 2.91 13 22:19 23.10.2019
5435 Clear 9 1017 46 0 2.91 13 21:58 23.10.2019
5436 Clear 9 1017 46 0 2.91 13 21:39 23.10.2019
5437 Clouds 10 1016 46 0 3.67 42 21:20 23.10.2019
5438 Clouds 10 1016 46 0 3.67 42 20:58 23.10.2019
5439 Clouds 10 1016 46 0 3.67 42 20:39 23.10.2019
5440 Clouds 10 1016 46 0 3.67 42 20:39 23.10.2019
5441 Clouds 10 1016 46 0 3.67 42 20:21 23.10.2019
5442 Clouds 10 1016 46 0 3.67 42 19:58 23.10.2019
5443 Clouds 10 1016 46 0 3.67 42 19:40 23.10.2019
5444 Clouds 10 1016 46 0 3.67 42 19:19 23.10.2019
5445 Clouds 10 1016 46 0 3.67 42 18:55 23.10.2019
5446 Clouds 10 1016 46 0 3.67 42 18:36 23.10.2019
5447 Clouds 13 1013 51 0 4.83 86 18:18 23.10.2019
5448 Clouds 13 1013 51 0 4.83 86 17:44 23.10.2019
5449 Clouds 13 1013 51 0 4.83 86 17:20 23.10.2019
5450 Clouds 13 1013 51 0 4.83 86 17:20 23.10.2019
5451 Clouds 13 1013 51 0 4.83 86 16:58 23.10.2019
5452 Clouds 13 1013 51 0 4.83 86 16:39 23.10.2019
5453 Clouds 13 1013 51 0 4.83 86 16:20 23.10.2019
5454 Clouds 13 1013 51 0 4.83 86 15:42 23.10.2019
5455 Clouds 19 1010 45 0 5.85 95 15:23 23.10.2019
5456 Clouds 19 1010 45 0 5.85 95 14:58 23.10.2019
5457 Clouds 19 1010 46 0 6.03 97 14:39 23.10.2019
5458 Clouds 19 1010 46 0 6.03 97 14:20 23.10.2019
5459 Clouds 19 1010 46 0 6.03 97 13:59 23.10.2019
5460 Clouds 19 1010 46 0 6.03 97 13:40 23.10.2019
5461 Clouds 19 1010 46 0 6.03 97 13:22 23.10.2019
5462 Clouds 19 1010 46 0 6.03 97 12:56 23.10.2019
5463 Clouds 19 1010 46 0 6.03 97 12:37 23.10.2019
5464 Clouds 19 1014 47 0 4.68 95 12:18 23.10.2019
5465 Clouds 19 1014 47 0 4.68 95 11:56 23.10.2019
5466 Clouds 19 1014 47 0 4.68 95 11:37 23.10.2019
5467 Clouds 19 1014 47 0 4.68 95 11:19 23.10.2019
5468 Clouds 19 1014 47 0 4.68 95 10:45 23.10.2019
5469 Clouds 19 1014 47 0 4.68 95 10:25 23.10.2019
5470 Clouds 19 1014 47 0 4.68 95 09:55 23.10.2019
5471 Clouds 19 1014 45 0 4.47 95 09:36 23.10.2019
5472 Clouds 15 1017 53 0 2.95 89 09:18 23.10.2019
5473 Clouds 15 1017 53 0 2.95 89 08:41 23.10.2019
5474 Clouds 15 1017 53 0 2.95 89 08:23 23.10.2019
5475 Clouds 15 1017 53 0 2.95 89 07:46 23.10.2019
5476 Clouds 15 1017 53 0 2.95 89 07:22 23.10.2019
5477 Clouds 15 1017 53 0 2.95 89 06:47 23.10.2019
5478 Clouds 9 1018 68 0 2.06 10 06:22 23.10.2019
5479 Clouds 9 1018 68 0 2.06 10 05:47 23.10.2019
5480 Clouds 9 1018 68 0 2.06 10 04:54 23.10.2019
5481 Clouds 9 1018 68 0 2.06 10 03:35 23.10.2019
5482 Clear 9 1015 68 0 2.28 9 02:41 23.10.2019
5483 Clear 9 1015 68 0 2.28 9 01:33 23.10.2019
5484 Clear 9 1015 68 0 2.28 9 00:56 23.10.2019
5485 Clear 9 1015 68 0 2.28 9 00:28 23.10.2019
5486 Clear 10 1016 71 0 2.74 17 23:40 22.10.2019
5487 Clear 10 1016 71 0 2.74 17 23:18 22.10.2019
5488 Clear 10 1016 71 0 2.74 17 22:57 22.10.2019
5489 Clear 10 1016 71 0 2.74 17 22:57 22.10.2019
5490 Clear 10 1016 71 0 2.74 17 22:38 22.10.2019
5491 Clear 10 1016 71 0 2.74 17 22:20 22.10.2019
5492 Clear 10 1016 71 0 2.74 17 21:56 22.10.2019
5493 Clear 10 1016 68 0 2.67 20 21:37 22.10.2019
5494 Clear 11 1015 70 0 3.65 36 21:18 22.10.2019
5495 Clear 11 1015 70 0 3.65 36 20:56 22.10.2019
5496 Clear 11 1015 70 0 3.65 36 20:38 22.10.2019
5497 Clear 11 1015 70 0 3.65 36 20:19 22.10.2019
5498 Clear 11 1015 70 0 3.65 36 19:54 22.10.2019
5499 Clear 11 1015 70 0 3.65 36 19:36 22.10.2019
5500 Clear 11 1015 70 0 3.65 36 19:18 22.10.2019
5501 Clear 11 1015 70 0 3.65 36 18:40 22.10.2019
5502 Clear 14 1011 68 0 4.67 88 18:22 22.10.2019
5503 Clear 14 1011 68 0 4.67 88 17:57 22.10.2019
5504 Clear 14 1011 68 0 4.67 88 17:38 22.10.2019
5505 Clear 14 1011 68 0 4.67 88 17:38 22.10.2019
5506 Clear 14 1011 68 0 4.67 88 17:20 22.10.2019
5507 Clear 14 1011 68 0 4.67 88 16:57 22.10.2019
5508 Clear 14 1011 68 0 4.67 88 16:38 22.10.2019
5509 Clear 14 1011 68 0 4.67 88 16:19 22.10.2019
5510 Clear 14 1011 68 0 4.67 88 15:56 22.10.2019
5511 Clear 14 1011 68 0 4.67 88 15:38 22.10.2019
5512 Clouds 19 1009 56 0 6.32 96 15:18 22.10.2019
5513 Clear 19 1010 52 0 6.28 96 14:43 22.10.2019
5514 Clear 19 1010 52 0 6.28 96 14:20 22.10.2019
5515 Clear 19 1010 52 0 6.28 96 13:42 22.10.2019
5516 Clear 19 1010 52 0 6.28 96 13:22 22.10.2019
5517 Clear 19 1010 52 0 6.28 96 12:58 22.10.2019
5518 Clear 19 1010 52 0 6.28 96 12:40 22.10.2019
5519 Clear 19 1014 53 0 5.77 95 12:21 22.10.2019
5520 Clear 19 1014 53 0 5.77 95 11:56 22.10.2019
5521 Clear 19 1014 53 0 5.77 95 11:38 22.10.2019
5522 Clear 19 1014 53 0 5.77 95 11:20 22.10.2019
5523 Clear 19 1014 53 0 5.77 95 10:55 22.10.2019
5524 Clear 19 1014 53 0 5.77 95 10:37 22.10.2019
5525 Clear 19 1014 53 0 5.77 95 10:18 22.10.2019
5526 Clear 19 1014 52 0 5.79 94 09:42 22.10.2019
5527 Clouds 16 1017 60 0 4.39 87 09:22 22.10.2019
5528 Clouds 16 1017 60 0 4.39 87 08:59 22.10.2019
5529 Clouds 16 1017 60 0 4.39 87 08:41 22.10.2019
5530 Clouds 16 1017 60 0 4.39 87 08:20 22.10.2019
5531 Clouds 16 1017 60 0 4.39 87 07:45 22.10.2019
5532 Clouds 16 1017 60 0 4.39 87 07:26 22.10.2019
5533 Clouds 16 1017 60 0 4.39 87 06:47 22.10.2019
5534 Clouds 16 1017 60 0 4.39 87 06:29 22.10.2019
5535 Clear 9 1017 83 0 2.25 9 05:50 22.10.2019
5536 Clear 9 1017 83 0 2.25 9 05:50 22.10.2019
5537 Clear 9 1017 83 0 2.25 9 05:19 22.10.2019
5538 Clouds 12 1024 76 10000 3.1 50 02:33 22.10.2019
5539 Clouds 13 1025 71 10000 1 70 01:51 22.10.2019
5540 Clouds 13 1025 71 10000 1 70 01:26 22.10.2019
5541 Clouds 13 1025 71 10000 1 260 00:57 22.10.2019
5542 Clouds 13 1025 71 10000 1 260 00:39 22.10.2019
5543 Clouds 13 1025 71 10000 1 260 00:20 22.10.2019
5544 Clouds 14 1026 67 10000 2.1 70 23:39 21.10.2019
5545 Clouds 14 1026 67 10000 2.1 70 23:20 21.10.2019
5546 Clouds 14 1026 67 10000 3.1 80 22:59 21.10.2019
5547 Clouds 14 1026 67 10000 3.1 80 22:40 21.10.2019
5548 Clouds 14 1026 67 10000 3.1 80 22:21 21.10.2019
5549 Clouds 15 1025 62 10000 5.1 60 21:59 21.10.2019
5550 Clouds 15 1025 62 10000 5.1 60 21:39 21.10.2019
5551 Clouds 15 1025 62 10000 5.1 60 21:39 21.10.2019
5552 Clouds 15 1025 62 10000 5.1 60 21:21 21.10.2019
5553 Clouds 15 1025 62 10000 5.1 60 20:58 21.10.2019
5554 Clouds 16 1025 59 10000 4.1 60 20:40 21.10.2019
5555 Clouds 16 1025 59 10000 4.1 60 20:40 21.10.2019
5556 Clouds 16 1025 59 10000 4.1 60 20:21 21.10.2019
5557 Clouds 16 1024 59 10000 6.2 60 19:57 21.10.2019
5558 Clouds 16 1024 59 10000 6.2 60 19:39 21.10.2019
5559 Clouds 16 1024 59 10000 6.2 60 19:21 21.10.2019
5560 Clouds 18 1023 52 10000 5.1 80 18:55 21.10.2019
5561 Clouds 18 1023 52 10000 5.1 80 18:37 21.10.2019
5562 Clouds 18 1023 52 10000 5.1 80 18:18 21.10.2019
5563 Clouds 19 1023 48 10000 5.1 90 17:55 21.10.2019
5564 Clouds 19 1023 48 10000 5.1 90 17:37 21.10.2019
5565 Clouds 19 1023 48 10000 5.1 90 17:18 21.10.2019
5566 Clear 14 1012 74 0 5.26 87 16:55 21.10.2019
5567 Clear 14 1012 74 0 5.26 87 16:37 21.10.2019
5568 Clear 14 1012 74 0 5.26 87 16:18 21.10.2019
5569 Clear 14 1012 74 0 5.26 87 15:42 21.10.2019
5570 Clear 19 1010 56 0 6.8 89 15:23 21.10.2019
5571 Clear 19 1010 56 0 6.8 89 14:56 21.10.2019
5572 Clouds 19 1011 54 0 6.64 89 14:37 21.10.2019
5573 Clouds 19 1011 54 0 6.64 89 14:18 21.10.2019
5574 Clouds 19 1011 54 0 6.64 89 13:55 21.10.2019
5575 Clouds 19 1011 54 0 6.64 89 13:37 21.10.2019
5576 Clouds 19 1011 54 0 6.64 89 13:18 21.10.2019
5577 Clouds 19 1011 54 0 6.64 89 12:40 21.10.2019
5578 Clear 20 1015 53 0 4.14 127.684 12:21 21.10.2019
5579 Clear 20 1015 53 0 4.14 127.684 11:55 21.10.2019
5580 Clear 20 1015 53 0 4.14 127.684 11:37 21.10.2019
5581 Clear 20 1015 53 0 4.14 127.684 11:18 21.10.2019
5582 Clear 20 1015 53 0 4.14 127.684 10:55 21.10.2019
5583 Clear 20 1015 53 0 4.14 127.684 10:36 21.10.2019
5584 Clear 20 1015 53 0 4.14 127.684 10:18 21.10.2019
5585 Clear 20 1015 53 0 4.14 127.684 09:42 21.10.2019
5586 Clear 16 1017 64 0 1.34 140.828 09:22 21.10.2019
5587 Clear 16 1017 64 0 1.59 119.254 08:43 21.10.2019
5588 Clear 16 1017 64 0 1.59 119.254 08:23 21.10.2019
5589 Clear 16 1017 64 0 1.59 119.254 07:58 21.10.2019
5590 Clear 16 1017 64 0 1.59 119.254 07:37 21.10.2019
5591 Clear 16 1017 64 0 1.59 119.254 07:18 21.10.2019
5592 Clear 16 1017 64 0 1.59 119.254 06:50 21.10.2019
5593 Clear 16 1017 64 0 1.59 119.254 06:31 21.10.2019
5594 Clear 9 1018 81 0 1.41 28.273 05:43 21.10.2019
5595 Clear 9 1018 81 0 1.41 28.273 03:42 21.10.2019
5596 Clear 10 1016 79 0 1.69 31.454 02:41 21.10.2019
5597 Clouds 13 1026 76 10000 2.1 320 02:21 21.10.2019
5598 Clouds 13 1026 76 10000 2.1 320 01:49 21.10.2019
5599 Clouds 13 1026 76 10000 2.1 320 01:20 21.10.2019
5600 Clouds 12 1026 76 10000 2.1 90 00:41 21.10.2019
5601 Clouds 12 1026 76 10000 2.1 90 00:22 21.10.2019
5602 Clear 10 1017 79 0 1.59 26.581 23:40 20.10.2019
5603 Clear 10 1017 79 0 1.59 26.581 23:21 20.10.2019
5604 Clear 10 1017 79 0 1.59 26.581 22:55 20.10.2019
5605 Clear 10 1017 79 0 1.59 26.581 22:36 20.10.2019
5606 Clear 10 1017 79 0 1.59 26.581 22:18 20.10.2019
5607 Clear 10 1017 79 0 1.59 26.581 21:40 20.10.2019
5608 Clear 10 1017 79 0 1.59 26.581 21:40 20.10.2019
5609 Clouds 15 1027 67 10000 2.43 47.372 21:22 20.10.2019
5610 Clouds 15 1027 67 10000 2.31 49.431 20:59 20.10.2019
5611 Clouds 15 1027 67 10000 2.31 49.431 20:39 20.10.2019
5612 Clouds 15 1027 67 10000 2.31 49.431 20:18 20.10.2019
5613 Clouds 15 1027 67 10000 2.31 49.431 20:18 20.10.2019
5614 Clear 11 1017 81 0 2.31 49.431 19:56 20.10.2019
5615 Clear 11 1017 81 0 2.31 49.431 19:37 20.10.2019
5616 Clouds 16 1025 67 10000 5.1 80 19:19 20.10.2019
5617 Clouds 16 1025 67 10000 5.1 80 18:42 20.10.2019
5618 Clouds 16 1025 67 10000 5.1 80 18:23 20.10.2019
5619 Clear 15 1013 74 0 3.54 105.35 17:59 20.10.2019
5620 Clear 15 1013 74 0 3.54 105.35 17:40 20.10.2019
5621 Clouds 20 1024 49 10000 6.7 90 17:21 20.10.2019
5622 Clouds 20 1024 49 10000 6.7 90 16:56 20.10.2019
5623 Clouds 20 1024 49 10000 6.7 90 16:37 20.10.2019
5624 Clouds 20 1024 49 10000 6.7 90 16:18 20.10.2019
5625 Clouds 20 1024 49 10000 6.7 90 15:54 20.10.2019
5626 Clouds 20 1024 49 10000 6.7 90 15:54 20.10.2019
5627 Clouds 22 1024 43 10000 5.7 100 15:36 20.10.2019
5628 Clouds 22 1024 43 10000 5.7 100 15:18 20.10.2019
5629 Clouds 22 1025 40 10000 8.7 100 14:39 20.10.2019
5630 Clouds 22 1025 40 10000 8.7 100 14:21 20.10.2019
5631 Clouds 22 1025 40 10000 10.3 100 13:56 20.10.2019
5632 Clouds 22 1025 40 10000 10.3 100 13:37 20.10.2019
5633 Clouds 22 1025 40 10000 10.3 100 13:19 20.10.2019
5634 Clouds 21 1026 40 10000 9.3 90 12:57 20.10.2019
5635 Clouds 21 1026 40 10000 9.3 90 12:39 20.10.2019
5636 Clouds 21 1026 40 10000 9.3 90 12:39 20.10.2019
5637 Clouds 21 1026 40 10000 9.3 90 12:21 20.10.2019
5638 Clouds 20 1026 40 10000 10.3 70 11:59 20.10.2019
5639 Clouds 20 1026 40 10000 10.3 70 11:40 20.10.2019
5640 Clouds 20 1026 40 10000 10.3 70 11:22 20.10.2019
5641 Clouds 20 1026 40 10000 10.3 70 11:22 20.10.2019
5642 Clouds 19 1028 45 10000 9.3 90 10:57 20.10.2019
5643 Clouds 19 1028 45 10000 9.3 90 10:38 20.10.2019
5644 Clouds 19 1028 45 10000 9.3 90 10:20 20.10.2019
5645 Clouds 19 1028 45 10000 7.2 80 09:44 20.10.2019
5646 Clouds 19 1028 45 10000 7.2 80 09:23 20.10.2019
5647 Clouds 19 1028 48 10000 7.2 90 08:59 20.10.2019
5648 Clouds 19 1028 48 10000 7.2 90 08:39 20.10.2019
5649 Clouds 19 1028 48 10000 7.2 90 08:20 20.10.2019
5650 Clouds 16 1028 59 10000 4.1 90 07:47 20.10.2019
5651 Clouds 16 1028 59 10000 4.1 90 07:24 20.10.2019
5652 Clouds 14 1027 82 10000 2.1 130 06:28 20.10.2019
5653 Clouds 13 1026 93 10000 2.6 130 04:28 20.10.2019
5654 Clouds 13 1026 93 10000 1 170 03:49 20.10.2019
5655 Clouds 13 1026 93 10000 1 170 03:22 20.10.2019
5656 Clouds 14 1026 87 10000 2.6 60 02:46 20.10.2019
5657 Clouds 14 1026 87 10000 2.6 60 02:18 20.10.2019
5658 Clouds 13 1026 93 10000 2.1 80 01:45 20.10.2019
5659 Clouds 13 1026 93 10000 2.1 80 01:19 20.10.2019
5660 Clouds 14 1026 87 10000 2.1 20 00:47 20.10.2019
5661 Clouds 14 1026 87 10000 2.1 20 00:20 20.10.2019
5662 Clouds 12 1017 77 0 2.33 41.098 23:44 19.10.2019
5663 Clouds 15 1027 82 10000 2.1 50 23:24 19.10.2019
5664 Clouds 15 1027 82 10000 2.1 50 22:58 19.10.2019
5665 Clouds 15 1027 82 10000 2.1 50 22:40 19.10.2019
5666 Clouds 15 1027 82 10000 2.1 50 22:20 19.10.2019
5667 Clouds 15 1027 77 10000 3.1 70 21:46 19.10.2019
5668 Clouds 15 1027 77 10000 3.1 70 21:25 19.10.2019
5669 Clouds 15 1027 77 10000 4.1 90 20:57 19.10.2019
5670 Clouds 15 1027 77 10000 4.1 90 20:39 19.10.2019
5671 Clouds 15 1027 77 10000 4.1 90 20:20 19.10.2019
5672 Clouds 15 1026 77 10000 4.1 70 19:41 19.10.2019
5673 Clouds 15 1026 77 10000 4.1 70 19:23 19.10.2019
5674 Clouds 16 1025 67 10000 5.1 100 18:44 19.10.2019
5675 Clouds 16 1025 67 10000 5.1 100 18:25 19.10.2019
5676 Clouds 15 1013 77 0 3.37 87.566 17:59 19.10.2019
5677 Clouds 15 1013 77 0 3.37 87.566 17:37 19.10.2019
5678 Clouds 15 1013 77 0 3.37 87.566 17:19 19.10.2019
5679 Clouds 15 1013 77 0 3.37 87.566 16:54 19.10.2019
5680 Clouds 15 1013 77 0 3.37 87.566 16:36 19.10.2019
5681 Clouds 15 1013 77 0 3.37 87.566 16:18 19.10.2019
5682 Clouds 15 1013 77 0 3.37 87.566 15:40 19.10.2019
5683 Clouds 15 1013 77 0 3.37 87.566 15:40 19.10.2019
5684 Clouds 20 1024 45 10000 5.1 90 15:22 19.10.2019
5685 Clouds 20 1024 45 10000 5.1 90 14:38 19.10.2019
5686 Clouds 20 1024 45 10000 5.1 90 14:20 19.10.2019
5687 Clouds 19 1011 58 0 6.68 96.253 13:56 19.10.2019
5688 Clouds 19 1011 58 0 6.68 96.253 13:38 19.10.2019
5689 Clouds 19 1011 57 0 6.87 97.373 13:18 19.10.2019
5690 Clouds 19 1011 57 0 6.87 97.373 12:42 19.10.2019
5691 Clouds 20 1014 56 0 7.18 98.648 12:23 19.10.2019
5692 Clouds 20 1014 56 0 7.18 98.648 11:59 19.10.2019
5693 Clouds 20 1014 56 0 7.18 98.648 11:40 19.10.2019
5694 Clouds 20 1026 49 10000 10.3 90 11:22 19.10.2019
5695 Clouds 20 1026 49 10000 10.3 90 10:54 19.10.2019
5696 Clouds 20 1026 49 10000 10.3 90 10:36 19.10.2019
5697 Clouds 20 1026 49 10000 10.3 90 10:18 19.10.2019
5698 Clouds 20 1014 56 0 7.18 98.648 09:41 19.10.2019
5699 Clouds 16 1017 68 0 3.15 105.383 09:23 19.10.2019
5700 Clouds 16 1017 68 0 3.15 105.383 09:23 19.10.2019
5701 Clouds 16 1017 68 0 2.62 103.421 08:58 19.10.2019
5702 Clouds 16 1017 68 0 2.62 103.421 08:58 19.10.2019
5703 Clouds 16 1017 68 0 2.62 103.421 08:39 19.10.2019
5704 Clouds 16 1027 68 10000 3.1 80 08:20 19.10.2019
5705 Clouds 16 1027 68 10000 3.1 80 07:43 19.10.2019
5706 Clouds 16 1027 68 10000 3.1 80 07:24 19.10.2019
5707 Clouds 15 1027 67 10000 2.1 110 06:46 19.10.2019
5708 Clouds 13 1026 82 10000 2.1 70 05:56 19.10.2019
5709 Clouds 13 1026 82 10000 2.1 70 05:28 19.10.2019
5710 Clouds 9 1017 89 0 1.54 51.13 03:59 19.10.2019
5711 Clouds 13 1025 87 0 3.1 120 02:40 19.10.2019
5712 Clouds 14 1026 76 10000 1 80 01:51 19.10.2019
5713 Clouds 14 1026 76 10000 1 80 01:19 19.10.2019
5714 Clouds 15 1026 72 10000 1 130 00:45 19.10.2019
5715 Clouds 15 1026 72 10000 1 130 00:23 19.10.2019
5716 Clouds 14 1027 76 10000 3.1 70 23:42 18.10.2019
5717 Clouds 14 1027 76 10000 3.1 70 23:42 18.10.2019
5718 Clouds 14 1027 76 10000 3.1 70 23:23 18.10.2019
5719 Clouds 14 1027 82 10000 2.6 60 22:56 18.10.2019
5720 Clouds 14 1027 82 10000 2.6 60 22:38 18.10.2019
5721 Clouds 14 1027 82 10000 2.6 60 22:38 18.10.2019
5722 Clouds 14 1027 82 10000 2.6 60 22:20 18.10.2019
5723 Clouds 14 1027 82 10000 2.6 60 22:20 18.10.2019
5724 Clouds 15 1026 77 10000 4.1 70 21:57 18.10.2019
5725 Clouds 15 1026 77 10000 4.1 70 21:38 18.10.2019
5726 Clouds 15 1026 77 10000 4.1 70 21:20 18.10.2019
5727 Clouds 15 1026 77 10000 4.1 70 20:56 18.10.2019
5728 Clouds 15 1026 77 10000 4.1 70 20:38 18.10.2019
5729 Clouds 11 1016 85 0 2.21 48.836 20:19 18.10.2019
5730 Clouds 16 1026 72 10000 4.1 60 19:55 18.10.2019
5731 Clouds 11 1016 85 0 2.21 48.836 19:37 18.10.2019
5732 Clouds 11 1016 85 0 2.21 48.836 19:19 18.10.2019
5733 Clouds 17 1024 63 10000 4.1 90 18:42 18.10.2019
5734 Clouds 17 1024 63 10000 4.1 90 18:24 18.10.2019
5735 Clouds 19 1024 45 10000 5.1 80 17:57 18.10.2019
5736 Clouds 19 1024 45 10000 5.1 80 17:38 18.10.2019
5737 Clouds 19 1024 45 10000 5.1 80 17:20 18.10.2019
5738 Clouds 19 1024 45 10000 5.1 80 17:20 18.10.2019
5739 Clouds 21 1023 37 10000 5.1 70 16:44 18.10.2019
5740 Clouds 21 1023 37 10000 5.1 70 16:44 18.10.2019
5741 Clouds 21 1023 37 10000 5.1 70 16:44 18.10.2019
5742 -273 0 0 0 0 0 16:43 18.10.2019
5743 -273 0 0 0 0 0 16:43 18.10.2019
5744 Clouds 21 1023 37 10000 5.1 70 16:21 18.10.2019
5745 Clouds 22 1023 35 10000 5.1 80 15:58 18.10.2019
5746 Clouds 22 1023 35 10000 5.1 80 15:38 18.10.2019
5747 Clouds 22 1023 35 10000 5.1 80 15:20 18.10.2019
5748 Clouds 20 1011 55 0 4.1 106.687 14:57 18.10.2019
5749 Clouds 20 1011 55 0 4.1 106.687 14:38 18.10.2019
5750 Clouds 21 1025 40 10000 5.1 70 14:19 18.10.2019
5751 Clouds 21 1025 40 10000 5.1 70 13:57 18.10.2019
5752 Clouds 20 1011 55 0 4.1 106.687 13:38 18.10.2019
5753 Clouds 21 1026 37 10000 7.2 80 13:19 18.10.2019
5754 Clouds 20 1011 55 0 4.1 103.89 12:55 18.10.2019
5755 Clouds 20 1011 55 0 4.1 103.89 12:37 18.10.2019
5756 Clear 20 1015 53 0 3.5 127.532 12:18 18.10.2019
5757 Clear 20 1015 53 0 3.5 127.532 11:42 18.10.2019
5758 Clear 20 1015 53 0 3.5 127.532 11:21 18.10.2019
5759 Clear 20 1015 53 0 3.5 127.532 10:58 18.10.2019
5760 Clear 20 1015 53 0 3.5 127.532 10:40 18.10.2019
5761 Clouds 19 1028 39 10000 5.1 80 10:22 18.10.2019
5762 Clear 20 1015 53 0 3.5 127.532 09:57 18.10.2019
5763 Clear 20 1015 53 0 3.5 127.532 09:39 18.10.2019
5764 Clouds 15 1019 68 0 1.2 147.731 09:19 18.10.2019
5765 Clouds 15 1019 68 0 1.2 147.731 08:45 18.10.2019
5766 Clouds 15 1019 68 0 1.2 147.731 08:25 18.10.2019
5767 Clouds 15 1019 68 0 1.2 147.731 07:53 18.10.2019
5768 Clouds 11 1027 76 10000 2.1 320 07:35 18.10.2019
5769 Clouds 11 1027 76 10000 2.1 320 06:55 18.10.2019
5770 Clouds 11 1027 76 10000 2.1 320 06:55 18.10.2019
5771 Clouds 11 1027 76 10000 2.1 320 06:35 18.10.2019
5772 Clouds 8 1019 82 0 1.75 35.813 05:59 18.10.2019
5773 Clouds 8 1019 82 0 1.75 35.813 05:41 18.10.2019
5774 Clouds 8 1019 82 0 1.75 35.813 05:41 18.10.2019
5775 Clouds 8 1019 82 0 1.75 35.813 05:18 18.10.2019
5776 Clouds 8 1019 82 0 1.75 35.813 03:36 18.10.2019
5777 Clear 9 1017 78 0 2.06 28.278 02:51 18.10.2019
5778 Clouds 12 1026 71 10000 2.1 120 02:32 18.10.2019
5779 Clouds 12 1026 71 10000 2.1 120 01:39 18.10.2019
5780 Clouds 12 1026 71 10000 2.1 120 01:18 18.10.2019
5781 Clouds 10 1027 81 10000 1.5 140 00:40 18.10.2019
5782 Clouds 10 1027 81 10000 1.5 140 00:19 18.10.2019
5783 Clouds 10 1027 81 10000 1.5 140 00:19 18.10.2019
5784 Clouds 15 1027 54 10000 1.5 220 23:39 17.10.2019
5785 Clouds 15 1027 54 10000 1.5 220 23:20 17.10.2019
5786 Clouds 15 1027 54 10000 1.6 16.892 22:56 17.10.2019
5787 Clouds 15 1027 54 10000 1.6 16.892 22:56 17.10.2019
5788 -273 0 0 0 0 0 22:56 17.10.2019
5789 Clouds 15 1027 54 10000 1.6 16.892 22:38 17.10.2019
5790 Clouds 15 1027 54 10000 1.6 16.892 22:19 17.10.2019
5791 Clouds 15 1027 54 10000 3.1 80 21:56 17.10.2019
5792 Clouds 15 1027 54 10000 3.1 80 21:38 17.10.2019
5793 Clouds 15 1027 54 10000 3.1 80 21:20 17.10.2019
5794 Clouds 15 1027 54 10000 3.1 80 21:20 17.10.2019
5795 Clouds 15 1027 62 10000 4.1 80 20:57 17.10.2019
5796 Clouds 15 1027 62 10000 4.1 80 20:38 17.10.2019
5797 Clouds 15 1027 62 10000 4.1 80 20:19 17.10.2019
5798 Clouds 16 1026 55 10000 5.1 70 19:56 17.10.2019
5799 Clouds 16 1026 55 10000 5.1 70 19:38 17.10.2019
5800 Clouds 16 1026 55 10000 5.1 70 19:19 17.10.2019
5801 Clouds 17 1025 55 10000 6.2 70 18:43 17.10.2019
5802 Clouds 17 1025 55 10000 6.2 70 18:21 17.10.2019
5803 Clouds 18 1024 52 10000 7.2 80 17:58 17.10.2019
5804 Clouds 18 1024 52 10000 7.2 80 17:40 17.10.2019
5805 Clouds 18 1024 52 10000 7.2 80 17:22 17.10.2019
5806 Clouds 20 1024 52 10000 7.2 80 16:55 17.10.2019
5807 Clouds 20 1024 52 10000 7.2 80 16:37 17.10.2019
5808 Clouds 20 1024 52 10000 7.2 80 16:18 17.10.2019
5809 Clouds 22 1024 49 10000 7.2 100 15:41 17.10.2019
5810 Clouds 22 1023 49 10000 7.2 110 15:21 17.10.2019
5811 Clouds 22 1023 49 10000 7.2 110 14:59 17.10.2019
5812 Clouds 22 1023 49 10000 7.2 110 14:59 17.10.2019
5813 Clouds 22 1023 49 10000 7.2 110 14:41 17.10.2019
5814 Clouds 22 1023 49 10000 7.2 110 14:23 17.10.2019
5815 Clouds 23 1024 43 10000 6.2 110 13:42 17.10.2019
5816 Clouds 23 1024 43 10000 6.2 110 13:21 17.10.2019
5817 Clouds 21 1026 49 10000 5.1 100 12:59 17.10.2019
5818 Clouds 21 1026 49 10000 5.1 100 12:40 17.10.2019
5819 Clouds 21 1026 49 10000 5.1 100 12:20 17.10.2019
5820 Clouds 21 1026 49 10000 5.1 90 11:57 17.10.2019
5821 Clouds 21 1026 49 10000 5.1 90 11:39 17.10.2019
5822 Clouds 21 1026 49 10000 5.1 90 11:19 17.10.2019
5823 Clouds 21 1027 46 0 5.7 70 10:42 17.10.2019
5824 Clouds 21 1027 46 0 5.7 70 10:42 17.10.2019
5825 Clouds 21 1027 46 0 5.7 70 10:21 17.10.2019
5826 Clouds 21 1027 46 0 5.7 70 10:21 17.10.2019
5827 Clouds 20 1027 52 0 5.1 80 09:59 17.10.2019
5828 Clouds 20 1027 52 0 5.1 80 09:41 17.10.2019
5829 Clouds 20 1027 52 0 5.1 80 09:41 17.10.2019
5830 Clouds 20 1027 52 0 5.1 80 09:21 17.10.2019
5831 Clouds 16 1018 65 0 4.006 78 08:58 17.10.2019
5832 Clouds 16 1018 65 0 4.006 78 08:39 17.10.2019
5833 Clouds 16 1027 63 10000 4.6 70 08:19 17.10.2019
5834 Clouds 16 1027 63 10000 4.6 70 07:53 17.10.2019
5835 Clouds 16 1027 63 10000 4.6 70 07:21 17.10.2019
5836 Clouds 13 1027 71 10000 1.5 170 06:59 17.10.2019
5837 Clouds 13 1027 71 10000 1.5 170 06:39 17.10.2019
5838 Clouds 13 1027 71 10000 1.5 170 06:20 17.10.2019
5839 Clouds 11 1026 81 10000 1 250 05:46 17.10.2019
5840 Clouds 11 1026 81 10000 1 250 05:28 17.10.2019
5841 Clouds 12 1026 76 10000 1 50 04:50 17.10.2019
5842 Clouds 12 1026 76 10000 1 50 03:52 17.10.2019
5843 Clouds 12 1026 76 10000 3.1 160 02:35 17.10.2019
5844 Clouds 9 1016 81 0 2.419 17 00:54 17.10.2019
5845 Clouds 9 1016 81 0 2.419 17 00:36 17.10.2019
5846 Clouds 15 1026 58 10000 4.1 90 00:18 17.10.2019
5847 Clouds 15 1026 58 10000 4.1 90 23:42 16.10.2019
5848 Clouds 15 1026 58 10000 4.1 90 23:20 16.10.2019
5849 Clouds 15 1026 58 10000 4.1 90 22:55 16.10.2019
5850 Clouds 15 1026 58 10000 2.6 50 22:36 16.10.2019
5851 Clouds 15 1026 58 10000 2.6 50 22:18 16.10.2019
5852 Clouds 10 1017 75 0 2.709 15 21:55 16.10.2019
5853 Clouds 10 1017 75 0 2.84 15 21:37 16.10.2019
5854 Clouds 16 1025 55 10000 4.1 60 21:18 16.10.2019
5855 Clouds 16 1025 55 10000 4.1 60 20:56 16.10.2019
5856 Clouds 16 1025 55 10000 4.1 60 20:38 16.10.2019
5857 Clouds 16 1025 55 10000 4.1 60 20:20 16.10.2019
5858 Clear 11 1016 71 0 3.767 48 19:42 16.10.2019
5859 Clear 11 1016 71 0 3.767 48 19:21 16.10.2019
5860 Clear 11 1016 71 0 3.767 48 18:59 16.10.2019
5861 Clear 11 1016 71 0 3.767 48 18:39 16.10.2019
5862 Clouds 18 1023 48 10000 4.1 80 18:19 16.10.2019
5863 Clouds 18 1023 48 10000 4.1 80 18:19 16.10.2019
5864 Clouds 18 1023 48 10000 4.1 80 17:56 16.10.2019
5865 -273 0 0 0 0 0 17:56 16.10.2019
5866 Clouds 13 1013 71 0 4.396 80 17:37 16.10.2019
5867 Clouds 20 1023 40 10000 6.7 90 17:19 16.10.2019
5868 Clouds 20 1023 40 10000 6.7 90 16:57 16.10.2019
5869 Clouds 20 1023 40 10000 6.7 90 16:38 16.10.2019
5870 Clouds 20 1023 40 10000 6.7 90 16:20 16.10.2019
5871 Clouds 13 1013 71 0 4.396 80 15:42 16.10.2019
5872 Clouds 13 1013 71 0 4.396 80 15:41 16.10.2019
5873 Clouds 13 1013 71 0 4.396 80 15:41 16.10.2019
5874 -273 0 0 0 0 0 15:41 16.10.2019
5875 Clouds 22 1023 40 10000 5.1 100 15:20 16.10.2019
5876 Clouds 18 1010 63 0 7.089 92 14:59 16.10.2019
5877 Clear 18 1011 64 0 7 93 14:41 16.10.2019
5878 Clouds 22 1024 37 10000 7.7 100 14:23 16.10.2019
5879 Clouds 22 1024 37 10000 7.7 100 13:59 16.10.2019
5880 Clouds 22 1024 37 10000 7.7 100 13:41 16.10.2019
5881 Clouds 22 1024 37 10000 7.7 100 13:22 16.10.2019
5882 Clouds 21 1025 46 10000 7.7 100 12:44 16.10.2019
5883 Clouds 21 1025 46 10000 7.7 100 12:20 16.10.2019
5884 Clouds 21 1026 46 10000 7.2 90 11:59 16.10.2019
5885 Clouds 21 1026 46 10000 7.2 90 11:41 16.10.2019
5886 Clouds 21 1026 46 10000 7.2 90 11:18 16.10.2019
5887 Clouds 20 1026 49 10000 7.2 90 10:37 16.10.2019
5888 Clouds 20 1026 49 10000 7.2 90 10:19 16.10.2019
5889 Clouds 20 1026 49 10000 6.7 90 09:41 16.10.2019
5890 Clouds 20 1026 49 10000 6.7 90 09:22 16.10.2019
5891 Clouds 18 1027 55 10000 5.1 100 08:58 16.10.2019
5892 Clouds 18 1027 55 10000 5.1 100 08:40 16.10.2019
5893 Clouds 18 1027 55 10000 5.1 100 08:21 16.10.2019
5894 Clouds 14 1027 71 10000 2.6 140 07:43 16.10.2019
5895 Clouds 14 1027 71 10000 2.6 140 07:24 16.10.2019
5896 Clear 15 1017 71 0 5.032 82 06:56 16.10.2019
5897 Clear 15 1017 71 0 5.032 82 06:56 16.10.2019
5898 Clear 15 1017 71 0 5.032 82 06:35 16.10.2019
5899 Clouds 14 1025 62 10000 2.1 10 05:23 16.10.2019
5900 Clouds 14 1025 62 10000 3.1 60 02:57 16.10.2019
5901 Clouds 14 1025 62 10000 3.1 60 02:37 16.10.2019
5902 Clouds 14 1025 62 10000 5.1 50 01:18 16.10.2019
5903 Clouds 14 1025 62 10000 3.1 50 00:46 16.10.2019
5904 Clouds 14 1025 62 10000 3.1 50 00:25 16.10.2019
5905 Clouds 15 1026 54 10000 5.1 50 23:39 15.10.2019
5906 Clouds 15 1026 54 10000 5.1 50 23:21 15.10.2019
5907 Clouds 15 1026 58 10000 4.1 60 22:55 15.10.2019
5908 Clouds 15 1026 58 10000 4.1 60 22:37 15.10.2019
5909 Clouds 15 1026 58 10000 4.1 60 22:19 15.10.2019
5910 Clouds 16 1026 55 10000 5.1 40 21:55 15.10.2019
5911 Clouds 16 1026 55 10000 5.1 40 21:37 15.10.2019
5912 -273 0 0 0 0 0 21:19 15.10.2019
5913 Clouds 16 1026 55 10000 6.2 60 20:57 15.10.2019
5914 Clouds 16 1026 55 10000 6.2 60 20:39 15.10.2019
5915 Clouds 16 1026 55 10000 6.2 60 20:20 15.10.2019
5916 Clouds 11 1016 73 0 3.18 36 19:57 15.10.2019
5917 -273 0 0 0 0 0 19:39 15.10.2019
5918 Clouds 16 1024 55 10000 5.1 70 19:19 15.10.2019
5919 Clouds 16 1024 55 10000 5.1 70 19:19 15.10.2019
5920 Clouds 16 1024 55 10000 5.1 70 18:44 15.10.2019
5921 -273 0 0 0 0 0 18:26 15.10.2019
5922 Clouds 13 1013 71 0 4.228 84 17:58 15.10.2019
5923 Clouds 13 1013 71 0 4.228 84 17:38 15.10.2019
5924 Clouds 21 1023 37 10000 7.2 80 17:19 15.10.2019
5925 Clouds 21 1023 37 10000 7.2 80 16:46 15.10.2019
5926 Clouds 13 1013 71 0 4.228 84 16:23 15.10.2019
5927 Clouds 13 1013 71 0 4.228 84 15:59 15.10.2019
5928 Clouds 13 1013 71 0 4.228 84 15:41 15.10.2019
5929 Clouds 13 1013 71 0 4.228 84 15:41 15.10.2019
5930 Clouds 22 1024 35 10000 8.2 90 15:20 15.10.2019
5931 Clouds 22 1024 35 10000 8.2 90 14:58 15.10.2019
5932 Clouds 22 1024 35 10000 8.2 90 14:38 15.10.2019
5933 Clouds 22 1024 35 10000 8.2 90 14:19 15.10.2019
5934 Clouds 22 1024 35 10000 8.2 90 13:44 15.10.2019
5935 Clouds 22 1024 35 10000 8.2 90 13:21 15.10.2019
5936 Clouds 22 1025 33 10000 9.3 80 12:59 15.10.2019
5937 Clouds 22 1025 33 10000 9.3 80 12:39 15.10.2019
5938 Clouds 22 1025 33 10000 9.3 80 12:21 15.10.2019
5939 Clouds 22 1026 33 10000 10.3 80 11:55 15.10.2019
5940 Clouds 22 1026 33 10000 10.3 80 11:37 15.10.2019
5941 Clouds 22 1026 33 10000 10.3 80 11:18 15.10.2019
5942 Clouds 21 1027 32 10000 9.3 100 10:42 15.10.2019
5943 Clouds 21 1027 32 10000 9.3 100 10:19 15.10.2019
5944 Clouds 21 1027 28 10000 10.3 90 09:57 15.10.2019
5945 Clouds 21 1027 28 10000 10.3 90 09:37 15.10.2019
5946 Clouds 21 1027 28 10000 10.3 90 09:19 15.10.2019
5947 Clouds 18 1027 42 10000 5.1 110 08:42 15.10.2019
5948 Clouds 18 1027 42 10000 5.1 110 08:22 15.10.2019
5949 Clouds 14 1027 58 10000 1 140 07:56 15.10.2019
5950 Clouds 14 1027 58 10000 1 140 07:56 15.10.2019
5951 Clouds 14 1027 58 10000 1 140 07:38 15.10.2019
5952 Clouds 14 1027 58 10000 1 140 07:19 15.10.2019
5953 Clouds 16 1018 61 0 1.86 120.943 06:44 15.10.2019
5954 Clouds 10 1026 71 10000 2.07 31.535 06:25 15.10.2019
5955 Clouds 10 1026 71 10000 2.07 31.535 05:41 15.10.2019
5956 Clouds 10 1026 71 10000 2.07 31.535 05:23 15.10.2019
5957 Clouds 10 1026 71 10000 2.07 31.535 04:25 15.10.2019
5958 Clouds 10 1026 71 10000 2.07 31.535 03:37 15.10.2019
5959 Clouds 10 1026 71 10000 2.07 31.535 03:37 15.10.2019
5960 Clouds 12 1026 62 10000 2.1 340 02:24 15.10.2019
5961 Clouds 12 1026 62 10000 1.5 340 01:48 15.10.2019
5962 Clouds 12 1026 62 10000 1.5 340 01:19 15.10.2019
5963 Clouds 13 1027 58 10000 1 280 00:49 15.10.2019
5964 Clouds 13 1027 58 10000 1 280 00:21 15.10.2019
5965 Clouds 14 1027 50 10000 3.1 50 23:43 14.10.2019
5966 Clouds 14 1027 50 10000 3.1 50 23:20 14.10.2019
5967 Clouds 14 1028 47 10000 5.1 50 22:55 14.10.2019
5968 Clouds 14 1028 47 10000 5.1 50 22:37 14.10.2019
5969 Clouds 14 1028 47 10000 5.1 50 22:37 14.10.2019
5970 Clouds 14 1028 47 10000 5.1 50 22:18 14.10.2019
5971 Clouds 10 1019 68 0 1.94 27.172 21:41 14.10.2019
5972 Clouds 15 1027 47 10000 6.2 60 21:22 14.10.2019
5973 Clouds 15 1027 47 10000 6.2 60 20:59 14.10.2019
5974 Clouds 15 1027 47 10000 6.2 60 20:40 14.10.2019
5975 Clouds 15 1027 47 10000 6.2 60 20:21 14.10.2019
5976 Clouds 15 1027 47 10000 6.2 60 19:59 14.10.2019
5977 Clouds 15 1026 51 10000 7.2 60 19:40 14.10.2019
5978 Clouds 16 1025 44 10000 6.2 70 19:22 14.10.2019
5979 Clouds 16 1025 44 10000 6.2 70 18:58 14.10.2019
5980 Clouds 16 1025 44 10000 6.2 70 18:58 14.10.2019
5981 Clouds 16 1025 44 10000 6.2 70 18:58 14.10.2019
5982 Clouds 16 1025 44 10000 6.2 70 18:38 14.10.2019
5983 Clouds 16 1025 44 10000 6.2 70 18:19 14.10.2019
5984 Clouds 18 1025 42 10000 8.2 80 17:44 14.10.2019
5985 Clouds 18 1025 42 10000 8.2 80 17:44 14.10.2019
5986 Clouds 18 1025 42 10000 8.2 80 17:26 14.10.2019
5987 Clouds 18 1025 42 10000 8.2 80 16:59 14.10.2019
5988 Clouds 21 1024 40 10000 8.2 90 16:40 14.10.2019
5989 Clouds 21 1024 40 10000 8.2 90 16:20 14.10.2019
5990 Clouds 21 1024 43 10000 8.2 100 15:42 14.10.2019
5991 Clouds 21 1024 43 10000 8.2 100 15:22 14.10.2019
5992 Clouds 21 1024 46 10000 7.2 90 14:56 14.10.2019
5993 Clouds 21 1024 46 10000 7.2 90 14:56 14.10.2019
5994 Clouds 21 1024 46 10000 7.2 90 14:38 14.10.2019
5995 Clouds 21 1024 46 10000 7.2 90 14:18 14.10.2019
5996 Clouds 20 1012 57 0 5.66 107.237 13:42 14.10.2019
5997 Clouds 22 1026 40 10000 9.3 100 13:21 14.10.2019
5998 Clouds 22 1026 40 10000 9.3 100 12:54 14.10.2019
5999 Clouds 22 1026 40 10000 9.3 100 12:36 14.10.2019
6000 Clouds 22 1026 40 10000 9.3 100 12:18 14.10.2019
6001 Clouds 20 1016 56 0 3.27 139.995 11:43 14.10.2019
6002 Clouds 20 1016 56 0 3.27 139.995 11:24 14.10.2019
6003 Clouds 20 1016 56 0 3.27 139.995 10:55 14.10.2019
6004 Clouds 20 1016 56 0 3.27 139.995 10:37 14.10.2019
6005 Clouds 20 1016 56 0 3.27 139.995 10:18 14.10.2019
6006 Clouds 20 1016 56 0 3.27 139.995 09:41 14.10.2019
6007 Clouds 17 1028 67 10000 2.1 140 09:21 14.10.2019
6008 Clouds 17 1028 67 10000 2.1 140 08:50 14.10.2019
6009 Clouds 17 1028 67 10000 2.1 140 08:23 14.10.2019
6010 Clouds 15 1018 73 0 0.79 122.388 07:47 14.10.2019
6011 Clouds 15 1018 73 0 0.79 122.388 07:25 14.10.2019
6012 Clouds 15 1018 73 0 0.79 122.388 06:58 14.10.2019
6013 Clouds 15 1018 73 0 0.79 122.388 06:28 14.10.2019
6014 Clouds 10 1018 86 0 1.18 14.909 05:57 14.10.2019
6015 Clouds 10 1018 86 0 1.18 14.909 05:26 14.10.2019
6016 Clouds 11 1026 87 10000 2.1 340 03:50 14.10.2019
6017 Clouds 11 1026 87 10000 2.1 340 03:25 14.10.2019
6018 Clouds 11 1026 87 10000 2.1 70 02:31 14.10.2019
6019 Clouds 13 1026 76 10000 2.1 240 01:21 14.10.2019
6020 Clouds 13 1026 76 10000 1 160 00:42 14.10.2019
6021 Clouds 13 1026 76 10000 1 160 00:18 14.10.2019
6022 Clouds 13 1027 82 10000 2.1 80 23:41 13.10.2019
6023 Clouds 13 1027 82 10000 2.1 80 23:19 13.10.2019
6024 Clouds 13 1027 82 10000 2.1 80 23:19 13.10.2019
6025 Clouds 10 1017 85 0 0.98 30.034 22:57 13.10.2019
6026 Clouds 10 1017 85 0 0.98 30.034 22:57 13.10.2019
6027 Clouds 10 1017 85 0 0.98 30.034 22:39 13.10.2019
6028 Clouds 10 1017 85 0 0.98 30.034 22:20 13.10.2019
6029 Clouds 10 1017 85 0 0.98 30.034 22:20 13.10.2019
6030 Clouds 10 1017 85 0 0.98 30.034 21:57 13.10.2019
6031 Clouds 10 1017 85 0 0.98 30.034 21:36 13.10.2019
6032 Clouds 15 1026 77 10000 2.1 30 21:18 13.10.2019
6033 Clouds 15 1026 77 10000 2.1 30 20:56 13.10.2019
6034 Clouds 15 1026 77 10000 2.1 30 20:37 13.10.2019
6035 Clouds 15 1026 77 10000 2.1 30 20:37 13.10.2019
6036 Clouds 15 1026 77 10000 2.1 30 20:37 13.10.2019
6037 Clouds 15 1026 77 10000 2.1 30 20:18 13.10.2019
6038 Clouds 15 1026 77 10000 3.6 70 19:55 13.10.2019
6039 Clouds 15 1026 77 10000 3.6 70 19:36 13.10.2019
6040 Clouds 15 1026 77 10000 3.6 70 19:36 13.10.2019
6041 Clouds 15 1026 77 10000 3.6 70 19:18 13.10.2019
6042 Rain 12 1016 83 0 2.41 71.911 18:41 13.10.2019
6043 Rain 15 1012 78 0 2.9 109.055 18:21 13.10.2019
6044 Rain 15 1012 78 0 2.9 109.055 17:59 13.10.2019
6045 Rain 15 1012 78 0 2.9 109.055 17:41 13.10.2019
6046 Rain 15 1012 78 0 2.9 109.055 17:41 13.10.2019
6047 Rain 15 1012 78 0 2.9 109.055 17:41 13.10.2019
6048 Clouds 18 1023 63 10000 5.1 90 17:23 13.10.2019
6049 Rain 15 1012 78 0 2.9 109.055 16:44 13.10.2019
6050 Clouds 19 1023 59 10000 6.2 100 16:20 13.10.2019
6051 Rain 15 1012 78 0 2.9 109.055 15:58 13.10.2019
6052 Rain 15 1012 78 0 2.9 109.055 15:39 13.10.2019
6053 Rain 19 1009 67 0 5.07 106.194 15:20 13.10.2019
6054 Rain 19 1009 67 0 5.07 106.194 14:58 13.10.2019
6055 Rain 19 1009 67 0 5.07 106.194 14:39 13.10.2019
6056 Rain 19 1009 67 0 5.07 106.194 14:39 13.10.2019
6057 Clouds 20 1023 52 10000 7.7 80 14:21 13.10.2019
6058 Clouds 20 1023 52 10000 7.7 80 13:56 13.10.2019
6059 Clouds 20 1023 52 10000 7.7 80 13:37 13.10.2019
6060 Clouds 20 1023 52 10000 7.7 80 13:18 13.10.2019
6061 Clouds 20 1024 49 10000 8.7 110 12:55 13.10.2019
6062 Rain 20 1010 66 0 4.94 111.509 12:37 13.10.2019
6063 Clouds 20 1024 52 10000 8.2 90 12:18 13.10.2019
6064 Clouds 20 1024 52 10000 8.2 90 11:55 13.10.2019
6065 Clouds 20 1024 52 10000 8.2 90 11:37 13.10.2019
6066 Clouds 20 1024 52 10000 8.2 90 11:18 13.10.2019
6067 Clouds 20 1024 52 10000 8.2 90 11:18 13.10.2019
6068 Clouds 19 1013 65 0 2.89 152.957 10:41 13.10.2019
6069 Clouds 19 1013 65 0 2.89 152.957 10:41 13.10.2019
6070 Clouds 19 1025 52 10000 8.2 90 10:22 13.10.2019
6071 Clouds 19 1025 52 10000 8.2 90 09:41 13.10.2019
6072 Clouds 19 1025 52 10000 8.2 90 09:21 13.10.2019
6073 Clouds 15 1016 72 0 0.77 208.19 08:58 13.10.2019
6074 Clouds 15 1016 72 0 0.77 208.19 08:38 13.10.2019
6075 Clouds 16 1025 67 10000 4.1 90 08:19 13.10.2019
6076 Clouds 16 1025 67 10000 4.1 90 07:46 13.10.2019
6077 Clouds 14 1025 82 10000 2.6 110 06:59 13.10.2019
6078 Clouds 14 1025 82 10000 2.6 110 06:41 13.10.2019
6079 Clouds 12 1024 93 10000 1 360 05:39 13.10.2019
6080 Clouds 13 1023 87 10000 3.1 120 04:46 13.10.2019
6081 Clouds 10 1016 81 0 1.17 33.104 03:40 13.10.2019
6082 Clouds 13 1024 93 10000 3.6 50 02:41 13.10.2019
6083 Clouds 10 1014 80 0 1.22 45.199 01:53 13.10.2019
6084 Clouds 10 1014 80 0 1.26 40.532 01:26 13.10.2019
6085 Clouds 10 1014 80 0 1.26 40.532 01:26 13.10.2019
6086 Clouds 10 1014 80 0 1.26 40.532 00:46 13.10.2019
6087 Clouds 16 1025 72 10000 3.1 120 00:21 13.10.2019
6088 Clouds 16 1025 72 10000 3.1 120 23:55 12.10.2019
6089 Clouds 16 1025 72 10000 3.1 120 23:36 12.10.2019
6090 Clouds 16 1025 72 10000 3.1 120 23:18 12.10.2019
6091 Clouds 16 1025 77 10000 2.1 130 22:56 12.10.2019
6092 Clouds 16 1025 77 10000 2.1 130 22:37 12.10.2019
6093 Clouds 16 1025 77 10000 2.1 130 22:37 12.10.2019
6094 Clouds 11 1016 77 0 1.69 30.364 22:19 12.10.2019
6095 Clouds 11 1016 77 0 1.69 30.364 21:42 12.10.2019
6096 -273 0 0 0 0 0 21:24 12.10.2019
6097 Clouds 12 1015 81 0 2.27 41.355 20:58 12.10.2019
6098 Clouds 12 1015 81 0 2.27 41.355 20:58 12.10.2019
6099 Clouds 12 1015 81 0 2.27 41.355 20:39 12.10.2019
6100 Clouds 17 1024 67 10000 3.1 70 20:21 12.10.2019
6101 Clouds 17 1024 67 10000 3.1 70 19:37 12.10.2019
6102 Clouds 17 1024 67 10000 3.1 70 19:19 12.10.2019
6103 Clouds 17 1024 67 10000 3.1 70 18:56 12.10.2019
6104 Clouds 12 1015 81 0 2.27 41.355 18:36 12.10.2019
6105 Clouds 19 1023 59 10000 5.1 90 18:18 12.10.2019
6106 Clouds 19 1023 59 10000 5.1 90 17:42 12.10.2019
6107 Clouds 19 1023 59 10000 5.1 90 17:19 12.10.2019
6108 Clouds 21 1022 49 10000 7.2 90 16:41 12.10.2019
6109 Clouds 21 1022 49 10000 7.2 90 16:41 12.10.2019
6110 Clouds 21 1022 49 10000 7.2 90 16:22 12.10.2019
6111 Clouds 22 1021 43 10000 7.7 90 15:59 12.10.2019
6112 Clouds 22 1021 43 10000 7.7 90 15:40 12.10.2019
6113 Clouds 22 1021 43 10000 7.7 90 15:21 12.10.2019
6114 Clouds 20 1009 66 0 5.66 103.832 14:41 12.10.2019
6115 Clouds 22 1023 46 10000 7.2 90 14:22 12.10.2019
6116 Clouds 22 1023 46 10000 7.2 90 14:22 12.10.2019
6117 Clouds 22 1023 46 10000 7.2 90 13:53 12.10.2019
6118 Clouds 22 1023 46 10000 7.2 90 13:33 12.10.2019
6119 Clouds 22 1023 46 10000 7.2 90 12:59 12.10.2019
6120 Clouds 22 1023 46 10000 7.2 90 12:59 12.10.2019
6121 Clouds 19 1024 55 10000 6.2 70 12:39 12.10.2019
6122 Clouds 21 1025 49 10000 6.7 100 12:20 12.10.2019
6123 Clouds 21 1025 49 10000 6.7 100 11:58 12.10.2019
6124 Clouds 21 1025 49 10000 6.7 100 11:38 12.10.2019
6125 Clouds 21 1025 49 10000 6.7 100 11:19 12.10.2019
6126 Clouds 20 1025 52 10000 5.1 110 10:41 12.10.2019
6127 Clouds 20 1025 52 10000 5.1 110 10:23 12.10.2019
6128 Clouds 20 1026 52 10000 4.1 120 09:57 12.10.2019
6129 -273 0 0 0 0 0 09:57 12.10.2019
6130 Clouds 20 1026 52 10000 4.1 120 09:38 12.10.2019
6131 Clouds 20 1026 52 10000 4.1 120 09:19 12.10.2019
6132 Clouds 18 1026 59 10000 3.6 100 08:44 12.10.2019
6133 Clouds 18 1026 59 10000 3.6 100 08:25 12.10.2019
6134 Clouds 15 1017 78 0 1.22 188.276 07:57 12.10.2019
6135 Clouds 13 1026 82 10000 1.5 80 07:31 12.10.2019
6136 Clouds 13 1026 82 10000 1.5 80 06:28 12.10.2019
6137 Clouds 9 1017 88 0 0.98 20.329 05:43 12.10.2019
6138 Clouds 12 1024 81 10000 0.98 20.329 04:34 12.10.2019
6139 Clouds 9 1017 88 0 0.98 20.329 03:54 12.10.2019
6140 Clouds 10 1015 91 0 1.06 14.365 02:50 12.10.2019
6141 Clouds 14 1024 71 10000 2.1 70 01:33 12.10.2019
6142 Clouds 14 1025 67 10000 3.1 100 00:56 12.10.2019
6143 Clouds 14 1025 67 10000 3.1 100 00:37 12.10.2019
6144 Clouds 15 1025 62 10000 3.1 50 23:55 11.10.2019
6145 Clouds 15 1025 62 10000 3.1 50 23:36 11.10.2019
6146 Clouds 15 1025 62 10000 3.1 50 23:18 11.10.2019
6147 Clouds 15 1025 62 10000 4.1 50 22:38 11.10.2019
6148 Clouds 15 1025 62 10000 4.1 50 22:19 11.10.2019
6149 Clouds 15 1025 82 10000 2.1 50 21:43 11.10.2019
6150 Clouds 15 1025 82 10000 2.1 50 21:21 11.10.2019
6151 Clouds 15 1025 82 10000 3.1 70 20:57 11.10.2019
6152 Clouds 15 1025 82 10000 3.1 70 20:39 11.10.2019
6153 Clouds 15 1025 82 10000 3.1 70 20:20 11.10.2019
6154 Clouds 15 1025 82 10000 3.1 70 20:20 11.10.2019
6155 Clouds 15 1024 82 10000 3.1 80 19:55 11.10.2019
6156 Clouds 15 1024 82 10000 3.1 80 19:37 11.10.2019
6157 Clouds 15 1024 82 10000 3.1 80 19:18 11.10.2019
6158 Clouds 15 1024 82 10000 3.1 80 19:18 11.10.2019
6159 Clouds 15 1024 82 10000 3.1 80 19:18 11.10.2019
6160 Clouds 15 1024 82 10000 3.1 80 19:18 11.10.2019
6161 Clouds 15 1024 82 10000 3.1 80 19:18 11.10.2019
6162 Clouds 15 1024 82 10000 3.1 80 18:56 11.10.2019
6163 Rain 12 1015 91 0 1.86 30.837 18:37 11.10.2019
6164 Clouds 18 1023 59 10000 6.2 90 18:18 11.10.2019
6165 Clouds 18 1023 59 10000 6.2 90 17:55 11.10.2019
6166 Clouds 18 1023 59 10000 6.2 90 17:36 11.10.2019
6167 Clouds 18 1023 59 10000 6.2 90 17:18 11.10.2019
6168 Clouds 21 1023 49 10000 6.7 100 16:40 11.10.2019
6169 Clouds 21 1023 49 10000 6.7 100 16:20 11.10.2019
6170 Clouds 21 1023 46 10000 7.2 90 15:58 11.10.2019
6171 Clouds 21 1023 46 10000 7.2 90 15:38 11.10.2019
6172 Rain 19 1011 73 0 3.87 113.889 15:18 11.10.2019
6173 Rain 19 1011 73 0 3.87 113.889 14:46 11.10.2019
6174 Clouds 21 1024 49 10000 7.7 100 14:28 11.10.2019
6175 Clouds 21 1024 49 10000 7.7 100 13:56 11.10.2019
6176 Clouds 21 1024 49 10000 7.7 100 13:37 11.10.2019
6177 Clouds 21 1025 49 10000 7.2 100 13:18 11.10.2019
6178 Clouds 21 1025 49 10000 7.2 100 12:42 11.10.2019
6179 Clouds 21 1025 49 10000 7.2 100 12:22 11.10.2019
6180 Rain 19 1014 71 0 2.65 142.352 12:00 11.10.2019
6181 Rain 19 1014 71 0 2.65 142.352 11:40 11.10.2019
6182 Clouds 19 1027 52 10000 5.7 90 11:21 11.10.2019
6183 Clouds 19 1027 52 10000 5.7 90 10:56 11.10.2019
6184 Clouds 19 1027 52 10000 5.7 90 10:56 11.10.2019
6185 Clouds 19 1027 52 10000 5.7 90 10:38 11.10.2019
6186 Clouds 19 1027 52 10000 5.7 90 10:19 11.10.2019
6187 Clouds 18 1028 63 10000 3.1 110 09:54 11.10.2019
6188 Clouds 18 1028 63 10000 3.1 110 09:54 11.10.2019
6189 Clouds 18 1028 63 10000 3.1 110 09:36 11.10.2019
6190 Clouds 18 1028 63 10000 3.1 110 09:18 11.10.2019
6191 Clear 15 1018 79 0 1.05 181.206 08:39 11.10.2019
6192 Clear 15 1018 79 0 1.05 181.206 08:21 11.10.2019
6193 Clear 15 1018 79 0 1.05 181.206 07:59 11.10.2019
6194 Clear 15 1018 79 0 1.05 181.206 07:40 11.10.2019
6195 Clouds 12 1027 87 10000 1 80 07:20 11.10.2019
6196 Clouds 12 1027 87 10000 1 80 06:43 11.10.2019
6197 Clouds 12 1027 87 10000 1 80 06:21 11.10.2019
6198 Clouds 12 1025 87 10000 2.1 320 05:32 11.10.2019
6199 Clouds 12 1025 87 10000 2.1 320 04:59 11.10.2019
6200 Clouds 12 1025 87 10000 1 210 03:46 11.10.2019
6201 Clear 10 1016 90 0 0.74 4.673 01:58 11.10.2019
6202 Clouds 10 1016 91 0 0.63 355.335 00:42 11.10.2019
6203 Clouds 10 1016 91 0 0.63 355.335 00:42 11.10.2019
6204 Clouds 14 1026 82 10000 3.1 100 00:23 11.10.2019
6205 Clouds 14 1026 82 10000 3.1 100 23:42 10.10.2019
6206 Clouds 14 1026 82 10000 3.1 100 23:20 10.10.2019
6207 Clouds 14 1026 82 10000 2.6 80 22:57 10.10.2019
6208 Clouds 14 1026 82 10000 2.6 80 22:38 10.10.2019
6209 Clouds 14 1026 82 10000 2.6 80 22:19 10.10.2019
6210 Clouds 11 1017 91 0 0.92 28.01 21:54 10.10.2019
6211 Clouds 11 1017 91 0 0.92 28.01 21:36 10.10.2019
6212 Rain 12 1016 92 0 1.74 58.472 21:18 10.10.2019
6213 Rain 12 1016 91 0 1.76 56.481 20:41 10.10.2019
6214 Clouds 16 1025 72 10000 5.1 70 20:21 10.10.2019
6215 Clouds 16 1025 72 10000 5.1 70 19:58 10.10.2019
6216 Clouds 16 1025 72 10000 5.1 70 19:39 10.10.2019
6217 Clouds 16 1025 72 10000 5.1 70 19:20 10.10.2019
6218 Clouds 17 1024 67 10000 3.1 100 18:56 10.10.2019
6219 Clouds 17 1024 67 10000 3.1 100 18:38 10.10.2019
6220 Clouds 17 1024 67 10000 3.1 100 18:19 10.10.2019
6221 Clouds 19 1023 55 10000 5.7 100 17:41 10.10.2019
6222 Clouds 19 1023 55 10000 5.7 100 17:41 10.10.2019
6223 Clouds 19 1023 55 10000 5.7 100 17:20 10.10.2019
6224 Clouds 21 1022 43 10000 4.1 80 16:58 10.10.2019
6225 Clouds 21 1022 43 10000 4.1 80 16:40 10.10.2019
6226 Clouds 21 1022 43 10000 4.1 80 16:21 10.10.2019
6227 Clouds 21 1023 43 10000 6.2 80 15:43 10.10.2019
6228 Clouds 21 1023 43 10000 6.2 80 15:43 10.10.2019
6229 Clouds 21 1023 43 10000 6.2 80 15:24 10.10.2019
6230 Clouds 21 1023 43 10000 6.2 80 14:59 10.10.2019
6231 Clouds 21 1023 46 10000 7.2 80 14:37 10.10.2019
6232 Clouds 21 1023 46 10000 7.2 80 14:19 10.10.2019
6233 Clouds 21 1024 49 10000 7.2 80 13:59 10.10.2019
6234 Clouds 21 1024 49 10000 7.2 80 13:39 10.10.2019
6235 Clouds 21 1024 49 10000 7.2 80 13:18 10.10.2019
6236 Clouds 21 1024 49 10000 7.2 80 13:18 10.10.2019
6237 Clouds 20 1025 52 10000 7.2 90 12:54 10.10.2019
6238 Clouds 20 1025 52 10000 7.2 90 12:36 10.10.2019
6239 Clouds 20 1025 52 10000 7.2 90 12:18 10.10.2019
6240 Clouds 19 1026 52 10000 7.2 90 11:42 10.10.2019
6241 Clouds 19 1026 52 10000 7.2 90 11:42 10.10.2019
6242 Clouds 19 1026 52 10000 7.2 90 11:20 10.10.2019
6243 Clouds 19 1014 64 0 2.52 157.92 10:58 10.10.2019
6244 Clouds 19 1014 64 0 2.52 157.92 10:40 10.10.2019
6245 Clouds 18 1027 55 10000 6.2 90 10:21 10.10.2019
6246 -273 0 0 0 0 0 09:54 10.10.2019
6247 Clouds 18 1027 55 10000 6.2 90 09:36 10.10.2019
6248 Clouds 18 1027 55 10000 6.2 90 09:18 10.10.2019
6249 Clouds 17 1027 67 10000 4.1 80 08:41 10.10.2019
6250 Clouds 17 1027 67 10000 4.1 80 08:21 10.10.2019
6251 Clouds 14 1018 78 0 1.75 171.43 07:57 10.10.2019
6252 Clouds 14 1018 78 0 1.75 171.43 07:36 10.10.2019
6253 Clouds 14 1018 78 0 1.75 171.43 07:18 10.10.2019
6254 Clouds 14 1018 78 0 1.75 171.43 06:39 10.10.2019
6255 Clouds 10 1017 82 0 1.37 33.991 05:57 10.10.2019
6256 Clouds 10 1017 82 0 1.37 33.991 05:22 10.10.2019
6257 Clouds 10 1017 82 0 1.37 33.991 04:36 10.10.2019
6258 Clouds 10 1016 85 0 1.04 49.196 02:49 10.10.2019
6259 Clouds 10 1016 85 0 1.04 49.196 01:41 10.10.2019
6260 Clouds 10 1015 87 0 0.88 58.077 01:22 10.10.2019
6261 Clouds 10 1015 87 0 0.88 58.077 00:41 10.10.2019
6262 Clouds 11 1017 88 0 1.4 55.307 00:19 10.10.2019
6263 Clouds 11 1017 88 0 1.4 55.307 23:38 09.10.2019
6264 Clouds 11 1017 88 0 1.4 55.307 23:19 09.10.2019
6265 Clouds 11 1017 88 0 1.4 55.307 23:19 09.10.2019
6266 Clouds 11 1017 88 0 1.4 55.307 22:42 09.10.2019
6267 Clouds 11 1017 88 0 1.4 55.307 22:23 09.10.2019
6268 Clouds 11 1017 88 0 1.4 55.307 21:58 09.10.2019
6269 Clouds 11 1017 88 0 1.4 55.307 21:39 09.10.2019
6270 Clear 12 1016 89 0 2.23 58.825 21:19 09.10.2019
6271 Rain 12 1015 89 0 2.14 50.842 20:55 09.10.2019
6272 Rain 12 1015 89 0 2.14 50.842 20:55 09.10.2019
6273 Rain 12 1015 89 0 2.14 50.842 20:37 09.10.2019
6274 Rain 12 1015 89 0 2.14 50.842 20:18 09.10.2019
6275 Rain 12 1015 89 0 2.14 50.842 20:18 09.10.2019
6276 Rain 12 1015 89 0 2.14 50.842 20:18 09.10.2019
6277 Rain 12 1015 89 0 2.14 50.842 19:45 09.10.2019
6278 Rain 12 1015 89 0 2.14 50.842 19:23 09.10.2019
6279 Rain 12 1015 89 0 2.14 50.842 18:56 09.10.2019
6280 Rain 12 1015 89 0 2.14 50.842 18:37 09.10.2019
6281 Clear 15 1012 82 0 2.58 114.924 18:18 09.10.2019
6282 Clear 15 1012 82 0 2.58 114.924 17:54 09.10.2019
6283 Clear 15 1012 82 0 2.58 114.924 17:36 09.10.2019
6284 Clear 15 1012 82 0 2.58 114.924 17:18 09.10.2019
6285 Clear 15 1012 82 0 2.58 114.924 16:40 09.10.2019
6286 Clouds 22 1022 46 10000 7.2 80 16:21 09.10.2019
6287 Clouds 22 1022 46 10000 7.2 80 15:57 09.10.2019
6288 Clouds 22 1022 46 10000 7.2 80 15:38 09.10.2019
6289 Clouds 22 1022 46 10000 7.2 80 15:19 09.10.2019
6290 Clouds 22 1023 46 10000 8.2 90 14:56 09.10.2019
6291 Clouds 22 1023 46 10000 8.2 90 14:37 09.10.2019
6292 Clouds 22 1023 46 10000 8.2 90 14:18 09.10.2019
6293 Rain 20 1010 62 0 5.57 106.384 13:39 09.10.2019
6294 Rain 20 1010 62 0 5.57 106.384 13:39 09.10.2019
6295 Clouds 21 1025 46 10000 8.2 90 13:20 09.10.2019
6296 Clouds 21 1025 46 10000 8.2 90 12:57 09.10.2019
6297 Clouds 21 1025 46 10000 8.2 90 12:37 09.10.2019
6298 Clouds 20 1026 52 10000 8.2 100 12:19 09.10.2019
6299 Rain 19 1015 63 0 5.51 113.432 11:40 09.10.2019
6300 Clouds 20 1027 49 10000 8.2 100 11:21 09.10.2019
6301 Clouds 20 1027 49 10000 8.2 100 10:59 09.10.2019
6302 Rain 19 1015 63 0 5.51 113.432 10:40 09.10.2019
6303 Clouds 19 1027 59 10000 7.2 80 10:20 09.10.2019
6304 Clouds 19 1027 59 10000 7.2 80 09:56 09.10.2019
6305 Clouds 19 1027 59 10000 7.2 80 09:38 09.10.2019
6306 Clouds 19 1027 59 10000 7.2 80 09:38 09.10.2019
6307 Clouds 19 1027 59 10000 7.2 80 09:18 09.10.2019
6308 Clouds 16 1017 75 0 2.57 131.125 08:39 09.10.2019
6309 Clouds 16 1017 75 0 2.57 131.125 08:20 09.10.2019
6310 Clouds 16 1017 75 0 2.57 131.125 08:20 09.10.2019
6311 Clouds 16 1017 75 0 2.57 131.125 07:47 09.10.2019
6312 Clouds 16 1017 75 0 2.57 131.125 07:25 09.10.2019
6313 Clouds 16 1017 75 0 2.57 131.125 07:25 09.10.2019
6314 Clouds 16 1017 75 0 2.57 131.125 07:25 09.10.2019
6315 Clouds 16 1017 75 0 2.57 131.125 06:58 09.10.2019
6316 Clouds 16 1017 75 0 2.57 131.125 06:40 09.10.2019
6317 Clouds 10 1018 95 0 0.71 14.389 05:53 09.10.2019
6318 Clouds 10 1018 95 0 0.71 14.389 05:18 09.10.2019
6319 Clouds 10 1018 95 0 0.71 14.389 03:48 09.10.2019
6320 Rain 11 1016 94 0 0.19 207.231 02:35 09.10.2019
6321 Rain 11 1016 94 0 0.19 207.231 01:39 09.10.2019
6322 Clouds 14 1025 82 10000 3.1 130 01:18 09.10.2019
6323 Clouds 14 1025 82 10000 3.1 130 00:55 09.10.2019
6324 Clouds 14 1025 82 10000 3.1 130 00:55 09.10.2019
6325 Clouds 14 1025 82 10000 3.1 130 00:36 09.10.2019
6326 Clouds 14 1025 82 10000 3.1 130 00:18 09.10.2019
6327 Clouds 15 1026 72 10000 3.1 100 23:38 08.10.2019
6328 Clouds 15 1026 72 10000 3.1 100 23:18 08.10.2019
6329 Drizzle 15 1027 82 0 2.1 140 22:55 08.10.2019
6330 Drizzle 15 1027 82 0 2.1 140 22:36 08.10.2019
6331 Clouds 15 1027 87 10000 2.1 200 22:18 08.10.2019
6332 Clouds 15 1027 87 10000 2.1 200 21:55 08.10.2019
6333 Clouds 15 1027 87 10000 2.1 200 21:36 08.10.2019
6334 Clouds 15 1027 87 10000 2.1 200 21:18 08.10.2019
6335 Clouds 16 1026 67 10000 2.1 100 20:55 08.10.2019
6336 Clouds 16 1026 67 10000 2.1 100 20:36 08.10.2019
6337 Clouds 16 1026 67 10000 2.1 100 20:18 08.10.2019
6338 Clouds 11 1016 86 0 1.92 62.155 19:42 08.10.2019
6339 Clouds 11 1016 86 0 1.92 62.155 19:24 08.10.2019
6340 Clouds 11 1016 86 0 1.92 62.155 18:59 08.10.2019
6341 Clouds 11 1016 86 0 1.92 62.155 18:41 08.10.2019
6342 Clouds 15 1013 79 0 3.01 89.638 18:22 08.10.2019
6343 Clouds 15 1013 79 0 3.01 89.638 17:57 08.10.2019
6344 Clouds 15 1013 79 0 3.01 89.638 17:39 08.10.2019
6345 Clouds 15 1013 79 0 3.01 89.638 17:18 08.10.2019
6346 Clouds 15 1013 79 0 3.01 89.638 16:55 08.10.2019
6347 Clouds 15 1013 79 0 3.01 89.638 16:37 08.10.2019
6348 Clouds 23 1023 43 10000 6.2 90 16:18 08.10.2019
6349 Clouds 23 1023 43 10000 6.2 90 15:38 08.10.2019
6350 Clouds 23 1023 43 10000 6.2 90 15:20 08.10.2019
6351 Clouds 23 1023 43 10000 8.2 80 14:55 08.10.2019
6352 Clouds 23 1023 43 10000 8.2 80 14:37 08.10.2019
6353 Clouds 23 1023 43 10000 8.2 80 14:19 08.10.2019
6354 Clouds 21 1023 46 10000 8.2 80 13:54 08.10.2019
6355 -273 0 0 0 0 0 13:54 08.10.2019
6356 Clouds 21 1023 46 10000 8.2 80 13:36 08.10.2019
6357 Clouds 21 1023 46 10000 8.2 80 13:18 08.10.2019
6358 Clouds 19 1010 62 0 7.59 95.454 12:40 08.10.2019
6359 Clear 20 1014 59 0 7.04 93.721 12:20 08.10.2019
6360 Clear 20 1014 59 0 7.04 93.721 11:57 08.10.2019
6361 Clear 20 1014 59 0 7.04 93.721 11:38 08.10.2019
6362 Clear 20 1014 59 0 7.04 93.721 11:20 08.10.2019
6363 Clear 20 1014 59 0 7.04 93.721 10:42 08.10.2019
6364 Clear 20 1014 59 0 7.04 93.721 10:22 08.10.2019
6365 Clear 20 1014 59 0 7.04 93.721 09:58 08.10.2019
6366 Clear 20 1014 59 0 7.04 93.721 09:40 08.10.2019
6367 Clear 20 1014 59 0 7.04 93.721 09:40 08.10.2019
6368 Clouds 17 1016 66 0 3.31 96.812 09:21 08.10.2019
6369 Clouds 16 1017 68 0 2.95 108.072 08:45 08.10.2019
6370 Clouds 16 1017 68 0 2.95 108.072 08:25 08.10.2019
6371 Clouds 16 1017 68 0 2.95 108.072 07:47 08.10.2019
6372 Clouds 16 1017 68 0 2.95 108.072 07:23 08.10.2019
6373 Clouds 16 1017 68 0 2.95 108.072 06:57 08.10.2019
6374 Clouds 16 1017 68 0 2.95 108.072 06:36 08.10.2019
6375 Clouds 10 1017 83 0 2.33 42.1 05:59 08.10.2019
6376 Clouds 10 1017 83 0 2.33 42.1 05:40 08.10.2019
6377 Clouds 10 1017 83 0 2.33 42.1 05:40 08.10.2019
6378 Clouds 15 1024 72 10000 2.6 160 04:55 08.10.2019
6379 Clouds 14 1023 82 10000 2.6 100 03:30 08.10.2019
6380 Clouds 14 1023 82 10000 2.6 100 03:30 08.10.2019
6381 Clouds 14 1023 82 10000 2.6 100 02:40 08.10.2019
6382 Clouds 11 1015 86 0 2.03 32.389 01:51 08.10.2019
6383 Clouds 17 1025 77 10000 2.6 60 01:32 08.10.2019
6384 Clouds 17 1025 77 10000 2.6 60 00:55 08.10.2019
6385 Clouds 17 1025 77 10000 2.6 60 00:22 08.10.2019
6386 Clouds 11 1016 87 0 1.65 45.688 23:43 07.10.2019
6387 Clouds 17 1025 77 10000 3.1 80 23:21 07.10.2019
6388 Clouds 11 1016 87 0 1.65 45.688 22:58 07.10.2019
6389 Clouds 11 1016 87 0 1.65 45.688 22:58 07.10.2019
6390 Clouds 11 1016 87 0 1.65 45.688 22:40 07.10.2019
6391 Clouds 18 1026 72 10000 2.6 80 22:21 07.10.2019
6392 Clouds 18 1026 72 10000 2.6 80 22:21 07.10.2019
6393 Clouds 18 1026 72 10000 2.6 80 21:58 07.10.2019
6394 Clouds 18 1026 72 10000 2.6 80 21:40 07.10.2019
6395 Clouds 18 1026 72 10000 2.6 80 21:20 07.10.2019
6396 Clouds 19 1025 72 10000 2.1 100 20:58 07.10.2019
6397 Clouds 19 1025 72 10000 2.1 100 20:39 07.10.2019
6398 Clouds 19 1025 72 10000 2.1 100 20:21 07.10.2019
6399 Clouds 19 1025 72 10000 5.1 70 19:58 07.10.2019
6400 Clouds 19 1025 72 10000 5.1 70 19:40 07.10.2019
6401 Clouds 19 1025 72 10000 5.1 70 19:20 07.10.2019
6402 Clouds 19 1025 72 10000 5.1 70 19:20 07.10.2019
6403 Clear 12 1015 88 0 2 50.11 18:58 07.10.2019
6404 Clear 12 1015 88 0 2 50.11 18:38 07.10.2019
6405 Clear 15 1012 80 0 2.9 95.705 18:18 07.10.2019
6406 Clear 15 1012 80 0 2.9 95.705 17:43 07.10.2019
6407 Clear 15 1012 80 0 2.9 95.705 17:43 07.10.2019
6408 Clear 15 1012 80 0 2.9 95.705 17:22 07.10.2019
6409 Clear 15 1012 80 0 2.9 95.705 16:58 07.10.2019
6410 Clear 15 1012 80 0 2.9 95.705 16:58 07.10.2019
6411 Clear 15 1012 80 0 2.9 95.705 16:39 07.10.2019
6412 Clear 15 1012 80 0 2.9 95.705 16:20 07.10.2019
6413 Clear 15 1012 80 0 2.9 95.705 15:45 07.10.2019
6414 Clear 20 1010 60 0 6.57 92.007 15:26 07.10.2019
6415 Clear 20 1010 60 0 6.57 92.007 15:26 07.10.2019
6416 Clear 20 1010 60 0 6.57 92.007 15:26 07.10.2019
6417 Clear 20 1010 60 0 6.57 92.007 14:56 07.10.2019
6418 Clear 20 1010 60 0 6.57 92.007 14:38 07.10.2019
6419 Clear 20 1010 60 0 6.57 92.007 14:20 07.10.2019
6420 Clear 20 1010 60 0 6.57 92.007 13:43 07.10.2019
6421 Clear 20 1010 59 0 6.33 92.973 13:20 07.10.2019
6422 Clear 20 1010 59 0 6.33 92.973 12:56 07.10.2019
6423 Clear 20 1010 59 0 6.33 92.973 12:38 07.10.2019
6424 Clear 20 1013 57 0 6.56 95.922 12:19 07.10.2019
6425 Clear 20 1013 57 0 6.56 95.922 11:57 07.10.2019
6426 Clear 20 1013 57 0 6.56 95.922 11:37 07.10.2019
6427 Clear 20 1013 57 0 6.56 95.922 11:18 07.10.2019
6428 Clear 20 1013 57 0 6.56 95.922 10:42 07.10.2019
6429 Clear 20 1013 57 0 6.56 95.922 10:20 07.10.2019
6430 Clear 20 1013 57 0 6.56 95.922 09:43 07.10.2019
6431 Clouds 16 1016 68 0 2.6 108.588 09:25 07.10.2019
6432 Clouds 16 1016 68 0 2.6 108.588 08:58 07.10.2019
6433 Clear 16 1016 68 0 2.07 110.016 08:39 07.10.2019
6434 Clear 16 1016 68 0 2.07 110.016 08:20 07.10.2019
6435 Clear 16 1016 68 0 2.07 110.016 07:43 07.10.2019
6436 Clear 16 1016 68 0 2.07 110.016 07:25 07.10.2019
6437 Clear 16 1016 68 0 2.07 110.016 06:54 07.10.2019
6438 Clear 16 1016 68 0 2.07 110.016 06:34 07.10.2019
6439 Clear 10 1017 83 0 2.04 36.515 05:49 07.10.2019
6440 Clouds 12 1024 81 10000 2.1 320 05:23 07.10.2019
6441 Clouds 12 1024 81 10000 2.1 320 04:42 07.10.2019
6442 Clear 10 1017 83 0 2.04 36.515 03:45 07.10.2019
6443 Clouds 14 1024 76 10000 1 300 03:23 07.10.2019
6444 Clouds 14 1024 76 10000 1 300 03:23 07.10.2019
6445 Clouds 14 1024 76 10000 1 300 02:23 07.10.2019
6446 Clouds 14 1024 76 10000 1 300 02:23 07.10.2019
6447 Clouds 14 1024 82 10000 1 50 01:52 07.10.2019
6448 Clouds 14 1024 82 10000 1 50 01:22 07.10.2019
6449 Clouds 12 1015 85 0 1.24 40.651 00:44 07.10.2019
6450 Clouds 15 1025 77 10000 2.1 80 00:22 07.10.2019
6451 Clouds 15 1025 77 10000 2.1 80 23:54 06.10.2019
6452 Clouds 15 1025 77 10000 2.1 80 23:36 06.10.2019
6453 Clouds 15 1025 77 10000 2.1 80 23:18 06.10.2019
6454 Clear 11 1016 81 0 2.51 40.156 22:41 06.10.2019
6455 Clouds 14 1026 82 10000 1 90 22:22 06.10.2019
6456 Clouds 14 1026 82 10000 1 90 21:58 06.10.2019
6457 Clouds 14 1026 82 10000 1 90 21:38 06.10.2019
6458 Clouds 14 1026 82 10000 1 90 21:19 06.10.2019
6459 Clouds 14 1025 82 10000 2.1 130 20:58 06.10.2019
6460 Clouds 14 1025 82 10000 2.1 130 20:40 06.10.2019
6461 Clouds 14 1025 82 10000 2.1 130 20:21 06.10.2019
6462 Clear 12 1016 81 0 2.5 35.015 19:58 06.10.2019
6463 Clear 12 1016 81 0 2.5 35.015 19:38 06.10.2019
6464 Clear 12 1016 81 0 2.5 35.015 19:38 06.10.2019
6465 Clear 12 1016 81 0 2.5 35.015 19:20 06.10.2019
6466 Clear 12 1016 81 0 2.5 35.015 18:57 06.10.2019
6467 Clear 12 1016 81 0 2.5 35.015 18:39 06.10.2019
6468 Clouds 18 1023 63 10000 8.2 90 18:20 06.10.2019
6469 Clouds 18 1023 63 10000 8.2 90 17:59 06.10.2019
6470 Clouds 18 1023 63 10000 8.2 90 17:39 06.10.2019
6471 Clouds 18 1023 63 10000 8.2 90 17:19 06.10.2019
6472 Clouds 20 1023 45 10000 9.3 80 16:43 06.10.2019
6473 Clouds 20 1023 45 10000 9.3 80 16:24 06.10.2019
6474 Clouds 20 1023 45 10000 9.3 80 16:24 06.10.2019
6475 Clear 15 1012 79 0 3.1 96.401 15:59 06.10.2019
6476 Clear 15 1012 79 0 3.1 96.401 15:41 06.10.2019
6477 Clouds 21 1024 40 10000 9.3 80 15:19 06.10.2019
6478 Clouds 21 1024 40 10000 9.3 80 14:43 06.10.2019
6479 Clouds 21 1024 40 10000 9.3 80 14:24 06.10.2019
6480 Clouds 22 1024 37 10000 9.3 90 13:58 06.10.2019
6481 Clouds 22 1024 37 10000 9.3 90 13:39 06.10.2019
6482 Clouds 22 1024 37 10000 9.3 90 13:21 06.10.2019
6483 Rain 20 1011 63 0 5.7 94.033 12:57 06.10.2019
6484 Rain 20 1011 63 0 5.7 94.033 12:39 06.10.2019
6485 Clouds 21 1026 40 10000 8.7 100 12:20 06.10.2019
6486 Clouds 21 1026 40 10000 8.7 100 12:20 06.10.2019
6487 Clouds 21 1026 40 10000 8.7 100 11:57 06.10.2019
6488 Clouds 21 1026 40 10000 8.7 100 11:57 06.10.2019
6489 Clouds 21 1026 40 10000 8.7 100 11:38 06.10.2019
6490 Clouds 21 1026 40 10000 8.7 100 11:20 06.10.2019
6491 Clouds 21 1026 37 10000 7.2 80 10:44 06.10.2019
6492 Clouds 21 1026 37 10000 7.2 80 10:44 06.10.2019
6493 Clouds 21 1026 37 10000 7.2 80 10:26 06.10.2019
6494 Clouds 20 1027 40 10000 7.2 70 09:58 06.10.2019
6495 Clouds 20 1027 40 10000 7.2 70 09:39 06.10.2019
6496 Clouds 20 1027 40 10000 7.2 70 09:18 06.10.2019
6497 Clouds 19 1026 42 10000 5.1 80 08:43 06.10.2019
6498 Clouds 17 1026 59 10000 2.1 100 08:21 06.10.2019
6499 Clouds 17 1026 59 10000 2.1 100 07:56 06.10.2019
6500 Clouds 17 1026 59 10000 2.1 100 07:33 06.10.2019
6501 Clouds 14 1026 87 10000 2.1 190 06:20 06.10.2019
6502 Clouds 14 1025 76 10000 1.5 270 05:34 06.10.2019
6503 Clouds 10 1017 85 0 1.08 36.405 03:42 06.10.2019
6504 Clouds 14 1025 87 10000 2.1 130 02:43 06.10.2019
6505 Clouds 14 1025 87 10000 2.1 130 02:21 06.10.2019
6506 Clouds 12 1016 87 0 0.4 23.646 01:44 06.10.2019
6507 Clouds 15 1026 77 10000 2.1 60 01:26 06.10.2019
6508 Clouds 15 1026 77 10000 2.1 60 00:52 06.10.2019
6509 Clouds 15 1026 77 10000 2.1 60 00:26 06.10.2019
6510 Clouds 12 1016 88 0 1.6 28.831 23:45 05.10.2019
6511 Clouds 15 1026 82 10000 3.1 60 23:22 05.10.2019
6512 Clouds 15 1026 82 10000 3.1 60 22:58 05.10.2019
6513 Clouds 15 1026 82 10000 3.1 60 22:40 05.10.2019
6514 Clouds 15 1026 82 10000 3.1 60 22:20 05.10.2019
6515 Clouds 12 1016 88 0 1.6 28.831 21:56 05.10.2019
6516 Clouds 12 1016 88 0 1.6 28.831 21:38 05.10.2019
6517 Rain 12 1016 89 0 2.13 35.462 21:18 05.10.2019
6518 Rain 12 1016 89 0 2.13 35.462 20:55 05.10.2019
6519 Rain 13 1015 88 0 1.69 28.857 20:37 05.10.2019
6520 Rain 13 1015 88 0 1.69 28.857 20:18 05.10.2019
6521 Rain 13 1015 88 0 1.69 28.857 19:37 05.10.2019
6522 Clouds 16 1024 87 10000 3.1 90 19:19 05.10.2019
6523 Clouds 16 1024 87 10000 3.1 90 19:19 05.10.2019
6524 Clouds 16 1024 87 10000 3.1 90 18:55 05.10.2019
6525 Rain 13 1015 88 0 1.69 28.857 18:37 05.10.2019
6526 Clouds 17 1023 82 10000 3.1 110 18:19 05.10.2019
6527 Clouds 17 1023 82 10000 3.1 110 17:43 05.10.2019
6528 Clouds 17 1023 82 10000 3.1 110 17:24 05.10.2019
6529 Clouds 17 1023 72 10000 2.1 40 16:57 05.10.2019
6530 Clouds 17 1023 72 10000 2.1 40 16:39 05.10.2019
6531 Clouds 17 1023 72 10000 2.1 40 16:20 05.10.2019
6532 Thunderstorm 15 1023 82 9000 7.2 80 15:56 05.10.2019
6533 Thunderstorm 15 1023 82 9000 7.2 80 15:38 05.10.2019
6534 Thunderstorm 15 1023 82 9000 7.2 80 15:19 05.10.2019
6535 Clouds 22 1023 49 10000 6.7 100 14:43 05.10.2019
6536 Clouds 22 1023 49 10000 6.7 100 14:24 05.10.2019
6537 Rain 19 1010 75 0 2.49 109.214 13:58 05.10.2019
6538 Rain 19 1010 75 0 2.49 109.214 13:40 05.10.2019
6539 Clouds 21 1024 49 10000 6.2 110 13:19 05.10.2019
6540 Rain 18 1010 76 0 2.53 114.581 12:43 05.10.2019
6541 Clouds 20 1026 49 10000 6.2 70 12:19 05.10.2019
6542 Clouds 20 1026 49 10000 6.2 70 11:43 05.10.2019
6543 Rain 19 1015 71 0 2.13 124.743 11:21 05.10.2019
6544 Rain 19 1015 71 0 2.13 124.743 10:58 05.10.2019
6545 Rain 19 1015 71 0 2.13 124.743 10:40 05.10.2019
6546 Clouds 19 1027 45 10000 5.1 90 10:21 05.10.2019
6547 Clouds 19 1027 45 10000 5.1 90 09:55 05.10.2019
6548 Clouds 19 1027 45 10000 5.1 90 09:37 05.10.2019
6549 Clouds 19 1027 45 10000 5.1 90 09:18 05.10.2019
6550 Clouds 18 1027 52 10000 5.1 70 08:39 05.10.2019
6551 Clouds 18 1027 52 10000 5.1 70 08:19 05.10.2019
6552 Clouds 16 1026 63 10000 2.1 100 07:52 05.10.2019
6553 Clouds 16 1026 63 10000 2.1 100 07:30 05.10.2019
6554 Clouds 14 1026 76 10000 1 100 06:56 05.10.2019
6555 Clouds 14 1026 76 10000 1 100 06:23 05.10.2019
6556 Clouds 10 1018 88 0 1.49 1.696 05:39 05.10.2019
6557 Clouds 14 1025 87 10000 2.1 100 03:32 05.10.2019
6558 Clouds 14 1025 87 10000 2.1 100 02:45 05.10.2019
6559 Clouds 15 1025 87 10000 1.5 130 01:27 05.10.2019
6560 Clouds 15 1026 87 10000 1.5 80 00:49 05.10.2019
6561 Clouds 15 1026 87 10000 1.5 80 00:28 05.10.2019
6562 Mist 14 1026 93 9000 2.1 80 23:58 04.10.2019
6563 Mist 14 1026 93 9000 2.1 80 23:40 04.10.2019
6564 Mist 14 1026 93 9000 2.1 80 23:21 04.10.2019
6565 Clouds 15 1026 87 10000 2.1 150 22:56 04.10.2019
6566 Clouds 15 1026 87 10000 2.1 150 22:37 04.10.2019
6567 Clouds 15 1026 87 10000 2.1 150 22:37 04.10.2019
6568 Clouds 15 1026 87 10000 2.1 150 22:19 04.10.2019
6569 Clouds 15 1026 87 10000 2.1 90 21:40 04.10.2019
6570 Clouds 15 1026 87 10000 2.1 90 21:22 04.10.2019
6571 Clouds 15 1026 87 10000 2.1 90 21:22 04.10.2019
6572 Clouds 15 1025 87 10000 4.1 70 20:59 04.10.2019
6573 Clouds 15 1025 87 10000 4.1 70 20:59 04.10.2019
6574 Clouds 15 1025 87 10000 4.1 70 20:41 04.10.2019
6575 Clouds 15 1025 87 10000 4.1 70 20:22 04.10.2019
6576 Clouds 16 1025 82 10000 4.6 90 19:56 04.10.2019
6577 Clouds 16 1025 82 10000 4.6 90 19:37 04.10.2019
6578 Clouds 16 1025 82 10000 4.6 90 19:19 04.10.2019
6579 Clouds 16 1025 82 10000 4.6 90 18:54 04.10.2019
6580 Clouds 16 1024 77 10000 5.1 80 18:36 04.10.2019
6581 Clouds 18 1024 72 10000 6.2 80 18:18 04.10.2019
6582 Clouds 18 1024 72 10000 6.2 80 17:39 04.10.2019
6583 Rain 15 1012 84 0 1.49 91.573 17:21 04.10.2019
6584 Rain 15 1012 84 0 1.49 91.573 16:57 04.10.2019
6585 Rain 15 1012 84 0 1.49 91.573 16:39 04.10.2019
6586 Clouds 21 1023 49 10000 7.2 80 16:18 04.10.2019
6587 Clouds 21 1023 49 10000 7.2 80 15:56 04.10.2019
6588 Clouds 21 1023 49 10000 7.2 80 15:37 04.10.2019
6589 Clouds 21 1023 49 10000 7.2 80 15:19 04.10.2019
6590 Clouds 21 1023 49 10000 7.2 80 15:19 04.10.2019
6591 Clouds 20 1023 52 10000 7.2 80 14:55 04.10.2019
6592 Clouds 20 1023 52 10000 7.2 80 14:36 04.10.2019
6593 Clouds 20 1023 52 10000 7.2 80 14:18 04.10.2019
6594 Clouds 20 1024 52 10000 6.7 40 13:43 04.10.2019
6595 Clouds 20 1024 52 10000 6.7 40 13:20 04.10.2019
6596 Clouds 19 1026 59 10000 8.2 70 12:47 04.10.2019
6597 Clouds 19 1026 59 10000 8.2 70 12:29 04.10.2019
6598 Clouds 18 1026 68 10000 7.2 80 11:59 04.10.2019
6599 Rain 19 1014 72 0 3.28 116.354 11:40 04.10.2019
6600 Rain 19 1014 72 0 3.28 116.354 11:40 04.10.2019
6601 Rain 19 1014 72 0 3.28 116.354 11:40 04.10.2019
6602 Rain 19 1014 72 0 3.28 116.354 11:20 04.10.2019
6603 Rain 19 1014 72 0 3.28 116.354 10:40 04.10.2019
6604 Rain 19 1014 72 0 3.28 116.354 10:21 04.10.2019
6605 Rain 19 1014 72 0 3.28 116.354 09:47 04.10.2019
6606 Rain 19 1014 73 0 3.46 119.021 09:28 04.10.2019
6607 Clear 16 1017 81 0 2 138.86 08:56 04.10.2019
6608 Clear 16 1017 81 0 2 138.86 08:38 04.10.2019
6609 Clear 16 1017 81 0 2 138.86 08:19 04.10.2019
6610 Clear 16 1017 81 0 2 138.86 07:44 04.10.2019
6611 Clouds 14 1027 87 10000 3.1 30 07:22 04.10.2019
6612 Clouds 14 1027 87 10000 3.1 30 06:44 04.10.2019
6613 Clouds 14 1027 87 10000 3.1 30 06:44 04.10.2019
6614 Clouds 14 1027 87 10000 3.1 30 06:25 04.10.2019
6615 Clouds 14 1027 87 10000 3.1 30 06:25 04.10.2019
6616 Clouds 14 1026 87 10000 5.1 30 05:42 04.10.2019
6617 Clouds 14 1026 87 10000 5.1 30 05:18 04.10.2019
6618 Clear 10 1017 89 0 1.1 58.259 03:48 04.10.2019
6619 Rain 14 1026 87 8000 4.1 70 02:53 04.10.2019
6620 Rain 14 1026 87 8000 4.1 70 02:53 04.10.2019
6621 Clouds 14 1026 87 10000 4.1 60 01:55 04.10.2019
6622 Clouds 14 1026 87 10000 4.1 60 01:30 04.10.2019
6623 Clouds 14 1026 87 10000 4.1 50 00:58 04.10.2019
6624 Clouds 14 1026 87 10000 4.1 50 23:58 03.10.2019
6625 Clouds 14 1026 87 10000 35 50 23:37 03.10.2019
6626 Clouds 14 1026 87 10000 35 50 23:18 03.10.2019
6627 Clouds 14 1026 87 10000 35 50 23:18 03.10.2019
6628 Clouds 14 1026 87 10000 35 50 23:18 03.10.2019
6629 Clouds 14 1026 87 10000 35 50 23:18 03.10.2019
6630 Clouds 14 1026 87 10000 35 50 22:56 03.10.2019
6631 Clear 12 1016 91 0 1.53 37.47 22:37 03.10.2019
6632 Clear 12 1016 91 0 1.53 37.47 22:19 03.10.2019
6633 Clear 12 1016 91 0 1.53 37.47 21:55 03.10.2019
6634 Clear 12 1016 91 0 1.53 37.47 21:36 03.10.2019
6635 Clouds 16 1026 82 10000 6.2 70 21:18 03.10.2019
6636 Clouds 16 1026 82 10000 6.2 70 20:55 03.10.2019
6637 Clouds 16 1026 82 10000 6.2 70 20:55 03.10.2019
6638 Clouds 16 1026 82 10000 6.2 70 20:37 03.10.2019
6639 Clouds 16 1026 82 10000 6.2 70 20:19 03.10.2019
6640 Clouds 16 1026 77 10000 5.1 90 19:41 03.10.2019
6641 Clouds 16 1026 77 10000 5.1 90 19:22 03.10.2019
6642 Rain 12 1015 91 0 2.26 59.935 18:58 03.10.2019
6643 Rain 12 1015 91 0 2.26 59.935 18:39 03.10.2019
6644 Rain 16 1012 85 0 2.44 116.638 18:19 03.10.2019
6645 Rain 16 1012 85 0 2.44 116.638 17:56 03.10.2019
6646 Clouds 21 1024 49 10000 5.1 90 17:37 03.10.2019
6647 Clouds 21 1024 49 10000 5.1 90 17:19 03.10.2019
6648 Clouds 21 1024 49 10000 5.1 90 16:41 03.10.2019
6649 Clouds 21 1024 49 10000 5.1 90 16:23 03.10.2019
6650 Rain 16 1012 85 0 2.44 116.638 15:55 03.10.2019
6651 Rain 16 1012 85 0 2.44 116.638 15:55 03.10.2019
6652 Rain 16 1012 85 0 2.44 116.638 15:37 03.10.2019
6653 Rain 19 1009 75 0 4.48 120.386 15:19 03.10.2019
6654 Rain 19 1009 75 0 4.48 120.386 14:45 03.10.2019
6655 Rain 19 1009 75 0 4.48 120.386 14:26 03.10.2019
6656 Rain 19 1009 75 0 4.48 120.386 13:57 03.10.2019
6657 Rain 19 1009 75 0 4.48 120.386 13:39 03.10.2019
6658 Clouds 20 1025 56 10000 4.6 120 13:19 03.10.2019
6659 Clouds 20 1025 56 10000 4.6 120 12:55 03.10.2019
6660 Clouds 20 1025 56 10000 4.6 120 12:36 03.10.2019
6661 Clouds 18 1027 63 10000 5.7 100 12:18 03.10.2019
6662 Clouds 18 1027 63 10000 5.7 100 11:41 03.10.2019
6663 Clouds 18 1027 72 10000 5.1 100 11:22 03.10.2019
6664 Clouds 18 1027 72 10000 5.1 100 10:58 03.10.2019
6665 Clouds 18 1027 72 10000 5.1 100 10:58 03.10.2019
6666 Clouds 18 1027 72 10000 5.1 100 10:40 03.10.2019
6667 Clouds 18 1027 72 10000 5.1 100 10:18 03.10.2019
6668 Clouds 18 1028 68 10000 6.2 110 09:57 03.10.2019
6669 Clouds 18 1028 68 10000 6.2 110 09:39 03.10.2019
6670 Clouds 18 1028 68 10000 6.2 110 09:20 03.10.2019
6671 Clouds 18 1027 68 10000 3.6 90 08:43 03.10.2019
6672 Clouds 18 1027 68 10000 3.6 90 08:25 03.10.2019
6673 Clouds 16 1027 72 10000 3.6 80 07:56 03.10.2019
6674 Clouds 16 1027 72 10000 3.6 80 07:37 03.10.2019
6675 Clouds 16 1027 72 10000 3.6 80 07:19 03.10.2019
6676 Clouds 15 1027 77 10000 2.6 100 06:45 03.10.2019
6677 Clouds 11 1018 88 0 1.1 55.357 06:18 03.10.2019
6678 Clouds 11 1018 88 0 1.1 55.357 05:38 03.10.2019
6679 Clouds 14 1025 82 10000 2.1 100 04:50 03.10.2019
6680 Clouds 14 1025 82 10000 2.1 100 04:25 03.10.2019
6681 Clouds 13 1025 87 10000 2.1 30 03:21 03.10.2019
6682 Clouds 14 1025 82 10000 2.1 40 02:33 03.10.2019
6683 Clouds 11 1016 90 0 0.7 23.414 01:50 03.10.2019
6684 Clouds 11 1016 92 0 0.83 21.304 01:31 03.10.2019
6685 Clouds 11 1016 92 0 0.83 21.304 00:45 03.10.2019
6686 Clouds 15 1026 77 10000 2.1 80 00:18 03.10.2019
6687 Clouds 15 1026 77 10000 2.1 80 23:43 02.10.2019
6688 Clouds 15 1026 77 10000 2.1 80 23:20 02.10.2019
6689 Rain 12 1017 92 0 1.07 32.307 22:43 02.10.2019
6690 Clouds 16 1026 77 10000 3.1 60 22:21 02.10.2019
6691 Clouds 16 1026 77 10000 3.1 60 21:56 02.10.2019
6692 Clouds 16 1026 77 10000 3.1 60 21:38 02.10.2019
6693 Clouds 16 1026 77 10000 3.1 60 21:19 02.10.2019
6694 Clouds 16 1026 77 10000 3.1 70 20:56 02.10.2019
6695 Clouds 16 1026 77 10000 3.1 70 20:37 02.10.2019
6696 Clouds 16 1026 77 10000 3.1 70 20:19 02.10.2019
6697 Clouds 16 1026 77 10000 3.1 70 19:47 02.10.2019
6698 Clouds 16 1026 77 10000 3.1 70 19:25 02.10.2019
6699 Clouds 16 1026 77 10000 3.1 70 18:59 02.10.2019
6700 Clouds 17 1025 72 10000 4.1 90 18:40 02.10.2019
6701 Clouds 17 1025 72 10000 4.1 90 18:22 02.10.2019
6702 Clouds 17 1025 72 10000 4.1 90 17:59 02.10.2019
6703 Clouds 20 1024 60 10000 5.1 100 17:40 02.10.2019
6704 Clouds 20 1024 60 10000 5.1 100 17:21 02.10.2019
6705 Clouds 20 1024 60 10000 5.1 100 16:57 02.10.2019
6706 Clouds 20 1024 60 10000 5.1 100 16:38 02.10.2019
6707 Clouds 20 1024 60 10000 5.1 100 16:20 02.10.2019
6708 Clouds 20 1024 60 10000 6.2 100 15:56 02.10.2019
6709 Clouds 20 1024 60 10000 6.2 100 15:37 02.10.2019
6710 Clouds 20 1024 60 10000 6.2 100 15:18 02.10.2019
6711 Clouds 21 1024 56 10000 4.6 120 14:43 02.10.2019
6712 Clouds 21 1024 56 10000 4.6 120 14:25 02.10.2019
6713 Clouds 20 1025 56 10000 2.78 108.65 13:57 02.10.2019
6714 Clouds 20 1025 56 10000 2.78 108.65 13:39 02.10.2019
6715 Clouds 20 1025 56 10000 2.73 69.348 13:20 02.10.2019
6716 Rain 18 1012 76 0 2.73 69.348 12:40 02.10.2019
6717 Clouds 20 1027 64 10000 1.72 111.522 12:22 02.10.2019
6718 Clouds 20 1027 64 10000 1.72 111.522 11:58 02.10.2019
6719 Clouds 20 1027 64 10000 1.72 111.522 11:40 02.10.2019
6720 Clouds 20 1027 64 10000 1.72 111.522 11:18 02.10.2019
6721 Clouds 18 1027 68 10000 1.72 111.522 10:38 02.10.2019
6722 Clouds 18 1027 68 10000 1.72 111.522 10:19 02.10.2019
6723 Clouds 17 1028